<?xml version='1.0' encoding='UTF-8'?><gpx version="1.1" creator="JPX - https://github.com/jenetics/jpx" xmlns="http://www.topografix.com/GPX/1/1"><trk><trkseg><trkpt lat="42.81277006722709" lon="10.42751880320759"><ele>22.0</ele><time>2026-04-23T14:18:38Z</time></trkpt><trkpt lat="42.812757138274364" lon="10.427434698764024"><ele>22.0</ele><time>2026-04-23T14:18:39Z</time></trkpt><trkpt lat="42.812738820327894" lon="10.427347153120417"><ele>22.0</ele><time>2026-04-23T14:18:40Z</time></trkpt><trkpt lat="42.81271165785596" lon="10.427253032928999"><ele>22.0</ele><time>2026-04-23T14:18:41Z</time></trkpt><trkpt lat="42.812672330551415" lon="10.427151163466082"><ele>22.0</ele><time>2026-04-23T14:18:42Z</time></trkpt><trkpt lat="42.81263147360049" lon="10.42705233242464"><ele>22.0</ele><time>2026-04-23T14:18:43Z</time></trkpt><trkpt lat="42.81259130767408" lon="10.426952586049987"><ele>24.5</ele><time>2026-04-23T14:18:44Z</time></trkpt><trkpt lat="42.8125284901209" lon="10.426780935812776"><ele>27.0</ele><time>2026-04-23T14:18:46Z</time></trkpt><trkpt lat="42.81249550560512" lon="10.42668305267429"><ele>29.5</ele><time>2026-04-23T14:18:47Z</time></trkpt><trkpt lat="42.81245794567483" lon="10.42659259755798"><ele>32.0</ele><time>2026-04-23T14:18:48Z</time></trkpt><trkpt lat="42.81242254544604" lon="10.42651084354201"><ele>34.5</ele><time>2026-04-23T14:18:49Z</time></trkpt><trkpt lat="42.81239336738694" lon="10.42642006620776"><ele>37.0</ele><time>2026-04-23T14:18:50Z</time></trkpt><trkpt lat="42.81238549339392" lon="10.426293740083652"><ele>37.0</ele><time>2026-04-23T14:18:51Z</time></trkpt><trkpt lat="42.81238644154244" lon="10.42617052478036"><ele>37.0</ele><time>2026-04-23T14:18:52Z</time></trkpt><trkpt lat="42.812393005174656" lon="10.426062155447152"><ele>37.0</ele><time>2026-04-23T14:18:53Z</time></trkpt><trkpt lat="42.812400109085445" lon="10.425969171035376"><ele>37.0</ele><time>2026-04-23T14:18:54Z</time></trkpt><trkpt lat="42.81240174168151" lon="10.425818988298955"><ele>37.0</ele><time>2026-04-23T14:18:56Z</time></trkpt><trkpt lat="42.812409605693176" lon="10.425691724597781"><ele>37.0</ele><time>2026-04-23T14:18:58Z</time></trkpt><trkpt lat="42.81242425479214" lon="10.425530071706778"><ele>38.66666666666667</ele><time>2026-04-23T14:19:41Z</time></trkpt><trkpt lat="42.81246415794703" lon="10.425434390955349"><ele>40.333333333333336</ele><time>2026-04-23T14:19:43Z</time></trkpt><trkpt lat="42.812521834031585" lon="10.425365514887508"><ele>42.0</ele><time>2026-04-23T14:19:45Z</time></trkpt><trkpt lat="42.81258087279781" lon="10.425300438789995"><ele>43.666666666666664</ele><time>2026-04-23T14:19:48Z</time></trkpt><trkpt lat="42.81260529031189" lon="10.425210805631268"><ele>45.33333333333333</ele><time>2026-04-23T14:19:50Z</time></trkpt><trkpt lat="42.81264737723208" lon="10.425140457981886"><ele>47.0</ele><time>2026-04-23T14:19:52Z</time></trkpt><trkpt lat="42.812590962435706" lon="10.425059260598767"><ele>47.0</ele><time>2026-04-23T14:19:55Z</time></trkpt><trkpt lat="42.812511845874994" lon="10.42508429449586"><ele>47.0</ele><time>2026-04-23T14:19:57Z</time></trkpt><trkpt lat="42.81243720907879" lon="10.425173181662785"><ele>47.0</ele><time>2026-04-23T14:22:17Z</time></trkpt><trkpt lat="42.812502925439674" lon="10.425165319790693"><ele>47.0</ele><time>2026-04-23T14:23:31Z</time></trkpt><trkpt lat="42.81254881346311" lon="10.425087394123194"><ele>47.0</ele><time>2026-04-23T14:23:46Z</time></trkpt><trkpt lat="42.812608327375244" lon="10.425142461514852"><ele>47.0</ele><time>2026-04-23T14:23:50Z</time></trkpt><trkpt lat="42.81258253503865" lon="10.425221274797995"><ele>47.0</ele><time>2026-04-23T14:23:53Z</time></trkpt><trkpt lat="42.81252405175026" lon="10.425298439155789"><ele>47.0</ele><time>2026-04-23T14:23:57Z</time></trkpt><trkpt lat="42.81246904657402" lon="10.425380355724647"><ele>47.0</ele><time>2026-04-23T14:24:01Z</time></trkpt><trkpt lat="42.81240437876717" lon="10.42548687622656"><ele>47.0</ele><time>2026-04-23T14:24:04Z</time></trkpt><trkpt lat="42.81237372155437" lon="10.425595479124214"><ele>47.0</ele><time>2026-04-23T14:24:06Z</time></trkpt><trkpt lat="42.812418343815295" lon="10.425531440957917"><ele>47.0</ele><time>2026-04-23T14:26:56Z</time></trkpt><trkpt lat="42.81246033039797" lon="10.425417371436337"><ele>47.0</ele><time>2026-04-23T14:26:58Z</time></trkpt><trkpt lat="42.8125308072335" lon="10.425405860026759"><ele>47.0</ele><time>2026-04-23T14:26:59Z</time></trkpt><trkpt lat="42.81256019043217" lon="10.425314891695008"><ele>47.0</ele><time>2026-04-23T14:27:00Z</time></trkpt><trkpt lat="42.81266073404263" lon="10.425337958035264"><ele>47.0</ele><time>2026-04-23T14:27:01Z</time></trkpt><trkpt lat="42.81273401855921" lon="10.425292859866946"><ele>47.0</ele><time>2026-04-23T14:27:02Z</time></trkpt><trkpt lat="42.812803491320814" lon="10.42524168260762"><ele>47.0</ele><time>2026-04-23T14:27:03Z</time></trkpt><trkpt lat="42.81286961005946" lon="10.425172398171343"><ele>44.33333333333333</ele><time>2026-04-23T14:27:04Z</time></trkpt><trkpt lat="42.81292850965766" lon="10.425082206775837"><ele>41.666666666666664</ele><time>2026-04-23T14:27:05Z</time></trkpt><trkpt lat="42.81297313801971" lon="10.42496210337805"><ele>39.0</ele><time>2026-04-23T14:27:06Z</time></trkpt><trkpt lat="42.81300909044929" lon="10.424843741911165"><ele>36.333333333333336</ele><time>2026-04-23T14:27:07Z</time></trkpt><trkpt lat="42.81304226768111" lon="10.424734516873123"><ele>33.66666666666667</ele><time>2026-04-23T14:27:08Z</time></trkpt><trkpt lat="42.81306863428948" lon="10.424647713531725"><ele>31.0</ele><time>2026-04-23T14:27:09Z</time></trkpt><trkpt lat="42.81310500939948" lon="10.424521111345443"><ele>31.000000000000004</ele><time>2026-04-23T14:27:11Z</time></trkpt><trkpt lat="42.81315639129033" lon="10.424379562860802"><ele>31.0</ele><time>2026-04-23T14:27:13Z</time></trkpt><trkpt lat="42.81318640365951" lon="10.424294268466069"><ele>31.0</ele><time>2026-04-23T14:27:14Z</time></trkpt><trkpt lat="42.81321548280139" lon="10.424199523076275"><ele>31.0</ele><time>2026-04-23T14:27:15Z</time></trkpt><trkpt lat="42.81325515143012" lon="10.424097115425475"><ele>31.000000000000004</ele><time>2026-04-23T14:27:16Z</time></trkpt><trkpt lat="42.81329584997369" lon="10.42398499841125"><ele>31.0</ele><time>2026-04-23T14:27:17Z</time></trkpt><trkpt lat="42.813347727597105" lon="10.423861133210025"><ele>31.8</ele><time>2026-04-23T14:27:18Z</time></trkpt><trkpt lat="42.813401168791806" lon="10.423753859248368"><ele>32.6</ele><time>2026-04-23T14:27:19Z</time></trkpt><trkpt lat="42.81345107751635" lon="10.423651534267606"><ele>33.4</ele><time>2026-04-23T14:27:20Z</time></trkpt><trkpt lat="42.81349323824146" lon="10.423537171338468"><ele>34.2</ele><time>2026-04-23T14:27:21Z</time></trkpt><trkpt lat="42.813526296787636" lon="10.423409610694465"><ele>35.0</ele><time>2026-04-23T14:27:22Z</time></trkpt><trkpt lat="42.81354527071521" lon="10.423267157092743"><ele>32.0</ele><time>2026-04-23T14:27:23Z</time></trkpt><trkpt lat="42.81355088850601" lon="10.423117280753203"><ele>29.0</ele><time>2026-04-23T14:27:24Z</time></trkpt><trkpt lat="42.813558179403806" lon="10.422970378005775"><ele>26.0</ele><time>2026-04-23T14:27:25Z</time></trkpt><trkpt lat="42.81356258357242" lon="10.422825623507372"><ele>23.0</ele><time>2026-04-23T14:27:26Z</time></trkpt><trkpt lat="42.8135645350365" lon="10.422681529407456"><ele>20.0</ele><time>2026-04-23T14:27:27Z</time></trkpt><trkpt lat="42.81356488973119" lon="10.422545270019558"><ele>20.0</ele><time>2026-04-23T14:27:28Z</time></trkpt><trkpt lat="42.813568237525054" lon="10.422413102378485"><ele>20.0</ele><time>2026-04-23T14:27:29Z</time></trkpt><trkpt lat="42.813571000917214" lon="10.422291036192851"><ele>20.0</ele><time>2026-04-23T14:27:30Z</time></trkpt><trkpt lat="42.81358673822556" lon="10.42218384367799"><ele>20.0</ele><time>2026-04-23T14:27:31Z</time></trkpt><trkpt lat="42.813605010033214" lon="10.422091276689834"><ele>20.0</ele><time>2026-04-23T14:27:32Z</time></trkpt><trkpt lat="42.81363790493239" lon="10.422012697630771"><ele>20.0</ele><time>2026-04-23T14:27:33Z</time></trkpt><trkpt lat="42.813691520459166" lon="10.421945957265793"><ele>20.833333333333336</ele><time>2026-04-23T14:27:34Z</time></trkpt><trkpt lat="42.81375695300495" lon="10.421897460192042"><ele>21.666666666666668</ele><time>2026-04-23T14:27:35Z</time></trkpt><trkpt lat="42.81383386320355" lon="10.42186642187228"><ele>22.5</ele><time>2026-04-23T14:27:36Z</time></trkpt><trkpt lat="42.81391320755431" lon="10.421844866791911"><ele>23.333333333333336</ele><time>2026-04-23T14:27:37Z</time></trkpt><trkpt lat="42.81399283332883" lon="10.42182707647307"><ele>24.166666666666668</ele><time>2026-04-23T14:27:38Z</time></trkpt><trkpt lat="42.814060328591715" lon="10.421811702268984"><ele>25.0</ele><time>2026-04-23T14:27:39Z</time></trkpt><trkpt lat="42.81415596887813" lon="10.421802114519956"><ele>25.0</ele><time>2026-04-23T14:27:41Z</time></trkpt><trkpt lat="42.81423040764602" lon="10.421799203641346"><ele>25.0</ele><time>2026-04-23T14:27:43Z</time></trkpt><trkpt lat="42.81427729918059" lon="10.421680284149033"><ele>25.0</ele><time>2026-04-23T14:27:51Z</time></trkpt><trkpt lat="42.8142607329883" lon="10.421547632471157"><ele>25.0</ele><time>2026-04-23T14:27:53Z</time></trkpt><trkpt lat="42.81421713514924" lon="10.421400187984663"><ele>25.0</ele><time>2026-04-23T14:27:55Z</time></trkpt><trkpt lat="42.814183071092515" lon="10.421292792961598"><ele>27.500000000000004</ele><time>2026-04-23T14:27:57Z</time></trkpt><trkpt lat="42.814148596428964" lon="10.42120550293733"><ele>30.0</ele><time>2026-04-23T14:28:00Z</time></trkpt><trkpt lat="42.81410120544688" lon="10.421146883751545"><ele>32.5</ele><time>2026-04-23T14:28:06Z</time></trkpt><trkpt lat="42.81404801624219" lon="10.421051429784267"><ele>35.0</ele><time>2026-04-23T14:28:08Z</time></trkpt><trkpt lat="42.813978445568075" lon="10.420922842386025"><ele>37.5</ele><time>2026-04-23T14:28:10Z</time></trkpt><trkpt lat="42.81393100311193" lon="10.42085030797731"><ele>40.0</ele><time>2026-04-23T14:28:11Z</time></trkpt><trkpt lat="42.81388367707708" lon="10.420775506757538"><ele>40.0</ele><time>2026-04-23T14:28:12Z</time></trkpt><trkpt lat="42.813831772934165" lon="10.420691220351273"><ele>40.0</ele><time>2026-04-23T14:28:13Z</time></trkpt><trkpt lat="42.81378554107314" lon="10.420595994413574"><ele>40.0</ele><time>2026-04-23T14:28:14Z</time></trkpt><trkpt lat="42.81373634952474" lon="10.420499119837341"><ele>40.0</ele><time>2026-04-23T14:28:15Z</time></trkpt><trkpt lat="42.81368847750198" lon="10.420394457885742"><ele>40.0</ele><time>2026-04-23T14:28:16Z</time></trkpt><trkpt lat="42.81364462263505" lon="10.420289170391527"><ele>40.0</ele><time>2026-04-23T14:28:17Z</time></trkpt><trkpt lat="42.81361058143433" lon="10.420172932832955"><ele>44.0</ele><time>2026-04-23T14:28:18Z</time></trkpt><trkpt lat="42.813590356322266" lon="10.420052154292408"><ele>48.0</ele><time>2026-04-23T14:28:19Z</time></trkpt><trkpt lat="42.813581560064556" lon="10.419922068375778"><ele>52.0</ele><time>2026-04-23T14:28:20Z</time></trkpt><trkpt lat="42.81357342707061" lon="10.41979168955233"><ele>56.0</ele><time>2026-04-23T14:28:21Z</time></trkpt><trkpt lat="42.813563201318495" lon="10.419657370645591"><ele>60.0</ele><time>2026-04-23T14:28:22Z</time></trkpt><trkpt lat="42.813556778594005" lon="10.419529631282293"><ele>60.2</ele><time>2026-04-23T14:28:23Z</time></trkpt><trkpt lat="42.81356744776885" lon="10.419391176581817"><ele>60.4</ele><time>2026-04-23T14:28:24Z</time></trkpt><trkpt lat="42.813581966234786" lon="10.419249210075975"><ele>60.599999999999994</ele><time>2026-04-23T14:28:25Z</time></trkpt><trkpt lat="42.81360767551505" lon="10.419118624877491"><ele>60.8</ele><time>2026-04-23T14:28:26Z</time></trkpt><trkpt lat="42.813633320281355" lon="10.418982158385392"><ele>61.0</ele><time>2026-04-23T14:28:27Z</time></trkpt><trkpt lat="42.81365492837183" lon="10.41884579053446"><ele>59.0</ele><time>2026-04-23T14:28:28Z</time></trkpt><trkpt lat="42.813660860732305" lon="10.418702997283102"><ele>56.99999999999999</ele><time>2026-04-23T14:28:29Z</time></trkpt><trkpt lat="42.813669032563446" lon="10.41856053942623"><ele>55.0</ele><time>2026-04-23T14:28:30Z</time></trkpt><trkpt lat="42.81369101246181" lon="10.41842428816623"><ele>53.0</ele><time>2026-04-23T14:28:31Z</time></trkpt><trkpt lat="42.81372521166567" lon="10.418286701145744"><ele>51.0</ele><time>2026-04-23T14:28:32Z</time></trkpt><trkpt lat="42.813771437863544" lon="10.4181555515006"><ele>51.0</ele><time>2026-04-23T14:28:33Z</time></trkpt><trkpt lat="42.813809383025166" lon="10.418009844894694"><ele>51.0</ele><time>2026-04-23T14:28:34Z</time></trkpt><trkpt lat="42.81383735277267" lon="10.417863565240582"><ele>51.0</ele><time>2026-04-23T14:28:35Z</time></trkpt><trkpt lat="42.813864251606944" lon="10.417723907276498"><ele>51.0</ele><time>2026-04-23T14:28:36Z</time></trkpt><trkpt lat="42.81388384838806" lon="10.417578991693537"><ele>51.0</ele><time>2026-04-23T14:28:37Z</time></trkpt><trkpt lat="42.813891542184" lon="10.417432271144419"><ele>48.0</ele><time>2026-04-23T14:28:38Z</time></trkpt><trkpt lat="42.813875925615875" lon="10.417284171938187"><ele>45.0</ele><time>2026-04-23T14:28:39Z</time></trkpt><trkpt lat="42.813843510691015" lon="10.417138848516212"><ele>42.0</ele><time>2026-04-23T14:28:40Z</time></trkpt><trkpt lat="42.813804825910644" lon="10.416998188762053"><ele>39.0</ele><time>2026-04-23T14:28:41Z</time></trkpt><trkpt lat="42.81376555411308" lon="10.416873086842596"><ele>36.0</ele><time>2026-04-23T14:28:42Z</time></trkpt><trkpt lat="42.813738947720736" lon="10.416778750322553"><ele>36.0</ele><time>2026-04-23T14:28:43Z</time></trkpt><trkpt lat="42.81369662640184" lon="10.416672230390205"><ele>36.0</ele><time>2026-04-23T14:28:45Z</time></trkpt><trkpt lat="42.81363045785239" lon="10.416571734183"><ele>36.0</ele><time>2026-04-23T14:29:48Z</time></trkpt><trkpt lat="42.81356489611869" lon="10.416470684465443"><ele>36.0</ele><time>2026-04-23T14:29:50Z</time></trkpt><trkpt lat="42.81348160150189" lon="10.416340727787437"><ele>36.0</ele><time>2026-04-23T14:29:52Z</time></trkpt><trkpt lat="42.81343580449112" lon="10.416262293994379"><ele>35.333333333333336</ele><time>2026-04-23T14:29:53Z</time></trkpt><trkpt lat="42.81338557830223" lon="10.41618118101481"><ele>34.666666666666664</ele><time>2026-04-23T14:29:54Z</time></trkpt><trkpt lat="42.813326845196016" lon="10.416105649003645"><ele>34.0</ele><time>2026-04-23T14:29:55Z</time></trkpt><trkpt lat="42.81326724623006" lon="10.416025758325734"><ele>33.33333333333333</ele><time>2026-04-23T14:29:56Z</time></trkpt><trkpt lat="42.813204487287585" lon="10.415947822257497"><ele>32.666666666666664</ele><time>2026-04-23T14:29:57Z</time></trkpt><trkpt lat="42.81313710971115" lon="10.415870848460044"><ele>32.0</ele><time>2026-04-23T14:29:58Z</time></trkpt><trkpt lat="42.81306614746124" lon="10.415784656979687"><ele>32.0</ele><time>2026-04-23T14:29:59Z</time></trkpt><trkpt lat="42.81300103196757" lon="10.415686970286137"><ele>32.0</ele><time>2026-04-23T14:30:00Z</time></trkpt><trkpt lat="42.81294597373123" lon="10.415594158572125"><ele>32.0</ele><time>2026-04-23T14:30:01Z</time></trkpt><trkpt lat="42.812895878703806" lon="10.415501248714092"><ele>32.0</ele><time>2026-04-23T14:30:02Z</time></trkpt><trkpt lat="42.81286713763763" lon="10.415387461883798"><ele>32.0</ele><time>2026-04-23T14:30:03Z</time></trkpt><trkpt lat="42.81285661692687" lon="10.415262000893533"><ele>32.6</ele><time>2026-04-23T14:30:04Z</time></trkpt><trkpt lat="42.812852824390696" lon="10.415130383942278"><ele>33.2</ele><time>2026-04-23T14:30:05Z</time></trkpt><trkpt lat="42.8128460921622" lon="10.414995969381378"><ele>33.8</ele><time>2026-04-23T14:30:06Z</time></trkpt><trkpt lat="42.812836859314324" lon="10.414863760495681"><ele>34.4</ele><time>2026-04-23T14:30:07Z</time></trkpt><trkpt lat="42.812829791202525" lon="10.41473282250346"><ele>35.0</ele><time>2026-04-23T14:30:08Z</time></trkpt><trkpt lat="42.8128138732883" lon="10.414619386588019"><ele>35.0</ele><time>2026-04-23T14:30:09Z</time></trkpt><trkpt lat="42.812781117486395" lon="10.414515558865748"><ele>35.0</ele><time>2026-04-23T14:30:10Z</time></trkpt><trkpt lat="42.812726744436134" lon="10.414419938508345"><ele>35.0</ele><time>2026-04-23T14:30:11Z</time></trkpt><trkpt lat="42.81265771513978" lon="10.414328498960886"><ele>35.0</ele><time>2026-04-23T14:30:12Z</time></trkpt><trkpt lat="42.81259164412916" lon="10.414230552397388"><ele>35.0</ele><time>2026-04-23T14:30:13Z</time></trkpt><trkpt lat="42.812528392443106" lon="10.41412842638593"><ele>35.0</ele><time>2026-04-23T14:30:14Z</time></trkpt><trkpt lat="42.81246893460366" lon="10.414021801369813"><ele>35.0</ele><time>2026-04-23T14:30:15Z</time></trkpt><trkpt lat="42.812425463894925" lon="10.41390296342329"><ele>35.0</ele><time>2026-04-23T14:30:16Z</time></trkpt><trkpt lat="42.812392604248544" lon="10.413777139335476"><ele>35.0</ele><time>2026-04-23T14:30:17Z</time></trkpt><trkpt lat="42.81236396045834" lon="10.413644450712338"><ele>35.0</ele><time>2026-04-23T14:30:18Z</time></trkpt><trkpt lat="42.81233495626902" lon="10.413513416429414"><ele>35.4</ele><time>2026-04-23T14:30:19Z</time></trkpt><trkpt lat="42.812306985259724" lon="10.413380733396833"><ele>35.8</ele><time>2026-04-23T14:30:20Z</time></trkpt><trkpt lat="42.812275915086786" lon="10.413251260244405"><ele>36.2</ele><time>2026-04-23T14:30:21Z</time></trkpt><trkpt lat="42.812249734092426" lon="10.413125122622189"><ele>36.6</ele><time>2026-04-23T14:30:22Z</time></trkpt><trkpt lat="42.81224297140516" lon="10.412997364964378"><ele>37.0</ele><time>2026-04-23T14:30:23Z</time></trkpt><trkpt lat="42.81225351568412" lon="10.41286767451095"><ele>37.8</ele><time>2026-04-23T14:30:24Z</time></trkpt><trkpt lat="42.812282568092954" lon="10.412737161662754"><ele>38.6</ele><time>2026-04-23T14:30:25Z</time></trkpt><trkpt lat="42.81232657120325" lon="10.412611024021066"><ele>39.4</ele><time>2026-04-23T14:30:26Z</time></trkpt><trkpt lat="42.81236713952692" lon="10.412487664610447"><ele>40.199999999999996</ele><time>2026-04-23T14:30:27Z</time></trkpt><trkpt lat="42.81240517095155" lon="10.41235783766299"><ele>41.0</ele><time>2026-04-23T14:30:28Z</time></trkpt><trkpt lat="42.81244321606485" lon="10.412224953756342"><ele>42.4</ele><time>2026-04-23T14:30:29Z</time></trkpt><trkpt lat="42.81247799928572" lon="10.412084373741294"><ele>43.8</ele><time>2026-04-23T14:30:30Z</time></trkpt><trkpt lat="42.81250684931555" lon="10.411939235018968"><ele>45.199999999999996</ele><time>2026-04-23T14:30:31Z</time></trkpt><trkpt lat="42.812528934954805" lon="10.411789225046496"><ele>46.599999999999994</ele><time>2026-04-23T14:30:32Z</time></trkpt><trkpt lat="42.81253990727965" lon="10.411637309356776"><ele>48.0</ele><time>2026-04-23T14:30:33Z</time></trkpt><trkpt lat="42.81254957104014" lon="10.411485047896386"><ele>48.0</ele><time>2026-04-23T14:30:34Z</time></trkpt><trkpt lat="42.81255618837241" lon="10.411332345329441"><ele>48.0</ele><time>2026-04-23T14:30:35Z</time></trkpt><trkpt lat="42.81256464354289" lon="10.4111812299784"><ele>48.0</ele><time>2026-04-23T14:30:36Z</time></trkpt><trkpt lat="42.81256962167977" lon="10.411031564922007"><ele>48.0</ele><time>2026-04-23T14:30:37Z</time></trkpt><trkpt lat="42.8125703461517" lon="10.410883066639272"><ele>48.0</ele><time>2026-04-23T14:30:38Z</time></trkpt><trkpt lat="42.8125710692814" lon="10.4107338509549"><ele>48.8</ele><time>2026-04-23T14:30:39Z</time></trkpt><trkpt lat="42.81257441489405" lon="10.410587090748097"><ele>49.599999999999994</ele><time>2026-04-23T14:30:40Z</time></trkpt><trkpt lat="42.81257745281021" lon="10.410441289285863"><ele>50.400000000000006</ele><time>2026-04-23T14:30:41Z</time></trkpt><trkpt lat="42.81258470319274" lon="10.410294936265103"><ele>51.2</ele><time>2026-04-23T14:30:42Z</time></trkpt><trkpt lat="42.81259526719507" lon="10.410150149231017"><ele>52.0</ele><time>2026-04-23T14:30:43Z</time></trkpt><trkpt lat="42.8126118028235" lon="10.410001818043787"><ele>52.0</ele><time>2026-04-23T14:30:44Z</time></trkpt><trkpt lat="42.81263254708153" lon="10.409852487126525"><ele>52.0</ele><time>2026-04-23T14:30:45Z</time></trkpt><trkpt lat="42.812661963961965" lon="10.40970720327677"><ele>52.0</ele><time>2026-04-23T14:30:46Z</time></trkpt><trkpt lat="42.81269218056623" lon="10.409557630836648"><ele>52.0</ele><time>2026-04-23T14:30:47Z</time></trkpt><trkpt lat="42.812724773722096" lon="10.40941063164955"><ele>52.0</ele><time>2026-04-23T14:30:48Z</time></trkpt><trkpt lat="42.81275643153875" lon="10.409268769802546"><ele>52.8</ele><time>2026-04-23T14:30:49Z</time></trkpt><trkpt lat="42.81277379005547" lon="10.409132880789567"><ele>53.6</ele><time>2026-04-23T14:30:50Z</time></trkpt><trkpt lat="42.812775660560455" lon="10.409013042805926"><ele>54.39999999999999</ele><time>2026-04-23T14:30:51Z</time></trkpt><trkpt lat="42.812759525586216" lon="10.408898291151042"><ele>55.199999999999996</ele><time>2026-04-23T14:30:52Z</time></trkpt><trkpt lat="42.81271767623915" lon="10.408793364318656"><ele>56.0</ele><time>2026-04-23T14:30:53Z</time></trkpt><trkpt lat="42.812656563838885" lon="10.408704191975904"><ele>57.4</ele><time>2026-04-23T14:30:54Z</time></trkpt><trkpt lat="42.81257451705706" lon="10.408641001305645"><ele>58.8</ele><time>2026-04-23T14:30:55Z</time></trkpt><trkpt lat="42.81248245222412" lon="10.408600350990273"><ele>60.199999999999996</ele><time>2026-04-23T14:30:56Z</time></trkpt><trkpt lat="42.812381311358095" lon="10.40859208344247"><ele>61.599999999999994</ele><time>2026-04-23T14:30:57Z</time></trkpt><trkpt lat="42.81227145611543" lon="10.408616601624429"><ele>63.0</ele><time>2026-04-23T14:30:58Z</time></trkpt><trkpt lat="42.81216620341391" lon="10.408675700812138"><ele>63.0</ele><time>2026-04-23T14:30:59Z</time></trkpt><trkpt lat="42.81206593956511" lon="10.408765737072297"><ele>63.0</ele><time>2026-04-23T14:31:00Z</time></trkpt><trkpt lat="42.811970356341945" lon="10.408867612694785"><ele>63.0</ele><time>2026-04-23T14:31:01Z</time></trkpt><trkpt lat="42.81187663422224" lon="10.408976728422603"><ele>63.0</ele><time>2026-04-23T14:31:02Z</time></trkpt><trkpt lat="42.811784559493205" lon="10.409075619605474"><ele>63.25</ele><time>2026-04-23T14:31:03Z</time></trkpt><trkpt lat="42.81169376109098" lon="10.409174844560138"><ele>63.5</ele><time>2026-04-23T14:31:04Z</time></trkpt><trkpt lat="42.81160036936604" lon="10.409259539415052"><ele>63.75</ele><time>2026-04-23T14:31:05Z</time></trkpt><trkpt lat="42.81149362926301" lon="10.409305626190166"><ele>64.0</ele><time>2026-04-23T14:31:06Z</time></trkpt><trkpt lat="42.81138126202035" lon="10.40932979020121"><ele>64.0</ele><time>2026-04-23T14:31:07Z</time></trkpt><trkpt lat="42.81126668419751" lon="10.409330319346669"><ele>64.0</ele><time>2026-04-23T14:31:08Z</time></trkpt><trkpt lat="42.811152341083016" lon="10.409335323164859"><ele>64.0</ele><time>2026-04-23T14:31:09Z</time></trkpt><trkpt lat="42.81104853793562" lon="10.40933282287381"><ele>64.0</ele><time>2026-04-23T14:31:10Z</time></trkpt><trkpt lat="42.81094467376298" lon="10.409309928178219"><ele>64.0</ele><time>2026-04-23T14:31:11Z</time></trkpt><trkpt lat="42.810839534978115" lon="10.409255122397296"><ele>66.0</ele><time>2026-04-23T14:31:12Z</time></trkpt><trkpt lat="42.81073841763719" lon="10.409181095132682"><ele>68.0</ele><time>2026-04-23T14:31:13Z</time></trkpt><trkpt lat="42.81063782360713" lon="10.409104926880843"><ele>70.0</ele><time>2026-04-23T14:31:14Z</time></trkpt><trkpt lat="42.81053002295306" lon="10.409048456678525"><ele>72.0</ele><time>2026-04-23T14:31:15Z</time></trkpt><trkpt lat="42.810417377670156" lon="10.409011265765217"><ele>72.0</ele><time>2026-04-23T14:31:16Z</time></trkpt><trkpt lat="42.81030342206407" lon="10.408988317018062"><ele>72.0</ele><time>2026-04-23T14:31:17Z</time></trkpt><trkpt lat="42.81019218002952" lon="10.408974029042373"><ele>72.0</ele><time>2026-04-23T14:31:18Z</time></trkpt><trkpt lat="42.81008418096567" lon="10.408965492608324"><ele>72.0</ele><time>2026-04-23T14:31:19Z</time></trkpt><trkpt lat="42.80999208488854" lon="10.40895318558258"><ele>72.0</ele><time>2026-04-23T14:31:20Z</time></trkpt><trkpt lat="42.80991765615963" lon="10.40893332239664"><ele>72.42857142857143</ele><time>2026-04-23T14:31:21Z</time></trkpt><trkpt lat="42.80985774105399" lon="10.408893172017091"><ele>72.85714285714286</ele><time>2026-04-23T14:31:22Z</time></trkpt><trkpt lat="42.809813173380086" lon="10.408827369097102"><ele>73.28571428571428</ele><time>2026-04-23T14:31:23Z</time></trkpt><trkpt lat="42.80978974402784" lon="10.408740546416245"><ele>73.71428571428572</ele><time>2026-04-23T14:31:24Z</time></trkpt><trkpt lat="42.80979787805806" lon="10.408652954832355"><ele>74.14285714285714</ele><time>2026-04-23T14:31:25Z</time></trkpt><trkpt lat="42.80982984928103" lon="10.40857764579034"><ele>74.57142857142857</ele><time>2026-04-23T14:31:26Z</time></trkpt><trkpt lat="42.80988482904271" lon="10.40851310222309"><ele>75.0</ele><time>2026-04-23T14:31:27Z</time></trkpt><trkpt lat="42.80995348353568" lon="10.408468111446926"><ele>77.0</ele><time>2026-04-23T14:31:28Z</time></trkpt><trkpt lat="42.81003222404579" lon="10.408428899228378"><ele>79.0</ele><time>2026-04-23T14:31:29Z</time></trkpt><trkpt lat="42.81011642039568" lon="10.408385644385982"><ele>81.0</ele><time>2026-04-23T14:31:30Z</time></trkpt><trkpt lat="42.81020390306611" lon="10.408342238687297"><ele>83.0</ele><time>2026-04-23T14:31:31Z</time></trkpt><trkpt lat="42.81029415789602" lon="10.408294565048541"><ele>85.0</ele><time>2026-04-23T14:31:32Z</time></trkpt><trkpt lat="42.81038416460656" lon="10.408250730375377"><ele>85.0</ele><time>2026-04-23T14:31:33Z</time></trkpt><trkpt lat="42.81048028433247" lon="10.408207936298352"><ele>85.0</ele><time>2026-04-23T14:31:34Z</time></trkpt><trkpt lat="42.810574536887195" lon="10.40816553287532"><ele>85.0</ele><time>2026-04-23T14:31:35Z</time></trkpt><trkpt lat="42.81066388465432" lon="10.408112831258544"><ele>85.0</ele><time>2026-04-23T14:31:36Z</time></trkpt><trkpt lat="42.81074808643325" lon="10.408044285843236"><ele>85.0</ele><time>2026-04-23T14:31:37Z</time></trkpt><trkpt lat="42.81082666008417" lon="10.407955305904899"><ele>83.8</ele><time>2026-04-23T14:31:38Z</time></trkpt><trkpt lat="42.81088954924186" lon="10.407842120074939"><ele>82.6</ele><time>2026-04-23T14:31:39Z</time></trkpt><trkpt lat="42.81094183221502" lon="10.40771686263503"><ele>81.4</ele><time>2026-04-23T14:31:40Z</time></trkpt><trkpt lat="42.810988671593805" lon="10.407586702840591"><ele>80.2</ele><time>2026-04-23T14:31:41Z</time></trkpt><trkpt lat="42.81103789368733" lon="10.4074554364997"><ele>79.0</ele><time>2026-04-23T14:31:42Z</time></trkpt><trkpt lat="42.811088249489686" lon="10.407319720801809"><ele>79.0</ele><time>2026-04-23T14:31:43Z</time></trkpt><trkpt lat="42.811136316999786" lon="10.407180619236378"><ele>79.0</ele><time>2026-04-23T14:31:44Z</time></trkpt><trkpt lat="42.81118627372959" lon="10.407045729880803"><ele>79.0</ele><time>2026-04-23T14:31:45Z</time></trkpt><trkpt lat="42.811223721499225" lon="10.406909631285224"><ele>79.0</ele><time>2026-04-23T14:31:46Z</time></trkpt><trkpt lat="42.81124217382572" lon="10.406768742503868"><ele>79.0</ele><time>2026-04-23T14:31:47Z</time></trkpt><trkpt lat="42.811234824614964" lon="10.406627454953679"><ele>80.6</ele><time>2026-04-23T14:31:48Z</time></trkpt><trkpt lat="42.81120974573523" lon="10.406489597565832"><ele>82.2</ele><time>2026-04-23T14:31:49Z</time></trkpt><trkpt lat="42.811163269060565" lon="10.406352913640248"><ele>83.8</ele><time>2026-04-23T14:31:50Z</time></trkpt><trkpt lat="42.81110971285614" lon="10.40622419509077"><ele>85.39999999999999</ele><time>2026-04-23T14:31:51Z</time></trkpt><trkpt lat="42.811061802488595" lon="10.406101506078368"><ele>87.0</ele><time>2026-04-23T14:31:52Z</time></trkpt><trkpt lat="42.811038045424276" lon="10.405964810863763"><ele>87.6</ele><time>2026-04-23T14:31:53Z</time></trkpt><trkpt lat="42.811045841816856" lon="10.40582396322173"><ele>88.19999999999999</ele><time>2026-04-23T14:31:54Z</time></trkpt><trkpt lat="42.81108244877229" lon="10.405690580701993"><ele>88.8</ele><time>2026-04-23T14:31:55Z</time></trkpt><trkpt lat="42.81113234425201" lon="10.405566225603623"><ele>89.4</ele><time>2026-04-23T14:31:56Z</time></trkpt><trkpt lat="42.81116935735916" lon="10.405429798678469"><ele>90.0</ele><time>2026-04-23T14:31:57Z</time></trkpt><trkpt lat="42.81118933065093" lon="10.405281986634623"><ele>90.8</ele><time>2026-04-23T14:31:58Z</time></trkpt><trkpt lat="42.811195028086615" lon="10.405136571045258"><ele>91.6</ele><time>2026-04-23T14:31:59Z</time></trkpt><trkpt lat="42.81119289717589" lon="10.404992238639577"><ele>92.4</ele><time>2026-04-23T14:32:00Z</time></trkpt><trkpt lat="42.811177828169455" lon="10.404853394195131"><ele>93.2</ele><time>2026-04-23T14:32:01Z</time></trkpt><trkpt lat="42.811142016133005" lon="10.404720921971752"><ele>94.0</ele><time>2026-04-23T14:32:02Z</time></trkpt><trkpt lat="42.811077410962426" lon="10.404611370585647"><ele>94.80000000000001</ele><time>2026-04-23T14:32:03Z</time></trkpt><trkpt lat="42.81099806990112" lon="10.404514939754584"><ele>95.60000000000001</ele><time>2026-04-23T14:32:04Z</time></trkpt><trkpt lat="42.81090451779754" lon="10.40443657236499"><ele>96.4</ele><time>2026-04-23T14:32:05Z</time></trkpt><trkpt lat="42.81081091837089" lon="10.40435337119631"><ele>97.2</ele><time>2026-04-23T14:32:06Z</time></trkpt><trkpt lat="42.810720230271734" lon="10.404264438578629"><ele>98.0</ele><time>2026-04-23T14:32:07Z</time></trkpt><trkpt lat="42.81063001851646" lon="10.404170328292137"><ele>102.75</ele><time>2026-04-23T14:32:08Z</time></trkpt><trkpt lat="42.81054513594908" lon="10.404063287309798"><ele>107.5</ele><time>2026-04-23T14:32:09Z</time></trkpt><trkpt lat="42.81046403592593" lon="10.40394829720132"><ele>112.25</ele><time>2026-04-23T14:32:10Z</time></trkpt><trkpt lat="42.81038604180155" lon="10.403827211225789"><ele>117.0</ele><time>2026-04-23T14:32:11Z</time></trkpt><trkpt lat="42.810319745441376" lon="10.403707502219609"><ele>118.0</ele><time>2026-04-23T14:32:12Z</time></trkpt><trkpt lat="42.81026003310289" lon="10.403590853885907"><ele>119.0</ele><time>2026-04-23T14:32:13Z</time></trkpt><trkpt lat="42.81021435167688" lon="10.403472644646756"><ele>120.0</ele><time>2026-04-23T14:32:14Z</time></trkpt><trkpt lat="42.81017754298701" lon="10.403367834256597"><ele>121.0</ele><time>2026-04-23T14:32:15Z</time></trkpt><trkpt lat="42.81014767804018" lon="10.40326733312211"><ele>122.0</ele><time>2026-04-23T14:32:16Z</time></trkpt><trkpt lat="42.81012652499384" lon="10.403183075413986"><ele>123.0</ele><time>2026-04-23T14:32:17Z</time></trkpt><trkpt lat="42.8101070125679" lon="10.403045812210715"><ele>124.5</ele><time>2026-04-23T14:32:19Z</time></trkpt><trkpt lat="42.81005573039512" lon="10.40290755736368"><ele>126.0</ele><time>2026-04-23T14:32:21Z</time></trkpt><trkpt lat="42.81000948355775" lon="10.402837518129955"><ele>127.5</ele><time>2026-04-23T14:32:22Z</time></trkpt><trkpt lat="42.809951250175416" lon="10.402760674110072"><ele>129.0</ele><time>2026-04-23T14:32:23Z</time></trkpt><trkpt lat="42.80989504893823" lon="10.402673251701984"><ele>130.5</ele><time>2026-04-23T14:32:24Z</time></trkpt><trkpt lat="42.80985038691456" lon="10.402577280326959"><ele>132.0</ele><time>2026-04-23T14:32:25Z</time></trkpt><trkpt lat="42.809815473882345" lon="10.402461873417156"><ele>132.0</ele><time>2026-04-23T14:32:26Z</time></trkpt><trkpt lat="42.809788237974665" lon="10.40233710830471"><ele>132.0</ele><time>2026-04-23T14:32:27Z</time></trkpt><trkpt lat="42.809762110370315" lon="10.402209292193618"><ele>132.0</ele><time>2026-04-23T14:32:28Z</time></trkpt><trkpt lat="42.809739372615624" lon="10.402100539551169"><ele>132.0</ele><time>2026-04-23T14:32:29Z</time></trkpt><trkpt lat="42.80972045504002" lon="10.402003852073918"><ele>132.0</ele><time>2026-04-23T14:32:30Z</time></trkpt><trkpt lat="42.80969741308743" lon="10.401880230995586"><ele>132.0</ele><time>2026-04-23T14:32:32Z</time></trkpt><trkpt lat="42.80967994018951" lon="10.40179024381985"><ele>131.66666666666666</ele><time>2026-04-23T14:32:35Z</time></trkpt><trkpt lat="42.809613941743834" lon="10.401732242801899"><ele>131.33333333333334</ele><time>2026-04-23T14:34:10Z</time></trkpt><trkpt lat="42.809530706153076" lon="10.4016798374148"><ele>131.0</ele><time>2026-04-23T14:34:15Z</time></trkpt><trkpt lat="42.80942488386457" lon="10.401609809699908"><ele>130.66666666666669</ele><time>2026-04-23T14:34:17Z</time></trkpt><trkpt lat="42.80935909486658" lon="10.401571385798814"><ele>130.33333333333334</ele><time>2026-04-23T14:34:18Z</time></trkpt><trkpt lat="42.80928109869115" lon="10.401530319783589"><ele>130.0</ele><time>2026-04-23T14:34:19Z</time></trkpt><trkpt lat="42.80919738116603" lon="10.401482450694827"><ele>130.0</ele><time>2026-04-23T14:34:20Z</time></trkpt><trkpt lat="42.80911378881694" lon="10.401430469457921"><ele>130.0</ele><time>2026-04-23T14:34:21Z</time></trkpt><trkpt lat="42.80902563593772" lon="10.401374791129482"><ele>130.0</ele><time>2026-04-23T14:34:22Z</time></trkpt><trkpt lat="42.80893178862512" lon="10.401316746076356"><ele>130.0</ele><time>2026-04-23T14:34:23Z</time></trkpt><trkpt lat="42.808833452181055" lon="10.401258120181499"><ele>130.0</ele><time>2026-04-23T14:34:24Z</time></trkpt><trkpt lat="42.80874352977814" lon="10.401203943570987"><ele>131.4</ele><time>2026-04-23T14:34:25Z</time></trkpt><trkpt lat="42.8086534313107" lon="10.401153946371949"><ele>132.8</ele><time>2026-04-23T14:34:26Z</time></trkpt><trkpt lat="42.80856215082736" lon="10.401097363584306"><ele>134.2</ele><time>2026-04-23T14:34:27Z</time></trkpt><trkpt lat="42.80846706908202" lon="10.40104490784169"><ele>135.6</ele><time>2026-04-23T14:34:28Z</time></trkpt><trkpt lat="42.80837070392306" lon="10.400985976389961"><ele>137.0</ele><time>2026-04-23T14:34:29Z</time></trkpt><trkpt lat="42.8082693819663" lon="10.400923752914633"><ele>137.0</ele><time>2026-04-23T14:34:30Z</time></trkpt><trkpt lat="42.808165554683" lon="10.40086252828566"><ele>137.0</ele><time>2026-04-23T14:34:31Z</time></trkpt><trkpt lat="42.80807035430038" lon="10.400804358747216"><ele>137.0</ele><time>2026-04-23T14:34:32Z</time></trkpt><trkpt lat="42.80798121604613" lon="10.400750905033009"><ele>137.0</ele><time>2026-04-23T14:34:33Z</time></trkpt><trkpt lat="42.80789546922276" lon="10.400700292625295"><ele>137.0</ele><time>2026-04-23T14:34:34Z</time></trkpt><trkpt lat="42.807814282569765" lon="10.400652177807112"><ele>137.0</ele><time>2026-04-23T14:34:35Z</time></trkpt><trkpt lat="42.80774133484505" lon="10.400606647048942"><ele>137.0</ele><time>2026-04-23T14:34:36Z</time></trkpt><trkpt lat="42.80766744688025" lon="10.400582800573908"><ele>137.0</ele><time>2026-04-23T14:34:37Z</time></trkpt><trkpt lat="42.80759631103224" lon="10.400587172852108"><ele>137.0</ele><time>2026-04-23T14:34:38Z</time></trkpt><trkpt lat="42.80752009389641" lon="10.400629225666924"><ele>137.0</ele><time>2026-04-23T14:34:39Z</time></trkpt><trkpt lat="42.807446118782266" lon="10.400701546276736"><ele>137.0</ele><time>2026-04-23T14:34:40Z</time></trkpt><trkpt lat="42.80738135823466" lon="10.400801717504192"><ele>136.75</ele><time>2026-04-23T14:34:41Z</time></trkpt><trkpt lat="42.80732007009461" lon="10.400922645682789"><ele>136.5</ele><time>2026-04-23T14:34:42Z</time></trkpt><trkpt lat="42.807257279125025" lon="10.401050458110067"><ele>136.25</ele><time>2026-04-23T14:34:43Z</time></trkpt><trkpt lat="42.80719237085976" lon="10.401186535073059"><ele>136.0</ele><time>2026-04-23T14:34:44Z</time></trkpt><trkpt lat="42.807130687816986" lon="10.401325373377814"><ele>132.5</ele><time>2026-04-23T14:34:45Z</time></trkpt><trkpt lat="42.807066107786234" lon="10.401464387373723"><ele>129.0</ele><time>2026-04-23T14:34:46Z</time></trkpt><trkpt lat="42.807000554642954" lon="10.401603525406161"><ele>125.5</ele><time>2026-04-23T14:34:47Z</time></trkpt><trkpt lat="42.80693915423076" lon="10.401739203173129"><ele>122.0</ele><time>2026-04-23T14:34:48Z</time></trkpt><trkpt lat="42.80688229951279" lon="10.401859359203089"><ele>122.0</ele><time>2026-04-23T14:34:49Z</time></trkpt><trkpt lat="42.80682789654829" lon="10.401973029553014"><ele>121.99999999999999</ele><time>2026-04-23T14:34:50Z</time></trkpt><trkpt lat="42.80676771831429" lon="10.402093798550997"><ele>121.99999999999999</ele><time>2026-04-23T14:34:51Z</time></trkpt><trkpt lat="42.806718437936134" lon="10.402232022602105"><ele>122.0</ele><time>2026-04-23T14:34:52Z</time></trkpt><trkpt lat="42.806675151107626" lon="10.402379128835173"><ele>122.0</ele><time>2026-04-23T14:34:53Z</time></trkpt><trkpt lat="42.80663386500246" lon="10.402515093281288"><ele>121.0</ele><time>2026-04-23T14:34:54Z</time></trkpt><trkpt lat="42.80658174344762" lon="10.402648268318229"><ele>120.0</ele><time>2026-04-23T14:34:55Z</time></trkpt><trkpt lat="42.8065261274333" lon="10.402785087710447"><ele>119.0</ele><time>2026-04-23T14:34:56Z</time></trkpt><trkpt lat="42.8064648238366" lon="10.402922946065338"><ele>118.0</ele><time>2026-04-23T14:34:57Z</time></trkpt><trkpt lat="42.806402316181845" lon="10.40305108968533"><ele>118.0</ele><time>2026-04-23T14:34:58Z</time></trkpt><trkpt lat="42.806340837949115" lon="10.403170187949783"><ele>118.00000000000001</ele><time>2026-04-23T14:34:59Z</time></trkpt><trkpt lat="42.80626644684268" lon="10.403279328865356"><ele>118.00000000000001</ele><time>2026-04-23T14:35:00Z</time></trkpt><trkpt lat="42.80618156561857" lon="10.403381617298997"><ele>118.0</ele><time>2026-04-23T14:35:01Z</time></trkpt><trkpt lat="42.806089559407965" lon="10.403478894351665"><ele>118.0</ele><time>2026-04-23T14:35:02Z</time></trkpt><trkpt lat="42.805992313511894" lon="10.403576582262268"><ele>119.25</ele><time>2026-04-23T14:35:03Z</time></trkpt><trkpt lat="42.80589756895649" lon="10.403680403965037"><ele>120.5</ele><time>2026-04-23T14:35:04Z</time></trkpt><trkpt lat="42.805801688057535" lon="10.403771099467495"><ele>121.75</ele><time>2026-04-23T14:35:05Z</time></trkpt><trkpt lat="42.80570932689827" lon="10.403865310677"><ele>123.0</ele><time>2026-04-23T14:35:06Z</time></trkpt><trkpt lat="42.80561857671464" lon="10.403954912758081"><ele>123.0</ele><time>2026-04-23T14:35:07Z</time></trkpt><trkpt lat="42.80552964809143" lon="10.404037951468736"><ele>123.0</ele><time>2026-04-23T14:35:08Z</time></trkpt><trkpt lat="42.8054322417852" lon="10.404101821174986"><ele>123.0</ele><time>2026-04-23T14:35:09Z</time></trkpt><trkpt lat="42.80531519142124" lon="10.404137352009439"><ele>123.0</ele><time>2026-04-23T14:35:10Z</time></trkpt><trkpt lat="42.80519012987607" lon="10.404148167767993"><ele>125.25</ele><time>2026-04-23T14:35:11Z</time></trkpt><trkpt lat="42.80506696612945" lon="10.404149022732513"><ele>127.5</ele><time>2026-04-23T14:35:12Z</time></trkpt><trkpt lat="42.80494351498147" lon="10.404143410826864"><ele>129.75</ele><time>2026-04-23T14:35:13Z</time></trkpt><trkpt lat="42.80481582251751" lon="10.404129445563026"><ele>132.0</ele><time>2026-04-23T14:35:14Z</time></trkpt><trkpt lat="42.80469620595362" lon="10.404109690113572"><ele>132.0</ele><time>2026-04-23T14:35:15Z</time></trkpt><trkpt lat="42.804595633676016" lon="10.40408025597875"><ele>132.0</ele><time>2026-04-23T14:35:16Z</time></trkpt><trkpt lat="42.80450583562355" lon="10.404033858529512"><ele>132.0</ele><time>2026-04-23T14:35:17Z</time></trkpt><trkpt lat="42.80442435289466" lon="10.403959591669354"><ele>132.0</ele><time>2026-04-23T14:35:18Z</time></trkpt><trkpt lat="42.80434813535888" lon="10.40385753878638"><ele>132.0</ele><time>2026-04-23T14:35:19Z</time></trkpt><trkpt lat="42.80428145876074" lon="10.403741316424385"><ele>134.25</ele><time>2026-04-23T14:35:20Z</time></trkpt><trkpt lat="42.80421960780757" lon="10.403613340968985"><ele>136.5</ele><time>2026-04-23T14:35:21Z</time></trkpt><trkpt lat="42.80415197544337" lon="10.403484071477196"><ele>138.75</ele><time>2026-04-23T14:35:22Z</time></trkpt><trkpt lat="42.8040845029126" lon="10.40336191041273"><ele>141.0</ele><time>2026-04-23T14:35:23Z</time></trkpt><trkpt lat="42.804012724046345" lon="10.403235024746236"><ele>141.0</ele><time>2026-04-23T14:35:24Z</time></trkpt><trkpt lat="42.80394118323073" lon="10.40310100654337"><ele>141.0</ele><time>2026-04-23T14:35:25Z</time></trkpt><trkpt lat="42.80387558353837" lon="10.402967934542223"><ele>141.0</ele><time>2026-04-23T14:35:26Z</time></trkpt><trkpt lat="42.80380937608007" lon="10.402833977447084"><ele>141.0</ele><time>2026-04-23T14:35:27Z</time></trkpt><trkpt lat="42.8037384926551" lon="10.402698970162536"><ele>142.2</ele><time>2026-04-23T14:35:28Z</time></trkpt><trkpt lat="42.80366391292472" lon="10.402567385120976"><ele>143.39999999999998</ele><time>2026-04-23T14:35:29Z</time></trkpt><trkpt lat="42.8035949457025" lon="10.402435777299505"><ele>144.6</ele><time>2026-04-23T14:35:30Z</time></trkpt><trkpt lat="42.80353114249478" lon="10.402318282062234"><ele>145.79999999999998</ele><time>2026-04-23T14:35:31Z</time></trkpt><trkpt lat="42.80347546976581" lon="10.402215867168286"><ele>147.0</ele><time>2026-04-23T14:35:32Z</time></trkpt><trkpt lat="42.80342065347686" lon="10.40212713174448"><ele>147.0</ele><time>2026-04-23T14:35:33Z</time></trkpt><trkpt lat="42.803355858427494" lon="10.402051438157326"><ele>147.0</ele><time>2026-04-23T14:35:34Z</time></trkpt><trkpt lat="42.803279159807865" lon="10.401997754838566"><ele>147.0</ele><time>2026-04-23T14:35:35Z</time></trkpt><trkpt lat="42.80319250040036" lon="10.401975989691234"><ele>147.0</ele><time>2026-04-23T14:35:36Z</time></trkpt><trkpt lat="42.80310308325611" lon="10.401987005367674"><ele>147.0</ele><time>2026-04-23T14:35:37Z</time></trkpt><trkpt lat="42.803017170215185" lon="10.402025277216778"><ele>147.0</ele><time>2026-04-23T14:35:38Z</time></trkpt><trkpt lat="42.80294556003929" lon="10.402110147751127"><ele>143.5</ele><time>2026-04-23T14:35:39Z</time></trkpt><trkpt lat="42.80288759556163" lon="10.402220146076875"><ele>140.0</ele><time>2026-04-23T14:35:40Z</time></trkpt><trkpt lat="42.802849003414195" lon="10.40236255096709"><ele>136.5</ele><time>2026-04-23T14:35:41Z</time></trkpt><trkpt lat="42.80282787928726" lon="10.402527206629983"><ele>133.0</ele><time>2026-04-23T14:35:42Z</time></trkpt><trkpt lat="42.80281533183177" lon="10.402690616831709"><ele>133.0</ele><time>2026-04-23T14:35:43Z</time></trkpt><trkpt lat="42.80279363176702" lon="10.402855472452083"><ele>133.0</ele><time>2026-04-23T14:35:44Z</time></trkpt><trkpt lat="42.80276073714845" lon="10.403025152221815"><ele>133.0</ele><time>2026-04-23T14:35:45Z</time></trkpt><trkpt lat="42.802719604518856" lon="10.4032022125078"><ele>133.0</ele><time>2026-04-23T14:35:46Z</time></trkpt><trkpt lat="42.8026748310962" lon="10.403385634398342"><ele>132.25</ele><time>2026-04-23T14:35:47Z</time></trkpt><trkpt lat="42.80262169859641" lon="10.403569865972058"><ele>131.5</ele><time>2026-04-23T14:35:48Z</time></trkpt><trkpt lat="42.80257216147144" lon="10.403763392808386"><ele>130.75</ele><time>2026-04-23T14:35:49Z</time></trkpt><trkpt lat="42.8025199035929" lon="10.403938227660051"><ele>130.0</ele><time>2026-04-23T14:35:50Z</time></trkpt><trkpt lat="42.80246843534978" lon="10.4041138590817"><ele>130.0</ele><time>2026-04-23T14:35:51Z</time></trkpt><trkpt lat="42.80241296407939" lon="10.40428947514917"><ele>130.0</ele><time>2026-04-23T14:35:52Z</time></trkpt><trkpt lat="42.802338388933066" lon="10.404453964569537"><ele>130.0</ele><time>2026-04-23T14:35:53Z</time></trkpt><trkpt lat="42.802286197916544" lon="10.404629494982565"><ele>130.0</ele><time>2026-04-23T14:35:54Z</time></trkpt><trkpt lat="42.80220913496463" lon="10.40478817710551"><ele>131.5</ele><time>2026-04-23T14:35:55Z</time></trkpt><trkpt lat="42.802115722708365" lon="10.40493612318742"><ele>133.0</ele><time>2026-04-23T14:35:56Z</time></trkpt><trkpt lat="42.80199818774843" lon="10.405060272122144"><ele>134.5</ele><time>2026-04-23T14:35:57Z</time></trkpt><trkpt lat="42.80190471853891" lon="10.405193827748585"><ele>136.0</ele><time>2026-04-23T14:35:58Z</time></trkpt><trkpt lat="42.80180064384402" lon="10.405293672930497"><ele>136.0</ele><time>2026-04-23T14:35:59Z</time></trkpt><trkpt lat="42.8016967619552" lon="10.405366941305877"><ele>136.0</ele><time>2026-04-23T14:36:00Z</time></trkpt><trkpt lat="42.80158584292584" lon="10.405403761670803"><ele>136.0</ele><time>2026-04-23T14:36:01Z</time></trkpt><trkpt lat="42.801473805675194" lon="10.405405266328113"><ele>136.0</ele><time>2026-04-23T14:36:02Z</time></trkpt><trkpt lat="42.80136647795839" lon="10.405368436886532"><ele>136.0</ele><time>2026-04-23T14:36:03Z</time></trkpt><trkpt lat="42.801264879237145" lon="10.405302537791378"><ele>136.0</ele><time>2026-04-23T14:36:04Z</time></trkpt><trkpt lat="42.8011712070838" lon="10.405211224926854"><ele>136.0</ele><time>2026-04-23T14:36:05Z</time></trkpt><trkpt lat="42.801086929031094" lon="10.4050919794105"><ele>136.0</ele><time>2026-04-23T14:36:06Z</time></trkpt><trkpt lat="42.80100296116093" lon="10.404962550456842"><ele>134.75</ele><time>2026-04-23T14:36:07Z</time></trkpt><trkpt lat="42.80091874681262" lon="10.404825171018222"><ele>133.5</ele><time>2026-04-23T14:36:08Z</time></trkpt><trkpt lat="42.800834189486814" lon="10.404691060675999"><ele>132.25</ele><time>2026-04-23T14:36:09Z</time></trkpt><trkpt lat="42.800752792860386" lon="10.404554632221043"><ele>131.0</ele><time>2026-04-23T14:36:10Z</time></trkpt><trkpt lat="42.80067507338272" lon="10.40440800149339"><ele>135.25</ele><time>2026-04-23T14:36:11Z</time></trkpt><trkpt lat="42.80059859430798" lon="10.404261883786262"><ele>139.5</ele><time>2026-04-23T14:36:12Z</time></trkpt><trkpt lat="42.80051581642934" lon="10.404118455720665"><ele>143.75</ele><time>2026-04-23T14:36:13Z</time></trkpt><trkpt lat="42.8004243878639" lon="10.403980046930815"><ele>148.0</ele><time>2026-04-23T14:36:14Z</time></trkpt><trkpt lat="42.80032686291067" lon="10.40385754084908"><ele>144.75</ele><time>2026-04-23T14:36:15Z</time></trkpt><trkpt lat="42.80023513235158" lon="10.403745566010244"><ele>141.5</ele><time>2026-04-23T14:36:16Z</time></trkpt><trkpt lat="42.80014960377665" lon="10.40362398820414"><ele>138.25</ele><time>2026-04-23T14:36:17Z</time></trkpt><trkpt lat="42.80007676872737" lon="10.403482253869575"><ele>135.0</ele><time>2026-04-23T14:36:18Z</time></trkpt><trkpt lat="42.800018136603086" lon="10.403320871833673"><ele>135.0</ele><time>2026-04-23T14:36:19Z</time></trkpt><trkpt lat="42.799967030058305" lon="10.4031572187315"><ele>135.0</ele><time>2026-04-23T14:36:20Z</time></trkpt><trkpt lat="42.799925121772425" lon="10.403002327108005"><ele>135.0</ele><time>2026-04-23T14:36:21Z</time></trkpt><trkpt lat="42.79989190855608" lon="10.4028601812636"><ele>135.0</ele><time>2026-04-23T14:36:22Z</time></trkpt><trkpt lat="42.79986881655053" lon="10.40271386832073"><ele>135.0</ele><time>2026-04-23T14:36:23Z</time></trkpt><trkpt lat="42.79987166648681" lon="10.40255790741586"><ele>135.0</ele><time>2026-04-23T14:36:24Z</time></trkpt><trkpt lat="42.79990076259108" lon="10.402414135940285"><ele>135.0</ele><time>2026-04-23T14:36:25Z</time></trkpt><trkpt lat="42.79995107802437" lon="10.402276927082033"><ele>135.0</ele><time>2026-04-23T14:36:26Z</time></trkpt><trkpt lat="42.80002480278122" lon="10.402151771534605"><ele>135.0</ele><time>2026-04-23T14:36:27Z</time></trkpt><trkpt lat="42.8001138276256" lon="10.402042264661844"><ele>135.0</ele><time>2026-04-23T14:36:28Z</time></trkpt><trkpt lat="42.800199709961994" lon="10.401928090463931"><ele>135.0</ele><time>2026-04-23T14:36:29Z</time></trkpt><trkpt lat="42.80028453511128" lon="10.401814296308832"><ele>135.0</ele><time>2026-04-23T14:36:30Z</time></trkpt><trkpt lat="42.80035659167401" lon="10.401710065466583"><ele>139.33333333333334</ele><time>2026-04-23T14:36:31Z</time></trkpt><trkpt lat="42.800415364747366" lon="10.401614199339704"><ele>143.66666666666666</ele><time>2026-04-23T14:36:32Z</time></trkpt><trkpt lat="42.8004649216731" lon="10.401529325632671"><ele>148.0</ele><time>2026-04-23T14:36:33Z</time></trkpt><trkpt lat="42.80048971078411" lon="10.401428558967678"><ele>152.33333333333331</ele><time>2026-04-23T14:36:34Z</time></trkpt><trkpt lat="42.800486842671965" lon="10.4013155875662"><ele>156.66666666666666</ele><time>2026-04-23T14:36:35Z</time></trkpt><trkpt lat="42.80044948428537" lon="10.401208286026149"><ele>161.0</ele><time>2026-04-23T14:36:36Z</time></trkpt><trkpt lat="42.80038537808266" lon="10.40112053174194"><ele>161.4</ele><time>2026-04-23T14:36:37Z</time></trkpt><trkpt lat="42.800308239132576" lon="10.401047887842227"><ele>161.8</ele><time>2026-04-23T14:36:38Z</time></trkpt><trkpt lat="42.80022250137686" lon="10.400982717586844"><ele>162.20000000000002</ele><time>2026-04-23T14:36:39Z</time></trkpt><trkpt lat="42.8001390171959" lon="10.400898331520331"><ele>162.60000000000002</ele><time>2026-04-23T14:36:40Z</time></trkpt><trkpt lat="42.800058272364815" lon="10.400808805426763"><ele>163.0</ele><time>2026-04-23T14:36:41Z</time></trkpt><trkpt lat="42.79998209875004" lon="10.400705730263581"><ele>162.4</ele><time>2026-04-23T14:36:42Z</time></trkpt><trkpt lat="42.799914668350944" lon="10.400583527363995"><ele>161.8</ele><time>2026-04-23T14:36:43Z</time></trkpt><trkpt lat="42.79985865193439" lon="10.400458902370556"><ele>161.2</ele><time>2026-04-23T14:36:44Z</time></trkpt><trkpt lat="42.799813229078346" lon="10.400353235574174"><ele>160.6</ele><time>2026-04-23T14:36:45Z</time></trkpt><trkpt lat="42.799761615085664" lon="10.400266551953715"><ele>160.0</ele><time>2026-04-23T14:36:46Z</time></trkpt><trkpt lat="42.79968667513495" lon="10.40020635617249"><ele>160.0</ele><time>2026-04-23T14:36:47Z</time></trkpt><trkpt lat="42.79959788128716" lon="10.400177515873285"><ele>160.0</ele><time>2026-04-23T14:36:48Z</time></trkpt><trkpt lat="42.79950056163474" lon="10.400189695501918"><ele>160.0</ele><time>2026-04-23T14:36:49Z</time></trkpt><trkpt lat="42.79940176673641" lon="10.400241790012684"><ele>160.0</ele><time>2026-04-23T14:36:50Z</time></trkpt><trkpt lat="42.79930167555167" lon="10.400313349497223"><ele>160.0</ele><time>2026-04-23T14:36:51Z</time></trkpt><trkpt lat="42.79919922539297" lon="10.400380260892717"><ele>159.0</ele><time>2026-04-23T14:36:52Z</time></trkpt><trkpt lat="42.79910317378812" lon="10.4004381998913"><ele>158.0</ele><time>2026-04-23T14:36:53Z</time></trkpt><trkpt lat="42.79902048299743" lon="10.40045951828449"><ele>157.0</ele><time>2026-04-23T14:36:54Z</time></trkpt><trkpt lat="42.798939920623916" lon="10.400450731110846"><ele>156.0</ele><time>2026-04-23T14:36:55Z</time></trkpt><trkpt lat="42.79886139343961" lon="10.400407195273372"><ele>155.0</ele><time>2026-04-23T14:36:56Z</time></trkpt><trkpt lat="42.79878896215276" lon="10.400331365591365"><ele>154.0</ele><time>2026-04-23T14:36:57Z</time></trkpt><trkpt lat="42.798721010850585" lon="10.400254640355755"><ele>154.0</ele><time>2026-04-23T14:36:58Z</time></trkpt><trkpt lat="42.798653911839416" lon="10.400179010896881"><ele>154.0</ele><time>2026-04-23T14:36:59Z</time></trkpt><trkpt lat="42.798584987993635" lon="10.400132308230083"><ele>154.0</ele><time>2026-04-23T14:37:00Z</time></trkpt><trkpt lat="42.79850742241393" lon="10.400125171926344"><ele>154.0</ele><time>2026-04-23T14:37:01Z</time></trkpt><trkpt lat="42.79841486260682" lon="10.40014184746639"><ele>154.0</ele><time>2026-04-23T14:37:02Z</time></trkpt><trkpt lat="42.79833047440113" lon="10.400215878312803"><ele>154.0</ele><time>2026-04-23T14:37:03Z</time></trkpt><trkpt lat="42.79825546942466" lon="10.400309056436797"><ele>154.0</ele><time>2026-04-23T14:37:04Z</time></trkpt><trkpt lat="42.798191095668344" lon="10.400423430750893"><ele>154.0</ele><time>2026-04-23T14:37:05Z</time></trkpt><trkpt lat="42.79812779069864" lon="10.400546128859995"><ele>154.0</ele><time>2026-04-23T14:37:06Z</time></trkpt><trkpt lat="42.79805865241567" lon="10.400668573445099"><ele>154.0</ele><time>2026-04-23T14:37:07Z</time></trkpt><trkpt lat="42.79798359044858" lon="10.400784635482806"><ele>154.0</ele><time>2026-04-23T14:37:08Z</time></trkpt><trkpt lat="42.79789748948229" lon="10.400888821491204"><ele>153.75</ele><time>2026-04-23T14:37:09Z</time></trkpt><trkpt lat="42.797801951534154" lon="10.400972221144372"><ele>153.5</ele><time>2026-04-23T14:37:10Z</time></trkpt><trkpt lat="42.79770362662108" lon="10.401043918421854"><ele>153.25</ele><time>2026-04-23T14:37:11Z</time></trkpt><trkpt lat="42.79759395249712" lon="10.401107290227838"><ele>153.0</ele><time>2026-04-23T14:37:12Z</time></trkpt><trkpt lat="42.797482378628864" lon="10.401175101166226"><ele>153.0</ele><time>2026-04-23T14:37:13Z</time></trkpt><trkpt lat="42.797370590904386" lon="10.401245714158742"><ele>153.0</ele><time>2026-04-23T14:37:14Z</time></trkpt><trkpt lat="42.79726059984033" lon="10.401310294274225"><ele>153.0</ele><time>2026-04-23T14:37:15Z</time></trkpt><trkpt lat="42.797157993393895" lon="10.401366067512784"><ele>153.0</ele><time>2026-04-23T14:37:16Z</time></trkpt><trkpt lat="42.7970688811023" lon="10.40139785934098"><ele>153.0</ele><time>2026-04-23T14:37:17Z</time></trkpt><trkpt lat="42.796979667561324" lon="10.401409107699513"><ele>152.4</ele><time>2026-04-23T14:37:18Z</time></trkpt><trkpt lat="42.79688540652501" lon="10.401396460916377"><ele>151.8</ele><time>2026-04-23T14:37:19Z</time></trkpt><trkpt lat="42.79678865366778" lon="10.401354807753021"><ele>151.2</ele><time>2026-04-23T14:37:20Z</time></trkpt><trkpt lat="42.79670552654005" lon="10.401275575355363"><ele>150.6</ele><time>2026-04-23T14:37:21Z</time></trkpt><trkpt lat="42.79663391454776" lon="10.401175338385087"><ele>150.0</ele><time>2026-04-23T14:37:22Z</time></trkpt><trkpt lat="42.796572960279846" lon="10.401053110782957"><ele>150.0</ele><time>2026-04-23T14:37:23Z</time></trkpt><trkpt lat="42.79651017644001" lon="10.40093075252872"><ele>150.0</ele><time>2026-04-23T14:37:24Z</time></trkpt><trkpt lat="42.79644558684113" lon="10.40082362499819"><ele>150.0</ele><time>2026-04-23T14:37:25Z</time></trkpt><trkpt lat="42.79637214405212" lon="10.400729173311154"><ele>150.0</ele><time>2026-04-23T14:37:26Z</time></trkpt><trkpt lat="42.79627565795818" lon="10.40065514746753"><ele>150.0</ele><time>2026-04-23T14:37:27Z</time></trkpt><trkpt lat="42.79616936566959" lon="10.400592215748878"><ele>150.0</ele><time>2026-04-23T14:37:28Z</time></trkpt><trkpt lat="42.79605649012379" lon="10.400546472082599"><ele>150.0</ele><time>2026-04-23T14:37:29Z</time></trkpt><trkpt lat="42.79594037118101" lon="10.400509043331688"><ele>150.0</ele><time>2026-04-23T14:37:30Z</time></trkpt><trkpt lat="42.795816745150816" lon="10.400488212941752"><ele>150.0</ele><time>2026-04-23T14:37:31Z</time></trkpt><trkpt lat="42.795697037061764" lon="10.400500846826302"><ele>147.25</ele><time>2026-04-23T14:37:32Z</time></trkpt><trkpt lat="42.795571967249266" lon="10.400524247509091"><ele>144.5</ele><time>2026-04-23T14:37:33Z</time></trkpt><trkpt lat="42.795445861575004" lon="10.400558984550145"><ele>141.75</ele><time>2026-04-23T14:37:34Z</time></trkpt><trkpt lat="42.795321350098455" lon="10.400586118193479"><ele>139.0</ele><time>2026-04-23T14:37:35Z</time></trkpt><trkpt lat="42.79520098204341" lon="10.400608794004333"><ele>139.33333333333334</ele><time>2026-04-23T14:37:36Z</time></trkpt><trkpt lat="42.79508983958368" lon="10.400626538229883"><ele>139.66666666666669</ele><time>2026-04-23T14:37:37Z</time></trkpt><trkpt lat="42.79499563864177" lon="10.400637878840035"><ele>140.0</ele><time>2026-04-23T14:37:38Z</time></trkpt><trkpt lat="42.79490737520406" lon="10.400655223096566"><ele>140.33333333333334</ele><time>2026-04-23T14:37:39Z</time></trkpt><trkpt lat="42.79483341393827" lon="10.400671969680127"><ele>140.66666666666666</ele><time>2026-04-23T14:37:40Z</time></trkpt><trkpt lat="42.79477051604151" lon="10.400714618682489"><ele>141.0</ele><time>2026-04-23T14:37:41Z</time></trkpt><trkpt lat="42.79472040364487" lon="10.400799655909278"><ele>141.0</ele><time>2026-04-23T14:37:42Z</time></trkpt><trkpt lat="42.79469166772608" lon="10.400912251547838"><ele>141.0</ele><time>2026-04-23T14:37:43Z</time></trkpt><trkpt lat="42.79468280870044" lon="10.401042270018126"><ele>141.0</ele><time>2026-04-23T14:37:44Z</time></trkpt><trkpt lat="42.794685996739105" lon="10.401182286524316"><ele>141.0</ele><time>2026-04-23T14:37:45Z</time></trkpt><trkpt lat="42.79469142792867" lon="10.401326441272003"><ele>141.0</ele><time>2026-04-23T14:37:46Z</time></trkpt><trkpt lat="42.79469399762705" lon="10.401475412946448"><ele>139.5</ele><time>2026-04-23T14:37:47Z</time></trkpt><trkpt lat="42.7946892699058" lon="10.401602678847837"><ele>138.0</ele><time>2026-04-23T14:37:48Z</time></trkpt><trkpt lat="42.79466488284288" lon="10.401715469095935"><ele>136.5</ele><time>2026-04-23T14:37:49Z</time></trkpt><trkpt lat="42.79461611354561" lon="10.401807452315529"><ele>135.0</ele><time>2026-04-23T14:37:50Z</time></trkpt><trkpt lat="42.79454641289041" lon="10.401872059758178"><ele>133.5</ele><time>2026-04-23T14:37:51Z</time></trkpt><trkpt lat="42.79447417166706" lon="10.401883965419115"><ele>132.0</ele><time>2026-04-23T14:37:52Z</time></trkpt><trkpt lat="42.794399720752814" lon="10.40186765391868"><ele>134.5</ele><time>2026-04-23T14:37:53Z</time></trkpt><trkpt lat="42.79432464830262" lon="10.401839914977925"><ele>137.0</ele><time>2026-04-23T14:37:54Z</time></trkpt><trkpt lat="42.794244485194035" lon="10.401822979672371"><ele>139.5</ele><time>2026-04-23T14:37:55Z</time></trkpt><trkpt lat="42.79416677240195" lon="10.401816946494343"><ele>142.0</ele><time>2026-04-23T14:37:56Z</time></trkpt><trkpt lat="42.79409457577015" lon="10.401833206467384"><ele>144.5</ele><time>2026-04-23T14:37:57Z</time></trkpt><trkpt lat="42.794035127663456" lon="10.401891575247062"><ele>147.0</ele><time>2026-04-23T14:37:58Z</time></trkpt><trkpt lat="42.793989084828446" lon="10.40198197499427"><ele>147.0</ele><time>2026-04-23T14:37:59Z</time></trkpt><trkpt lat="42.79397464456313" lon="10.402100202148118"><ele>147.0</ele><time>2026-04-23T14:38:00Z</time></trkpt><trkpt lat="42.793986783115095" lon="10.40222030224442"><ele>147.0</ele><time>2026-04-23T14:38:01Z</time></trkpt><trkpt lat="42.7940268152482" lon="10.402345284063404"><ele>147.0</ele><time>2026-04-23T14:38:02Z</time></trkpt><trkpt lat="42.79407796777463" lon="10.402473388556464"><ele>147.0</ele><time>2026-04-23T14:38:03Z</time></trkpt><trkpt lat="42.79412129184609" lon="10.402610435117653"><ele>145.2</ele><time>2026-04-23T14:38:04Z</time></trkpt><trkpt lat="42.794163431771494" lon="10.40275073470709"><ele>143.39999999999998</ele><time>2026-04-23T14:38:05Z</time></trkpt><trkpt lat="42.79418537270981" lon="10.402884015269382"><ele>141.60000000000002</ele><time>2026-04-23T14:38:06Z</time></trkpt><trkpt lat="42.794190516032394" lon="10.403002849797426"><ele>139.8</ele><time>2026-04-23T14:38:07Z</time></trkpt><trkpt lat="42.79417450927176" lon="10.403117405939179"><ele>138.0</ele><time>2026-04-23T14:38:08Z</time></trkpt><trkpt lat="42.79414015185812" lon="10.403238306859489"><ele>137.20000000000002</ele><time>2026-04-23T14:38:09Z</time></trkpt><trkpt lat="42.79408851267378" lon="10.403352578606366"><ele>136.4</ele><time>2026-04-23T14:38:10Z</time></trkpt><trkpt lat="42.79403754291563" lon="10.40346725638592"><ele>135.60000000000002</ele><time>2026-04-23T14:38:11Z</time></trkpt><trkpt lat="42.79400338370582" lon="10.403582377939252"><ele>134.8</ele><time>2026-04-23T14:38:12Z</time></trkpt><trkpt lat="42.79399569617175" lon="10.403711464729401"><ele>134.0</ele><time>2026-04-23T14:38:13Z</time></trkpt><trkpt lat="42.794014368098544" lon="10.403849665450167"><ele>133.2</ele><time>2026-04-23T14:38:14Z</time></trkpt><trkpt lat="42.79404517236006" lon="10.403992533158645"><ele>132.4</ele><time>2026-04-23T14:38:15Z</time></trkpt><trkpt lat="42.79407741924128" lon="10.404130225956933"><ele>131.6</ele><time>2026-04-23T14:38:16Z</time></trkpt><trkpt lat="42.794094640740106" lon="10.404262583599085"><ele>130.8</ele><time>2026-04-23T14:38:17Z</time></trkpt><trkpt lat="42.79408348997867" lon="10.404404102530398"><ele>130.0</ele><time>2026-04-23T14:38:18Z</time></trkpt><trkpt lat="42.79403100883483" lon="10.404530917869751"><ele>130.0</ele><time>2026-04-23T14:38:19Z</time></trkpt><trkpt lat="42.79398429431815" lon="10.404659261382411"><ele>130.0</ele><time>2026-04-23T14:38:20Z</time></trkpt><trkpt lat="42.793951122184126" lon="10.404781807989172"><ele>130.0</ele><time>2026-04-23T14:38:21Z</time></trkpt><trkpt lat="42.79391258566986" lon="10.404893979428312"><ele>130.0</ele><time>2026-04-23T14:38:22Z</time></trkpt><trkpt lat="42.79389660805768" lon="10.40500550867068"><ele>130.0</ele><time>2026-04-23T14:38:23Z</time></trkpt><trkpt lat="42.793902070028636" lon="10.405129709275673"><ele>129.4</ele><time>2026-04-23T14:38:24Z</time></trkpt><trkpt lat="42.79393837513861" lon="10.405256177945637"><ele>128.8</ele><time>2026-04-23T14:38:25Z</time></trkpt><trkpt lat="42.793994542323475" lon="10.405380200745832"><ele>128.2</ele><time>2026-04-23T14:38:26Z</time></trkpt><trkpt lat="42.794065976847925" lon="10.40550201697431"><ele>127.6</ele><time>2026-04-23T14:38:27Z</time></trkpt><trkpt lat="42.79413351543918" lon="10.405639900058336"><ele>127.0</ele><time>2026-04-23T14:38:28Z</time></trkpt><trkpt lat="42.7942044037254" lon="10.40577434710443"><ele>126.0</ele><time>2026-04-23T14:38:29Z</time></trkpt><trkpt lat="42.79426844294495" lon="10.405888750825904"><ele>124.99999999999999</ele><time>2026-04-23T14:38:30Z</time></trkpt><trkpt lat="42.79433048407148" lon="10.40600386307692"><ele>123.99999999999999</ele><time>2026-04-23T14:38:31Z</time></trkpt><trkpt lat="42.79439253029031" lon="10.406127989813236"><ele>123.0</ele><time>2026-04-23T14:38:32Z</time></trkpt><trkpt lat="42.794443216736695" lon="10.40626152303856"><ele>122.0</ele><time>2026-04-23T14:38:33Z</time></trkpt><trkpt lat="42.79448529759492" lon="10.40640088181371"><ele>122.0</ele><time>2026-04-23T14:38:34Z</time></trkpt><trkpt lat="42.794535517883716" lon="10.406531906262131"><ele>122.0</ele><time>2026-04-23T14:38:35Z</time></trkpt><trkpt lat="42.794601098263136" lon="10.406659158789399"><ele>122.0</ele><time>2026-04-23T14:38:36Z</time></trkpt><trkpt lat="42.794683183070404" lon="10.406772517380851"><ele>122.0</ele><time>2026-04-23T14:38:37Z</time></trkpt><trkpt lat="42.79477209483686" lon="10.406875996708015"><ele>122.0</ele><time>2026-04-23T14:38:38Z</time></trkpt><trkpt lat="42.79485628603377" lon="10.4069654622168"><ele>121.99999999999999</ele><time>2026-04-23T14:38:39Z</time></trkpt><trkpt lat="42.79493341900106" lon="10.407050118530082"><ele>121.99999999999999</ele><time>2026-04-23T14:38:40Z</time></trkpt><trkpt lat="42.79500521710227" lon="10.407133730067056"><ele>122.0</ele><time>2026-04-23T14:38:41Z</time></trkpt><trkpt lat="42.795058247000185" lon="10.407225359391113"><ele>122.0</ele><time>2026-04-23T14:38:42Z</time></trkpt><trkpt lat="42.79509433227994" lon="10.407313844002394"><ele>123.33333333333333</ele><time>2026-04-23T14:38:43Z</time></trkpt><trkpt lat="42.795107372959514" lon="10.407409849129753"><ele>124.66666666666666</ele><time>2026-04-23T14:38:44Z</time></trkpt><trkpt lat="42.795090836316206" lon="10.407507223312173"><ele>126.0</ele><time>2026-04-23T14:38:45Z</time></trkpt><trkpt lat="42.79499032884657" lon="10.40762289805983"><ele>127.33333333333334</ele><time>2026-04-23T14:38:47Z</time></trkpt><trkpt lat="42.79491522483057" lon="10.40764920929087"><ele>128.66666666666669</ele><time>2026-04-23T14:38:48Z</time></trkpt><trkpt lat="42.79482918878144" lon="10.407659657666802"><ele>130.0</ele><time>2026-04-23T14:38:49Z</time></trkpt><trkpt lat="42.79473272527881" lon="10.407661955448063"><ele>130.0</ele><time>2026-04-23T14:38:50Z</time></trkpt><trkpt lat="42.794627264438404" lon="10.407659346108744"><ele>130.0</ele><time>2026-04-23T14:38:51Z</time></trkpt><trkpt lat="42.79451453258629" lon="10.407655437322683"><ele>130.0</ele><time>2026-04-23T14:38:52Z</time></trkpt><trkpt lat="42.79440875879797" lon="10.407656246549184"><ele>130.0</ele><time>2026-04-23T14:38:53Z</time></trkpt><trkpt lat="42.79431819235244" lon="10.407667757301704"><ele>130.0</ele><time>2026-04-23T14:38:54Z</time></trkpt><trkpt lat="42.79424333988524" lon="10.407650236085217"><ele>128.6</ele><time>2026-04-23T14:38:55Z</time></trkpt><trkpt lat="42.79416790918708" lon="10.407691777634472"><ele>127.2</ele><time>2026-04-23T14:38:56Z</time></trkpt><trkpt lat="42.79408698674571" lon="10.40776377711152"><ele>125.80000000000001</ele><time>2026-04-23T14:38:57Z</time></trkpt><trkpt lat="42.79402383014564" lon="10.407867939323419"><ele>124.4</ele><time>2026-04-23T14:38:58Z</time></trkpt><trkpt lat="42.7939693809574" lon="10.408003822004517"><ele>123.0</ele><time>2026-04-23T14:38:59Z</time></trkpt><trkpt lat="42.79392084788103" lon="10.408144075726312"><ele>123.0</ele><time>2026-04-23T14:39:00Z</time></trkpt><trkpt lat="42.79388515563359" lon="10.408297340367572"><ele>123.0</ele><time>2026-04-23T14:39:01Z</time></trkpt><trkpt lat="42.793849805815746" lon="10.408449134971994"><ele>123.0</ele><time>2026-04-23T14:39:02Z</time></trkpt><trkpt lat="42.793821382678864" lon="10.408608869580235"><ele>123.0</ele><time>2026-04-23T14:39:03Z</time></trkpt><trkpt lat="42.7937788310015" lon="10.408771244400778"><ele>121.25</ele><time>2026-04-23T14:39:04Z</time></trkpt><trkpt lat="42.793728887601475" lon="10.408938130743275"><ele>119.5</ele><time>2026-04-23T14:39:05Z</time></trkpt><trkpt lat="42.79367153739737" lon="10.409102913692298"><ele>117.75</ele><time>2026-04-23T14:39:06Z</time></trkpt><trkpt lat="42.79361321798017" lon="10.409266198058212"><ele>116.0</ele><time>2026-04-23T14:39:07Z</time></trkpt><trkpt lat="42.79355780340807" lon="10.409418895403581"><ele>116.0</ele><time>2026-04-23T14:39:08Z</time></trkpt><trkpt lat="42.79350970904788" lon="10.409564490432116"><ele>116.0</ele><time>2026-04-23T14:39:09Z</time></trkpt><trkpt lat="42.793459695476734" lon="10.409702730229135"><ele>116.0</ele><time>2026-04-23T14:39:10Z</time></trkpt><trkpt lat="42.79341388966394" lon="10.40984362712442"><ele>116.0</ele><time>2026-04-23T14:39:11Z</time></trkpt><trkpt lat="42.79336316415214" lon="10.409993156834723"><ele>116.75</ele><time>2026-04-23T14:39:12Z</time></trkpt><trkpt lat="42.79330933532489" lon="10.410138548333833"><ele>117.5</ele><time>2026-04-23T14:39:13Z</time></trkpt><trkpt lat="42.79325468870183" lon="10.410284771986104"><ele>118.25</ele><time>2026-04-23T14:39:14Z</time></trkpt><trkpt lat="42.79319161955933" lon="10.410431965802829"><ele>119.0</ele><time>2026-04-23T14:39:15Z</time></trkpt><trkpt lat="42.7931148394572" lon="10.410576159589796"><ele>119.0</ele><time>2026-04-23T14:39:16Z</time></trkpt><trkpt lat="42.79302284117827" lon="10.410711012579442"><ele>119.0</ele><time>2026-04-23T14:39:17Z</time></trkpt><trkpt lat="42.79293183378327" lon="10.41084202260103"><ele>119.0</ele><time>2026-04-23T14:39:18Z</time></trkpt><trkpt lat="42.79284064313862" lon="10.410955333623056"><ele>119.0</ele><time>2026-04-23T14:39:19Z</time></trkpt><trkpt lat="42.79275492201083" lon="10.411067579154475"><ele>119.0</ele><time>2026-04-23T14:39:20Z</time></trkpt><trkpt lat="42.79267781949073" lon="10.411165727244468"><ele>119.0</ele><time>2026-04-23T14:39:21Z</time></trkpt><trkpt lat="42.792604619176856" lon="10.411258073997164"><ele>119.0</ele><time>2026-04-23T14:39:22Z</time></trkpt><trkpt lat="42.79252552262348" lon="10.41133327691732"><ele>119.0</ele><time>2026-04-23T14:39:23Z</time></trkpt><trkpt lat="42.79243617029983" lon="10.411387239793301"><ele>119.0</ele><time>2026-04-23T14:39:24Z</time></trkpt><trkpt lat="42.79233561049059" lon="10.411434146857092"><ele>119.66666666666666</ele><time>2026-04-23T14:39:25Z</time></trkpt><trkpt lat="42.792238077705335" lon="10.411467202648401"><ele>120.33333333333333</ele><time>2026-04-23T14:39:26Z</time></trkpt><trkpt lat="42.7921535586444" lon="10.41148962136277"><ele>121.0</ele><time>2026-04-23T14:39:27Z</time></trkpt><trkpt lat="42.79208233682343" lon="10.411516585904074"><ele>121.66666666666666</ele><time>2026-04-23T14:39:28Z</time></trkpt><trkpt lat="42.792019069032364" lon="10.411565509965932"><ele>122.33333333333333</ele><time>2026-04-23T14:39:29Z</time></trkpt><trkpt lat="42.79196931189638" lon="10.411642915101634"><ele>123.0</ele><time>2026-04-23T14:39:30Z</time></trkpt><trkpt lat="42.79194133721404" lon="10.411748414868718"><ele>123.0</ele><time>2026-04-23T14:39:31Z</time></trkpt><trkpt lat="42.7919414791806" lon="10.411872405268563"><ele>123.00000000000001</ele><time>2026-04-23T14:39:32Z</time></trkpt><trkpt lat="42.791961544398504" lon="10.412003485448125"><ele>123.00000000000001</ele><time>2026-04-23T14:39:33Z</time></trkpt><trkpt lat="42.79198128578232" lon="10.412141010972435"><ele>123.0</ele><time>2026-04-23T14:39:34Z</time></trkpt><trkpt lat="42.79199701357815" lon="10.412269161778973"><ele>123.0</ele><time>2026-04-23T14:39:35Z</time></trkpt><trkpt lat="42.79199724860005" lon="10.412387857285792"><ele>123.83333333333333</ele><time>2026-04-23T14:39:36Z</time></trkpt><trkpt lat="42.79198027764555" lon="10.41249111828619"><ele>124.66666666666666</ele><time>2026-04-23T14:39:37Z</time></trkpt><trkpt lat="42.79194437107839" lon="10.412574636813817"><ele>125.5</ele><time>2026-04-23T14:39:38Z</time></trkpt><trkpt lat="42.79190169811625" lon="10.412661475185347"><ele>126.33333333333333</ele><time>2026-04-23T14:39:39Z</time></trkpt><trkpt lat="42.79183996339907" lon="10.412686908205156"><ele>127.16666666666666</ele><time>2026-04-23T14:39:40Z</time></trkpt><trkpt lat="42.79176077706812" lon="10.412699424629038"><ele>128.0</ele><time>2026-04-23T14:39:41Z</time></trkpt><trkpt lat="42.79167591035734" lon="10.412681898208204"><ele>128.0</ele><time>2026-04-23T14:39:42Z</time></trkpt><trkpt lat="42.79158735121064" lon="10.412645305586048"><ele>128.0</ele><time>2026-04-23T14:39:43Z</time></trkpt><trkpt lat="42.79149361176711" lon="10.412597680123767"><ele>128.0</ele><time>2026-04-23T14:39:44Z</time></trkpt><trkpt lat="42.79139726672559" lon="10.412554608895915"><ele>128.0</ele><time>2026-04-23T14:39:45Z</time></trkpt><trkpt lat="42.791294448904154" lon="10.412547005144212"><ele>128.0</ele><time>2026-04-23T14:39:46Z</time></trkpt><trkpt lat="42.791187969498665" lon="10.412558155024298"><ele>128.0</ele><time>2026-04-23T14:39:47Z</time></trkpt><trkpt lat="42.791081990096224" lon="10.412597528179907"><ele>128.0</ele><time>2026-04-23T14:39:48Z</time></trkpt><trkpt lat="42.79097557334856" lon="10.41265388001187"><ele>128.0</ele><time>2026-04-23T14:39:49Z</time></trkpt><trkpt lat="42.790875857798326" lon="10.412728627671576"><ele>128.0</ele><time>2026-04-23T14:39:50Z</time></trkpt><trkpt lat="42.79078170886313" lon="10.412803227764895"><ele>128.0</ele><time>2026-04-23T14:39:51Z</time></trkpt><trkpt lat="42.790683019752194" lon="10.412871513765886"><ele>129.20000000000002</ele><time>2026-04-23T14:39:52Z</time></trkpt><trkpt lat="42.790588608993914" lon="10.412960198014463"><ele>130.4</ele><time>2026-04-23T14:39:53Z</time></trkpt><trkpt lat="42.790506937436376" lon="10.413047767272396"><ele>131.60000000000002</ele><time>2026-04-23T14:39:54Z</time></trkpt><trkpt lat="42.79043158063167" lon="10.413142634516825"><ele>132.8</ele><time>2026-04-23T14:39:55Z</time></trkpt><trkpt lat="42.79036777339982" lon="10.413222476275404"><ele>134.0</ele><time>2026-04-23T14:39:56Z</time></trkpt><trkpt lat="42.79030212319733" lon="10.413300678854533"><ele>133.0</ele><time>2026-04-23T14:39:57Z</time></trkpt><trkpt lat="42.79023106754579" lon="10.413363014672802"><ele>132.0</ele><time>2026-04-23T14:39:58Z</time></trkpt><trkpt lat="42.79014078650677" lon="10.413402387239515"><ele>131.0</ele><time>2026-04-23T14:39:59Z</time></trkpt><trkpt lat="42.790049230692034" lon="10.41341320454486"><ele>130.0</ele><time>2026-04-23T14:40:00Z</time></trkpt><trkpt lat="42.78996390381457" lon="10.413405137304347"><ele>129.0</ele><time>2026-04-23T14:40:01Z</time></trkpt><trkpt lat="42.78987866519713" lon="10.413362044379788"><ele>128.0</ele><time>2026-04-23T14:40:02Z</time></trkpt><trkpt lat="42.789811168398266" lon="10.413279100992568"><ele>128.0</ele><time>2026-04-23T14:40:03Z</time></trkpt><trkpt lat="42.789757550717894" lon="10.413177709310204"><ele>128.0</ele><time>2026-04-23T14:40:04Z</time></trkpt><trkpt lat="42.789723985596346" lon="10.41304949357202"><ele>128.0</ele><time>2026-04-23T14:40:05Z</time></trkpt><trkpt lat="42.78970640399172" lon="10.412912770642631"><ele>128.0</ele><time>2026-04-23T14:40:06Z</time></trkpt><trkpt lat="42.78970156756911" lon="10.412764714169368"><ele>128.0</ele><time>2026-04-23T14:40:07Z</time></trkpt><trkpt lat="42.789701059325886" lon="10.412614055350133"><ele>129.25</ele><time>2026-04-23T14:40:08Z</time></trkpt><trkpt lat="42.789699296522436" lon="10.412457444062538"><ele>130.5</ele><time>2026-04-23T14:40:09Z</time></trkpt><trkpt lat="42.78969528425343" lon="10.412306298906179"><ele>131.75</ele><time>2026-04-23T14:40:10Z</time></trkpt><trkpt lat="42.789693461781745" lon="10.412151462527179"><ele>133.0</ele><time>2026-04-23T14:40:11Z</time></trkpt><trkpt lat="42.789691755762824" lon="10.411994070983903"><ele>134.0</ele><time>2026-04-23T14:40:12Z</time></trkpt><trkpt lat="42.789680814967305" lon="10.411835822791451"><ele>135.0</ele><time>2026-04-23T14:40:13Z</time></trkpt><trkpt lat="42.78965793196947" lon="10.41168663240969"><ele>136.0</ele><time>2026-04-23T14:40:14Z</time></trkpt><trkpt lat="42.78962209078707" lon="10.411534262934827"><ele>137.0</ele><time>2026-04-23T14:40:15Z</time></trkpt><trkpt lat="42.78957613711973" lon="10.41139540481041"><ele>136.6</ele><time>2026-04-23T14:40:16Z</time></trkpt><trkpt lat="42.78951448116611" lon="10.411268786489394"><ele>136.2</ele><time>2026-04-23T14:40:17Z</time></trkpt><trkpt lat="42.78944270103342" lon="10.411148613451628"><ele>135.8</ele><time>2026-04-23T14:40:18Z</time></trkpt><trkpt lat="42.789358401553216" lon="10.411038837899063"><ele>135.4</ele><time>2026-04-23T14:40:19Z</time></trkpt><trkpt lat="42.78927492989715" lon="10.4109475835788"><ele>135.0</ele><time>2026-04-23T14:40:20Z</time></trkpt><trkpt lat="42.78919698869078" lon="10.410862968717623"><ele>135.0</ele><time>2026-04-23T14:40:21Z</time></trkpt><trkpt lat="42.78912990562259" lon="10.41078074791095"><ele>135.0</ele><time>2026-04-23T14:40:22Z</time></trkpt><trkpt lat="42.78907435912032" lon="10.410707616873276"><ele>135.0</ele><time>2026-04-23T14:40:23Z</time></trkpt><trkpt lat="42.7890248682953" lon="10.410615597483968"><ele>135.0</ele><time>2026-04-23T14:40:24Z</time></trkpt><trkpt lat="42.78900114265343" lon="10.410505800851796"><ele>135.0</ele><time>2026-04-23T14:40:25Z</time></trkpt><trkpt lat="42.78900192201394" lon="10.410371553496008"><ele>135.0</ele><time>2026-04-23T14:40:26Z</time></trkpt><trkpt lat="42.78901969898652" lon="10.41023834370207"><ele>134.4</ele><time>2026-04-23T14:40:27Z</time></trkpt><trkpt lat="42.78905362744783" lon="10.410103977669731"><ele>133.8</ele><time>2026-04-23T14:40:28Z</time></trkpt><trkpt lat="42.78908767599608" lon="10.409961795333336"><ele>133.2</ele><time>2026-04-23T14:40:29Z</time></trkpt><trkpt lat="42.789117620134505" lon="10.409824572192186"><ele>132.6</ele><time>2026-04-23T14:40:30Z</time></trkpt><trkpt lat="42.789146268524014" lon="10.409693155427766"><ele>132.0</ele><time>2026-04-23T14:40:31Z</time></trkpt><trkpt lat="42.78917576293846" lon="10.409563406134733"><ele>131.0</ele><time>2026-04-23T14:40:32Z</time></trkpt><trkpt lat="42.789204261933" lon="10.409429782041373"><ele>130.0</ele><time>2026-04-23T14:40:33Z</time></trkpt><trkpt lat="42.789226309524196" lon="10.409301769065637"><ele>129.0</ele><time>2026-04-23T14:40:34Z</time></trkpt><trkpt lat="42.7892485716369" lon="10.40918207719843"><ele>128.0</ele><time>2026-04-23T14:40:35Z</time></trkpt><trkpt lat="42.789254088744755" lon="10.409066917796428"><ele>127.0</ele><time>2026-04-23T14:40:36Z</time></trkpt><trkpt lat="42.78923418810653" lon="10.408967660556948"><ele>126.0</ele><time>2026-04-23T14:40:37Z</time></trkpt><trkpt lat="42.789193376522626" lon="10.40888055553956"><ele>127.4</ele><time>2026-04-23T14:40:38Z</time></trkpt><trkpt lat="42.78912707379787" lon="10.408804084862796"><ele>128.8</ele><time>2026-04-23T14:40:39Z</time></trkpt><trkpt lat="42.78903694626332" lon="10.408746657898714"><ele>130.20000000000002</ele><time>2026-04-23T14:40:40Z</time></trkpt><trkpt lat="42.78893368386708" lon="10.40870892226507"><ele>131.6</ele><time>2026-04-23T14:40:41Z</time></trkpt><trkpt lat="42.78882826171698" lon="10.408661624226617"><ele>133.0</ele><time>2026-04-23T14:40:42Z</time></trkpt><trkpt lat="42.788726639296556" lon="10.40861073592899"><ele>133.0</ele><time>2026-04-23T14:40:43Z</time></trkpt><trkpt lat="42.78863098248774" lon="10.408551367172757"><ele>133.0</ele><time>2026-04-23T14:40:44Z</time></trkpt><trkpt lat="42.78854321405418" lon="10.408479109759044"><ele>133.0</ele><time>2026-04-23T14:40:45Z</time></trkpt><trkpt lat="42.78846686555526" lon="10.408386628189243"><ele>133.0</ele><time>2026-04-23T14:40:46Z</time></trkpt><trkpt lat="42.78840103222351" lon="10.408293839075547"><ele>133.0</ele><time>2026-04-23T14:40:47Z</time></trkpt><trkpt lat="42.78835017292086" lon="10.40820398998836"><ele>130.0</ele><time>2026-04-23T14:40:48Z</time></trkpt><trkpt lat="42.78832172059981" lon="10.408101342564757"><ele>127.0</ele><time>2026-04-23T14:40:49Z</time></trkpt><trkpt lat="42.78831525826077" lon="10.407993359209094"><ele>124.0</ele><time>2026-04-23T14:40:50Z</time></trkpt><trkpt lat="42.78833040997347" lon="10.407877424807488"><ele>121.0</ele><time>2026-04-23T14:40:51Z</time></trkpt><trkpt lat="42.78836646774729" lon="10.407761726150694"><ele>118.00000000000001</ele><time>2026-04-23T14:40:52Z</time></trkpt><trkpt lat="42.78840042208681" lon="10.407640702371223"><ele>115.0</ele><time>2026-04-23T14:40:53Z</time></trkpt><trkpt lat="42.78842445339664" lon="10.4075186558717"><ele>114.8</ele><time>2026-04-23T14:40:54Z</time></trkpt><trkpt lat="42.78843475316778" lon="10.407392782323075"><ele>114.6</ele><time>2026-04-23T14:40:55Z</time></trkpt><trkpt lat="42.788414062972606" lon="10.407259593868567"><ele>114.4</ele><time>2026-04-23T14:40:56Z</time></trkpt><trkpt lat="42.78837137196981" lon="10.407133137671629"><ele>114.2</ele><time>2026-04-23T14:40:57Z</time></trkpt><trkpt lat="42.788321650932794" lon="10.407004493058277"><ele>114.0</ele><time>2026-04-23T14:40:58Z</time></trkpt><trkpt lat="42.78826889986032" lon="10.40687319088812"><ele>114.0</ele><time>2026-04-23T14:40:59Z</time></trkpt><trkpt lat="42.788219592649234" lon="10.406747398560627"><ele>114.0</ele><time>2026-04-23T14:41:00Z</time></trkpt><trkpt lat="42.7881719149251" lon="10.406623553312157"><ele>114.0</ele><time>2026-04-23T14:41:01Z</time></trkpt><trkpt lat="42.78812685441273" lon="10.40650188126366"><ele>114.0</ele><time>2026-04-23T14:41:02Z</time></trkpt><trkpt lat="42.788079617516686" lon="10.406384882217694"><ele>114.0</ele><time>2026-04-23T14:41:03Z</time></trkpt><trkpt lat="42.7880400900881" lon="10.406258104256151"><ele>114.0</ele><time>2026-04-23T14:41:04Z</time></trkpt><trkpt lat="42.78801003730592" lon="10.406136808303778"><ele>114.0</ele><time>2026-04-23T14:41:05Z</time></trkpt><trkpt lat="42.787989482093856" lon="10.406015496148946"><ele>114.0</ele><time>2026-04-23T14:41:06Z</time></trkpt><trkpt lat="42.78799281793012" lon="10.405889123447437"><ele>114.0</ele><time>2026-04-23T14:41:07Z</time></trkpt><trkpt lat="42.788026537021615" lon="10.40576503308489"><ele>114.0</ele><time>2026-04-23T14:41:08Z</time></trkpt><trkpt lat="42.78807389408568" lon="10.405643412053173"><ele>114.0</ele><time>2026-04-23T14:41:09Z</time></trkpt><trkpt lat="42.78812977615987" lon="10.405527498028903"><ele>114.0</ele><time>2026-04-23T14:41:10Z</time></trkpt><trkpt lat="42.7881931413484" lon="10.40540785672135"><ele>114.0</ele><time>2026-04-23T14:41:11Z</time></trkpt><trkpt lat="42.78826523414782" lon="10.405300173475467"><ele>114.0</ele><time>2026-04-23T14:41:12Z</time></trkpt><trkpt lat="42.78834249767537" lon="10.405211951970152"><ele>114.0</ele><time>2026-04-23T14:41:13Z</time></trkpt><trkpt lat="42.788429765664006" lon="10.405141285988673"><ele>111.80000000000001</ele><time>2026-04-23T14:41:14Z</time></trkpt><trkpt lat="42.78852965065439" lon="10.405093872631266"><ele>109.60000000000001</ele><time>2026-04-23T14:41:15Z</time></trkpt><trkpt lat="42.78863328269394" lon="10.405073916926243"><ele>107.4</ele><time>2026-04-23T14:41:16Z</time></trkpt><trkpt lat="42.78873948938699" lon="10.40507193745923"><ele>105.2</ele><time>2026-04-23T14:41:17Z</time></trkpt><trkpt lat="42.78884163924566" lon="10.405082236354982"><ele>103.0</ele><time>2026-04-23T14:41:18Z</time></trkpt><trkpt lat="42.7889447827431" lon="10.405093756971127"><ele>103.0</ele><time>2026-04-23T14:41:19Z</time></trkpt><trkpt lat="42.78903732215951" lon="10.40510514537116"><ele>103.0</ele><time>2026-04-23T14:41:20Z</time></trkpt><trkpt lat="42.78913125478414" lon="10.405101990728467"><ele>103.0</ele><time>2026-04-23T14:41:21Z</time></trkpt><trkpt lat="42.78922690204778" lon="10.405069760150045"><ele>103.0</ele><time>2026-04-23T14:41:22Z</time></trkpt><trkpt lat="42.78932146543289" lon="10.404999501483456"><ele>103.0</ele><time>2026-04-23T14:41:23Z</time></trkpt><trkpt lat="42.789402515533176" lon="10.404899021697716"><ele>105.0</ele><time>2026-04-23T14:41:24Z</time></trkpt><trkpt lat="42.78946956149949" lon="10.404789968266218"><ele>107.0</ele><time>2026-04-23T14:41:25Z</time></trkpt><trkpt lat="42.78953609170684" lon="10.404684256626384"><ele>109.00000000000001</ele><time>2026-04-23T14:41:26Z</time></trkpt><trkpt lat="42.78960209692899" lon="10.404584953200404"><ele>111.0</ele><time>2026-04-23T14:41:27Z</time></trkpt><trkpt lat="42.7896602671255" lon="10.404494262219995"><ele>113.0</ele><time>2026-04-23T14:41:28Z</time></trkpt><trkpt lat="42.789691442608884" lon="10.404403704504032"><ele>112.99999999999999</ele><time>2026-04-23T14:41:29Z</time></trkpt><trkpt lat="42.789694714927606" lon="10.404308595098163"><ele>113.0</ele><time>2026-04-23T14:41:30Z</time></trkpt><trkpt lat="42.789686091458485" lon="10.404219234892498"><ele>113.0</ele><time>2026-04-23T14:41:31Z</time></trkpt><trkpt lat="42.78964875078724" lon="10.404131952081665"><ele>113.0</ele><time>2026-04-23T14:41:32Z</time></trkpt><trkpt lat="42.78958099461453" lon="10.404058935243059"><ele>112.99999999999999</ele><time>2026-04-23T14:41:33Z</time></trkpt><trkpt lat="42.78949785167724" lon="10.404023534189141"><ele>113.0</ele><time>2026-04-23T14:41:34Z</time></trkpt><trkpt lat="42.78940540895228" lon="10.404019130065524"><ele>111.0</ele><time>2026-04-23T14:41:35Z</time></trkpt><trkpt lat="42.78930461079267" lon="10.404035011206549"><ele>109.00000000000001</ele><time>2026-04-23T14:41:36Z</time></trkpt><trkpt lat="42.78919598595598" lon="10.404069780713062"><ele>107.0</ele><time>2026-04-23T14:41:37Z</time></trkpt><trkpt lat="42.78908348113578" lon="10.404089719447349"><ele>105.0</ele><time>2026-04-23T14:41:38Z</time></trkpt><trkpt lat="42.78896809699348" lon="10.404094558211272"><ele>103.0</ele><time>2026-04-23T14:41:39Z</time></trkpt><trkpt lat="42.78886441381596" lon="10.404073898605263"><ele>103.0</ele><time>2026-04-23T14:41:40Z</time></trkpt><trkpt lat="42.788756434798444" lon="10.404049553076744"><ele>103.0</ele><time>2026-04-23T14:41:41Z</time></trkpt><trkpt lat="42.78865003132333" lon="10.404022039085685"><ele>103.0</ele><time>2026-04-23T14:41:42Z</time></trkpt><trkpt lat="42.78854506865214" lon="10.403992439486284"><ele>103.0</ele><time>2026-04-23T14:41:43Z</time></trkpt><trkpt lat="42.788437793004725" lon="10.403967614786552"><ele>103.0</ele><time>2026-04-23T14:41:44Z</time></trkpt><trkpt lat="42.78833768564705" lon="10.403948253153379"><ele>101.0</ele><time>2026-04-23T14:41:45Z</time></trkpt><trkpt lat="42.78824147373584" lon="10.403936780751563"><ele>99.0</ele><time>2026-04-23T14:41:46Z</time></trkpt><trkpt lat="42.78814334155425" lon="10.403908622901621"><ele>97.0</ele><time>2026-04-23T14:41:47Z</time></trkpt><trkpt lat="42.78804406467704" lon="10.40390966576914"><ele>95.0</ele><time>2026-04-23T14:41:48Z</time></trkpt><trkpt lat="42.787939080126094" lon="10.403924379055647"><ele>93.0</ele><time>2026-04-23T14:41:49Z</time></trkpt><trkpt lat="42.78782892371517" lon="10.403946269101587"><ele>93.0</ele><time>2026-04-23T14:41:50Z</time></trkpt><trkpt lat="42.78771817601675" lon="10.403968651193452"><ele>93.0</ele><time>2026-04-23T14:41:51Z</time></trkpt><trkpt lat="42.787610548291596" lon="10.403982871164486"><ele>93.0</ele><time>2026-04-23T14:41:52Z</time></trkpt><trkpt lat="42.787509847833086" lon="10.404001321877866"><ele>93.0</ele><time>2026-04-23T14:41:53Z</time></trkpt><trkpt lat="42.78741984414283" lon="10.404010963979918"><ele>93.0</ele><time>2026-04-23T14:41:54Z</time></trkpt><trkpt lat="42.78733959812769" lon="10.404012739964996"><ele>93.80000000000001</ele><time>2026-04-23T14:41:55Z</time></trkpt><trkpt lat="42.78725916188731" lon="10.403992497864083"><ele>94.6</ele><time>2026-04-23T14:41:56Z</time></trkpt><trkpt lat="42.787182038161454" lon="10.403947512955412"><ele>95.4</ele><time>2026-04-23T14:41:57Z</time></trkpt><trkpt lat="42.78711527686988" lon="10.403876471975334"><ele>96.19999999999999</ele><time>2026-04-23T14:41:58Z</time></trkpt><trkpt lat="42.78705749693817" lon="10.403772235191298"><ele>97.0</ele><time>2026-04-23T14:41:59Z</time></trkpt><trkpt lat="42.78701125867439" lon="10.40363950372427"><ele>97.0</ele><time>2026-04-23T14:42:00Z</time></trkpt><trkpt lat="42.786984028372665" lon="10.403494684221627"><ele>97.0</ele><time>2026-04-23T14:42:01Z</time></trkpt><trkpt lat="42.786952019252396" lon="10.40335568921094"><ele>97.0</ele><time>2026-04-23T14:42:02Z</time></trkpt><trkpt lat="42.78692081463971" lon="10.403227772482055"><ele>97.0</ele><time>2026-04-23T14:42:03Z</time></trkpt><trkpt lat="42.78689068749416" lon="10.403102270855497"><ele>97.0</ele><time>2026-04-23T14:42:04Z</time></trkpt><trkpt lat="42.78686762989807" lon="10.402985382137484"><ele>94.50000000000001</ele><time>2026-04-23T14:42:05Z</time></trkpt><trkpt lat="42.78683971028979" lon="10.402873425016619"><ele>92.0</ele><time>2026-04-23T14:42:06Z</time></trkpt><trkpt lat="42.78680455218542" lon="10.402768463887364"><ele>89.5</ele><time>2026-04-23T14:42:07Z</time></trkpt><trkpt lat="42.78674720821134" lon="10.402683788274429"><ele>87.0</ele><time>2026-04-23T14:42:08Z</time></trkpt><trkpt lat="42.786676037594425" lon="10.402628929239636"><ele>84.5</ele><time>2026-04-23T14:42:09Z</time></trkpt><trkpt lat="42.78660226691738" lon="10.402598948610423"><ele>82.0</ele><time>2026-04-23T14:42:10Z</time></trkpt><trkpt lat="42.786523044890366" lon="10.40259737970004"><ele>82.0</ele><time>2026-04-23T14:42:11Z</time></trkpt><trkpt lat="42.78644583171665" lon="10.402632505342275"><ele>82.0</ele><time>2026-04-23T14:42:12Z</time></trkpt><trkpt lat="42.78637959600792" lon="10.402692956389057"><ele>82.0</ele><time>2026-04-23T14:42:13Z</time></trkpt><trkpt lat="42.7863233959886" lon="10.40278292586206"><ele>82.0</ele><time>2026-04-23T14:42:14Z</time></trkpt><trkpt lat="42.78628261754556" lon="10.402902716294106"><ele>82.0</ele><time>2026-04-23T14:42:15Z</time></trkpt><trkpt lat="42.78624747195936" lon="10.40304096915507"><ele>80.19999999999999</ele><time>2026-04-23T14:42:16Z</time></trkpt><trkpt lat="42.786208133090916" lon="10.403188850116239"><ele>78.39999999999999</ele><time>2026-04-23T14:42:17Z</time></trkpt><trkpt lat="42.78617068571077" lon="10.403332549214662"><ele>76.6</ele><time>2026-04-23T14:42:18Z</time></trkpt><trkpt lat="42.78613306774938" lon="10.40347156152969"><ele>74.8</ele><time>2026-04-23T14:42:19Z</time></trkpt><trkpt lat="42.78608875989278" lon="10.403613402439937"><ele>73.0</ele><time>2026-04-23T14:42:20Z</time></trkpt><trkpt lat="42.78603181643083" lon="10.40374889910644"><ele>72.25</ele><time>2026-04-23T14:42:21Z</time></trkpt><trkpt lat="42.78597370606437" lon="10.403887487179576"><ele>71.5</ele><time>2026-04-23T14:42:22Z</time></trkpt><trkpt lat="42.7859002203646" lon="10.404020427873109"><ele>70.75</ele><time>2026-04-23T14:42:23Z</time></trkpt><trkpt lat="42.785823341654584" lon="10.404144853685864"><ele>70.0</ele><time>2026-04-23T14:42:24Z</time></trkpt><trkpt lat="42.78574932456636" lon="10.404271107240968"><ele>70.0</ele><time>2026-04-23T14:42:25Z</time></trkpt><trkpt lat="42.78566746390002" lon="10.40438792291848"><ele>70.0</ele><time>2026-04-23T14:42:26Z</time></trkpt><trkpt lat="42.78558679495078" lon="10.404508247889307"><ele>70.0</ele><time>2026-04-23T14:42:27Z</time></trkpt><trkpt lat="42.78551183648817" lon="10.404625002539797"><ele>70.0</ele><time>2026-04-23T14:42:28Z</time></trkpt><trkpt lat="42.785440060643666" lon="10.404728510952442"><ele>70.4</ele><time>2026-04-23T14:42:29Z</time></trkpt><trkpt lat="42.78536459794537" lon="10.404835039464803"><ele>70.8</ele><time>2026-04-23T14:42:30Z</time></trkpt><trkpt lat="42.78528980047547" lon="10.404938647318518"><ele>71.2</ele><time>2026-04-23T14:42:31Z</time></trkpt><trkpt lat="42.78520908175625" lon="10.405039511776817"><ele>71.6</ele><time>2026-04-23T14:42:32Z</time></trkpt><trkpt lat="42.785123499627396" lon="10.405133905854962"><ele>72.0</ele><time>2026-04-23T14:42:33Z</time></trkpt><trkpt lat="42.785029230478386" lon="10.40522943097178"><ele>72.0</ele><time>2026-04-23T14:42:34Z</time></trkpt><trkpt lat="42.78493350973698" lon="10.4053284823362"><ele>72.0</ele><time>2026-04-23T14:42:35Z</time></trkpt><trkpt lat="42.78483067595653" lon="10.405423626613896"><ele>72.0</ele><time>2026-04-23T14:42:36Z</time></trkpt><trkpt lat="42.78472516102872" lon="10.405517594238438"><ele>72.0</ele><time>2026-04-23T14:42:37Z</time></trkpt><trkpt lat="42.78462064421207" lon="10.405615163821238"><ele>71.5</ele><time>2026-04-23T14:42:38Z</time></trkpt><trkpt lat="42.78451409025585" lon="10.405717471571736"><ele>71.0</ele><time>2026-04-23T14:42:39Z</time></trkpt><trkpt lat="42.78440787383877" lon="10.405818087465489"><ele>70.5</ele><time>2026-04-23T14:42:40Z</time></trkpt><trkpt lat="42.78430732495387" lon="10.40591555991337"><ele>70.0</ele><time>2026-04-23T14:42:41Z</time></trkpt><trkpt lat="42.78420494920311" lon="10.406010856000528"><ele>70.0</ele><time>2026-04-23T14:42:42Z</time></trkpt><trkpt lat="42.78410923307949" lon="10.406110590365513"><ele>70.0</ele><time>2026-04-23T14:42:43Z</time></trkpt><trkpt lat="42.78400033734842" lon="10.406199833768829"><ele>70.0</ele><time>2026-04-23T14:42:44Z</time></trkpt><trkpt lat="42.78390209174465" lon="10.406305201554725"><ele>70.0</ele><time>2026-04-23T14:42:45Z</time></trkpt><trkpt lat="42.783803818467504" lon="10.406411203606325"><ele>69.25</ele><time>2026-04-23T14:42:46Z</time></trkpt><trkpt lat="42.78371035105931" lon="10.406509855966286"><ele>68.5</ele><time>2026-04-23T14:42:47Z</time></trkpt><trkpt lat="42.78359936613745" lon="10.406600910548892"><ele>67.75</ele><time>2026-04-23T14:42:48Z</time></trkpt><trkpt lat="42.78348902788531" lon="10.406672501522637"><ele>67.0</ele><time>2026-04-23T14:42:49Z</time></trkpt><trkpt lat="42.78337981782819" lon="10.406732877556653"><ele>67.0</ele><time>2026-04-23T14:42:50Z</time></trkpt><trkpt lat="42.78327701803493" lon="10.406793518223443"><ele>67.0</ele><time>2026-04-23T14:42:51Z</time></trkpt><trkpt lat="42.78316993067363" lon="10.406873908916184"><ele>67.0</ele><time>2026-04-23T14:42:52Z</time></trkpt><trkpt lat="42.7830697970361" lon="10.406975590974143"><ele>67.0</ele><time>2026-04-23T14:42:53Z</time></trkpt><trkpt lat="42.782977912498644" lon="10.407091825514497"><ele>67.0</ele><time>2026-04-23T14:42:54Z</time></trkpt><trkpt lat="42.78288394236621" lon="10.407219406381572"><ele>67.0</ele><time>2026-04-23T14:42:55Z</time></trkpt><trkpt lat="42.78279029865083" lon="10.407347991194698"><ele>67.0</ele><time>2026-04-23T14:42:56Z</time></trkpt><trkpt lat="42.782696012472236" lon="10.407472760491471"><ele>67.0</ele><time>2026-04-23T14:42:57Z</time></trkpt><trkpt lat="42.78260139510594" lon="10.40760314068592"><ele>67.0</ele><time>2026-04-23T14:42:58Z</time></trkpt><trkpt lat="42.782510695368416" lon="10.407723614506592"><ele>67.0</ele><time>2026-04-23T14:42:59Z</time></trkpt><trkpt lat="42.78242055264359" lon="10.40784062369259"><ele>67.0</ele><time>2026-04-23T14:43:00Z</time></trkpt><trkpt lat="42.78232710405374" lon="10.40795900042438"><ele>67.0</ele><time>2026-04-23T14:43:01Z</time></trkpt><trkpt lat="42.78222533959208" lon="10.408070858507868"><ele>65.25</ele><time>2026-04-23T14:43:02Z</time></trkpt><trkpt lat="42.782111158374256" lon="10.408172754042662"><ele>63.5</ele><time>2026-04-23T14:43:03Z</time></trkpt><trkpt lat="42.78199559495778" lon="10.408264011997344"><ele>61.75</ele><time>2026-04-23T14:43:04Z</time></trkpt><trkpt lat="42.781878041626015" lon="10.408354956249267"><ele>60.0</ele><time>2026-04-23T14:43:05Z</time></trkpt><trkpt lat="42.78175824278193" lon="10.408439628588216"><ele>60.0</ele><time>2026-04-23T14:43:06Z</time></trkpt><trkpt lat="42.78164168746977" lon="10.408523121795218"><ele>60.0</ele><time>2026-04-23T14:43:07Z</time></trkpt><trkpt lat="42.78152541834821" lon="10.40860600123064"><ele>60.0</ele><time>2026-04-23T14:43:08Z</time></trkpt><trkpt lat="42.781413299469115" lon="10.408682450294789"><ele>60.0</ele><time>2026-04-23T14:43:09Z</time></trkpt><trkpt lat="42.78129723752717" lon="10.40875943244051"><ele>57.25</ele><time>2026-04-23T14:43:10Z</time></trkpt><trkpt lat="42.781172325281766" lon="10.408836007676856"><ele>54.5</ele><time>2026-04-23T14:43:11Z</time></trkpt><trkpt lat="42.781052169631906" lon="10.408894238683027"><ele>51.75</ele><time>2026-04-23T14:43:12Z</time></trkpt><trkpt lat="42.780928528003265" lon="10.408947729785567"><ele>49.0</ele><time>2026-04-23T14:43:13Z</time></trkpt><trkpt lat="42.7808062594056" lon="10.408997983329506"><ele>49.0</ele><time>2026-04-23T14:43:14Z</time></trkpt><trkpt lat="42.78068068464432" lon="10.40904485552063"><ele>49.0</ele><time>2026-04-23T14:43:15Z</time></trkpt><trkpt lat="42.78055262345906" lon="10.409088202075553"><ele>49.0</ele><time>2026-04-23T14:43:16Z</time></trkpt><trkpt lat="42.78042224265833" lon="10.409126955473296"><ele>49.0</ele><time>2026-04-23T14:43:17Z</time></trkpt><trkpt lat="42.7802880254127" lon="10.409161545181968"><ele>49.5</ele><time>2026-04-23T14:43:18Z</time></trkpt><trkpt lat="42.780147387049325" lon="10.409190911098783"><ele>50.0</ele><time>2026-04-23T14:43:19Z</time></trkpt><trkpt lat="42.78000564928933" lon="10.409220629266352"><ele>50.5</ele><time>2026-04-23T14:43:20Z</time></trkpt><trkpt lat="42.77986689284918" lon="10.40924479129021"><ele>51.0</ele><time>2026-04-23T14:43:21Z</time></trkpt><trkpt lat="42.77973176369065" lon="10.409270162141665"><ele>51.0</ele><time>2026-04-23T14:43:22Z</time></trkpt><trkpt lat="42.779595651443856" lon="10.409295867199559"><ele>51.0</ele><time>2026-04-23T14:43:23Z</time></trkpt><trkpt lat="42.77945739224004" lon="10.409325080000897"><ele>51.0</ele><time>2026-04-23T14:43:24Z</time></trkpt><trkpt lat="42.77932052809646" lon="10.40934715092446"><ele>51.0</ele><time>2026-04-23T14:43:25Z</time></trkpt><trkpt lat="42.77918195976381" lon="10.409373211519718"><ele>50.5</ele><time>2026-04-23T14:43:26Z</time></trkpt><trkpt lat="42.7790432055425" lon="10.409400859123021"><ele>50.0</ele><time>2026-04-23T14:43:27Z</time></trkpt><trkpt lat="42.77890843145581" lon="10.409428313690373"><ele>49.5</ele><time>2026-04-23T14:43:28Z</time></trkpt><trkpt lat="42.7787733716289" lon="10.409453335057549"><ele>49.0</ele><time>2026-04-23T14:43:29Z</time></trkpt><trkpt lat="42.77863576647396" lon="10.409477057670395"><ele>49.25</ele><time>2026-04-23T14:43:30Z</time></trkpt><trkpt lat="42.77849893930298" lon="10.40950085796285"><ele>49.5</ele><time>2026-04-23T14:43:31Z</time></trkpt><trkpt lat="42.77836370032647" lon="10.409524925028505"><ele>49.75</ele><time>2026-04-23T14:43:32Z</time></trkpt><trkpt lat="42.77823612224657" lon="10.409542943367763"><ele>50.0</ele><time>2026-04-23T14:43:33Z</time></trkpt><trkpt lat="42.77811644660369" lon="10.409567859354189"><ele>50.0</ele><time>2026-04-23T14:43:34Z</time></trkpt><trkpt lat="42.77799946874067" lon="10.40959030172089"><ele>50.0</ele><time>2026-04-23T14:43:35Z</time></trkpt><trkpt lat="42.777883841788" lon="10.409611599311713"><ele>50.0</ele><time>2026-04-23T14:43:36Z</time></trkpt><trkpt lat="42.77777071555879" lon="10.409624671932667"><ele>50.0</ele><time>2026-04-23T14:43:37Z</time></trkpt><trkpt lat="42.777650700171016" lon="10.409623361503595"><ele>50.25</ele><time>2026-04-23T14:43:38Z</time></trkpt><trkpt lat="42.77752696552557" lon="10.409607741192469"><ele>50.5</ele><time>2026-04-23T14:43:39Z</time></trkpt><trkpt lat="42.777401710789995" lon="10.409586831706525"><ele>50.75</ele><time>2026-04-23T14:43:40Z</time></trkpt><trkpt lat="42.77727250892515" lon="10.409557090742995"><ele>51.0</ele><time>2026-04-23T14:43:41Z</time></trkpt><trkpt lat="42.77714518941016" lon="10.40951723892815"><ele>51.0</ele><time>2026-04-23T14:43:42Z</time></trkpt><trkpt lat="42.77702482653242" lon="10.409474507977729"><ele>51.0</ele><time>2026-04-23T14:43:43Z</time></trkpt><trkpt lat="42.7769077152952" lon="10.409429516966714"><ele>51.0</ele><time>2026-04-23T14:43:44Z</time></trkpt><trkpt lat="42.776793223123065" lon="10.409396849860423"><ele>51.0</ele><time>2026-04-23T14:43:45Z</time></trkpt><trkpt lat="42.77667433882427" lon="10.409379861985425"><ele>50.0</ele><time>2026-04-23T14:43:46Z</time></trkpt><trkpt lat="42.77654497834487" lon="10.409373986648454"><ele>49.0</ele><time>2026-04-23T14:43:47Z</time></trkpt><trkpt lat="42.776412935308706" lon="10.409381172820758"><ele>48.0</ele><time>2026-04-23T14:43:48Z</time></trkpt><trkpt lat="42.77628364618701" lon="10.409394705108415"><ele>47.0</ele><time>2026-04-23T14:43:49Z</time></trkpt><trkpt lat="42.776164566920485" lon="10.409415881613672"><ele>47.0</ele><time>2026-04-23T14:43:50Z</time></trkpt><trkpt lat="42.776043601862334" lon="10.409430455284381"><ele>47.0</ele><time>2026-04-23T14:43:51Z</time></trkpt><trkpt lat="42.775914471707246" lon="10.40944464003398"><ele>47.0</ele><time>2026-04-23T14:43:52Z</time></trkpt><trkpt lat="42.775783685099064" lon="10.409458184953742"><ele>47.0</ele><time>2026-04-23T14:43:53Z</time></trkpt><trkpt lat="42.77565028339874" lon="10.409477614297638"><ele>45.0</ele><time>2026-04-23T14:43:54Z</time></trkpt><trkpt lat="42.77552053308001" lon="10.409499536366067"><ele>43.0</ele><time>2026-04-23T14:43:55Z</time></trkpt><trkpt lat="42.77538882028282" lon="10.409517876020772"><ele>41.0</ele><time>2026-04-23T14:43:56Z</time></trkpt><trkpt lat="42.77526092703652" lon="10.409536426575237"><ele>39.0</ele><time>2026-04-23T14:43:57Z</time></trkpt><trkpt lat="42.775138962737216" lon="10.40955628036604"><ele>37.8</ele><time>2026-04-23T14:43:58Z</time></trkpt><trkpt lat="42.77501973087599" lon="10.409572359609433"><ele>36.599999999999994</ele><time>2026-04-23T14:43:59Z</time></trkpt><trkpt lat="42.774907444369035" lon="10.409586109912917"><ele>35.4</ele><time>2026-04-23T14:44:00Z</time></trkpt><trkpt lat="42.77480718343326" lon="10.4095956807794"><ele>34.199999999999996</ele><time>2026-04-23T14:44:01Z</time></trkpt><trkpt lat="42.774717052327446" lon="10.409599679379316"><ele>33.0</ele><time>2026-04-23T14:44:02Z</time></trkpt><trkpt lat="42.77462906228327" lon="10.409594073321687"><ele>33.0</ele><time>2026-04-23T14:44:03Z</time></trkpt><trkpt lat="42.77454481410553" lon="10.409569860404035"><ele>33.0</ele><time>2026-04-23T14:44:04Z</time></trkpt><trkpt lat="42.77446201413898" lon="10.409515323737319"><ele>33.0</ele><time>2026-04-23T14:44:05Z</time></trkpt><trkpt lat="42.77438351538665" lon="10.409459673226632"><ele>33.0</ele><time>2026-04-23T14:44:06Z</time></trkpt><trkpt lat="42.7743153943569" lon="10.409391378134151"><ele>33.0</ele><time>2026-04-23T14:44:07Z</time></trkpt><trkpt lat="42.774256294155755" lon="10.409292201006044"><ele>33.0</ele><time>2026-04-23T14:44:08Z</time></trkpt><trkpt lat="42.77420675525106" lon="10.409174919465205"><ele>31.0</ele><time>2026-04-23T14:44:09Z</time></trkpt><trkpt lat="42.77416687464209" lon="10.409050435231613"><ele>28.999999999999996</ele><time>2026-04-23T14:44:10Z</time></trkpt><trkpt lat="42.77414232199602" lon="10.408908882707138"><ele>27.0</ele><time>2026-04-23T14:44:11Z</time></trkpt><trkpt lat="42.7741318601832" lon="10.408766237563505"><ele>25.0</ele><time>2026-04-23T14:44:12Z</time></trkpt><trkpt lat="42.77411999373357" lon="10.408628377211574"><ele>23.0</ele><time>2026-04-23T14:44:13Z</time></trkpt><trkpt lat="42.77410608639742" lon="10.408493533256385"><ele>22.599999999999998</ele><time>2026-04-23T14:44:14Z</time></trkpt><trkpt lat="42.774095099473385" lon="10.408360991112069"><ele>22.2</ele><time>2026-04-23T14:44:15Z</time></trkpt><trkpt lat="42.7740816370475" lon="10.408221143376435"><ele>21.8</ele><time>2026-04-23T14:44:16Z</time></trkpt><trkpt lat="42.77407399391115" lon="10.408084116280659"><ele>21.4</ele><time>2026-04-23T14:44:17Z</time></trkpt><trkpt lat="42.77405883119708" lon="10.407934566624245"><ele>21.0</ele><time>2026-04-23T14:44:18Z</time></trkpt><trkpt lat="42.77404646342357" lon="10.40778696388157"><ele>21.0</ele><time>2026-04-23T14:44:19Z</time></trkpt><trkpt lat="42.77404488601479" lon="10.407646718346632"><ele>21.0</ele><time>2026-04-23T14:44:20Z</time></trkpt><trkpt lat="42.774052914760254" lon="10.40752007775397"><ele>21.0</ele><time>2026-04-23T14:44:21Z</time></trkpt><trkpt lat="42.77406618279902" lon="10.407388960872215"><ele>21.0</ele><time>2026-04-23T14:44:22Z</time></trkpt><trkpt lat="42.77408785409619" lon="10.407258086934917"><ele>21.0</ele><time>2026-04-23T14:44:23Z</time></trkpt><trkpt lat="42.77412175111471" lon="10.407124498868644"><ele>20.2</ele><time>2026-04-23T14:44:24Z</time></trkpt><trkpt lat="42.77416439202036" lon="10.406992324411076"><ele>19.400000000000002</ele><time>2026-04-23T14:44:25Z</time></trkpt><trkpt lat="42.77421526832062" lon="10.40686145030753"><ele>18.6</ele><time>2026-04-23T14:44:26Z</time></trkpt><trkpt lat="42.77426482644474" lon="10.406740405858697"><ele>17.8</ele><time>2026-04-23T14:44:27Z</time></trkpt><trkpt lat="42.774310209036166" lon="10.406624459490105"><ele>17.0</ele><time>2026-04-23T14:44:28Z</time></trkpt><trkpt lat="42.77434577288798" lon="10.40652225877822"><ele>17.4</ele><time>2026-04-23T14:44:29Z</time></trkpt><trkpt lat="42.77436241663947" lon="10.40641176678379"><ele>17.799999999999997</ele><time>2026-04-23T14:44:30Z</time></trkpt><trkpt lat="42.77436017169718" lon="10.406293176637593"><ele>18.2</ele><time>2026-04-23T14:44:31Z</time></trkpt><trkpt lat="42.77433477434502" lon="10.406162826267241"><ele>18.599999999999998</ele><time>2026-04-23T14:44:32Z</time></trkpt><trkpt lat="42.77429215872619" lon="10.406021897226504"><ele>19.0</ele><time>2026-04-23T14:44:33Z</time></trkpt><trkpt lat="42.7742355677602" lon="10.405881318142708"><ele>17.5</ele><time>2026-04-23T14:44:34Z</time></trkpt><trkpt lat="42.77418622743707" lon="10.405741753041154"><ele>16.0</ele><time>2026-04-23T14:44:35Z</time></trkpt><trkpt lat="42.77412811922899" lon="10.405597478962108"><ele>14.5</ele><time>2026-04-23T14:44:36Z</time></trkpt><trkpt lat="42.77406882380902" lon="10.405451481535113"><ele>13.0</ele><time>2026-04-23T14:44:37Z</time></trkpt><trkpt lat="42.77400987800238" lon="10.405298508025796"><ele>13.0</ele><time>2026-04-23T14:44:38Z</time></trkpt><trkpt lat="42.77395143221228" lon="10.405143078682903"><ele>13.0</ele><time>2026-04-23T14:44:39Z</time></trkpt><trkpt lat="42.77388976281594" lon="10.404986145766149"><ele>13.0</ele><time>2026-04-23T14:44:40Z</time></trkpt><trkpt lat="42.77382796254399" lon="10.404825990358816"><ele>13.0</ele><time>2026-04-23T14:44:41Z</time></trkpt><trkpt lat="42.77376805537617" lon="10.404667593783502"><ele>12.5</ele><time>2026-04-23T14:44:42Z</time></trkpt><trkpt lat="42.77370742609347" lon="10.404508785091785"><ele>12.0</ele><time>2026-04-23T14:44:43Z</time></trkpt><trkpt lat="42.7736462445336" lon="10.404352188860617"><ele>11.5</ele><time>2026-04-23T14:44:44Z</time></trkpt><trkpt lat="42.77358733290243" lon="10.404194291881973"><ele>11.0</ele><time>2026-04-23T14:44:45Z</time></trkpt><trkpt lat="42.77352740756554" lon="10.404037609595983"><ele>10.25</ele><time>2026-04-23T14:44:46Z</time></trkpt><trkpt lat="42.77346997943639" lon="10.403882062163273"><ele>9.5</ele><time>2026-04-23T14:44:47Z</time></trkpt><trkpt lat="42.77341378951097" lon="10.403723936086926"><ele>8.75</ele><time>2026-04-23T14:44:48Z</time></trkpt><trkpt lat="42.773353694959006" lon="10.403564253462918"><ele>8.0</ele><time>2026-04-23T14:44:49Z</time></trkpt><trkpt lat="42.77329490129269" lon="10.403406582817851"><ele>8.0</ele><time>2026-04-23T14:44:50Z</time></trkpt><trkpt lat="42.77323350873045" lon="10.403248006626056"><ele>8.0</ele><time>2026-04-23T14:44:51Z</time></trkpt><trkpt lat="42.773172127587614" lon="10.403089798512644"><ele>8.0</ele><time>2026-04-23T14:44:52Z</time></trkpt><trkpt lat="42.773114928956964" lon="10.402929944241704"><ele>8.0</ele><time>2026-04-23T14:44:53Z</time></trkpt><trkpt lat="42.773057157966626" lon="10.402768254933722"><ele>8.5</ele><time>2026-04-23T14:44:54Z</time></trkpt><trkpt lat="42.773001043019775" lon="10.402609327146527"><ele>9.0</ele><time>2026-04-23T14:44:55Z</time></trkpt><trkpt lat="42.77294357758366" lon="10.402454568655468"><ele>9.5</ele><time>2026-04-23T14:44:56Z</time></trkpt><trkpt lat="42.7728899334798" lon="10.402304314628434"><ele>10.0</ele><time>2026-04-23T14:44:57Z</time></trkpt><trkpt lat="42.77283665445699" lon="10.402151575650107"><ele>11.25</ele><time>2026-04-23T14:44:58Z</time></trkpt><trkpt lat="42.772779425520085" lon="10.40199359764598"><ele>12.5</ele><time>2026-04-23T14:44:59Z</time></trkpt><trkpt lat="42.77272036762437" lon="10.401833076997288"><ele>13.75</ele><time>2026-04-23T14:45:00Z</time></trkpt><trkpt lat="42.77266004166776" lon="10.401676383573191"><ele>15.0</ele><time>2026-04-23T14:45:01Z</time></trkpt><trkpt lat="42.772597040589304" lon="10.40152136023781"><ele>15.0</ele><time>2026-04-23T14:45:02Z</time></trkpt><trkpt lat="42.77253174639013" lon="10.401368703248426"><ele>15.0</ele><time>2026-04-23T14:45:03Z</time></trkpt><trkpt lat="42.77245891470568" lon="10.40122153741905"><ele>15.0</ele><time>2026-04-23T14:45:04Z</time></trkpt><trkpt lat="42.772384344552925" lon="10.401077061672712"><ele>15.0</ele><time>2026-04-23T14:45:05Z</time></trkpt><trkpt lat="42.77230671545194" lon="10.400932209972602"><ele>15.25</ele><time>2026-04-23T14:45:06Z</time></trkpt><trkpt lat="42.77222564126032" lon="10.400802108267401"><ele>15.5</ele><time>2026-04-23T14:45:07Z</time></trkpt><trkpt lat="42.772139697216446" lon="10.400678177758346"><ele>15.75</ele><time>2026-04-23T14:45:08Z</time></trkpt><trkpt lat="42.772047780454415" lon="10.400555691397193"><ele>16.0</ele><time>2026-04-23T14:45:09Z</time></trkpt><trkpt lat="42.771955252557866" lon="10.400437012423385"><ele>16.25</ele><time>2026-04-23T14:45:10Z</time></trkpt><trkpt lat="42.77186382490196" lon="10.400319530890187"><ele>16.5</ele><time>2026-04-23T14:45:11Z</time></trkpt><trkpt lat="42.77177142475322" lon="10.400199731971917"><ele>16.75</ele><time>2026-04-23T14:45:12Z</time></trkpt><trkpt lat="42.771682304449286" lon="10.400085793542345"><ele>17.0</ele><time>2026-04-23T14:45:13Z</time></trkpt><trkpt lat="42.77160360211436" lon="10.399989101412784"><ele>17.0</ele><time>2026-04-23T14:45:14Z</time></trkpt><trkpt lat="42.7715300229079" lon="10.399893250796628"><ele>17.0</ele><time>2026-04-23T14:45:15Z</time></trkpt><trkpt lat="42.77144963750852" lon="10.399785008687608"><ele>17.0</ele><time>2026-04-23T14:45:16Z</time></trkpt><trkpt lat="42.7713631817147" lon="10.399678686527738"><ele>17.0</ele><time>2026-04-23T14:45:17Z</time></trkpt><trkpt lat="42.771276007724374" lon="10.399568891997816"><ele>17.5</ele><time>2026-04-23T14:45:18Z</time></trkpt><trkpt lat="42.7711835978086" lon="10.399452690565374"><ele>18.0</ele><time>2026-04-23T14:45:19Z</time></trkpt><trkpt lat="42.77109086662209" lon="10.39933184798419"><ele>18.5</ele><time>2026-04-23T14:45:20Z</time></trkpt><trkpt lat="42.770996536240354" lon="10.399211339767042"><ele>19.0</ele><time>2026-04-23T14:45:21Z</time></trkpt><trkpt lat="42.77090536466191" lon="10.399093545308645"><ele>18.25</ele><time>2026-04-23T14:45:22Z</time></trkpt><trkpt lat="42.77081788892932" lon="10.398978982734713"><ele>17.5</ele><time>2026-04-23T14:45:23Z</time></trkpt><trkpt lat="42.77072986113894" lon="10.398864257090572"><ele>16.75</ele><time>2026-04-23T14:45:24Z</time></trkpt><trkpt lat="42.770643415882695" lon="10.398751652610636"><ele>16.0</ele><time>2026-04-23T14:45:25Z</time></trkpt><trkpt lat="42.77055956813477" lon="10.398645045391332"><ele>16.0</ele><time>2026-04-23T14:45:26Z</time></trkpt><trkpt lat="42.77048093304288" lon="10.398542377545066"><ele>16.0</ele><time>2026-04-23T14:45:27Z</time></trkpt><trkpt lat="42.770411103912316" lon="10.39842989387221"><ele>16.0</ele><time>2026-04-23T14:45:28Z</time></trkpt><trkpt lat="42.77035377237063" lon="10.398309142069854"><ele>16.0</ele><time>2026-04-23T14:45:29Z</time></trkpt><trkpt lat="42.77030598684044" lon="10.39817760603445"><ele>16.0</ele><time>2026-04-23T14:45:30Z</time></trkpt><trkpt lat="42.77026368181242" lon="10.398035046010436"><ele>16.2</ele><time>2026-04-23T14:45:31Z</time></trkpt><trkpt lat="42.77022047207096" lon="10.397888719272512"><ele>16.400000000000002</ele><time>2026-04-23T14:45:32Z</time></trkpt><trkpt lat="42.77018306341838" lon="10.397754909707484"><ele>16.6</ele><time>2026-04-23T14:45:33Z</time></trkpt><trkpt lat="42.77014641514477" lon="10.397642642823705"><ele>16.8</ele><time>2026-04-23T14:45:34Z</time></trkpt><trkpt lat="42.77012009592973" lon="10.397543396297912"><ele>17.0</ele><time>2026-04-23T14:45:35Z</time></trkpt><trkpt lat="42.77008968804186" lon="10.397443692873015"><ele>16.2</ele><time>2026-04-23T14:45:36Z</time></trkpt><trkpt lat="42.7700580781798" lon="10.397333597132583"><ele>15.399999999999999</ele><time>2026-04-23T14:45:37Z</time></trkpt><trkpt lat="42.77001882408019" lon="10.397208172919578"><ele>14.600000000000001</ele><time>2026-04-23T14:45:38Z</time></trkpt><trkpt lat="42.76997100509822" lon="10.397079534945794"><ele>13.8</ele><time>2026-04-23T14:45:39Z</time></trkpt><trkpt lat="42.76990347669919" lon="10.39695818702179"><ele>13.0</ele><time>2026-04-23T14:45:40Z</time></trkpt><trkpt lat="42.76982363383162" lon="10.396839727122078"><ele>13.0</ele><time>2026-04-23T14:45:41Z</time></trkpt><trkpt lat="42.76973401779888" lon="10.396727391482067"><ele>13.0</ele><time>2026-04-23T14:45:42Z</time></trkpt><trkpt lat="42.76963625993512" lon="10.396624995883771"><ele>13.0</ele><time>2026-04-23T14:45:43Z</time></trkpt><trkpt lat="42.76954055991953" lon="10.396527678933968"><ele>13.0</ele><time>2026-04-23T14:45:44Z</time></trkpt><trkpt lat="42.769448220723575" lon="10.396430527719529"><ele>12.25</ele><time>2026-04-23T14:45:45Z</time></trkpt><trkpt lat="42.76935395722234" lon="10.396333243458576"><ele>11.5</ele><time>2026-04-23T14:45:46Z</time></trkpt><trkpt lat="42.76925493850029" lon="10.396234805347154"><ele>10.75</ele><time>2026-04-23T14:45:47Z</time></trkpt><trkpt lat="42.769157796189916" lon="10.396133743787559"><ele>10.0</ele><time>2026-04-23T14:45:48Z</time></trkpt><trkpt lat="42.76906394044974" lon="10.396039756616734"><ele>10.0</ele><time>2026-04-23T14:45:49Z</time></trkpt><trkpt lat="42.76897221484009" lon="10.395944235558849"><ele>10.0</ele><time>2026-04-23T14:45:50Z</time></trkpt><trkpt lat="42.76888262039652" lon="10.39585352032583"><ele>10.0</ele><time>2026-04-23T14:45:51Z</time></trkpt><trkpt lat="42.76879805375465" lon="10.3957679354826"><ele>10.0</ele><time>2026-04-23T14:45:52Z</time></trkpt><trkpt lat="42.76872036237279" lon="10.395688780235876"><ele>10.0</ele><time>2026-04-23T14:45:53Z</time></trkpt><trkpt lat="42.76864984299269" lon="10.395616254108381"><ele>10.0</ele><time>2026-04-23T14:45:54Z</time></trkpt><trkpt lat="42.768578053534505" lon="10.395543898775863"><ele>10.0</ele><time>2026-04-23T14:45:55Z</time></trkpt><trkpt lat="42.768506348485076" lon="10.395472241072742"><ele>10.0</ele><time>2026-04-23T14:45:56Z</time></trkpt><trkpt lat="42.76843401121233" lon="10.395395794100992"><ele>10.0</ele><time>2026-04-23T14:45:57Z</time></trkpt><trkpt lat="42.76836112284093" lon="10.395319245282705"><ele>10.0</ele><time>2026-04-23T14:45:58Z</time></trkpt><trkpt lat="42.76829032915109" lon="10.395246395314787"><ele>9.4</ele><time>2026-04-23T14:45:59Z</time></trkpt><trkpt lat="42.76822144081271" lon="10.395176226338975"><ele>8.8</ele><time>2026-04-23T14:46:00Z</time></trkpt><trkpt lat="42.76815147734469" lon="10.395106161625709"><ele>8.2</ele><time>2026-04-23T14:46:01Z</time></trkpt><trkpt lat="42.7680793186283" lon="10.395029983937999"><ele>7.6</ele><time>2026-04-23T14:46:02Z</time></trkpt><trkpt lat="42.76800466302915" lon="10.394951429418985"><ele>7.0</ele><time>2026-04-23T14:46:03Z</time></trkpt><trkpt lat="42.767929850773974" lon="10.394873712944534"><ele>7.000000000000001</ele><time>2026-04-23T14:46:04Z</time></trkpt><trkpt lat="42.76786127029763" lon="10.394798903157202"><ele>7.0</ele><time>2026-04-23T14:46:05Z</time></trkpt><trkpt lat="42.767795466271956" lon="10.394727647923675"><ele>7.0</ele><time>2026-04-23T14:46:06Z</time></trkpt><trkpt lat="42.76773275346843" lon="10.394664852282958"><ele>7.0</ele><time>2026-04-23T14:46:07Z</time></trkpt><trkpt lat="42.76767326858838" lon="10.394617854584576"><ele>7.000000000000001</ele><time>2026-04-23T14:46:08Z</time></trkpt><trkpt lat="42.76755861764196" lon="10.394569381263215"><ele>7.0</ele><time>2026-04-23T14:46:10Z</time></trkpt><trkpt lat="42.76749491520581" lon="10.39456518280964"><ele>6.666666666666667</ele><time>2026-04-23T14:46:11Z</time></trkpt><trkpt lat="42.7674297083708" lon="10.39456814425346"><ele>6.333333333333334</ele><time>2026-04-23T14:46:12Z</time></trkpt><trkpt lat="42.767357546564604" lon="10.39458681494923"><ele>6.0</ele><time>2026-04-23T14:46:13Z</time></trkpt><trkpt lat="42.767286548752004" lon="10.394616245190903"><ele>5.666666666666667</ele><time>2026-04-23T14:46:14Z</time></trkpt><trkpt lat="42.76722209956889" lon="10.39464214120801"><ele>5.333333333333334</ele><time>2026-04-23T14:46:15Z</time></trkpt><trkpt lat="42.76709546125086" lon="10.394696734816193"><ele>5.0</ele><time>2026-04-23T14:46:17Z</time></trkpt><trkpt lat="42.76702477056573" lon="10.394726550699547"><ele>4.857142857142857</ele><time>2026-04-23T14:46:18Z</time></trkpt><trkpt lat="42.76694668363049" lon="10.39475640745728"><ele>4.714285714285714</ele><time>2026-04-23T14:46:19Z</time></trkpt><trkpt lat="42.76687407028838" lon="10.394787430686526"><ele>4.571428571428571</ele><time>2026-04-23T14:46:20Z</time></trkpt><trkpt lat="42.766805258699144" lon="10.394822129356822"><ele>4.428571428571429</ele><time>2026-04-23T14:46:21Z</time></trkpt><trkpt lat="42.766744697289276" lon="10.394850669495941"><ele>4.285714285714286</ele><time>2026-04-23T14:46:22Z</time></trkpt><trkpt lat="42.76666289459046" lon="10.394882282069727"><ele>4.142857142857142</ele><time>2026-04-23T14:46:24Z</time></trkpt><trkpt lat="42.76659941368737" lon="10.394901335624715"><ele>4.0</ele><time>2026-04-23T14:46:27Z</time></trkpt><trkpt lat="42.76652906202896" lon="10.394938079180436"><ele>3.833333333333333</ele><time>2026-04-23T14:46:29Z</time></trkpt><trkpt lat="42.76642886856106" lon="10.394988342014509"><ele>3.6666666666666665</ele><time>2026-04-23T14:46:31Z</time></trkpt><trkpt lat="42.766359632529664" lon="10.395020521706076"><ele>3.5</ele><time>2026-04-23T14:46:32Z</time></trkpt><trkpt lat="42.766285266928904" lon="10.395047801389975"><ele>3.333333333333333</ele><time>2026-04-23T14:46:33Z</time></trkpt><trkpt lat="42.76620793789165" lon="10.395081488567218"><ele>3.1666666666666665</ele><time>2026-04-23T14:46:34Z</time></trkpt><trkpt lat="42.76612676265453" lon="10.395111960297703"><ele>3.0</ele><time>2026-04-23T14:46:35Z</time></trkpt><trkpt lat="42.76604061268325" lon="10.39515175470873"><ele>3.1666666666666665</ele><time>2026-04-23T14:46:36Z</time></trkpt><trkpt lat="42.76595691124758" lon="10.395188432031008"><ele>3.333333333333333</ele><time>2026-04-23T14:46:37Z</time></trkpt><trkpt lat="42.76587653021931" lon="10.395220848811414"><ele>3.5</ele><time>2026-04-23T14:46:38Z</time></trkpt><trkpt lat="42.76580155075329" lon="10.395249880249155"><ele>3.6666666666666665</ele><time>2026-04-23T14:46:39Z</time></trkpt><trkpt lat="42.76572995969102" lon="10.39527551767725"><ele>3.833333333333333</ele><time>2026-04-23T14:46:40Z</time></trkpt><trkpt lat="42.76565728123114" lon="10.395304756834935"><ele>4.0</ele><time>2026-04-23T14:46:41Z</time></trkpt><trkpt lat="42.76558412324225" lon="10.395342644804362"><ele>3.9999999999999996</ele><time>2026-04-23T14:46:42Z</time></trkpt><trkpt lat="42.76550739767423" lon="10.39537284114119"><ele>4.0</ele><time>2026-04-23T14:46:43Z</time></trkpt><trkpt lat="42.76543408435464" lon="10.395397549868024"><ele>4.0</ele><time>2026-04-23T14:46:44Z</time></trkpt><trkpt lat="42.76535801590167" lon="10.395427383194157"><ele>4.0</ele><time>2026-04-23T14:46:45Z</time></trkpt><trkpt lat="42.765285749189744" lon="10.395456252322735"><ele>3.9999999999999996</ele><time>2026-04-23T14:46:46Z</time></trkpt><trkpt lat="42.765215827572575" lon="10.395489123423959"><ele>4.0</ele><time>2026-04-23T14:46:47Z</time></trkpt><trkpt lat="42.7651145128683" lon="10.395537482589559"><ele>3.6666666666666665</ele><time>2026-04-23T14:46:49Z</time></trkpt><trkpt lat="42.765032347467056" lon="10.395576045047045"><ele>3.333333333333333</ele><time>2026-04-23T14:46:51Z</time></trkpt><trkpt lat="42.76493123616215" lon="10.395620260318506"><ele>3.0</ele><time>2026-04-23T14:46:53Z</time></trkpt><trkpt lat="42.76487333401928" lon="10.395676554284481"><ele>2.6666666666666665</ele><time>2026-04-23T14:46:55Z</time></trkpt><trkpt lat="42.76480667115353" lon="10.395652096667561"><ele>2.333333333333333</ele><time>2026-04-23T14:46:58Z</time></trkpt><trkpt lat="42.76476664985219" lon="10.395583676264812"><ele>2.0</ele><time>2026-04-23T14:47:16Z</time></trkpt><trkpt lat="42.76471833564762" lon="10.395522250556812"><ele>3.0</ele><time>2026-04-23T14:47:18Z</time></trkpt><trkpt lat="42.76462899476428" lon="10.395445406610493"><ele>4.0</ele><time>2026-04-23T14:47:20Z</time></trkpt><trkpt lat="42.76457289322063" lon="10.39539965324505"><ele>5.0</ele><time>2026-04-23T14:47:21Z</time></trkpt><trkpt lat="42.764514306386225" lon="10.395342991067436"><ele>6.0</ele><time>2026-04-23T14:47:22Z</time></trkpt><trkpt lat="42.764454339441045" lon="10.395282724335814"><ele>6.999999999999999</ele><time>2026-04-23T14:47:23Z</time></trkpt><trkpt lat="42.764395168069626" lon="10.395227498619127"><ele>8.0</ele><time>2026-04-23T14:47:24Z</time></trkpt><trkpt lat="42.76429605743992" lon="10.395137829380783"><ele>9.0</ele><time>2026-04-23T14:47:26Z</time></trkpt><trkpt lat="42.76419571406376" lon="10.395050052461757"><ele>10.0</ele><time>2026-04-23T14:47:28Z</time></trkpt><trkpt lat="42.76407425129336" lon="10.395001753158134"><ele>11.0</ele><time>2026-04-23T14:47:30Z</time></trkpt><trkpt lat="42.76400768347272" lon="10.394996151130794"><ele>12.0</ele><time>2026-04-23T14:47:31Z</time></trkpt><trkpt lat="42.76393547771279" lon="10.395006256090918"><ele>13.0</ele><time>2026-04-23T14:47:32Z</time></trkpt><trkpt lat="42.7638628175778" lon="10.395015722937403"><ele>12.999999999999998</ele><time>2026-04-23T14:47:33Z</time></trkpt><trkpt lat="42.76378330074538" lon="10.395016940721849"><ele>13.0</ele><time>2026-04-23T14:47:34Z</time></trkpt><trkpt lat="42.76369775268769" lon="10.395012361959163"><ele>13.0</ele><time>2026-04-23T14:47:35Z</time></trkpt><trkpt lat="42.76360805861423" lon="10.394984266305654"><ele>13.0</ele><time>2026-04-23T14:47:36Z</time></trkpt><trkpt lat="42.763524990458265" lon="10.394946875476787"><ele>12.999999999999998</ele><time>2026-04-23T14:47:37Z</time></trkpt><trkpt lat="42.76343728885906" lon="10.394910267246093"><ele>13.0</ele><time>2026-04-23T14:47:38Z</time></trkpt><trkpt lat="42.7633439264083" lon="10.3948845583201"><ele>12.999999999999998</ele><time>2026-04-23T14:47:39Z</time></trkpt><trkpt lat="42.76324718643006" lon="10.394875916132715"><ele>13.0</ele><time>2026-04-23T14:47:40Z</time></trkpt><trkpt lat="42.76315447647841" lon="10.394882290881265"><ele>13.0</ele><time>2026-04-23T14:47:41Z</time></trkpt><trkpt lat="42.76307197995012" lon="10.394904615695712"><ele>13.0</ele><time>2026-04-23T14:47:42Z</time></trkpt><trkpt lat="42.76300145187339" lon="10.394925438156188"><ele>12.999999999999998</ele><time>2026-04-23T14:47:43Z</time></trkpt><trkpt lat="42.76293044656655" lon="10.394943583650695"><ele>13.0</ele><time>2026-04-23T14:47:44Z</time></trkpt><trkpt lat="42.76286117503928" lon="10.394953721038943"><ele>12.999999999999998</ele><time>2026-04-23T14:47:45Z</time></trkpt><trkpt lat="42.762798490755806" lon="10.39494447630439"><ele>13.0</ele><time>2026-04-23T14:47:46Z</time></trkpt><trkpt lat="42.762697699370854" lon="10.394841224603544"><ele>13.0</ele><time>2026-04-23T14:47:48Z</time></trkpt><trkpt lat="42.762662294505326" lon="10.394761015595535"><ele>13.0</ele><time>2026-04-23T14:47:49Z</time></trkpt><trkpt lat="42.76265890689411" lon="10.394671836155858"><ele>12.999999999999998</ele><time>2026-04-23T14:47:50Z</time></trkpt><trkpt lat="42.76267954903346" lon="10.394588320627788"><ele>13.0</ele><time>2026-04-23T14:47:51Z</time></trkpt><trkpt lat="42.762726330623735" lon="10.39451483982645"><ele>15.333333333333332</ele><time>2026-04-23T14:47:52Z</time></trkpt><trkpt lat="42.76277849161681" lon="10.394438382499994"><ele>17.666666666666664</ele><time>2026-04-23T14:47:53Z</time></trkpt><trkpt lat="42.76282803252907" lon="10.394356670568415"><ele>20.0</ele><time>2026-04-23T14:47:54Z</time></trkpt><trkpt lat="42.76287621154025" lon="10.39426466281804"><ele>22.333333333333332</ele><time>2026-04-23T14:47:55Z</time></trkpt><trkpt lat="42.76291960372365" lon="10.394161940430406"><ele>24.666666666666668</ele><time>2026-04-23T14:47:56Z</time></trkpt><trkpt lat="42.762948322912656" lon="10.394043573025918"><ele>27.0</ele><time>2026-04-23T14:47:57Z</time></trkpt><trkpt lat="42.762960751921426" lon="10.393914452232805"><ele>27.6</ele><time>2026-04-23T14:47:58Z</time></trkpt><trkpt lat="42.76295953576906" lon="10.39377445403846"><ele>28.200000000000003</ele><time>2026-04-23T14:47:59Z</time></trkpt><trkpt lat="42.76296032111326" lon="10.393636618334428"><ele>28.8</ele><time>2026-04-23T14:48:00Z</time></trkpt><trkpt lat="42.762968809985814" lon="10.393491087255596"><ele>29.4</ele><time>2026-04-23T14:48:01Z</time></trkpt><trkpt lat="42.76299388016491" lon="10.393345837282542"><ele>30.0</ele><time>2026-04-23T14:48:02Z</time></trkpt><trkpt lat="42.76302768476985" lon="10.393204725522448"><ele>30.0</ele><time>2026-04-23T14:48:03Z</time></trkpt><trkpt lat="42.76306273844036" lon="10.393077609722491"><ele>30.0</ele><time>2026-04-23T14:48:04Z</time></trkpt><trkpt lat="42.76309134775447" lon="10.3929654697934"><ele>30.0</ele><time>2026-04-23T14:48:05Z</time></trkpt><trkpt lat="42.76310608069769" lon="10.392856555221831"><ele>30.0</ele><time>2026-04-23T14:48:06Z</time></trkpt><trkpt lat="42.763094769504946" lon="10.392738567177446"><ele>30.0</ele><time>2026-04-23T14:48:07Z</time></trkpt><trkpt lat="42.763056897970074" lon="10.392622049066036"><ele>30.0</ele><time>2026-04-23T14:48:08Z</time></trkpt><trkpt lat="42.762999325653496" lon="10.392514024216451"><ele>31.2</ele><time>2026-04-23T14:48:09Z</time></trkpt><trkpt lat="42.76293653089397" lon="10.392410314095416"><ele>32.4</ele><time>2026-04-23T14:48:10Z</time></trkpt><trkpt lat="42.76287817729382" lon="10.392308227551533"><ele>33.6</ele><time>2026-04-23T14:48:11Z</time></trkpt><trkpt lat="42.76281567862354" lon="10.392205885862026"><ele>34.8</ele><time>2026-04-23T14:48:12Z</time></trkpt><trkpt lat="42.76275306123463" lon="10.392095032046841"><ele>36.0</ele><time>2026-04-23T14:48:13Z</time></trkpt><trkpt lat="42.76269350368446" lon="10.391977390544746"><ele>32.8</ele><time>2026-04-23T14:48:14Z</time></trkpt><trkpt lat="42.76263128841299" lon="10.391849920103521"><ele>29.6</ele><time>2026-04-23T14:48:15Z</time></trkpt><trkpt lat="42.7625725623539" lon="10.391716838342315"><ele>26.4</ele><time>2026-04-23T14:48:16Z</time></trkpt><trkpt lat="42.7625200948367" lon="10.391583061230056"><ele>23.2</ele><time>2026-04-23T14:48:17Z</time></trkpt><trkpt lat="42.762471198443144" lon="10.391464242981636"><ele>20.0</ele><time>2026-04-23T14:48:18Z</time></trkpt><trkpt lat="42.76242458509428" lon="10.391355684475572"><ele>20.833333333333336</ele><time>2026-04-23T14:48:19Z</time></trkpt><trkpt lat="42.762382921522075" lon="10.391251592123663"><ele>21.666666666666668</ele><time>2026-04-23T14:48:20Z</time></trkpt><trkpt lat="42.76234889710113" lon="10.391163087361779"><ele>22.5</ele><time>2026-04-23T14:48:21Z</time></trkpt><trkpt lat="42.76232753221868" lon="10.391068139031173"><ele>23.333333333333336</ele><time>2026-04-23T14:48:22Z</time></trkpt><trkpt lat="42.76232457680617" lon="10.390961771504502"><ele>24.166666666666668</ele><time>2026-04-23T14:48:23Z</time></trkpt><trkpt lat="42.76233909598762" lon="10.390853114938887"><ele>25.0</ele><time>2026-04-23T14:48:24Z</time></trkpt><trkpt lat="42.76236298175404" lon="10.390744338527325"><ele>25.000000000000004</ele><time>2026-04-23T14:48:25Z</time></trkpt><trkpt lat="42.76238105139089" lon="10.390643791039045"><ele>25.0</ele><time>2026-04-23T14:48:26Z</time></trkpt><trkpt lat="42.762374039712526" lon="10.390543559995047"><ele>25.0</ele><time>2026-04-23T14:48:27Z</time></trkpt><trkpt lat="42.76235113945601" lon="10.390441305027414"><ele>25.0</ele><time>2026-04-23T14:48:28Z</time></trkpt><trkpt lat="42.76230468153843" lon="10.390343260689296"><ele>25.000000000000004</ele><time>2026-04-23T14:48:29Z</time></trkpt><trkpt lat="42.762242612731235" lon="10.390255697136528"><ele>25.0</ele><time>2026-04-23T14:48:30Z</time></trkpt><trkpt lat="42.76217266005956" lon="10.390171124658108"><ele>26.4</ele><time>2026-04-23T14:48:31Z</time></trkpt><trkpt lat="42.762109480942996" lon="10.390087877092482"><ele>27.8</ele><time>2026-04-23T14:48:32Z</time></trkpt><trkpt lat="42.76205082854794" lon="10.389997580019815"><ele>29.200000000000003</ele><time>2026-04-23T14:48:33Z</time></trkpt><trkpt lat="42.76199538576986" lon="10.389891437123625"><ele>30.6</ele><time>2026-04-23T14:48:34Z</time></trkpt><trkpt lat="42.761955677807144" lon="10.389766892703102"><ele>32.0</ele><time>2026-04-23T14:48:35Z</time></trkpt><trkpt lat="42.76192100994618" lon="10.389639651947881"><ele>34.0</ele><time>2026-04-23T14:48:36Z</time></trkpt><trkpt lat="42.76187993651514" lon="10.389516815231426"><ele>36.0</ele><time>2026-04-23T14:48:37Z</time></trkpt><trkpt lat="42.76182895806188" lon="10.389407847895066"><ele>38.0</ele><time>2026-04-23T14:48:38Z</time></trkpt><trkpt lat="42.76176814923241" lon="10.389310323098947"><ele>40.0</ele><time>2026-04-23T14:48:39Z</time></trkpt><trkpt lat="42.76170052984797" lon="10.389219023697354"><ele>42.0</ele><time>2026-04-23T14:48:40Z</time></trkpt><trkpt lat="42.761642745963826" lon="10.389113422870263"><ele>35.800000000000004</ele><time>2026-04-23T14:48:41Z</time></trkpt><trkpt lat="42.76159764934657" lon="10.388990586690095"><ele>29.6</ele><time>2026-04-23T14:48:42Z</time></trkpt><trkpt lat="42.761564134499864" lon="10.388855333377224"><ele>23.400000000000002</ele><time>2026-04-23T14:48:43Z</time></trkpt><trkpt lat="42.76153866629257" lon="10.388724961216138"><ele>17.200000000000003</ele><time>2026-04-23T14:48:44Z</time></trkpt><trkpt lat="42.761521327211504" lon="10.38860981975135"><ele>11.0</ele><time>2026-04-23T14:48:45Z</time></trkpt><trkpt lat="42.76151764926634" lon="10.388503268934832"><ele>10.8</ele><time>2026-04-23T14:48:46Z</time></trkpt><trkpt lat="42.76154099823625" lon="10.388391790981167"><ele>10.600000000000001</ele><time>2026-04-23T14:48:47Z</time></trkpt><trkpt lat="42.76158081098037" lon="10.388280938296349"><ele>10.4</ele><time>2026-04-23T14:48:48Z</time></trkpt><trkpt lat="42.76163545296541" lon="10.38817288420725"><ele>10.2</ele><time>2026-04-23T14:48:49Z</time></trkpt><trkpt lat="42.76168735089292" lon="10.388057978019297"><ele>10.0</ele><time>2026-04-23T14:48:50Z</time></trkpt><trkpt lat="42.761738861191596" lon="10.387939517393342"><ele>9.2</ele><time>2026-04-23T14:48:51Z</time></trkpt><trkpt lat="42.76178491356481" lon="10.387834619254836"><ele>8.4</ele><time>2026-04-23T14:48:52Z</time></trkpt><trkpt lat="42.76182537192511" lon="10.38772927208782"><ele>7.6</ele><time>2026-04-23T14:48:53Z</time></trkpt><trkpt lat="42.76185778566649" lon="10.387615676444465"><ele>6.8</ele><time>2026-04-23T14:48:54Z</time></trkpt><trkpt lat="42.76187194783937" lon="10.387492494944315"><ele>6.0</ele><time>2026-04-23T14:48:55Z</time></trkpt><trkpt lat="42.76186794334337" lon="10.38735835323687"><ele>6.0</ele><time>2026-04-23T14:48:56Z</time></trkpt><trkpt lat="42.761845379760366" lon="10.387224531952729"><ele>6.0</ele><time>2026-04-23T14:48:57Z</time></trkpt><trkpt lat="42.761806532108125" lon="10.387093983499428"><ele>6.0</ele><time>2026-04-23T14:48:58Z</time></trkpt><trkpt lat="42.76176815808148" lon="10.386962143275861"><ele>6.0</ele><time>2026-04-23T14:48:59Z</time></trkpt><trkpt lat="42.76172456191576" lon="10.386826938248909"><ele>6.0</ele><time>2026-04-23T14:49:00Z</time></trkpt><trkpt lat="42.76166934737403" lon="10.386697020492267"><ele>6.25</ele><time>2026-04-23T14:49:01Z</time></trkpt><trkpt lat="42.76159694810046" lon="10.3865797986218"><ele>6.5</ele><time>2026-04-23T14:49:02Z</time></trkpt><trkpt lat="42.761522637153895" lon="10.386465246944486"><ele>6.75</ele><time>2026-04-23T14:49:03Z</time></trkpt><trkpt lat="42.76143912610905" lon="10.386350275127603"><ele>7.0</ele><time>2026-04-23T14:49:04Z</time></trkpt><trkpt lat="42.761350179118644" lon="10.38622697427682"><ele>6.5</ele><time>2026-04-23T14:49:05Z</time></trkpt><trkpt lat="42.76126114232796" lon="10.386102305660058"><ele>6.0</ele><time>2026-04-23T14:49:06Z</time></trkpt><trkpt lat="42.76116848010622" lon="10.385973818054845"><ele>5.5</ele><time>2026-04-23T14:49:07Z</time></trkpt><trkpt lat="42.76107924435738" lon="10.38584720433148"><ele>5.0</ele><time>2026-04-23T14:49:08Z</time></trkpt><trkpt lat="42.76098830508512" lon="10.38572008572676"><ele>5.0</ele><time>2026-04-23T14:49:09Z</time></trkpt><trkpt lat="42.760894851115495" lon="10.385589384512372"><ele>5.0</ele><time>2026-04-23T14:49:10Z</time></trkpt><trkpt lat="42.760798737530166" lon="10.385463185574196"><ele>5.0</ele><time>2026-04-23T14:49:11Z</time></trkpt><trkpt lat="42.76070530517529" lon="10.385336709585557"><ele>5.0</ele><time>2026-04-23T14:49:12Z</time></trkpt><trkpt lat="42.76061305212614" lon="10.38520585330369"><ele>8.0</ele><time>2026-04-23T14:49:13Z</time></trkpt><trkpt lat="42.76052215704279" lon="10.385077680893348"><ele>11.0</ele><time>2026-04-23T14:49:14Z</time></trkpt><trkpt lat="42.76042932891596" lon="10.3849522726937"><ele>14.0</ele><time>2026-04-23T14:49:15Z</time></trkpt><trkpt lat="42.760339298110495" lon="10.384822340103756"><ele>17.0</ele><time>2026-04-23T14:49:16Z</time></trkpt><trkpt lat="42.76025057275997" lon="10.384689953196194"><ele>14.75</ele><time>2026-04-23T14:49:17Z</time></trkpt><trkpt lat="42.76016047133165" lon="10.38455817864067"><ele>12.5</ele><time>2026-04-23T14:49:18Z</time></trkpt><trkpt lat="42.760068950737846" lon="10.3844305726054"><ele>10.25</ele><time>2026-04-23T14:49:19Z</time></trkpt><trkpt lat="42.75998263321241" lon="10.384311521915931"><ele>8.0</ele><time>2026-04-23T14:49:20Z</time></trkpt><trkpt lat="42.75989702711508" lon="10.384192810942368"><ele>8.0</ele><time>2026-04-23T14:49:21Z</time></trkpt><trkpt lat="42.75981356121344" lon="10.384077363718026"><ele>8.0</ele><time>2026-04-23T14:49:22Z</time></trkpt><trkpt lat="42.759731784816935" lon="10.383962970425126"><ele>8.0</ele><time>2026-04-23T14:49:23Z</time></trkpt><trkpt lat="42.759652597369445" lon="10.38384132021652"><ele>8.0</ele><time>2026-04-23T14:49:24Z</time></trkpt><trkpt lat="42.75957945394377" lon="10.383706222084351"><ele>10.25</ele><time>2026-04-23T14:49:25Z</time></trkpt><trkpt lat="42.75951369940018" lon="10.383559641258579"><ele>12.5</ele><time>2026-04-23T14:49:26Z</time></trkpt><trkpt lat="42.75945743462602" lon="10.38340472071494"><ele>14.75</ele><time>2026-04-23T14:49:27Z</time></trkpt><trkpt lat="42.75941497215058" lon="10.383238318099991"><ele>17.0</ele><time>2026-04-23T14:49:28Z</time></trkpt><trkpt lat="42.75938258577924" lon="10.38306737884901"><ele>13.25</ele><time>2026-04-23T14:49:29Z</time></trkpt><trkpt lat="42.75935946186822" lon="10.38289124443619"><ele>9.5</ele><time>2026-04-23T14:49:30Z</time></trkpt><trkpt lat="42.759347964190866" lon="10.382715208278492"><ele>5.75</ele><time>2026-04-23T14:49:31Z</time></trkpt><trkpt lat="42.75933742588122" lon="10.382538547516985"><ele>2.0</ele><time>2026-04-23T14:49:32Z</time></trkpt><trkpt lat="42.75932749882699" lon="10.382361082073134"><ele>2.0</ele><time>2026-04-23T14:49:33Z</time></trkpt><trkpt lat="42.759319669344336" lon="10.382186910325071"><ele>2.0</ele><time>2026-04-23T14:49:34Z</time></trkpt><trkpt lat="42.759313683490355" lon="10.382013957863824"><ele>2.0</ele><time>2026-04-23T14:49:35Z</time></trkpt><trkpt lat="42.75930601823204" lon="10.381843576755603"><ele>2.0</ele><time>2026-04-23T14:49:36Z</time></trkpt><trkpt lat="42.75929683836967" lon="10.381674087122354"><ele>1.8</ele><time>2026-04-23T14:49:37Z</time></trkpt><trkpt lat="42.759286323527306" lon="10.381510522899394"><ele>1.6</ele><time>2026-04-23T14:49:38Z</time></trkpt><trkpt lat="42.75927855921718" lon="10.381356440897482"><ele>1.4000000000000001</ele><time>2026-04-23T14:49:39Z</time></trkpt><trkpt lat="42.759271573892704" lon="10.381210065000396"><ele>1.2000000000000002</ele><time>2026-04-23T14:49:40Z</time></trkpt><trkpt lat="42.75926538005301" lon="10.381072321943309"><ele>1.0</ele><time>2026-04-23T14:49:41Z</time></trkpt><trkpt lat="42.7592576601412" lon="10.380936241958725"><ele>1.0</ele><time>2026-04-23T14:49:42Z</time></trkpt><trkpt lat="42.759251208361356" lon="10.380798082533508"><ele>1.0</ele><time>2026-04-23T14:49:43Z</time></trkpt><trkpt lat="42.75924285868777" lon="10.380669323507522"><ele>1.0</ele><time>2026-04-23T14:49:44Z</time></trkpt><trkpt lat="42.75923362456474" lon="10.380539474049538"><ele>1.0</ele><time>2026-04-23T14:49:45Z</time></trkpt><trkpt lat="42.75921943692923" lon="10.380413601325813"><ele>1.0</ele><time>2026-04-23T14:49:46Z</time></trkpt><trkpt lat="42.759202803657935" lon="10.380299027529599"><ele>1.1666666666666665</ele><time>2026-04-23T14:49:47Z</time></trkpt><trkpt lat="42.75919468669217" lon="10.380197375598872"><ele>1.3333333333333333</ele><time>2026-04-23T14:49:48Z</time></trkpt><trkpt lat="42.75918275977046" lon="10.38005667178677"><ele>1.5</ele><time>2026-04-23T14:49:50Z</time></trkpt><trkpt lat="42.75917623689796" lon="10.37996112685654"><ele>1.6666666666666665</ele><time>2026-04-23T14:49:53Z</time></trkpt><trkpt lat="42.75916566148958" lon="10.379835361162561"><ele>1.8333333333333333</ele><time>2026-04-23T14:50:11Z</time></trkpt><trkpt lat="42.75917355359251" lon="10.379721514472664"><ele>2.0</ele><time>2026-04-23T14:50:13Z</time></trkpt><trkpt lat="42.759154992128394" lon="10.379635732642484"><ele>2.0</ele><time>2026-04-23T14:50:16Z</time></trkpt><trkpt lat="42.758963295645394" lon="10.37965559774017"><ele>2.0</ele><time>2026-04-23T14:50:17Z</time></trkpt><trkpt lat="42.75889107523113" lon="10.379670548773072"><ele>2.0</ele><time>2026-04-23T14:50:18Z</time></trkpt><trkpt lat="42.75881137634476" lon="10.379676305127894"><ele>2.0</ele><time>2026-04-23T14:50:19Z</time></trkpt><trkpt lat="42.75872664436943" lon="10.379690892181987"><ele>2.0</ele><time>2026-04-23T14:50:20Z</time></trkpt><trkpt lat="42.75863692382492" lon="10.379702463367583"><ele>2.0</ele><time>2026-04-23T14:50:21Z</time></trkpt><trkpt lat="42.7585415879076" lon="10.379706418480346"><ele>2.0</ele><time>2026-04-23T14:50:22Z</time></trkpt><trkpt lat="42.75844426459835" lon="10.379711284813705"><ele>2.0</ele><time>2026-04-23T14:50:23Z</time></trkpt><trkpt lat="42.75834542046205" lon="10.379714463456182"><ele>2.0</ele><time>2026-04-23T14:50:24Z</time></trkpt><trkpt lat="42.7582421810705" lon="10.379720391130688"><ele>2.0</ele><time>2026-04-23T14:50:25Z</time></trkpt><trkpt lat="42.75813981103678" lon="10.379730097399698"><ele>2.0</ele><time>2026-04-23T14:50:26Z</time></trkpt><trkpt lat="42.75803724987932" lon="10.379738555865641"><ele>2.0</ele><time>2026-04-23T14:50:27Z</time></trkpt><trkpt lat="42.75792145256433" lon="10.37974665519972"><ele>2.0</ele><time>2026-04-23T14:50:28Z</time></trkpt><trkpt lat="42.757811454916904" lon="10.379756253829102"><ele>2.0</ele><time>2026-04-23T14:50:29Z</time></trkpt><trkpt lat="42.757703868197346" lon="10.379771100608624"><ele>2.0</ele><time>2026-04-23T14:50:30Z</time></trkpt><trkpt lat="42.75760175170136" lon="10.37979609493922"><ele>1.9999999999999998</ele><time>2026-04-23T14:50:31Z</time></trkpt><trkpt lat="42.75750958478677" lon="10.37982699521948"><ele>2.0</ele><time>2026-04-23T14:50:32Z</time></trkpt><trkpt lat="42.75741957334344" lon="10.379849563457705"><ele>2.0</ele><time>2026-04-23T14:50:33Z</time></trkpt><trkpt lat="42.757342883297184" lon="10.379878736811433"><ele>2.0</ele><time>2026-04-23T14:50:34Z</time></trkpt><trkpt lat="42.75726947262766" lon="10.379894565821946"><ele>1.9999999999999998</ele><time>2026-04-23T14:50:35Z</time></trkpt><trkpt lat="42.75719207228907" lon="10.379884617360137"><ele>2.0</ele><time>2026-04-23T14:50:36Z</time></trkpt><trkpt lat="42.75710832325556" lon="10.379846017270435"><ele>1.9999999999999998</ele><time>2026-04-23T14:50:37Z</time></trkpt><trkpt lat="42.757044637858286" lon="10.379773072714775"><ele>2.0</ele><time>2026-04-23T14:50:38Z</time></trkpt><trkpt lat="42.75698661365745" lon="10.37968146099003"><ele>2.0</ele><time>2026-04-23T14:50:39Z</time></trkpt><trkpt lat="42.75693126626657" lon="10.379581589008039"><ele>2.0</ele><time>2026-04-23T14:50:40Z</time></trkpt><trkpt lat="42.75687001511831" lon="10.379490663528982"><ele>1.9999999999999998</ele><time>2026-04-23T14:50:41Z</time></trkpt><trkpt lat="42.756794820342634" lon="10.379411767402065"><ele>2.0</ele><time>2026-04-23T14:50:42Z</time></trkpt><trkpt lat="42.75671590538685" lon="10.379350555963663"><ele>2.6666666666666665</ele><time>2026-04-23T14:50:43Z</time></trkpt><trkpt lat="42.75663996614278" lon="10.379301623779241"><ele>3.333333333333333</ele><time>2026-04-23T14:50:44Z</time></trkpt><trkpt lat="42.75656972039097" lon="10.37925811325246"><ele>4.0</ele><time>2026-04-23T14:50:45Z</time></trkpt><trkpt lat="42.756492508387836" lon="10.37921459596301"><ele>4.666666666666667</ele><time>2026-04-23T14:50:46Z</time></trkpt><trkpt lat="42.75640649937288" lon="10.379173212863696"><ele>5.333333333333333</ele><time>2026-04-23T14:50:47Z</time></trkpt><trkpt lat="42.75631514578951" lon="10.3791275984782"><ele>6.0</ele><time>2026-04-23T14:50:48Z</time></trkpt><trkpt lat="42.756221136950145" lon="10.379098626784513"><ele>6.0</ele><time>2026-04-23T14:50:49Z</time></trkpt><trkpt lat="42.75611820093117" lon="10.379068231944746"><ele>6.0</ele><time>2026-04-23T14:50:50Z</time></trkpt><trkpt lat="42.75601251221117" lon="10.379039199593707"><ele>6.0</ele><time>2026-04-23T14:50:51Z</time></trkpt><trkpt lat="42.75590574967176" lon="10.379017295800528"><ele>6.0</ele><time>2026-04-23T14:50:52Z</time></trkpt><trkpt lat="42.75580121519576" lon="10.378992799010787"><ele>6.0</ele><time>2026-04-23T14:50:53Z</time></trkpt><trkpt lat="42.75569676367694" lon="10.37897649463017"><ele>7.4</ele><time>2026-04-23T14:50:54Z</time></trkpt><trkpt lat="42.7555913143739" lon="10.378955845219782"><ele>8.8</ele><time>2026-04-23T14:50:55Z</time></trkpt><trkpt lat="42.75548500315622" lon="10.378928941874547"><ele>10.200000000000001</ele><time>2026-04-23T14:50:56Z</time></trkpt><trkpt lat="42.7553760366424" lon="10.378900381896617"><ele>11.6</ele><time>2026-04-23T14:50:57Z</time></trkpt><trkpt lat="42.75526738887936" lon="10.378883273484703"><ele>13.0</ele><time>2026-04-23T14:50:58Z</time></trkpt><trkpt lat="42.75516785881947" lon="10.378873258003305"><ele>15.0</ele><time>2026-04-23T14:50:59Z</time></trkpt><trkpt lat="42.75506397823064" lon="10.378868125801006"><ele>17.0</ele><time>2026-04-23T14:51:00Z</time></trkpt><trkpt lat="42.754961612757164" lon="10.378878692402909"><ele>19.0</ele><time>2026-04-23T14:51:01Z</time></trkpt><trkpt lat="42.75486700859375" lon="10.378916178972455"><ele>21.0</ele><time>2026-04-23T14:51:02Z</time></trkpt><trkpt lat="42.754767314280635" lon="10.378942553400544"><ele>23.0</ele><time>2026-04-23T14:51:03Z</time></trkpt><trkpt lat="42.754672026369825" lon="10.379019084368851"><ele>23.0</ele><time>2026-04-23T14:51:04Z</time></trkpt><trkpt lat="42.75458630616378" lon="10.379109976909797"><ele>23.0</ele><time>2026-04-23T14:51:05Z</time></trkpt><trkpt lat="42.75450502040977" lon="10.37920704329203"><ele>23.0</ele><time>2026-04-23T14:51:06Z</time></trkpt><trkpt lat="42.75444401445625" lon="10.379322076944504"><ele>23.0</ele><time>2026-04-23T14:51:07Z</time></trkpt><trkpt lat="42.75436542436101" lon="10.379412881180183"><ele>23.0</ele><time>2026-04-23T14:51:08Z</time></trkpt><trkpt lat="42.7542882352951" lon="10.379504116461241"><ele>22.599999999999998</ele><time>2026-04-23T14:51:09Z</time></trkpt><trkpt lat="42.754202263622844" lon="10.379572338198656"><ele>22.2</ele><time>2026-04-23T14:51:10Z</time></trkpt><trkpt lat="42.75410724216981" lon="10.379625718250903"><ele>21.8</ele><time>2026-04-23T14:51:11Z</time></trkpt><trkpt lat="42.75400014366149" lon="10.379662807354913"><ele>21.4</ele><time>2026-04-23T14:51:12Z</time></trkpt><trkpt lat="42.75389267718833" lon="10.379698566571482"><ele>21.0</ele><time>2026-04-23T14:51:13Z</time></trkpt><trkpt lat="42.75378392395283" lon="10.37973511713895"><ele>23.6</ele><time>2026-04-23T14:51:14Z</time></trkpt><trkpt lat="42.753676398561" lon="10.379774046321868"><ele>26.200000000000003</ele><time>2026-04-23T14:51:15Z</time></trkpt><trkpt lat="42.753566292260366" lon="10.379810833417768"><ele>28.799999999999997</ele><time>2026-04-23T14:51:16Z</time></trkpt><trkpt lat="42.75346504592039" lon="10.379848013842095"><ele>31.4</ele><time>2026-04-23T14:51:17Z</time></trkpt><trkpt lat="42.75336995777437" lon="10.379873354351918"><ele>34.0</ele><time>2026-04-23T14:51:18Z</time></trkpt><trkpt lat="42.753274592610786" lon="10.379885851391437"><ele>34.4</ele><time>2026-04-23T14:51:19Z</time></trkpt><trkpt lat="42.75317829734997" lon="10.37987949378242"><ele>34.8</ele><time>2026-04-23T14:51:20Z</time></trkpt><trkpt lat="42.753082008561655" lon="10.379849599751248"><ele>35.2</ele><time>2026-04-23T14:51:21Z</time></trkpt><trkpt lat="42.752982315793204" lon="10.379798152699788"><ele>35.6</ele><time>2026-04-23T14:51:22Z</time></trkpt><trkpt lat="42.752899024817566" lon="10.37973012841171"><ele>36.0</ele><time>2026-04-23T14:51:23Z</time></trkpt><trkpt lat="42.752808973609824" lon="10.379649499018567"><ele>35.8</ele><time>2026-04-23T14:51:24Z</time></trkpt><trkpt lat="42.75271932882508" lon="10.379564935154729"><ele>35.6</ele><time>2026-04-23T14:51:25Z</time></trkpt><trkpt lat="42.75262885209062" lon="10.37947915223003"><ele>35.4</ele><time>2026-04-23T14:51:26Z</time></trkpt><trkpt lat="42.75253584039146" lon="10.379394605369926"><ele>35.2</ele><time>2026-04-23T14:51:27Z</time></trkpt><trkpt lat="42.75244313418591" lon="10.379305965764164"><ele>35.0</ele><time>2026-04-23T14:51:28Z</time></trkpt><trkpt lat="42.752349801492194" lon="10.379217781333631"><ele>35.0</ele><time>2026-04-23T14:51:29Z</time></trkpt><trkpt lat="42.752254779056834" lon="10.37912868523283"><ele>35.0</ele><time>2026-04-23T14:51:30Z</time></trkpt><trkpt lat="42.75217047795126" lon="10.379050437950385"><ele>35.0</ele><time>2026-04-23T14:51:31Z</time></trkpt><trkpt lat="42.75210207432472" lon="10.378979183080075"><ele>35.0</ele><time>2026-04-23T14:51:32Z</time></trkpt><trkpt lat="42.752037086071525" lon="10.378928680226872"><ele>35.0</ele><time>2026-04-23T14:51:33Z</time></trkpt><trkpt lat="42.75196743643206" lon="10.378900088117806"><ele>35.0</ele><time>2026-04-23T14:51:34Z</time></trkpt><trkpt lat="42.751880718445086" lon="10.378899688101853"><ele>35.0</ele><time>2026-04-23T14:51:35Z</time></trkpt><trkpt lat="42.751794598985775" lon="10.37891496358135"><ele>35.0</ele><time>2026-04-23T14:51:36Z</time></trkpt><trkpt lat="42.75170649192645" lon="10.378952134624399"><ele>35.0</ele><time>2026-04-23T14:51:37Z</time></trkpt><trkpt lat="42.75161332880215" lon="10.378991379568975"><ele>35.0</ele><time>2026-04-23T14:51:38Z</time></trkpt><trkpt lat="42.7515220977442" lon="10.379017292219508"><ele>35.0</ele><time>2026-04-23T14:51:39Z</time></trkpt><trkpt lat="42.75143619585353" lon="10.379006682095179"><ele>35.0</ele><time>2026-04-23T14:51:40Z</time></trkpt><trkpt lat="42.75135703742121" lon="10.378966445518204"><ele>35.0</ele><time>2026-04-23T14:51:41Z</time></trkpt><trkpt lat="42.75128933711268" lon="10.378895060378541"><ele>35.0</ele><time>2026-04-23T14:51:42Z</time></trkpt><trkpt lat="42.75123447171282" lon="10.378800270907668"><ele>35.0</ele><time>2026-04-23T14:51:43Z</time></trkpt><trkpt lat="42.751181416352004" lon="10.37869793401431"><ele>35.0</ele><time>2026-04-23T14:51:44Z</time></trkpt><trkpt lat="42.75112066267988" lon="10.378577665518193"><ele>35.0</ele><time>2026-04-23T14:51:45Z</time></trkpt><trkpt lat="42.75105971893703" lon="10.378465566034352"><ele>35.0</ele><time>2026-04-23T14:51:46Z</time></trkpt><trkpt lat="42.75099759163987" lon="10.378349928812064"><ele>35.0</ele><time>2026-04-23T14:51:47Z</time></trkpt><trkpt lat="42.750933379417944" lon="10.378226617842264"><ele>35.0</ele><time>2026-04-23T14:51:48Z</time></trkpt><trkpt lat="42.750872934506965" lon="10.378097525544502"><ele>35.0</ele><time>2026-04-23T14:51:49Z</time></trkpt><trkpt lat="42.750812728252995" lon="10.37795959433501"><ele>37.5</ele><time>2026-04-23T14:51:50Z</time></trkpt><trkpt lat="42.75075870959214" lon="10.377819574240183"><ele>40.0</ele><time>2026-04-23T14:51:51Z</time></trkpt><trkpt lat="42.75070775460551" lon="10.377676155027284"><ele>42.5</ele><time>2026-04-23T14:51:52Z</time></trkpt><trkpt lat="42.75065463397795" lon="10.37754019275235"><ele>45.0</ele><time>2026-04-23T14:51:53Z</time></trkpt><trkpt lat="42.75060199101358" lon="10.37739646832259"><ele>45.0</ele><time>2026-04-23T14:51:54Z</time></trkpt><trkpt lat="42.750547851494105" lon="10.377254855534453"><ele>45.0</ele><time>2026-04-23T14:51:55Z</time></trkpt><trkpt lat="42.75048802997453" lon="10.377107621350683"><ele>45.0</ele><time>2026-04-23T14:51:56Z</time></trkpt><trkpt lat="42.75043454009558" lon="10.376964241944943"><ele>45.0</ele><time>2026-04-23T14:51:57Z</time></trkpt><trkpt lat="42.7503789795618" lon="10.376818257829008"><ele>44.5</ele><time>2026-04-23T14:51:58Z</time></trkpt><trkpt lat="42.75032396939115" lon="10.376676218709608"><ele>44.0</ele><time>2026-04-23T14:51:59Z</time></trkpt><trkpt lat="42.75027295850646" lon="10.376533781113359"><ele>43.5</ele><time>2026-04-23T14:52:00Z</time></trkpt><trkpt lat="42.75021838360742" lon="10.376392450036766"><ele>43.0</ele><time>2026-04-23T14:52:01Z</time></trkpt><trkpt lat="42.750162605459" lon="10.376249597063218"><ele>45.8</ele><time>2026-04-23T14:52:02Z</time></trkpt><trkpt lat="42.750107344589665" lon="10.376110071309427"><ele>48.599999999999994</ele><time>2026-04-23T14:52:03Z</time></trkpt><trkpt lat="42.75005693698835" lon="10.375969515176415"><ele>51.400000000000006</ele><time>2026-04-23T14:52:04Z</time></trkpt><trkpt lat="42.75000551421276" lon="10.375833089069483"><ele>54.2</ele><time>2026-04-23T14:52:05Z</time></trkpt><trkpt lat="42.74995131566027" lon="10.375712990982574"><ele>57.0</ele><time>2026-04-23T14:52:06Z</time></trkpt><trkpt lat="42.74988703413106" lon="10.375619002363152"><ele>57.0</ele><time>2026-04-23T14:52:07Z</time></trkpt><trkpt lat="42.74980801815692" lon="10.37554074431101"><ele>57.0</ele><time>2026-04-23T14:52:08Z</time></trkpt><trkpt lat="42.74971898420152" lon="10.375492055738984"><ele>57.0</ele><time>2026-04-23T14:52:09Z</time></trkpt><trkpt lat="42.74962484118746" lon="10.375479051793194"><ele>57.0</ele><time>2026-04-23T14:52:10Z</time></trkpt><trkpt lat="42.74952599389977" lon="10.375497929868981"><ele>57.0</ele><time>2026-04-23T14:52:11Z</time></trkpt><trkpt lat="42.749429293121175" lon="10.37554239474038"><ele>59.2</ele><time>2026-04-23T14:52:12Z</time></trkpt><trkpt lat="42.749330402474584" lon="10.375596280746056"><ele>61.400000000000006</ele><time>2026-04-23T14:52:13Z</time></trkpt><trkpt lat="42.749225311012864" lon="10.375641973458997"><ele>63.599999999999994</ele><time>2026-04-23T14:52:14Z</time></trkpt><trkpt lat="42.74912534840064" lon="10.375679823271117"><ele>65.8</ele><time>2026-04-23T14:52:15Z</time></trkpt><trkpt lat="42.74903812163233" lon="10.37571622869005"><ele>68.0</ele><time>2026-04-23T14:52:16Z</time></trkpt><trkpt lat="42.74896162240824" lon="10.375742988347938"><ele>68.0</ele><time>2026-04-23T14:52:17Z</time></trkpt><trkpt lat="42.74889581561472" lon="10.375740445602048"><ele>68.0</ele><time>2026-04-23T14:52:18Z</time></trkpt><trkpt lat="42.74883464609663" lon="10.375709631259435"><ele>68.0</ele><time>2026-04-23T14:52:19Z</time></trkpt><trkpt lat="42.7487791120276" lon="10.375646863768868"><ele>68.0</ele><time>2026-04-23T14:52:20Z</time></trkpt><trkpt lat="42.74873904395922" lon="10.375541415241587"><ele>68.0</ele><time>2026-04-23T14:52:21Z</time></trkpt><trkpt lat="42.74870480529913" lon="10.375414056267411"><ele>68.0</ele><time>2026-04-23T14:52:22Z</time></trkpt><trkpt lat="42.748699785550215" lon="10.375282002264738"><ele>66.0</ele><time>2026-04-23T14:52:23Z</time></trkpt><trkpt lat="42.74868016862718" lon="10.375153802717907"><ele>64.0</ele><time>2026-04-23T14:52:24Z</time></trkpt><trkpt lat="42.748655980610714" lon="10.375016873936326"><ele>62.0</ele><time>2026-04-23T14:52:25Z</time></trkpt><trkpt lat="42.74861706541286" lon="10.374875597395866"><ele>60.0</ele><time>2026-04-23T14:52:26Z</time></trkpt><trkpt lat="42.74860393287722" lon="10.374727419190412"><ele>58.0</ele><time>2026-04-23T14:52:27Z</time></trkpt><trkpt lat="42.748559158941354" lon="10.374581156985686"><ele>62.0</ele><time>2026-04-23T14:52:28Z</time></trkpt><trkpt lat="42.74850046491266" lon="10.374444765335996"><ele>66.0</ele><time>2026-04-23T14:52:29Z</time></trkpt><trkpt lat="42.748443157516625" lon="10.374310684206673"><ele>70.0</ele><time>2026-04-23T14:52:30Z</time></trkpt><trkpt lat="42.74838186733335" lon="10.37417376263213"><ele>74.0</ele><time>2026-04-23T14:52:31Z</time></trkpt><trkpt lat="42.74831860161433" lon="10.374033526708137"><ele>74.0</ele><time>2026-04-23T14:52:32Z</time></trkpt><trkpt lat="42.7482564249899" lon="10.37389152509273"><ele>74.0</ele><time>2026-04-23T14:52:33Z</time></trkpt><trkpt lat="42.748184987469074" lon="10.37376327253391"><ele>74.0</ele><time>2026-04-23T14:52:34Z</time></trkpt><trkpt lat="42.74813618771752" lon="10.373629761961421"><ele>74.0</ele><time>2026-04-23T14:52:35Z</time></trkpt><trkpt lat="42.74807809313851" lon="10.373504164971893"><ele>73.60000000000001</ele><time>2026-04-23T14:52:36Z</time></trkpt><trkpt lat="42.748026629301535" lon="10.373377666557506"><ele>73.2</ele><time>2026-04-23T14:52:37Z</time></trkpt><trkpt lat="42.74798659409549" lon="10.373244599314047"><ele>72.80000000000001</ele><time>2026-04-23T14:52:38Z</time></trkpt><trkpt lat="42.74795875263768" lon="10.373101519863956"><ele>72.4</ele><time>2026-04-23T14:52:39Z</time></trkpt><trkpt lat="42.747948075611625" lon="10.37295083491081"><ele>72.0</ele><time>2026-04-23T14:52:40Z</time></trkpt><trkpt lat="42.74795215089812" lon="10.372798640823742"><ele>71.5</ele><time>2026-04-23T14:52:41Z</time></trkpt><trkpt lat="42.74796816286337" lon="10.372641873208805"><ele>71.0</ele><time>2026-04-23T14:52:42Z</time></trkpt><trkpt lat="42.747986074036476" lon="10.372486173949799"><ele>70.5</ele><time>2026-04-23T14:52:43Z</time></trkpt><trkpt lat="42.74800165224568" lon="10.372328483073488"><ele>70.0</ele><time>2026-04-23T14:52:44Z</time></trkpt><trkpt lat="42.74801966938455" lon="10.372163985331746"><ele>71.25</ele><time>2026-04-23T14:52:45Z</time></trkpt><trkpt lat="42.74803790715839" lon="10.371996429274914"><ele>72.5</ele><time>2026-04-23T14:52:46Z</time></trkpt><trkpt lat="42.74805333355685" lon="10.37183213087263"><ele>73.75</ele><time>2026-04-23T14:52:47Z</time></trkpt><trkpt lat="42.748072785689246" lon="10.371664553179766"><ele>75.0</ele><time>2026-04-23T14:52:48Z</time></trkpt><trkpt lat="42.74809005934478" lon="10.371499064694126"><ele>76.5</ele><time>2026-04-23T14:52:49Z</time></trkpt><trkpt lat="42.74810475731546" lon="10.37133525511219"><ele>78.0</ele><time>2026-04-23T14:52:50Z</time></trkpt><trkpt lat="42.748120007593144" lon="10.371175734939115"><ele>79.5</ele><time>2026-04-23T14:52:51Z</time></trkpt><trkpt lat="42.748135279364625" lon="10.371012864451314"><ele>81.0</ele><time>2026-04-23T14:52:52Z</time></trkpt><trkpt lat="42.748148620486965" lon="10.37085603982974"><ele>81.0</ele><time>2026-04-23T14:52:53Z</time></trkpt><trkpt lat="42.74818359544364" lon="10.370570379012046"><ele>81.0</ele><time>2026-04-23T14:52:55Z</time></trkpt><trkpt lat="42.7482225728714" lon="10.370429300101906"><ele>81.0</ele><time>2026-04-23T14:52:56Z</time></trkpt><trkpt lat="42.7482818603027" lon="10.370293473513762"><ele>81.0</ele><time>2026-04-23T14:52:57Z</time></trkpt><trkpt lat="42.74837414723432" lon="10.37018602255409"><ele>78.25</ele><time>2026-04-23T14:52:58Z</time></trkpt><trkpt lat="42.74846033938481" lon="10.370071397932545"><ele>75.5</ele><time>2026-04-23T14:52:59Z</time></trkpt><trkpt lat="42.74854133631113" lon="10.369947090682373"><ele>72.75</ele><time>2026-04-23T14:53:00Z</time></trkpt><trkpt lat="42.748622507708376" lon="10.369850518431779"><ele>70.0</ele><time>2026-04-23T14:53:01Z</time></trkpt><trkpt lat="42.74869125196147" lon="10.3697358719278"><ele>73.0</ele><time>2026-04-23T14:53:02Z</time></trkpt><trkpt lat="42.748738486377604" lon="10.369613246449177"><ele>76.0</ele><time>2026-04-23T14:53:03Z</time></trkpt><trkpt lat="42.748790093233836" lon="10.369506508379319"><ele>79.0</ele><time>2026-04-23T14:53:04Z</time></trkpt><trkpt lat="42.748829537683186" lon="10.369402593425368"><ele>82.0</ele><time>2026-04-23T14:53:05Z</time></trkpt><trkpt lat="42.748856235090734" lon="10.369289247097608"><ele>85.0</ele><time>2026-04-23T14:53:06Z</time></trkpt><trkpt lat="42.74886642312933" lon="10.369178580531479"><ele>85.0</ele><time>2026-04-23T14:53:07Z</time></trkpt><trkpt lat="42.748857922400724" lon="10.369068424789473"><ele>85.0</ele><time>2026-04-23T14:53:08Z</time></trkpt><trkpt lat="42.7488334349887" lon="10.368960730570954"><ele>85.0</ele><time>2026-04-23T14:53:09Z</time></trkpt><trkpt lat="42.74879034034423" lon="10.368862720285055"><ele>85.0</ele><time>2026-04-23T14:53:10Z</time></trkpt><trkpt lat="42.7487377008585" lon="10.36878197473643"><ele>85.0</ele><time>2026-04-23T14:53:11Z</time></trkpt><trkpt lat="42.74867520771748" lon="10.368724141089691"><ele>85.0</ele><time>2026-04-23T14:53:12Z</time></trkpt><trkpt lat="42.74859626314347" lon="10.368659155506675"><ele>84.16666666666666</ele><time>2026-04-23T14:53:13Z</time></trkpt><trkpt lat="42.74852916712944" lon="10.36869323549718"><ele>83.33333333333333</ele><time>2026-04-23T14:53:14Z</time></trkpt><trkpt lat="42.74845783389339" lon="10.368748671551938"><ele>82.5</ele><time>2026-04-23T14:53:15Z</time></trkpt><trkpt lat="42.748405141313185" lon="10.3688278477466"><ele>81.66666666666667</ele><time>2026-04-23T14:53:16Z</time></trkpt><trkpt lat="42.74837488048368" lon="10.368933384669027"><ele>80.83333333333334</ele><time>2026-04-23T14:53:17Z</time></trkpt><trkpt lat="42.748355518778915" lon="10.369044643722804"><ele>80.0</ele><time>2026-04-23T14:53:18Z</time></trkpt><trkpt lat="42.74834656398378" lon="10.369164913224424"><ele>82.8</ele><time>2026-04-23T14:53:19Z</time></trkpt><trkpt lat="42.74833053795574" lon="10.369287305353353"><ele>85.6</ele><time>2026-04-23T14:53:20Z</time></trkpt><trkpt lat="42.74831174046343" lon="10.369413276488375"><ele>88.4</ele><time>2026-04-23T14:53:21Z</time></trkpt><trkpt lat="42.748292510515654" lon="10.36954492626786"><ele>91.2</ele><time>2026-04-23T14:53:22Z</time></trkpt><trkpt lat="42.74825494765008" lon="10.369668622597144"><ele>94.0</ele><time>2026-04-23T14:53:23Z</time></trkpt><trkpt lat="42.7482014248515" lon="10.369785772779458"><ele>94.4</ele><time>2026-04-23T14:53:24Z</time></trkpt><trkpt lat="42.748135071629044" lon="10.36989691416077"><ele>94.80000000000001</ele><time>2026-04-23T14:53:25Z</time></trkpt><trkpt lat="42.74805575859709" lon="10.369997650691818"><ele>95.19999999999999</ele><time>2026-04-23T14:53:26Z</time></trkpt><trkpt lat="42.747978439761475" lon="10.37010014974472"><ele>95.6</ele><time>2026-04-23T14:53:27Z</time></trkpt><trkpt lat="42.74790666730626" lon="10.370209433701886"><ele>96.0</ele><time>2026-04-23T14:53:28Z</time></trkpt><trkpt lat="42.747842140886796" lon="10.370330772422408"><ele>96.0</ele><time>2026-04-23T14:53:29Z</time></trkpt><trkpt lat="42.74779430853089" lon="10.370468932408876"><ele>96.0</ele><time>2026-04-23T14:53:30Z</time></trkpt><trkpt lat="42.74775330035378" lon="10.370621911541734"><ele>96.0</ele><time>2026-04-23T14:53:31Z</time></trkpt><trkpt lat="42.74770823519972" lon="10.370768220522502"><ele>96.0</ele><time>2026-04-23T14:53:32Z</time></trkpt><trkpt lat="42.747668972887666" lon="10.370915213314348"><ele>98.0</ele><time>2026-04-23T14:53:33Z</time></trkpt><trkpt lat="42.74763621382723" lon="10.371047455448187"><ele>100.0</ele><time>2026-04-23T14:53:34Z</time></trkpt><trkpt lat="42.74760607197611" lon="10.371165430190224"><ele>102.0</ele><time>2026-04-23T14:53:35Z</time></trkpt><trkpt lat="42.7475710653254" lon="10.37127442837468"><ele>104.0</ele><time>2026-04-23T14:53:36Z</time></trkpt><trkpt lat="42.74752073176402" lon="10.371377754846385"><ele>106.0</ele><time>2026-04-23T14:53:37Z</time></trkpt><trkpt lat="42.74745034341716" lon="10.371473932277533"><ele>106.0</ele><time>2026-04-23T14:53:38Z</time></trkpt><trkpt lat="42.74737022566243" lon="10.3715524903987"><ele>106.0</ele><time>2026-04-23T14:53:39Z</time></trkpt><trkpt lat="42.74728097491495" lon="10.371619962018176"><ele>106.0</ele><time>2026-04-23T14:53:40Z</time></trkpt><trkpt lat="42.747190408117554" lon="10.37169466928261"><ele>106.0</ele><time>2026-04-23T14:53:41Z</time></trkpt><trkpt lat="42.74710411296362" lon="10.371780932411975"><ele>106.0</ele><time>2026-04-23T14:53:42Z</time></trkpt><trkpt lat="42.74701871464272" lon="10.371871564541642"><ele>106.0</ele><time>2026-04-23T14:53:43Z</time></trkpt><trkpt lat="42.746936437190136" lon="10.371961553741757"><ele>106.0</ele><time>2026-04-23T14:53:44Z</time></trkpt><trkpt lat="42.74686358705434" lon="10.37206105633545"><ele>106.0</ele><time>2026-04-23T14:53:45Z</time></trkpt><trkpt lat="42.74679015014147" lon="10.37216263080898"><ele>106.0</ele><time>2026-04-23T14:53:46Z</time></trkpt><trkpt lat="42.7467209672464" lon="10.372260768118585"><ele>106.0</ele><time>2026-04-23T14:53:47Z</time></trkpt><trkpt lat="42.74665491343755" lon="10.372362541559564"><ele>107.6</ele><time>2026-04-23T14:53:48Z</time></trkpt><trkpt lat="42.74659740359737" lon="10.372472114914892"><ele>109.19999999999999</ele><time>2026-04-23T14:53:49Z</time></trkpt><trkpt lat="42.74654642973574" lon="10.37259111406097"><ele>110.80000000000001</ele><time>2026-04-23T14:53:50Z</time></trkpt><trkpt lat="42.7465009199014" lon="10.372724438103717"><ele>112.4</ele><time>2026-04-23T14:53:51Z</time></trkpt><trkpt lat="42.746466425921604" lon="10.372857748347677"><ele>114.0</ele><time>2026-04-23T14:53:52Z</time></trkpt><trkpt lat="42.74643177207348" lon="10.373002166047279"><ele>113.6</ele><time>2026-04-23T14:53:53Z</time></trkpt><trkpt lat="42.746398177156614" lon="10.373149069848836"><ele>113.2</ele><time>2026-04-23T14:53:54Z</time></trkpt><trkpt lat="42.74636494907811" lon="10.373295150711765"><ele>112.79999999999998</ele><time>2026-04-23T14:53:55Z</time></trkpt><trkpt lat="42.7463322562055" lon="10.373439538293487"><ele>112.39999999999999</ele><time>2026-04-23T14:53:56Z</time></trkpt><trkpt lat="42.74630025647286" lon="10.373583818157515"><ele>112.0</ele><time>2026-04-23T14:53:57Z</time></trkpt><trkpt lat="42.74627605064831" lon="10.373724364489435"><ele>112.19999999999999</ele><time>2026-04-23T14:53:58Z</time></trkpt><trkpt lat="42.74626136535338" lon="10.373873728158804"><ele>112.39999999999999</ele><time>2026-04-23T14:53:59Z</time></trkpt><trkpt lat="42.74625772292507" lon="10.374024883489923"><ele>112.60000000000001</ele><time>2026-04-23T14:54:00Z</time></trkpt><trkpt lat="42.74626031579416" lon="10.374170639002077"><ele>112.80000000000001</ele><time>2026-04-23T14:54:01Z</time></trkpt><trkpt lat="42.746250184107375" lon="10.374320368135965"><ele>113.0</ele><time>2026-04-23T14:54:02Z</time></trkpt><trkpt lat="42.74625022811174" lon="10.37446391146166"><ele>113.0</ele><time>2026-04-23T14:54:03Z</time></trkpt><trkpt lat="42.74624887635121" lon="10.374592769677042"><ele>113.00000000000001</ele><time>2026-04-23T14:54:04Z</time></trkpt><trkpt lat="42.74624448777976" lon="10.374727886081656"><ele>113.00000000000001</ele><time>2026-04-23T14:54:05Z</time></trkpt><trkpt lat="42.746225572098595" lon="10.374867887545765"><ele>113.0</ele><time>2026-04-23T14:54:06Z</time></trkpt><trkpt lat="42.74619450363385" lon="10.375010082948732"><ele>113.0</ele><time>2026-04-23T14:54:07Z</time></trkpt><trkpt lat="42.746163635125264" lon="10.37513244721861"><ele>113.80000000000001</ele><time>2026-04-23T14:54:08Z</time></trkpt><trkpt lat="42.74614489138961" lon="10.375251348147088"><ele>114.60000000000001</ele><time>2026-04-23T14:54:09Z</time></trkpt><trkpt lat="42.746146573357244" lon="10.375378586004103"><ele>115.39999999999999</ele><time>2026-04-23T14:54:10Z</time></trkpt><trkpt lat="42.74617050607239" lon="10.37550747123508"><ele>116.19999999999999</ele><time>2026-04-23T14:54:11Z</time></trkpt><trkpt lat="42.74621361544511" lon="10.375630399170497"><ele>117.0</ele><time>2026-04-23T14:54:12Z</time></trkpt><trkpt lat="42.746273120707926" lon="10.37574271335429"><ele>117.8</ele><time>2026-04-23T14:54:13Z</time></trkpt><trkpt lat="42.746334183222814" lon="10.375855472932122"><ele>118.6</ele><time>2026-04-23T14:54:14Z</time></trkpt><trkpt lat="42.74638401076226" lon="10.375967662061699"><ele>119.39999999999999</ele><time>2026-04-23T14:54:15Z</time></trkpt><trkpt lat="42.74642017589005" lon="10.37609435843403"><ele>120.19999999999999</ele><time>2026-04-23T14:54:16Z</time></trkpt><trkpt lat="42.74644036068727" lon="10.376230076883642"><ele>121.0</ele><time>2026-04-23T14:54:17Z</time></trkpt><trkpt lat="42.74646062627635" lon="10.376361791240068"><ele>123.19999999999999</ele><time>2026-04-23T14:54:18Z</time></trkpt><trkpt lat="42.74648177954687" lon="10.376505813606274"><ele>125.39999999999999</ele><time>2026-04-23T14:54:19Z</time></trkpt><trkpt lat="42.746503799391" lon="10.376643137618471"><ele>127.6</ele><time>2026-04-23T14:54:20Z</time></trkpt><trkpt lat="42.74651490506882" lon="10.376789633805451"><ele>129.79999999999998</ele><time>2026-04-23T14:54:21Z</time></trkpt><trkpt lat="42.74653718754585" lon="10.376922744738243"><ele>132.0</ele><time>2026-04-23T14:54:22Z</time></trkpt><trkpt lat="42.74654115999793" lon="10.377048475266324"><ele>132.0</ele><time>2026-04-23T14:54:23Z</time></trkpt><trkpt lat="42.74658412260253" lon="10.377142660780235"><ele>132.0</ele><time>2026-04-23T14:54:24Z</time></trkpt><trkpt lat="42.74661621417687" lon="10.377239151895699"><ele>132.0</ele><time>2026-04-23T14:54:25Z</time></trkpt><trkpt lat="42.746648314821336" lon="10.377338561091022"><ele>132.0</ele><time>2026-04-23T14:54:26Z</time></trkpt><trkpt lat="42.74667210241442" lon="10.37743338510668"><ele>132.0</ele><time>2026-04-23T14:54:27Z</time></trkpt><trkpt lat="42.746692666883206" lon="10.377521526656263"><ele>132.0</ele><time>2026-04-23T14:54:28Z</time></trkpt><trkpt lat="42.746726102755076" lon="10.377666179925919"><ele>133.5</ele><time>2026-04-23T14:54:30Z</time></trkpt><trkpt lat="42.74674476003788" lon="10.377804530044319"><ele>135.0</ele><time>2026-04-23T14:54:32Z</time></trkpt><trkpt lat="42.74676065314229" lon="10.377917582586386"><ele>136.5</ele><time>2026-04-23T14:54:34Z</time></trkpt><trkpt lat="42.74677320398216" lon="10.37804069718962"><ele>138.0</ele><time>2026-04-23T14:54:36Z</time></trkpt><trkpt lat="42.7467831506666" lon="10.37815509936732"><ele>139.5</ele><time>2026-04-23T14:54:38Z</time></trkpt><trkpt lat="42.74679874949598" lon="10.378268357821652"><ele>141.0</ele><time>2026-04-23T14:54:41Z</time></trkpt><trkpt lat="42.74683147305259" lon="10.378353018491945"><ele>138.5</ele><time>2026-04-23T14:54:43Z</time></trkpt><trkpt lat="42.74689433666403" lon="10.378435189678967"><ele>136.0</ele><time>2026-04-23T14:54:45Z</time></trkpt><trkpt lat="42.74689239169847" lon="10.378525094870897"><ele>133.5</ele><time>2026-04-23T14:54:46Z</time></trkpt><trkpt lat="42.74692131874235" lon="10.37865547295985"><ele>131.0</ele><time>2026-04-23T14:54:48Z</time></trkpt><trkpt lat="42.74693978812649" lon="10.378772492682756"><ele>128.5</ele><time>2026-04-23T14:54:50Z</time></trkpt><trkpt lat="42.746959760951206" lon="10.378911489235835"><ele>126.0</ele><time>2026-04-23T14:54:52Z</time></trkpt><trkpt lat="42.746962311370396" lon="10.379002760533986"><ele>126.0</ele><time>2026-04-23T14:54:53Z</time></trkpt><trkpt lat="42.74700365162085" lon="10.379161406693175"><ele>126.0</ele><time>2026-04-23T14:54:55Z</time></trkpt><trkpt lat="42.74704849902617" lon="10.379303687300313"><ele>126.0</ele><time>2026-04-23T14:54:57Z</time></trkpt><trkpt lat="42.74710094610683" lon="10.379452947910075"><ele>126.0</ele><time>2026-04-23T14:54:59Z</time></trkpt><trkpt lat="42.74713037673181" lon="10.379534610462908"><ele>126.0</ele><time>2026-04-23T14:55:00Z</time></trkpt><trkpt lat="42.747163268477074" lon="10.379629572694663"><ele>126.83333333333333</ele><time>2026-04-23T14:55:01Z</time></trkpt><trkpt lat="42.74721069027297" lon="10.379720254118446"><ele>127.66666666666666</ele><time>2026-04-23T14:55:02Z</time></trkpt><trkpt lat="42.74727329406812" lon="10.379805938023456"><ele>128.5</ele><time>2026-04-23T14:55:03Z</time></trkpt><trkpt lat="42.74733618497803" lon="10.379880901920465"><ele>129.33333333333331</ele><time>2026-04-23T14:55:04Z</time></trkpt><trkpt lat="42.747407364687234" lon="10.379927392331012"><ele>130.16666666666666</ele><time>2026-04-23T14:55:05Z</time></trkpt><trkpt lat="42.747482190151395" lon="10.379959744170998"><ele>131.0</ele><time>2026-04-23T14:55:06Z</time></trkpt><trkpt lat="42.74755883345957" lon="10.379977475480398"><ele>131.0</ele><time>2026-04-23T14:55:07Z</time></trkpt><trkpt lat="42.747642635984214" lon="10.37998799283019"><ele>131.0</ele><time>2026-04-23T14:55:08Z</time></trkpt><trkpt lat="42.74772959870073" lon="10.379989942604064"><ele>131.0</ele><time>2026-04-23T14:55:09Z</time></trkpt><trkpt lat="42.747809106855755" lon="10.379984355514626"><ele>131.0</ele><time>2026-04-23T14:55:10Z</time></trkpt><trkpt lat="42.747872827884365" lon="10.379984698512484"><ele>131.0</ele><time>2026-04-23T14:55:11Z</time></trkpt><trkpt lat="42.747978145628494" lon="10.38000381633248"><ele>131.0</ele><time>2026-04-23T14:55:13Z</time></trkpt><trkpt lat="42.748040188281635" lon="10.380027257753657"><ele>128.6</ele><time>2026-04-23T14:55:15Z</time></trkpt><trkpt lat="42.74810061546359" lon="10.380097661115657"><ele>126.19999999999999</ele><time>2026-04-23T14:55:32Z</time></trkpt><trkpt lat="42.74820501136958" lon="10.379979748013112"><ele>123.80000000000001</ele><time>2026-04-23T14:55:34Z</time></trkpt><trkpt lat="42.748267359776015" lon="10.379888373894518"><ele>121.4</ele><time>2026-04-23T14:55:36Z</time></trkpt><trkpt lat="42.748363851960214" lon="10.3798341847977"><ele>119.0</ele><time>2026-04-23T14:55:38Z</time></trkpt><trkpt lat="42.74846326315972" lon="10.379816177375334"><ele>117.49999999999999</ele><time>2026-04-23T14:55:40Z</time></trkpt><trkpt lat="42.74856115236597" lon="10.379805478895584"><ele>116.0</ele><time>2026-04-23T14:55:42Z</time></trkpt><trkpt lat="42.74864149686323" lon="10.379838432189862"><ele>114.5</ele><time>2026-04-23T14:55:44Z</time></trkpt><trkpt lat="42.74870649153168" lon="10.37984018619723"><ele>113.0</ele><time>2026-04-23T14:55:46Z</time></trkpt><trkpt lat="42.74872396380076" lon="10.380002232519292"><ele>111.49999999999999</ele><time>2026-04-23T14:55:47Z</time></trkpt><trkpt lat="42.748803110975274" lon="10.380010401367572"><ele>110.0</ele><time>2026-04-23T14:55:48Z</time></trkpt><trkpt lat="42.74892273018084" lon="10.380074469675046"><ele>109.99999999999999</ele><time>2026-04-23T14:55:50Z</time></trkpt><trkpt lat="42.74900864854717" lon="10.380063560439634"><ele>110.0</ele><time>2026-04-23T14:55:52Z</time></trkpt><trkpt lat="42.74909035265517" lon="10.380044058828613"><ele>110.0</ele><time>2026-04-23T14:55:55Z</time></trkpt><trkpt lat="42.74915515296032" lon="10.380041792552003"><ele>110.0</ele><time>2026-04-23T14:56:24Z</time></trkpt><trkpt lat="42.74921818185537" lon="10.38001651881767"><ele>109.99999999999999</ele><time>2026-04-23T14:57:19Z</time></trkpt><trkpt lat="42.74928096998734" lon="10.380002991508418"><ele>110.0</ele><time>2026-04-23T14:57:52Z</time></trkpt><trkpt lat="42.74932416081736" lon="10.38016839434277"><ele>109.99999999999999</ele><time>2026-04-23T14:59:21Z</time></trkpt><trkpt lat="42.74928417159036" lon="10.380080946821018"><ele>110.0</ele><time>2026-04-23T14:59:38Z</time></trkpt><trkpt lat="42.74921996587117" lon="10.380037934519725"><ele>110.0</ele><time>2026-04-23T14:59:44Z</time></trkpt><trkpt lat="42.74914608990594" lon="10.380045177941335"><ele>110.0</ele><time>2026-04-23T14:59:51Z</time></trkpt><trkpt lat="42.7490910758267" lon="10.38009470163638"><ele>110.0</ele><time>2026-04-23T14:59:57Z</time></trkpt><trkpt lat="42.749090053195495" lon="10.380005766467896"><ele>109.99999999999999</ele><time>2026-04-23T15:02:54Z</time></trkpt><trkpt lat="42.749022414606" lon="10.37997224234062"><ele>110.0</ele><time>2026-04-23T15:02:56Z</time></trkpt><trkpt lat="42.74893551701492" lon="10.379975083604368"><ele>109.99999999999999</ele><time>2026-04-23T15:02:58Z</time></trkpt><trkpt lat="42.748836245449375" lon="10.37997153644748"><ele>110.0</ele><time>2026-04-23T15:03:00Z</time></trkpt><trkpt lat="42.74874644689179" lon="10.379930003106923"><ele>110.0</ele><time>2026-04-23T15:03:02Z</time></trkpt><trkpt lat="42.74869983520065" lon="10.379867459726807"><ele>110.0</ele><time>2026-04-23T15:03:04Z</time></trkpt><trkpt lat="42.74865494438292" lon="10.379804110175819"><ele>109.99999999999999</ele><time>2026-04-23T15:03:10Z</time></trkpt><trkpt lat="42.74858427720161" lon="10.379786378296698"><ele>110.0</ele><time>2026-04-23T15:03:12Z</time></trkpt><trkpt lat="42.74848855232476" lon="10.379793638817073"><ele>111.8</ele><time>2026-04-23T15:03:14Z</time></trkpt><trkpt lat="42.748379839825404" lon="10.379812605939698"><ele>113.6</ele><time>2026-04-23T15:03:16Z</time></trkpt><trkpt lat="42.748274320944816" lon="10.379858527993203"><ele>115.4</ele><time>2026-04-23T15:03:18Z</time></trkpt><trkpt lat="42.74818966758348" lon="10.379929347714594"><ele>117.2</ele><time>2026-04-23T15:03:20Z</time></trkpt><trkpt lat="42.74813982545514" lon="10.379984498685307"><ele>119.0</ele><time>2026-04-23T15:03:22Z</time></trkpt><trkpt lat="42.74814372416749" lon="10.38011598242911"><ele>118.99999999999999</ele><time>2026-04-23T15:04:03Z</time></trkpt><trkpt lat="42.748198689090444" lon="10.380273413465654"><ele>119.0</ele><time>2026-04-23T15:04:05Z</time></trkpt><trkpt lat="42.748205822929705" lon="10.380369990381103"><ele>119.0</ele><time>2026-04-23T15:04:06Z</time></trkpt><trkpt lat="42.74821099479902" lon="10.380469692880881"><ele>119.0</ele><time>2026-04-23T15:04:07Z</time></trkpt><trkpt lat="42.74821505883928" lon="10.380580284970614"><ele>118.99999999999999</ele><time>2026-04-23T15:04:08Z</time></trkpt><trkpt lat="42.74821831650802" lon="10.380678347494374"><ele>119.0</ele><time>2026-04-23T15:04:09Z</time></trkpt><trkpt lat="42.748225622458726" lon="10.380825645731262"><ele>118.99999999999999</ele><time>2026-04-23T15:04:11Z</time></trkpt><trkpt lat="42.74822849706511" lon="10.380958676517368"><ele>119.0</ele><time>2026-04-23T15:04:13Z</time></trkpt><trkpt lat="42.74823319790972" lon="10.381123167664907"><ele>119.0</ele><time>2026-04-23T15:04:15Z</time></trkpt><trkpt lat="42.74824157975865" lon="10.381214890722136"><ele>119.0</ele><time>2026-04-23T15:04:16Z</time></trkpt><trkpt lat="42.7482465440719" lon="10.381304224693961"><ele>118.99999999999999</ele><time>2026-04-23T15:04:17Z</time></trkpt><trkpt lat="42.748247458936646" lon="10.381393697204459"><ele>119.0</ele><time>2026-04-23T15:04:18Z</time></trkpt><trkpt lat="42.74825156264344" lon="10.381481133122879"><ele>118.16666666666666</ele><time>2026-04-23T15:04:19Z</time></trkpt><trkpt lat="42.74825497079017" lon="10.38157362063761"><ele>117.33333333333333</ele><time>2026-04-23T15:04:20Z</time></trkpt><trkpt lat="42.74825935982087" lon="10.381662174386557"><ele>116.5</ele><time>2026-04-23T15:04:21Z</time></trkpt><trkpt lat="42.7482621860534" lon="10.381825198879326"><ele>115.66666666666666</ele><time>2026-04-23T15:04:23Z</time></trkpt><trkpt lat="42.74826170727956" lon="10.381913498102072"><ele>114.83333333333333</ele><time>2026-04-23T15:04:24Z</time></trkpt><trkpt lat="42.74825149004872" lon="10.38200558020174"><ele>114.0</ele><time>2026-04-23T15:04:25Z</time></trkpt><trkpt lat="42.74823254892125" lon="10.382090233459916"><ele>114.0</ele><time>2026-04-23T15:04:26Z</time></trkpt><trkpt lat="42.74820375728141" lon="10.382176330093193"><ele>114.0</ele><time>2026-04-23T15:04:27Z</time></trkpt><trkpt lat="42.748173786331435" lon="10.382259605232067"><ele>114.0</ele><time>2026-04-23T15:04:28Z</time></trkpt><trkpt lat="42.74814427775311" lon="10.382335883295665"><ele>114.0</ele><time>2026-04-23T15:04:29Z</time></trkpt><trkpt lat="42.74808256037517" lon="10.382452354938566"><ele>114.0</ele><time>2026-04-23T15:04:31Z</time></trkpt><trkpt lat="42.748028424583346" lon="10.382517869974603"><ele>114.0</ele><time>2026-04-23T15:04:33Z</time></trkpt><trkpt lat="42.74794579012801" lon="10.382604961427397"><ele>113.83333333333333</ele><time>2026-04-23T15:04:35Z</time></trkpt><trkpt lat="42.747827896356895" lon="10.382690002386436"><ele>113.66666666666666</ele><time>2026-04-23T15:04:37Z</time></trkpt><trkpt lat="42.747756411804566" lon="10.382721190762606"><ele>113.5</ele><time>2026-04-23T15:04:38Z</time></trkpt><trkpt lat="42.74768461941175" lon="10.38275648741362"><ele>113.33333333333333</ele><time>2026-04-23T15:04:39Z</time></trkpt><trkpt lat="42.747606168136215" lon="10.382779140643452"><ele>113.16666666666666</ele><time>2026-04-23T15:04:40Z</time></trkpt><trkpt lat="42.747522857884896" lon="10.38277905326897"><ele>113.0</ele><time>2026-04-23T15:04:41Z</time></trkpt><trkpt lat="42.74743558587975" lon="10.38276464266635"><ele>113.0</ele><time>2026-04-23T15:04:42Z</time></trkpt><trkpt lat="42.747345940514734" lon="10.382745162357049"><ele>113.00000000000001</ele><time>2026-04-23T15:04:43Z</time></trkpt><trkpt lat="42.74726091160684" lon="10.38269470103701"><ele>113.00000000000001</ele><time>2026-04-23T15:04:44Z</time></trkpt><trkpt lat="42.747184259587804" lon="10.382624707627533"><ele>113.0</ele><time>2026-04-23T15:04:45Z</time></trkpt><trkpt lat="42.747112435585954" lon="10.382546731935225"><ele>113.0</ele><time>2026-04-23T15:04:46Z</time></trkpt><trkpt lat="42.7470470496711" lon="10.3824559924594"><ele>113.0</ele><time>2026-04-23T15:04:47Z</time></trkpt><trkpt lat="42.74698944121282" lon="10.382349068911223"><ele>113.00000000000001</ele><time>2026-04-23T15:04:48Z</time></trkpt><trkpt lat="42.74694072734957" lon="10.38223482846162"><ele>113.00000000000001</ele><time>2026-04-23T15:04:49Z</time></trkpt><trkpt lat="42.74689700386094" lon="10.382134944301407"><ele>113.0</ele><time>2026-04-23T15:04:50Z</time></trkpt><trkpt lat="42.74685350327903" lon="10.382032778102054"><ele>113.0</ele><time>2026-04-23T15:04:51Z</time></trkpt><trkpt lat="42.746803902226084" lon="10.381939105809742"><ele>113.33333333333333</ele><time>2026-04-23T15:04:52Z</time></trkpt><trkpt lat="42.746755561843266" lon="10.381841335175992"><ele>113.66666666666666</ele><time>2026-04-23T15:04:53Z</time></trkpt><trkpt lat="42.746714468010765" lon="10.38175359651799"><ele>114.0</ele><time>2026-04-23T15:04:54Z</time></trkpt><trkpt lat="42.746662405297094" lon="10.381683531979679"><ele>114.33333333333334</ele><time>2026-04-23T15:04:55Z</time></trkpt><trkpt lat="42.746603960775026" lon="10.38161260894347"><ele>114.66666666666667</ele><time>2026-04-23T15:04:56Z</time></trkpt><trkpt lat="42.746532312344875" lon="10.381556341734175"><ele>115.0</ele><time>2026-04-23T15:04:57Z</time></trkpt><trkpt lat="42.746453830081045" lon="10.381509037601624"><ele>115.00000000000001</ele><time>2026-04-23T15:04:58Z</time></trkpt><trkpt lat="42.74637111578273" lon="10.381474459840964"><ele>115.0</ele><time>2026-04-23T15:04:59Z</time></trkpt><trkpt lat="42.74628807640157" lon="10.381456317269775"><ele>115.0</ele><time>2026-04-23T15:05:00Z</time></trkpt><trkpt lat="42.746202779087334" lon="10.381452741314769"><ele>115.0</ele><time>2026-04-23T15:05:01Z</time></trkpt><trkpt lat="42.74611653196082" lon="10.381446034979927"><ele>115.00000000000001</ele><time>2026-04-23T15:05:02Z</time></trkpt><trkpt lat="42.746032702967206" lon="10.381444662513179"><ele>115.0</ele><time>2026-04-23T15:05:03Z</time></trkpt><trkpt lat="42.74594522677767" lon="10.381438930922513"><ele>116.00000000000001</ele><time>2026-04-23T15:05:04Z</time></trkpt><trkpt lat="42.745858699762856" lon="10.381433917127424"><ele>117.0</ele><time>2026-04-23T15:05:05Z</time></trkpt><trkpt lat="42.745772306853596" lon="10.381428216822476"><ele>118.0</ele><time>2026-04-23T15:05:06Z</time></trkpt><trkpt lat="42.74568662809558" lon="10.381420400129256"><ele>119.0</ele><time>2026-04-23T15:05:07Z</time></trkpt><trkpt lat="42.745606518193355" lon="10.381421439857485"><ele>120.00000000000001</ele><time>2026-04-23T15:05:08Z</time></trkpt><trkpt lat="42.74552577656948" lon="10.381420415624996"><ele>121.0</ele><time>2026-04-23T15:05:09Z</time></trkpt><trkpt lat="42.7454472388146" lon="10.381415108182958"><ele>121.0</ele><time>2026-04-23T15:05:10Z</time></trkpt><trkpt lat="42.74537520425015" lon="10.381410395617483"><ele>120.99999999999999</ele><time>2026-04-23T15:05:11Z</time></trkpt><trkpt lat="42.74530394364896" lon="10.381406330042092"><ele>121.0</ele><time>2026-04-23T15:05:12Z</time></trkpt><trkpt lat="42.74523499086371" lon="10.381402444623625"><ele>121.0</ele><time>2026-04-23T15:05:13Z</time></trkpt><trkpt lat="42.74516467412849" lon="10.38140249342061"><ele>120.99999999999999</ele><time>2026-04-23T15:05:14Z</time></trkpt><trkpt lat="42.74509415310489" lon="10.381394986140858"><ele>121.0</ele><time>2026-04-23T15:05:15Z</time></trkpt><trkpt lat="42.74502412231306" lon="10.381389317135408"><ele>121.0</ele><time>2026-04-23T15:05:16Z</time></trkpt><trkpt lat="42.7449514083347" lon="10.381383472746409"><ele>122.83333333333334</ele><time>2026-04-23T15:05:17Z</time></trkpt><trkpt lat="42.74487987925319" lon="10.381387402665396"><ele>124.66666666666667</ele><time>2026-04-23T15:05:18Z</time></trkpt><trkpt lat="42.74480819061655" lon="10.381407418225267"><ele>126.5</ele><time>2026-04-23T15:05:19Z</time></trkpt><trkpt lat="42.74473454584913" lon="10.38142793917752"><ele>128.33333333333334</ele><time>2026-04-23T15:05:20Z</time></trkpt><trkpt lat="42.744660494327974" lon="10.381455809290589"><ele>130.16666666666666</ele><time>2026-04-23T15:05:21Z</time></trkpt><trkpt lat="42.74458416243581" lon="10.38148869027475"><ele>132.0</ele><time>2026-04-23T15:05:22Z</time></trkpt><trkpt lat="42.744506318481086" lon="10.381533517950677"><ele>132.0</ele><time>2026-04-23T15:05:23Z</time></trkpt><trkpt lat="42.74442807890832" lon="10.381577755702473"><ele>132.0</ele><time>2026-04-23T15:05:24Z</time></trkpt><trkpt lat="42.74435505147239" lon="10.381628820345005"><ele>132.0</ele><time>2026-04-23T15:05:25Z</time></trkpt><trkpt lat="42.744281201475395" lon="10.381674031795342"><ele>132.0</ele><time>2026-04-23T15:05:26Z</time></trkpt><trkpt lat="42.74420646863817" lon="10.381723819643005"><ele>132.0</ele><time>2026-04-23T15:05:27Z</time></trkpt><trkpt lat="42.74413043791624" lon="10.381777718070454"><ele>132.0</ele><time>2026-04-23T15:05:28Z</time></trkpt><trkpt lat="42.74405096606659" lon="10.381828767605128"><ele>133.33333333333334</ele><time>2026-04-23T15:05:29Z</time></trkpt><trkpt lat="42.743967524329555" lon="10.381870507815378"><ele>134.66666666666666</ele><time>2026-04-23T15:05:30Z</time></trkpt><trkpt lat="42.743882275604925" lon="10.381910348401611"><ele>136.0</ele><time>2026-04-23T15:05:31Z</time></trkpt><trkpt lat="42.743795475140196" lon="10.381947410525733"><ele>137.33333333333331</ele><time>2026-04-23T15:05:32Z</time></trkpt><trkpt lat="42.74370981389373" lon="10.381981681923248"><ele>138.66666666666666</ele><time>2026-04-23T15:05:33Z</time></trkpt><trkpt lat="42.74362498408337" lon="10.382012379489314"><ele>140.0</ele><time>2026-04-23T15:05:34Z</time></trkpt><trkpt lat="42.743541022639306" lon="10.38204758395464"><ele>141.5</ele><time>2026-04-23T15:05:35Z</time></trkpt><trkpt lat="42.74345885371498" lon="10.382082235616494"><ele>143.0</ele><time>2026-04-23T15:05:36Z</time></trkpt><trkpt lat="42.743377755904376" lon="10.382116346575598"><ele>144.5</ele><time>2026-04-23T15:05:37Z</time></trkpt><trkpt lat="42.74329873951516" lon="10.382149141084083"><ele>146.0</ele><time>2026-04-23T15:05:38Z</time></trkpt><trkpt lat="42.74321917342976" lon="10.382177497085168"><ele>147.5</ele><time>2026-04-23T15:05:39Z</time></trkpt><trkpt lat="42.743144708857685" lon="10.382199997179093"><ele>149.0</ele><time>2026-04-23T15:05:40Z</time></trkpt><trkpt lat="42.743026577959235" lon="10.382198986905756"><ele>149.5</ele><time>2026-04-23T15:05:42Z</time></trkpt><trkpt lat="42.74293118615958" lon="10.382119104814844"><ele>150.0</ele><time>2026-04-23T15:05:44Z</time></trkpt><trkpt lat="42.74285399452371" lon="10.381999887849782"><ele>150.5</ele><time>2026-04-23T15:05:46Z</time></trkpt><trkpt lat="42.742818782872845" lon="10.38184789444193"><ele>151.0</ele><time>2026-04-23T15:05:48Z</time></trkpt><trkpt lat="42.74282931584372" lon="10.381697054864045"><ele>151.0</ele><time>2026-04-23T15:05:50Z</time></trkpt><trkpt lat="42.742874946887774" lon="10.381552242984004"><ele>151.0</ele><time>2026-04-23T15:05:52Z</time></trkpt><trkpt lat="42.74295660246011" lon="10.381429741738884"><ele>151.0</ele><time>2026-04-23T15:05:54Z</time></trkpt><trkpt lat="42.74305800734547" lon="10.381330611224982"><ele>151.0</ele><time>2026-04-23T15:05:56Z</time></trkpt><trkpt lat="42.743107044146356" lon="10.38127650770543"><ele>151.0</ele><time>2026-04-23T15:05:57Z</time></trkpt><trkpt lat="42.743193137616004" lon="10.381164630905998"><ele>153.4</ele><time>2026-04-23T15:05:59Z</time></trkpt><trkpt lat="42.74324961607124" lon="10.38101118352578"><ele>155.8</ele><time>2026-04-23T15:06:01Z</time></trkpt><trkpt lat="42.74328767687562" lon="10.380873321536898"><ele>158.20000000000002</ele><time>2026-04-23T15:06:03Z</time></trkpt><trkpt lat="42.743312996267285" lon="10.380782838804445"><ele>160.6</ele><time>2026-04-23T15:06:06Z</time></trkpt><trkpt lat="42.743256371776496" lon="10.380713316481486"><ele>163.0</ele><time>2026-04-23T15:06:24Z</time></trkpt><trkpt lat="42.74315531959333" lon="10.380699369798029"><ele>163.0</ele><time>2026-04-23T15:06:26Z</time></trkpt><trkpt lat="42.743062795900876" lon="10.380664997386074"><ele>163.0</ele><time>2026-04-23T15:06:28Z</time></trkpt><trkpt lat="42.74300079216167" lon="10.380625172907143"><ele>163.0</ele><time>2026-04-23T15:06:30Z</time></trkpt><trkpt lat="42.74293427279344" lon="10.380611801187898"><ele>163.0</ele><time>2026-04-23T15:06:33Z</time></trkpt><trkpt lat="42.74289974937717" lon="10.380539425009733"><ele>163.0</ele><time>2026-04-23T15:06:35Z</time></trkpt><trkpt lat="42.74283216430287" lon="10.380488745053064"><ele>163.0</ele><time>2026-04-23T15:06:38Z</time></trkpt><trkpt lat="42.74277054166948" lon="10.380442695251523"><ele>163.0</ele><time>2026-04-23T15:06:41Z</time></trkpt><trkpt lat="42.74268345710857" lon="10.380456201533269"><ele>161.8</ele><time>2026-04-23T15:07:18Z</time></trkpt><trkpt lat="42.742592704196966" lon="10.380459618557744"><ele>160.60000000000002</ele><time>2026-04-23T15:07:20Z</time></trkpt><trkpt lat="42.74249736032524" lon="10.380401114557735"><ele>159.39999999999998</ele><time>2026-04-23T15:07:22Z</time></trkpt><trkpt lat="42.74244309995618" lon="10.380258810599523"><ele>158.2</ele><time>2026-04-23T15:07:24Z</time></trkpt><trkpt lat="42.74238584673892" lon="10.380114991290178"><ele>157.0</ele><time>2026-04-23T15:07:26Z</time></trkpt><trkpt lat="42.742331565289604" lon="10.380067903424491"><ele>157.0</ele><time>2026-04-23T15:07:27Z</time></trkpt><trkpt lat="42.742269451081604" lon="10.3800078124063"><ele>157.0</ele><time>2026-04-23T15:07:28Z</time></trkpt><trkpt lat="42.74219608376731" lon="10.37997512347772"><ele>157.0</ele><time>2026-04-23T15:07:29Z</time></trkpt><trkpt lat="42.74211380856771" lon="10.379960246937628"><ele>157.0</ele><time>2026-04-23T15:07:30Z</time></trkpt><trkpt lat="42.74203343271758" lon="10.37991883758748"><ele>157.0</ele><time>2026-04-23T15:07:31Z</time></trkpt><trkpt lat="42.74195121144418" lon="10.379864727208506"><ele>157.0</ele><time>2026-04-23T15:07:32Z</time></trkpt><trkpt lat="42.74186982918667" lon="10.379803204904094"><ele>157.33333333333334</ele><time>2026-04-23T15:07:33Z</time></trkpt><trkpt lat="42.741791315660116" lon="10.379732636835364"><ele>157.66666666666669</ele><time>2026-04-23T15:07:34Z</time></trkpt><trkpt lat="42.74171567630511" lon="10.379671316591997"><ele>158.0</ele><time>2026-04-23T15:07:35Z</time></trkpt><trkpt lat="42.7416432012106" lon="10.379625535732252"><ele>158.33333333333334</ele><time>2026-04-23T15:07:36Z</time></trkpt><trkpt lat="42.741573587713766" lon="10.379584652510975"><ele>158.66666666666666</ele><time>2026-04-23T15:07:37Z</time></trkpt><trkpt lat="42.74150859767125" lon="10.379549887613557"><ele>159.0</ele><time>2026-04-23T15:07:38Z</time></trkpt><trkpt lat="42.74144844345514" lon="10.379517210391382"><ele>155.0</ele><time>2026-04-23T15:07:39Z</time></trkpt><trkpt lat="42.74139200584384" lon="10.379462322937208"><ele>151.0</ele><time>2026-04-23T15:07:40Z</time></trkpt><trkpt lat="42.74134190087157" lon="10.379387391155571"><ele>147.0</ele><time>2026-04-23T15:07:41Z</time></trkpt><trkpt lat="42.74129269978899" lon="10.37930095266686"><ele>143.0</ele><time>2026-04-23T15:07:42Z</time></trkpt><trkpt lat="42.741242942304645" lon="10.379207746217944"><ele>139.0</ele><time>2026-04-23T15:07:43Z</time></trkpt><trkpt lat="42.74119498285305" lon="10.379115549173257"><ele>135.0</ele><time>2026-04-23T15:07:44Z</time></trkpt><trkpt lat="42.741147289124015" lon="10.379019754051335"><ele>135.0</ele><time>2026-04-23T15:07:45Z</time></trkpt><trkpt lat="42.741102187706765" lon="10.378933870640262"><ele>135.0</ele><time>2026-04-23T15:07:46Z</time></trkpt><trkpt lat="42.741005417078966" lon="10.37883759659514"><ele>135.0</ele><time>2026-04-23T15:07:48Z</time></trkpt><trkpt lat="42.740939867170844" lon="10.378820388880825"><ele>135.0</ele><time>2026-04-23T15:07:49Z</time></trkpt><trkpt lat="42.74086593794277" lon="10.378816475582058"><ele>135.0</ele><time>2026-04-23T15:07:50Z</time></trkpt><trkpt lat="42.740793377392954" lon="10.378817648749829"><ele>135.0</ele><time>2026-04-23T15:07:51Z</time></trkpt><trkpt lat="42.7406778818128" lon="10.378768030039287"><ele>134.16666666666666</ele><time>2026-04-23T15:07:53Z</time></trkpt><trkpt lat="42.740609800611125" lon="10.378633189332874"><ele>133.33333333333334</ele><time>2026-04-23T15:07:55Z</time></trkpt><trkpt lat="42.74058919419866" lon="10.378541609522742"><ele>132.5</ele><time>2026-04-23T15:07:56Z</time></trkpt><trkpt lat="42.74057008730167" lon="10.378440040533768"><ele>131.66666666666669</ele><time>2026-04-23T15:07:57Z</time></trkpt><trkpt lat="42.74055319725551" lon="10.378326876125104"><ele>130.83333333333334</ele><time>2026-04-23T15:07:58Z</time></trkpt><trkpt lat="42.7405304742638" lon="10.378212758599991"><ele>130.0</ele><time>2026-04-23T15:07:59Z</time></trkpt><trkpt lat="42.74050282853218" lon="10.378098606275932"><ele>126.66666666666667</ele><time>2026-04-23T15:08:00Z</time></trkpt><trkpt lat="42.74046871718394" lon="10.377994835868394"><ele>123.33333333333334</ele><time>2026-04-23T15:08:01Z</time></trkpt><trkpt lat="42.74043156677979" lon="10.377894888690909"><ele>120.0</ele><time>2026-04-23T15:08:02Z</time></trkpt><trkpt lat="42.7403901420942" lon="10.377789909738228"><ele>116.66666666666666</ele><time>2026-04-23T15:08:03Z</time></trkpt><trkpt lat="42.7403441946899" lon="10.377684899663931"><ele>113.33333333333333</ele><time>2026-04-23T15:08:04Z</time></trkpt><trkpt lat="42.74029945741205" lon="10.37757382565275"><ele>110.0</ele><time>2026-04-23T15:08:05Z</time></trkpt><trkpt lat="42.740258733169526" lon="10.377461126715874"><ele>109.99999999999999</ele><time>2026-04-23T15:08:06Z</time></trkpt><trkpt lat="42.74022011958712" lon="10.377358397250369"><ele>110.0</ele><time>2026-04-23T15:08:07Z</time></trkpt><trkpt lat="42.740183707819966" lon="10.377262023748454"><ele>110.0</ele><time>2026-04-23T15:08:08Z</time></trkpt><trkpt lat="42.74015883346769" lon="10.377158891784108"><ele>110.0</ele><time>2026-04-23T15:08:09Z</time></trkpt><trkpt lat="42.74014014142784" lon="10.377054765861697"><ele>109.99999999999999</ele><time>2026-04-23T15:08:10Z</time></trkpt><trkpt lat="42.74013413950421" lon="10.376944301706832"><ele>110.0</ele><time>2026-04-23T15:08:11Z</time></trkpt><trkpt lat="42.74012891868515" lon="10.37683456570299"><ele>109.99999999999999</ele><time>2026-04-23T15:08:12Z</time></trkpt><trkpt lat="42.740129904240966" lon="10.376725764206714"><ele>110.0</ele><time>2026-04-23T15:08:13Z</time></trkpt><trkpt lat="42.74012522550119" lon="10.37661371424034"><ele>110.0</ele><time>2026-04-23T15:08:14Z</time></trkpt><trkpt lat="42.740109233474854" lon="10.376506713108503"><ele>110.0</ele><time>2026-04-23T15:08:15Z</time></trkpt><trkpt lat="42.74008621167192" lon="10.376403434995048"><ele>109.99999999999999</ele><time>2026-04-23T15:08:16Z</time></trkpt><trkpt lat="42.74005002575001" lon="10.376306618954123"><ele>110.0</ele><time>2026-04-23T15:08:17Z</time></trkpt><trkpt lat="42.740012475392284" lon="10.376226690358942"><ele>110.0</ele><time>2026-04-23T15:08:18Z</time></trkpt><trkpt lat="42.73994708406994" lon="10.376101319509031"><ele>110.0</ele><time>2026-04-23T15:08:20Z</time></trkpt><trkpt lat="42.73989984550396" lon="10.37601653098704"><ele>110.0</ele><time>2026-04-23T15:08:22Z</time></trkpt><trkpt lat="42.73985526810559" lon="10.375928616641191"><ele>110.0</ele><time>2026-04-23T15:08:24Z</time></trkpt><trkpt lat="42.73975922917069" lon="10.375828485849894"><ele>110.0</ele><time>2026-04-23T15:08:26Z</time></trkpt><trkpt lat="42.73970248014136" lon="10.375775303490531"><ele>109.99999999999999</ele><time>2026-04-23T15:08:27Z</time></trkpt><trkpt lat="42.739635783618226" lon="10.375737050720934"><ele>110.0</ele><time>2026-04-23T15:08:28Z</time></trkpt><trkpt lat="42.73956370811724" lon="10.375700829091615"><ele>110.0</ele><time>2026-04-23T15:08:29Z</time></trkpt><trkpt lat="42.739488297049554" lon="10.375665222756012"><ele>110.0</ele><time>2026-04-23T15:08:30Z</time></trkpt><trkpt lat="42.73941175680545" lon="10.375625776069588"><ele>109.99999999999999</ele><time>2026-04-23T15:08:31Z</time></trkpt><trkpt lat="42.73934138775639" lon="10.375587581590347"><ele>110.0</ele><time>2026-04-23T15:08:32Z</time></trkpt><trkpt lat="42.739262654252904" lon="10.375566628940888"><ele>111.8</ele><time>2026-04-23T15:08:33Z</time></trkpt><trkpt lat="42.739176742761465" lon="10.375553019537609"><ele>113.6</ele><time>2026-04-23T15:08:34Z</time></trkpt><trkpt lat="42.73908388840523" lon="10.375570173886302"><ele>115.4</ele><time>2026-04-23T15:08:35Z</time></trkpt><trkpt lat="42.73898498048913" lon="10.375597731249695"><ele>117.2</ele><time>2026-04-23T15:08:36Z</time></trkpt><trkpt lat="42.73889016422714" lon="10.375633030012942"><ele>119.0</ele><time>2026-04-23T15:08:37Z</time></trkpt><trkpt lat="42.738799067847026" lon="10.375665115100247"><ele>118.99999999999999</ele><time>2026-04-23T15:08:38Z</time></trkpt><trkpt lat="42.73870662600868" lon="10.37569773329977"><ele>119.0</ele><time>2026-04-23T15:08:39Z</time></trkpt><trkpt lat="42.738616404649875" lon="10.375729455406216"><ele>119.0</ele><time>2026-04-23T15:08:40Z</time></trkpt><trkpt lat="42.73852783062925" lon="10.375752853910651"><ele>119.0</ele><time>2026-04-23T15:08:41Z</time></trkpt><trkpt lat="42.738440068568096" lon="10.375765053193092"><ele>118.99999999999999</ele><time>2026-04-23T15:08:42Z</time></trkpt><trkpt lat="42.73835961442519" lon="10.375773477353366"><ele>119.0</ele><time>2026-04-23T15:08:43Z</time></trkpt><trkpt lat="42.73828215860088" lon="10.375783162440772"><ele>117.0</ele><time>2026-04-23T15:08:44Z</time></trkpt><trkpt lat="42.7382141786555" lon="10.375792220617829"><ele>115.0</ele><time>2026-04-23T15:08:45Z</time></trkpt><trkpt lat="42.738102008854526" lon="10.375816861113858"><ele>113.0</ele><time>2026-04-23T15:08:47Z</time></trkpt><trkpt lat="42.73801833942426" lon="10.375935332150474"><ele>111.0</ele><time>2026-04-23T15:08:49Z</time></trkpt><trkpt lat="42.737996519708716" lon="10.376028509407217"><ele>109.0</ele><time>2026-04-23T15:08:50Z</time></trkpt><trkpt lat="42.73799250988274" lon="10.376136190507768"><ele>109.00000000000001</ele><time>2026-04-23T15:08:51Z</time></trkpt><trkpt lat="42.73800004195321" lon="10.376244443071117"><ele>109.0</ele><time>2026-04-23T15:08:52Z</time></trkpt><trkpt lat="42.73801932741239" lon="10.376360336824149"><ele>109.0</ele><time>2026-04-23T15:08:53Z</time></trkpt><trkpt lat="42.738035692823765" lon="10.376485087259002"><ele>109.0</ele><time>2026-04-23T15:08:54Z</time></trkpt><trkpt lat="42.738044867681886" lon="10.376614512036593"><ele>109.00000000000001</ele><time>2026-04-23T15:08:55Z</time></trkpt><trkpt lat="42.738049543000784" lon="10.376742023888687"><ele>109.0</ele><time>2026-04-23T15:08:56Z</time></trkpt><trkpt lat="42.73805617744677" lon="10.37686784554062"><ele>110.00000000000001</ele><time>2026-04-23T15:08:57Z</time></trkpt><trkpt lat="42.738063537579144" lon="10.376986247244375"><ele>111.0</ele><time>2026-04-23T15:08:58Z</time></trkpt><trkpt lat="42.73806918511897" lon="10.377103380235353"><ele>112.0</ele><time>2026-04-23T15:08:59Z</time></trkpt><trkpt lat="42.7380749051609" lon="10.3772215827129"><ele>113.0</ele><time>2026-04-23T15:09:00Z</time></trkpt><trkpt lat="42.738086141142674" lon="10.377338972373693"><ele>114.00000000000001</ele><time>2026-04-23T15:09:01Z</time></trkpt><trkpt lat="42.73810115985806" lon="10.377456420506196"><ele>115.0</ele><time>2026-04-23T15:09:02Z</time></trkpt><trkpt lat="42.73811289554361" lon="10.377578828805353"><ele>115.00000000000001</ele><time>2026-04-23T15:09:03Z</time></trkpt><trkpt lat="42.73812648789617" lon="10.377695015937855"><ele>115.0</ele><time>2026-04-23T15:09:04Z</time></trkpt><trkpt lat="42.73813611656576" lon="10.377808424031576"><ele>115.0</ele><time>2026-04-23T15:09:05Z</time></trkpt><trkpt lat="42.7381419760834" lon="10.377915092239604"><ele>115.0</ele><time>2026-04-23T15:09:06Z</time></trkpt><trkpt lat="42.73815074733924" lon="10.37801296245853"><ele>115.00000000000001</ele><time>2026-04-23T15:09:07Z</time></trkpt><trkpt lat="42.738131404064106" lon="10.378168691991146"><ele>115.0</ele><time>2026-04-23T15:09:09Z</time></trkpt><trkpt lat="42.73803206814986" lon="10.378273642475182"><ele>115.00000000000001</ele><time>2026-04-23T15:09:11Z</time></trkpt><trkpt lat="42.737913634084734" lon="10.378275587933498"><ele>115.0</ele><time>2026-04-23T15:09:13Z</time></trkpt><trkpt lat="42.73784232517283" lon="10.378229411399113"><ele>115.0</ele><time>2026-04-23T15:09:14Z</time></trkpt><trkpt lat="42.73777086397962" lon="10.378171671196263"><ele>115.0</ele><time>2026-04-23T15:09:15Z</time></trkpt><trkpt lat="42.73770416634998" lon="10.378122922066767"><ele>115.00000000000001</ele><time>2026-04-23T15:09:16Z</time></trkpt><trkpt lat="42.73763519209397" lon="10.37807805517834"><ele>115.0</ele><time>2026-04-23T15:09:17Z</time></trkpt><trkpt lat="42.7375635585995" lon="10.37803552558558"><ele>110.33333333333334</ele><time>2026-04-23T15:09:18Z</time></trkpt><trkpt lat="42.73748607751786" lon="10.377994083212714"><ele>105.66666666666667</ele><time>2026-04-23T15:09:19Z</time></trkpt><trkpt lat="42.73740594271312" lon="10.377961797727151"><ele>101.0</ele><time>2026-04-23T15:09:20Z</time></trkpt><trkpt lat="42.73732909199968" lon="10.377930754776708"><ele>96.33333333333334</ele><time>2026-04-23T15:09:21Z</time></trkpt><trkpt lat="42.73726307127926" lon="10.377898141544964"><ele>91.66666666666667</ele><time>2026-04-23T15:09:22Z</time></trkpt><trkpt lat="42.73717182232166" lon="10.377862345893435"><ele>87.0</ele><time>2026-04-23T15:09:24Z</time></trkpt><trkpt lat="42.737103516019594" lon="10.377845479407178"><ele>87.0</ele><time>2026-04-23T15:09:27Z</time></trkpt><trkpt lat="42.737037665200965" lon="10.37784986819843"><ele>87.0</ele><time>2026-04-23T15:09:32Z</time></trkpt><trkpt lat="42.73696287102745" lon="10.377842272155602"><ele>87.0</ele><time>2026-04-23T15:11:14Z</time></trkpt><trkpt lat="42.73687563139788" lon="10.377868699311176"><ele>87.0</ele><time>2026-04-23T15:11:16Z</time></trkpt><trkpt lat="42.736774512848235" lon="10.377939657080159"><ele>87.0</ele><time>2026-04-23T15:11:18Z</time></trkpt><trkpt lat="42.73672852605567" lon="10.378013012481373"><ele>87.0</ele><time>2026-04-23T15:11:19Z</time></trkpt><trkpt lat="42.73669881125395" lon="10.378092386345097"><ele>88.16666666666667</ele><time>2026-04-23T15:11:20Z</time></trkpt><trkpt lat="42.73667564549448" lon="10.378180329858314"><ele>89.33333333333333</ele><time>2026-04-23T15:11:21Z</time></trkpt><trkpt lat="42.736657803200444" lon="10.378268518412355"><ele>90.5</ele><time>2026-04-23T15:11:22Z</time></trkpt><trkpt lat="42.736641017444484" lon="10.378359866986552"><ele>91.66666666666666</ele><time>2026-04-23T15:11:23Z</time></trkpt><trkpt lat="42.736624966905175" lon="10.378444018001654"><ele>92.83333333333333</ele><time>2026-04-23T15:11:24Z</time></trkpt><trkpt lat="42.73658602534575" lon="10.378583198175553"><ele>94.0</ele><time>2026-04-23T15:11:26Z</time></trkpt><trkpt lat="42.736523011330476" lon="10.37868334599934"><ele>94.0</ele><time>2026-04-23T15:11:28Z</time></trkpt><trkpt lat="42.736407430856374" lon="10.378679192759051"><ele>94.0</ele><time>2026-04-23T15:11:30Z</time></trkpt><trkpt lat="42.73634981220834" lon="10.37864109438792"><ele>94.0</ele><time>2026-04-23T15:11:31Z</time></trkpt><trkpt lat="42.736292496402726" lon="10.3785985950946"><ele>94.0</ele><time>2026-04-23T15:11:32Z</time></trkpt><trkpt lat="42.736231452704175" lon="10.37855774472434"><ele>94.0</ele><time>2026-04-23T15:11:33Z</time></trkpt><trkpt lat="42.736165185116" lon="10.378527480096876"><ele>94.0</ele><time>2026-04-23T15:11:34Z</time></trkpt><trkpt lat="42.73609316186135" lon="10.37849981728236"><ele>92.4</ele><time>2026-04-23T15:11:35Z</time></trkpt><trkpt lat="42.73601430635522" lon="10.378485342379339"><ele>90.80000000000001</ele><time>2026-04-23T15:11:36Z</time></trkpt><trkpt lat="42.73593385283093" lon="10.378467604016222"><ele>89.19999999999999</ele><time>2026-04-23T15:11:37Z</time></trkpt><trkpt lat="42.73584247190828" lon="10.378442244444903"><ele>87.6</ele><time>2026-04-23T15:11:38Z</time></trkpt><trkpt lat="42.735747415113494" lon="10.378410315727665"><ele>86.0</ele><time>2026-04-23T15:11:39Z</time></trkpt><trkpt lat="42.73565171783844" lon="10.378365900771241"><ele>86.0</ele><time>2026-04-23T15:11:40Z</time></trkpt><trkpt lat="42.73555955707323" lon="10.378322127414085"><ele>86.0</ele><time>2026-04-23T15:11:41Z</time></trkpt><trkpt lat="42.73547019307948" lon="10.37827207107134"><ele>86.0</ele><time>2026-04-23T15:11:42Z</time></trkpt><trkpt lat="42.735381942723286" lon="10.378217842191829"><ele>86.0</ele><time>2026-04-23T15:11:43Z</time></trkpt><trkpt lat="42.735298214315435" lon="10.37815846251516"><ele>86.0</ele><time>2026-04-23T15:11:44Z</time></trkpt><trkpt lat="42.73521505172123" lon="10.378099278895895"><ele>86.5</ele><time>2026-04-23T15:11:45Z</time></trkpt><trkpt lat="42.73513294789462" lon="10.378040017924139"><ele>87.0</ele><time>2026-04-23T15:11:46Z</time></trkpt><trkpt lat="42.73505416032603" lon="10.3779892248234"><ele>87.5</ele><time>2026-04-23T15:11:47Z</time></trkpt><trkpt lat="42.734982405049756" lon="10.37794717150096"><ele>88.0</ele><time>2026-04-23T15:11:48Z</time></trkpt><trkpt lat="42.73491748277961" lon="10.377914492293732"><ele>88.5</ele><time>2026-04-23T15:11:49Z</time></trkpt><trkpt lat="42.734799989779226" lon="10.377879238174975"><ele>89.0</ele><time>2026-04-23T15:11:51Z</time></trkpt><trkpt lat="42.73467669342189" lon="10.377899370651509"><ele>89.0</ele><time>2026-04-23T15:11:53Z</time></trkpt><trkpt lat="42.73461325058036" lon="10.377922101408714"><ele>89.0</ele><time>2026-04-23T15:11:54Z</time></trkpt><trkpt lat="42.73457349801023" lon="10.378086718814977"><ele>89.0</ele><time>2026-04-23T15:11:55Z</time></trkpt><trkpt lat="42.734536570877836" lon="10.378160111055298"><ele>89.0</ele><time>2026-04-23T15:11:56Z</time></trkpt><trkpt lat="42.734450084613606" lon="10.378289257829657"><ele>89.0</ele><time>2026-04-23T15:11:58Z</time></trkpt><trkpt lat="42.73437123185585" lon="10.37831435434307"><ele>86.0</ele><time>2026-04-23T15:11:59Z</time></trkpt><trkpt lat="42.734284690350044" lon="10.378328068968601"><ele>83.0</ele><time>2026-04-23T15:12:00Z</time></trkpt><trkpt lat="42.734191815171464" lon="10.378335849955569"><ele>80.0</ele><time>2026-04-23T15:12:01Z</time></trkpt><trkpt lat="42.73409528141018" lon="10.378359228876485"><ele>77.0</ele><time>2026-04-23T15:12:02Z</time></trkpt><trkpt lat="42.73400658585567" lon="10.37838893633379"><ele>74.0</ele><time>2026-04-23T15:12:03Z</time></trkpt><trkpt lat="42.733916506293575" lon="10.378433483778625"><ele>74.0</ele><time>2026-04-23T15:12:04Z</time></trkpt><trkpt lat="42.733819665519114" lon="10.378462908410093"><ele>74.0</ele><time>2026-04-23T15:12:05Z</time></trkpt><trkpt lat="42.733739083577404" lon="10.378504996036432"><ele>74.0</ele><time>2026-04-23T15:12:06Z</time></trkpt><trkpt lat="42.733659745537096" lon="10.378544408950386"><ele>74.0</ele><time>2026-04-23T15:12:07Z</time></trkpt><trkpt lat="42.73358860831249" lon="10.378585035915341"><ele>74.0</ele><time>2026-04-23T15:12:08Z</time></trkpt><trkpt lat="42.73352519213661" lon="10.378623523191585"><ele>74.0</ele><time>2026-04-23T15:12:09Z</time></trkpt><trkpt lat="42.733467131119504" lon="10.378669089171261"><ele>74.5</ele><time>2026-04-23T15:12:10Z</time></trkpt><trkpt lat="42.73341079925161" lon="10.378726466956312"><ele>75.0</ele><time>2026-04-23T15:12:11Z</time></trkpt><trkpt lat="42.733345836999376" lon="10.378791231217438"><ele>75.5</ele><time>2026-04-23T15:12:12Z</time></trkpt><trkpt lat="42.73328977177259" lon="10.37888513842502"><ele>76.0</ele><time>2026-04-23T15:12:13Z</time></trkpt><trkpt lat="42.73323559187951" lon="10.3789840964681"><ele>76.5</ele><time>2026-04-23T15:12:14Z</time></trkpt><trkpt lat="42.73318223180528" lon="10.37908164659693"><ele>77.0</ele><time>2026-04-23T15:12:15Z</time></trkpt><trkpt lat="42.73312914904065" lon="10.379178689748306"><ele>77.0</ele><time>2026-04-23T15:12:16Z</time></trkpt><trkpt lat="42.733078121012014" lon="10.379271976202975"><ele>77.0</ele><time>2026-04-23T15:12:17Z</time></trkpt><trkpt lat="42.73303555379133" lon="10.379352640152987"><ele>77.0</ele><time>2026-04-23T15:12:18Z</time></trkpt><trkpt lat="42.7329606140404" lon="10.379472069849696"><ele>77.0</ele><time>2026-04-23T15:12:20Z</time></trkpt><trkpt lat="42.73284389921966" lon="10.37948269918886"><ele>77.0</ele><time>2026-04-23T15:12:22Z</time></trkpt><trkpt lat="42.73278285359405" lon="10.379446037564481"><ele>77.0</ele><time>2026-04-23T15:12:23Z</time></trkpt><trkpt lat="42.732728201313" lon="10.379384000135381"><ele>77.0</ele><time>2026-04-23T15:12:24Z</time></trkpt><trkpt lat="42.732685710102594" lon="10.379294429960963"><ele>77.0</ele><time>2026-04-23T15:12:25Z</time></trkpt><trkpt lat="42.7326455378078" lon="10.379197850749986"><ele>77.0</ele><time>2026-04-23T15:12:26Z</time></trkpt><trkpt lat="42.7326043551808" lon="10.379096208422387"><ele>77.0</ele><time>2026-04-23T15:12:27Z</time></trkpt><trkpt lat="42.732561182746174" lon="10.378987288160516"><ele>77.0</ele><time>2026-04-23T15:12:28Z</time></trkpt><trkpt lat="42.73252517700632" lon="10.378866224108187"><ele>73.8</ele><time>2026-04-23T15:12:29Z</time></trkpt><trkpt lat="42.73249335786018" lon="10.378742456125961"><ele>70.6</ele><time>2026-04-23T15:12:30Z</time></trkpt><trkpt lat="42.732476060051624" lon="10.378607018251225"><ele>67.39999999999999</ele><time>2026-04-23T15:12:31Z</time></trkpt><trkpt lat="42.73246424512868" lon="10.37847870344645"><ele>64.2</ele><time>2026-04-23T15:12:32Z</time></trkpt><trkpt lat="42.73246864133369" lon="10.378341670869514"><ele>61.0</ele><time>2026-04-23T15:12:33Z</time></trkpt><trkpt lat="42.73248681343851" lon="10.378207914759171"><ele>60.99999999999999</ele><time>2026-04-23T15:12:34Z</time></trkpt><trkpt lat="42.732507346538114" lon="10.378082381727792"><ele>61.0</ele><time>2026-04-23T15:12:35Z</time></trkpt><trkpt lat="42.7325253011695" lon="10.37796280908156"><ele>61.0</ele><time>2026-04-23T15:12:36Z</time></trkpt><trkpt lat="42.73253449802886" lon="10.377852365153881"><ele>61.0</ele><time>2026-04-23T15:12:37Z</time></trkpt><trkpt lat="42.73253096086155" lon="10.377739108287878"><ele>60.99999999999999</ele><time>2026-04-23T15:12:38Z</time></trkpt><trkpt lat="42.73251191034714" lon="10.377631163713627"><ele>61.0</ele><time>2026-04-23T15:12:39Z</time></trkpt><trkpt lat="42.73248279044148" lon="10.377523302092879"><ele>59.199999999999996</ele><time>2026-04-23T15:12:40Z</time></trkpt><trkpt lat="42.73244591615335" lon="10.377409931963777"><ele>57.39999999999999</ele><time>2026-04-23T15:12:41Z</time></trkpt><trkpt lat="42.73240760416792" lon="10.377296821560794"><ele>55.6</ele><time>2026-04-23T15:12:42Z</time></trkpt><trkpt lat="42.732370442679084" lon="10.377191503582058"><ele>53.8</ele><time>2026-04-23T15:12:43Z</time></trkpt><trkpt lat="42.732329907086914" lon="10.37707728667555"><ele>52.0</ele><time>2026-04-23T15:12:44Z</time></trkpt><trkpt lat="42.73228904422767" lon="10.376966732827777"><ele>50.0</ele><time>2026-04-23T15:12:45Z</time></trkpt><trkpt lat="42.732248062445684" lon="10.376847984144856"><ele>48.0</ele><time>2026-04-23T15:12:46Z</time></trkpt><trkpt lat="42.73220773670274" lon="10.37673507848596"><ele>46.0</ele><time>2026-04-23T15:12:47Z</time></trkpt><trkpt lat="42.73216806691073" lon="10.376620652273521"><ele>44.0</ele><time>2026-04-23T15:12:48Z</time></trkpt><trkpt lat="42.732128682216" lon="10.376514449355195"><ele>42.0</ele><time>2026-04-23T15:12:49Z</time></trkpt><trkpt lat="42.73209980303692" lon="10.376408465108772"><ele>40.166666666666664</ele><time>2026-04-23T15:12:50Z</time></trkpt><trkpt lat="42.73207850346376" lon="10.376305394661761"><ele>38.333333333333336</ele><time>2026-04-23T15:12:51Z</time></trkpt><trkpt lat="42.732067235252266" lon="10.376216405768217"><ele>36.5</ele><time>2026-04-23T15:12:52Z</time></trkpt><trkpt lat="42.732057156101654" lon="10.376073933770206"><ele>34.66666666666667</ele><time>2026-04-23T15:12:54Z</time></trkpt><trkpt lat="42.732051400643456" lon="10.37597395642112"><ele>32.833333333333336</ele><time>2026-04-23T15:12:57Z</time></trkpt><trkpt lat="42.732008622477636" lon="10.375895639902291"><ele>31.0</ele><time>2026-04-23T15:13:11Z</time></trkpt><trkpt lat="42.73195616022628" lon="10.375795318881432"><ele>31.0</ele><time>2026-04-23T15:13:13Z</time></trkpt><trkpt lat="42.73189056907561" lon="10.375669162026458"><ele>31.0</ele><time>2026-04-23T15:13:15Z</time></trkpt><trkpt lat="42.73181937291307" lon="10.375580517413894"><ele>31.0</ele><time>2026-04-23T15:13:17Z</time></trkpt><trkpt lat="42.73173638330801" lon="10.375509759854872"><ele>31.0</ele><time>2026-04-23T15:13:19Z</time></trkpt><trkpt lat="42.731639816824334" lon="10.375420462911618"><ele>31.0</ele><time>2026-04-23T15:13:21Z</time></trkpt><trkpt lat="42.73156550229208" lon="10.375412128006015"><ele>31.166666666666668</ele><time>2026-04-23T15:13:22Z</time></trkpt><trkpt lat="42.73149120040505" lon="10.375401027288667"><ele>31.333333333333336</ele><time>2026-04-23T15:13:23Z</time></trkpt><trkpt lat="42.731412899568596" lon="10.3753993312389"><ele>31.5</ele><time>2026-04-23T15:13:24Z</time></trkpt><trkpt lat="42.731334805729674" lon="10.375409000405588"><ele>31.666666666666664</ele><time>2026-04-23T15:13:25Z</time></trkpt><trkpt lat="42.731257074349394" lon="10.375428860591756"><ele>31.833333333333332</ele><time>2026-04-23T15:13:26Z</time></trkpt><trkpt lat="42.73118296393677" lon="10.375467492470333"><ele>32.0</ele><time>2026-04-23T15:13:27Z</time></trkpt><trkpt lat="42.73110589909094" lon="10.375501891009234"><ele>34.57142857142857</ele><time>2026-04-23T15:13:28Z</time></trkpt><trkpt lat="42.731037620925086" lon="10.375557821778527"><ele>37.14285714285714</ele><time>2026-04-23T15:13:29Z</time></trkpt><trkpt lat="42.73097252279764" lon="10.37561593349847"><ele>39.714285714285715</ele><time>2026-04-23T15:13:30Z</time></trkpt><trkpt lat="42.73092111826397" lon="10.375683418506604"><ele>42.285714285714285</ele><time>2026-04-23T15:13:31Z</time></trkpt><trkpt lat="42.73084890868281" lon="10.375715801837995"><ele>44.85714285714286</ele><time>2026-04-23T15:13:32Z</time></trkpt><trkpt lat="42.73077941475741" lon="10.375726713937901"><ele>47.42857142857143</ele><time>2026-04-23T15:13:33Z</time></trkpt><trkpt lat="42.73071481953941" lon="10.37572771354627"><ele>50.0</ele><time>2026-04-23T15:13:34Z</time></trkpt><trkpt lat="42.73065692377957" lon="10.375691196107335"><ele>50.00000000000001</ele><time>2026-04-23T15:13:35Z</time></trkpt><trkpt lat="42.7306125305733" lon="10.375629836688235"><ele>50.0</ele><time>2026-04-23T15:13:36Z</time></trkpt><trkpt lat="42.730556751397664" lon="10.375582758108793"><ele>50.0</ele><time>2026-04-23T15:13:37Z</time></trkpt><trkpt lat="42.730540351096465" lon="10.37544161948348"><ele>50.0</ele><time>2026-04-23T15:13:38Z</time></trkpt><trkpt lat="42.73050721025908" lon="10.375327605444888"><ele>50.00000000000001</ele><time>2026-04-23T15:13:39Z</time></trkpt><trkpt lat="42.73047742202267" lon="10.37521556341841"><ele>50.0</ele><time>2026-04-23T15:13:40Z</time></trkpt><trkpt lat="42.73044790094147" lon="10.375108775167355"><ele>46.2</ele><time>2026-04-23T15:13:41Z</time></trkpt><trkpt lat="42.73041989273394" lon="10.375002768860677"><ele>42.4</ele><time>2026-04-23T15:13:42Z</time></trkpt><trkpt lat="42.730387370952826" lon="10.374906433962263"><ele>38.6</ele><time>2026-04-23T15:13:43Z</time></trkpt><trkpt lat="42.73032538450577" lon="10.374782024835536"><ele>34.8</ele><time>2026-04-23T15:13:45Z</time></trkpt><trkpt lat="42.730231579287356" lon="10.374731010845283"><ele>31.0</ele><time>2026-04-23T15:13:47Z</time></trkpt><trkpt lat="42.7301053746519" lon="10.374754888758774"><ele>31.000000000000004</ele><time>2026-04-23T15:13:49Z</time></trkpt><trkpt lat="42.73003576923853" lon="10.374799035310073"><ele>31.0</ele><time>2026-04-23T15:13:50Z</time></trkpt><trkpt lat="42.729955113653936" lon="10.374827947416962"><ele>31.0</ele><time>2026-04-23T15:13:51Z</time></trkpt><trkpt lat="42.72988156667203" lon="10.374878081513863"><ele>31.0</ele><time>2026-04-23T15:13:52Z</time></trkpt><trkpt lat="42.72980890117972" lon="10.374934374873492"><ele>31.000000000000004</ele><time>2026-04-23T15:13:53Z</time></trkpt><trkpt lat="42.729733014446154" lon="10.374990573267342"><ele>31.0</ele><time>2026-04-23T15:13:54Z</time></trkpt><trkpt lat="42.7296579402349" lon="10.375042443601869"><ele>31.000000000000004</ele><time>2026-04-23T15:13:55Z</time></trkpt><trkpt lat="42.729587641929754" lon="10.375095195804734"><ele>31.0</ele><time>2026-04-23T15:13:56Z</time></trkpt><trkpt lat="42.72952397741656" lon="10.375144522933434"><ele>31.0</ele><time>2026-04-23T15:13:57Z</time></trkpt><trkpt lat="42.72946224526299" lon="10.375188690266413"><ele>31.0</ele><time>2026-04-23T15:13:58Z</time></trkpt><trkpt lat="42.729404257091595" lon="10.3752239078037"><ele>31.000000000000004</ele><time>2026-04-23T15:13:59Z</time></trkpt><trkpt lat="42.729304953583494" lon="10.3752923309214"><ele>31.0</ele><time>2026-04-23T15:14:01Z</time></trkpt><trkpt lat="42.72921673021277" lon="10.375343693784792"><ele>30.142857142857146</ele><time>2026-04-23T15:14:03Z</time></trkpt><trkpt lat="42.72917103827731" lon="10.375406881593387"><ele>29.28571428571429</ele><time>2026-04-23T15:14:05Z</time></trkpt><trkpt lat="42.72912020127563" lon="10.375463846769085"><ele>28.42857142857143</ele><time>2026-04-23T15:14:12Z</time></trkpt><trkpt lat="42.72908757539407" lon="10.375540897245246"><ele>27.571428571428573</ele><time>2026-04-23T15:14:16Z</time></trkpt><trkpt lat="42.729048145153975" lon="10.375682043273969"><ele>26.714285714285715</ele><time>2026-04-23T15:14:18Z</time></trkpt><trkpt lat="42.729028798520474" lon="10.375771456078184"><ele>25.85714285714286</ele><time>2026-04-23T15:14:19Z</time></trkpt><trkpt lat="42.729009438385006" lon="10.375858656351017"><ele>25.0</ele><time>2026-04-23T15:14:20Z</time></trkpt><trkpt lat="42.72898574861863" lon="10.37594911386539"><ele>25.000000000000004</ele><time>2026-04-23T15:14:21Z</time></trkpt><trkpt lat="42.72896231780158" lon="10.376035148707214"><ele>25.0</ele><time>2026-04-23T15:14:22Z</time></trkpt><trkpt lat="42.728860389894656" lon="10.376116997505235"><ele>25.0</ele><time>2026-04-23T15:14:24Z</time></trkpt><trkpt lat="42.7287954327159" lon="10.37615607072913"><ele>25.0</ele><time>2026-04-23T15:14:25Z</time></trkpt><trkpt lat="42.72873133258918" lon="10.376226157595688"><ele>25.000000000000004</ele><time>2026-04-23T15:14:26Z</time></trkpt><trkpt lat="42.72867191727067" lon="10.376302631987285"><ele>25.0</ele><time>2026-04-23T15:14:27Z</time></trkpt><trkpt lat="42.72862589412893" lon="10.376392919075949"><ele>23.833333333333336</ele><time>2026-04-23T15:14:28Z</time></trkpt><trkpt lat="42.72858967256301" lon="10.37649445437315"><ele>22.666666666666668</ele><time>2026-04-23T15:14:29Z</time></trkpt><trkpt lat="42.72853055599645" lon="10.376592954670384"><ele>21.5</ele><time>2026-04-23T15:14:30Z</time></trkpt><trkpt lat="42.72849441435247" lon="10.376707323960911"><ele>20.333333333333336</ele><time>2026-04-23T15:14:31Z</time></trkpt><trkpt lat="42.728457259351366" lon="10.37682494010963"><ele>19.166666666666668</ele><time>2026-04-23T15:14:32Z</time></trkpt><trkpt lat="42.72843824050934" lon="10.37693944164228"><ele>18.0</ele><time>2026-04-23T15:14:33Z</time></trkpt><trkpt lat="42.72840425665668" lon="10.377040510267124"><ele>18.0</ele><time>2026-04-23T15:14:34Z</time></trkpt><trkpt lat="42.7283631256435" lon="10.377140148878174"><ele>18.0</ele><time>2026-04-23T15:14:35Z</time></trkpt><trkpt lat="42.728312991489695" lon="10.377237995209864"><ele>18.0</ele><time>2026-04-23T15:14:36Z</time></trkpt><trkpt lat="42.72825957807735" lon="10.377338708547699"><ele>18.0</ele><time>2026-04-23T15:14:37Z</time></trkpt><trkpt lat="42.72820576855307" lon="10.377438478218357"><ele>18.0</ele><time>2026-04-23T15:14:38Z</time></trkpt><trkpt lat="42.72815228581706" lon="10.377534552941306"><ele>18.0</ele><time>2026-04-23T15:14:39Z</time></trkpt><trkpt lat="42.728097199408424" lon="10.377628457159519"><ele>19.5</ele><time>2026-04-23T15:14:40Z</time></trkpt><trkpt lat="42.72804524880928" lon="10.377720894006682"><ele>21.0</ele><time>2026-04-23T15:14:41Z</time></trkpt><trkpt lat="42.7279929824436" lon="10.377814331725554"><ele>22.5</ele><time>2026-04-23T15:14:42Z</time></trkpt><trkpt lat="42.727941258640676" lon="10.377908142198663"><ele>24.0</ele><time>2026-04-23T15:14:43Z</time></trkpt><trkpt lat="42.72789719139312" lon="10.37801155231702"><ele>25.5</ele><time>2026-04-23T15:14:44Z</time></trkpt><trkpt lat="42.727856356811444" lon="10.378120790000366"><ele>27.0</ele><time>2026-04-23T15:14:45Z</time></trkpt><trkpt lat="42.72781708324852" lon="10.378226671471342"><ele>26.5</ele><time>2026-04-23T15:14:46Z</time></trkpt><trkpt lat="42.72777954361191" lon="10.37833089143909"><ele>26.0</ele><time>2026-04-23T15:14:47Z</time></trkpt><trkpt lat="42.72773617070971" lon="10.378434367578622"><ele>25.5</ele><time>2026-04-23T15:14:48Z</time></trkpt><trkpt lat="42.727684146484414" lon="10.378536073787771"><ele>25.0</ele><time>2026-04-23T15:14:49Z</time></trkpt><trkpt lat="42.72762639968712" lon="10.378623803413609"><ele>24.5</ele><time>2026-04-23T15:14:50Z</time></trkpt><trkpt lat="42.727546325889094" lon="10.378686453006745"><ele>24.0</ele><time>2026-04-23T15:14:51Z</time></trkpt><trkpt lat="42.72748502642594" lon="10.378781275546688"><ele>27.799999999999997</ele><time>2026-04-23T15:14:52Z</time></trkpt><trkpt lat="42.72741003177911" lon="10.378859010508497"><ele>31.599999999999998</ele><time>2026-04-23T15:14:53Z</time></trkpt><trkpt lat="42.7273310915286" lon="10.378942813721991"><ele>35.4</ele><time>2026-04-23T15:14:54Z</time></trkpt><trkpt lat="42.72725744743078" lon="10.379027860098175"><ele>39.199999999999996</ele><time>2026-04-23T15:14:55Z</time></trkpt><trkpt lat="42.72719090595771" lon="10.3791048984441"><ele>43.0</ele><time>2026-04-23T15:14:56Z</time></trkpt><trkpt lat="42.72714238131296" lon="10.37918811584132"><ele>43.0</ele><time>2026-04-23T15:14:57Z</time></trkpt><trkpt lat="42.72709376448406" lon="10.379275712644173"><ele>43.0</ele><time>2026-04-23T15:14:58Z</time></trkpt><trkpt lat="42.72709063221697" lon="10.37939335674676"><ele>43.0</ele><time>2026-04-23T15:14:59Z</time></trkpt><trkpt lat="42.72708036483509" lon="10.379501940477256"><ele>43.0</ele><time>2026-04-23T15:15:00Z</time></trkpt><trkpt lat="42.72707286748558" lon="10.379587929597243"><ele>43.0</ele><time>2026-04-23T15:15:01Z</time></trkpt><trkpt lat="42.72700277503002" lon="10.379710818728565"><ele>43.0</ele><time>2026-04-23T15:15:03Z</time></trkpt><trkpt lat="42.72689004631179" lon="10.379751839276217"><ele>42.333333333333336</ele><time>2026-04-23T15:15:05Z</time></trkpt><trkpt lat="42.72679013703266" lon="10.379678654065584"><ele>41.66666666666667</ele><time>2026-04-23T15:15:07Z</time></trkpt><trkpt lat="42.72675207641331" lon="10.379609599015154"><ele>41.0</ele><time>2026-04-23T15:15:08Z</time></trkpt><trkpt lat="42.72672624510621" lon="10.379527718175773"><ele>40.333333333333336</ele><time>2026-04-23T15:15:09Z</time></trkpt><trkpt lat="42.72671423196676" lon="10.379434666238657"><ele>39.666666666666664</ele><time>2026-04-23T15:15:10Z</time></trkpt><trkpt lat="42.72670130051783" lon="10.379333147329042"><ele>39.0</ele><time>2026-04-23T15:15:11Z</time></trkpt><trkpt lat="42.72668440124523" lon="10.379227143577392"><ele>39.0</ele><time>2026-04-23T15:15:12Z</time></trkpt><trkpt lat="42.72666827495621" lon="10.379115810774982"><ele>39.0</ele><time>2026-04-23T15:15:13Z</time></trkpt><trkpt lat="42.72665210434224" lon="10.37899682669381"><ele>39.0</ele><time>2026-04-23T15:15:14Z</time></trkpt><trkpt lat="42.72663352805518" lon="10.378877126460225"><ele>39.0</ele><time>2026-04-23T15:15:15Z</time></trkpt><trkpt lat="42.726611332766254" lon="10.378754125473254"><ele>39.0</ele><time>2026-04-23T15:15:16Z</time></trkpt><trkpt lat="42.72659467291978" lon="10.378633242877013"><ele>39.0</ele><time>2026-04-23T15:15:17Z</time></trkpt><trkpt lat="42.72658256165186" lon="10.378513004848593"><ele>38.0</ele><time>2026-04-23T15:15:18Z</time></trkpt><trkpt lat="42.72657566074966" lon="10.378394708719622"><ele>37.0</ele><time>2026-04-23T15:15:19Z</time></trkpt><trkpt lat="42.726570465857016" lon="10.378274703654169"><ele>36.0</ele><time>2026-04-23T15:15:20Z</time></trkpt><trkpt lat="42.72656792550148" lon="10.378149642224717"><ele>35.0</ele><time>2026-04-23T15:15:21Z</time></trkpt><trkpt lat="42.726565270479284" lon="10.378019162187309"><ele>34.0</ele><time>2026-04-23T15:15:22Z</time></trkpt><trkpt lat="42.72656246483783" lon="10.377882108162234"><ele>33.6</ele><time>2026-04-23T15:15:23Z</time></trkpt><trkpt lat="42.72655665162382" lon="10.377738800699174"><ele>33.2</ele><time>2026-04-23T15:15:24Z</time></trkpt><trkpt lat="42.726557307999975" lon="10.377593375199302"><ele>32.800000000000004</ele><time>2026-04-23T15:15:25Z</time></trkpt><trkpt lat="42.72655761195075" lon="10.377445868179505"><ele>32.4</ele><time>2026-04-23T15:15:26Z</time></trkpt><trkpt lat="42.726558952117664" lon="10.377302083817385"><ele>32.0</ele><time>2026-04-23T15:15:27Z</time></trkpt><trkpt lat="42.72655440784341" lon="10.377154863685178"><ele>32.0</ele><time>2026-04-23T15:15:28Z</time></trkpt><trkpt lat="42.72654797703237" lon="10.377005233521835"><ele>32.0</ele><time>2026-04-23T15:15:29Z</time></trkpt><trkpt lat="42.72654049370514" lon="10.376858172601123"><ele>32.0</ele><time>2026-04-23T15:15:30Z</time></trkpt><trkpt lat="42.72652432170684" lon="10.376713241244449"><ele>32.0</ele><time>2026-04-23T15:15:31Z</time></trkpt><trkpt lat="42.72650621916785" lon="10.376566764039142"><ele>32.0</ele><time>2026-04-23T15:15:32Z</time></trkpt><trkpt lat="42.726482643943136" lon="10.376423915760794"><ele>31.8</ele><time>2026-04-23T15:15:33Z</time></trkpt><trkpt lat="42.72646068071942" lon="10.376274585350819"><ele>31.6</ele><time>2026-04-23T15:15:34Z</time></trkpt><trkpt lat="42.726444880723314" lon="10.376134111541292"><ele>31.400000000000002</ele><time>2026-04-23T15:15:35Z</time></trkpt><trkpt lat="42.726421049156585" lon="10.37600248072939"><ele>31.200000000000003</ele><time>2026-04-23T15:15:36Z</time></trkpt><trkpt lat="42.72639855324071" lon="10.375892144648553"><ele>31.0</ele><time>2026-04-23T15:15:37Z</time></trkpt><trkpt lat="42.72636946557115" lon="10.375796652059954"><ele>31.000000000000004</ele><time>2026-04-23T15:15:38Z</time></trkpt><trkpt lat="42.72631966011425" lon="10.37571812294133"><ele>31.0</ele><time>2026-04-23T15:15:39Z</time></trkpt><trkpt lat="42.726250969909664" lon="10.37565990293716"><ele>31.0</ele><time>2026-04-23T15:15:40Z</time></trkpt><trkpt lat="42.72617544140134" lon="10.375631781098933"><ele>31.0</ele><time>2026-04-23T15:15:41Z</time></trkpt><trkpt lat="42.72609439877112" lon="10.375612331394075"><ele>31.000000000000004</ele><time>2026-04-23T15:15:42Z</time></trkpt><trkpt lat="42.726016228965136" lon="10.375582550573299"><ele>31.0</ele><time>2026-04-23T15:15:43Z</time></trkpt><trkpt lat="42.725939643010385" lon="10.375550004115578"><ele>32.5</ele><time>2026-04-23T15:15:44Z</time></trkpt><trkpt lat="42.72586386415677" lon="10.375508755164272"><ele>34.0</ele><time>2026-04-23T15:15:45Z</time></trkpt><trkpt lat="42.72579853955965" lon="10.375448390323271"><ele>35.5</ele><time>2026-04-23T15:15:46Z</time></trkpt><trkpt lat="42.72573602031269" lon="10.375376919329948"><ele>37.0</ele><time>2026-04-23T15:15:47Z</time></trkpt><trkpt lat="42.72567083467711" lon="10.37530792372266"><ele>38.5</ele><time>2026-04-23T15:15:48Z</time></trkpt><trkpt lat="42.725604414662286" lon="10.375236692730098"><ele>40.0</ele><time>2026-04-23T15:15:49Z</time></trkpt><trkpt lat="42.725541542442194" lon="10.375158602142413"><ele>40.0</ele><time>2026-04-23T15:15:50Z</time></trkpt><trkpt lat="42.72547773863122" lon="10.375091675015886"><ele>40.0</ele><time>2026-04-23T15:15:51Z</time></trkpt><trkpt lat="42.72540714450044" lon="10.375049934729601"><ele>40.0</ele><time>2026-04-23T15:15:52Z</time></trkpt><trkpt lat="42.72532950460094" lon="10.375040369890883"><ele>40.0</ele><time>2026-04-23T15:15:53Z</time></trkpt><trkpt lat="42.7252518294615" lon="10.375057370877675"><ele>40.0</ele><time>2026-04-23T15:15:54Z</time></trkpt><trkpt lat="42.72518547737756" lon="10.375082406912844"><ele>40.0</ele><time>2026-04-23T15:15:55Z</time></trkpt><trkpt lat="42.7251104945888" lon="10.375110992932777"><ele>39.16666666666667</ele><time>2026-04-23T15:15:57Z</time></trkpt><trkpt lat="42.725047686182634" lon="10.375145911527957"><ele>38.333333333333336</ele><time>2026-04-23T15:16:00Z</time></trkpt><trkpt lat="42.72504968178276" lon="10.375247438443436"><ele>37.5</ele><time>2026-04-23T15:32:49Z</time></trkpt><trkpt lat="42.72501593142374" lon="10.375356070794831"><ele>36.666666666666664</ele><time>2026-04-23T15:32:51Z</time></trkpt><trkpt lat="42.72498181549451" lon="10.375499340774047"><ele>35.83333333333333</ele><time>2026-04-23T15:32:53Z</time></trkpt><trkpt lat="42.72495189385008" lon="10.375578915238542"><ele>35.0</ele><time>2026-04-23T15:32:54Z</time></trkpt><trkpt lat="42.72489514025818" lon="10.375639648012692"><ele>37.142857142857146</ele><time>2026-04-23T15:32:55Z</time></trkpt><trkpt lat="42.72485455097909" lon="10.375719330975752"><ele>39.285714285714285</ele><time>2026-04-23T15:32:56Z</time></trkpt><trkpt lat="42.7248083038744" lon="10.375801870087269"><ele>41.42857142857143</ele><time>2026-04-23T15:32:57Z</time></trkpt><trkpt lat="42.724761057776306" lon="10.375889337875977"><ele>43.57142857142857</ele><time>2026-04-23T15:32:58Z</time></trkpt><trkpt lat="42.72471811422738" lon="10.375972672064155"><ele>45.714285714285715</ele><time>2026-04-23T15:32:59Z</time></trkpt><trkpt lat="42.7246810526072" lon="10.376052682320006"><ele>47.85714285714286</ele><time>2026-04-23T15:33:00Z</time></trkpt><trkpt lat="42.72465013193076" lon="10.37613015347605"><ele>50.0</ele><time>2026-04-23T15:33:01Z</time></trkpt><trkpt lat="42.72459684925962" lon="10.376276758183842"><ele>53.0</ele><time>2026-04-23T15:33:03Z</time></trkpt><trkpt lat="42.724539656573334" lon="10.376433681437346"><ele>56.0</ele><time>2026-04-23T15:33:05Z</time></trkpt><trkpt lat="42.72450576297555" lon="10.376563267926754"><ele>59.0</ele><time>2026-04-23T15:33:07Z</time></trkpt><trkpt lat="42.72446642448042" lon="10.376652340056081"><ele>62.0</ele><time>2026-04-23T15:33:10Z</time></trkpt><trkpt lat="42.72442946169716" lon="10.376765789192351"><ele>65.0</ele><time>2026-04-23T15:33:47Z</time></trkpt><trkpt lat="42.724401826308686" lon="10.37687941360202"><ele>61.6</ele><time>2026-04-23T15:33:49Z</time></trkpt><trkpt lat="42.724352055123205" lon="10.377009381531748"><ele>58.2</ele><time>2026-04-23T15:33:51Z</time></trkpt><trkpt lat="42.72425220092583" lon="10.377118888967704"><ele>54.8</ele><time>2026-04-23T15:33:53Z</time></trkpt><trkpt lat="42.72418608914616" lon="10.377189567444422"><ele>51.4</ele><time>2026-04-23T15:33:54Z</time></trkpt><trkpt lat="42.724116930998576" lon="10.37726350271707"><ele>48.0</ele><time>2026-04-23T15:33:55Z</time></trkpt><trkpt lat="42.724047423392186" lon="10.377339385327835"><ele>48.0</ele><time>2026-04-23T15:33:56Z</time></trkpt><trkpt lat="42.72397633528267" lon="10.377417148602383"><ele>48.0</ele><time>2026-04-23T15:33:57Z</time></trkpt><trkpt lat="42.72390713747495" lon="10.377501709257412"><ele>48.0</ele><time>2026-04-23T15:33:58Z</time></trkpt><trkpt lat="42.72384313576659" lon="10.377592615530842"><ele>48.0</ele><time>2026-04-23T15:33:59Z</time></trkpt><trkpt lat="42.723801155317624" lon="10.377714782403283"><ele>48.0</ele><time>2026-04-23T15:34:00Z</time></trkpt><trkpt lat="42.723743800240015" lon="10.377817320105232"><ele>48.0</ele><time>2026-04-23T15:34:01Z</time></trkpt><trkpt lat="42.72368429655179" lon="10.37791930428164"><ele>48.0</ele><time>2026-04-23T15:34:02Z</time></trkpt><trkpt lat="42.72362343504381" lon="10.378020967264764"><ele>48.0</ele><time>2026-04-23T15:34:03Z</time></trkpt><trkpt lat="42.723539872451305" lon="10.3780989273309"><ele>48.0</ele><time>2026-04-23T15:34:04Z</time></trkpt><trkpt lat="42.723476248590885" lon="10.378200179277336"><ele>48.0</ele><time>2026-04-23T15:34:05Z</time></trkpt><trkpt lat="42.72340744998946" lon="10.378295242747432"><ele>44.4</ele><time>2026-04-23T15:34:06Z</time></trkpt><trkpt lat="42.72333551311663" lon="10.378378458457004"><ele>40.8</ele><time>2026-04-23T15:34:07Z</time></trkpt><trkpt lat="42.72325800084639" lon="10.37845025231768"><ele>37.2</ele><time>2026-04-23T15:34:08Z</time></trkpt><trkpt lat="42.72317616296993" lon="10.378519115299715"><ele>33.6</ele><time>2026-04-23T15:34:09Z</time></trkpt><trkpt lat="42.723094747184994" lon="10.378584504026913"><ele>30.0</ele><time>2026-04-23T15:34:10Z</time></trkpt><trkpt lat="42.723017325619445" lon="10.378646849888359"><ele>30.0</ele><time>2026-04-23T15:34:11Z</time></trkpt><trkpt lat="42.72294077986636" lon="10.378709669972"><ele>30.0</ele><time>2026-04-23T15:34:12Z</time></trkpt><trkpt lat="42.72286431137624" lon="10.37877242515665"><ele>30.0</ele><time>2026-04-23T15:34:13Z</time></trkpt><trkpt lat="42.722788930761496" lon="10.378834287645565"><ele>30.0</ele><time>2026-04-23T15:34:14Z</time></trkpt><trkpt lat="42.72271706133892" lon="10.378898006789884"><ele>30.0</ele><time>2026-04-23T15:34:15Z</time></trkpt><trkpt lat="42.72264753836772" lon="10.378955291631137"><ele>30.0</ele><time>2026-04-23T15:34:16Z</time></trkpt><trkpt lat="42.722582415535754" lon="10.379005256318367"><ele>29.42857142857143</ele><time>2026-04-23T15:34:17Z</time></trkpt><trkpt lat="42.72252156264471" lon="10.379042825636356"><ele>28.857142857142854</ele><time>2026-04-23T15:34:18Z</time></trkpt><trkpt lat="42.72245774887097" lon="10.37907197006381"><ele>28.285714285714285</ele><time>2026-04-23T15:34:19Z</time></trkpt><trkpt lat="42.72239316400038" lon="10.379081306828708"><ele>27.714285714285715</ele><time>2026-04-23T15:34:20Z</time></trkpt><trkpt lat="42.72232179865834" lon="10.37907468931976"><ele>27.142857142857146</ele><time>2026-04-23T15:34:21Z</time></trkpt><trkpt lat="42.72225047986491" lon="10.379065662994554"><ele>26.57142857142857</ele><time>2026-04-23T15:34:22Z</time></trkpt><trkpt lat="42.722183485827934" lon="10.379051963952062"><ele>26.0</ele><time>2026-04-23T15:34:23Z</time></trkpt><trkpt lat="42.72206776750334" lon="10.379026722710877"><ele>25.999999999999996</ele><time>2026-04-23T15:34:25Z</time></trkpt><trkpt lat="42.72202092939195" lon="10.378964274946824"><ele>26.0</ele><time>2026-04-23T15:34:26Z</time></trkpt><trkpt lat="42.72198252473966" lon="10.378887726030426"><ele>26.0</ele><time>2026-04-23T15:34:27Z</time></trkpt><trkpt lat="42.72191104583597" lon="10.378767017720024"><ele>26.0</ele><time>2026-04-23T15:34:29Z</time></trkpt><trkpt lat="42.7218402180134" lon="10.378690741051868"><ele>25.999999999999996</ele><time>2026-04-23T15:34:31Z</time></trkpt><trkpt lat="42.72177402122469" lon="10.37863729628298"><ele>26.0</ele><time>2026-04-23T15:34:33Z</time></trkpt><trkpt lat="42.7217108988455" lon="10.378576273277494"><ele>23.166666666666664</ele><time>2026-04-23T15:34:35Z</time></trkpt><trkpt lat="42.721723242727045" lon="10.37846515483301"><ele>20.333333333333332</ele><time>2026-04-23T15:34:37Z</time></trkpt><trkpt lat="42.72174162110257" lon="10.378382758889398"><ele>17.5</ele><time>2026-04-23T15:34:40Z</time></trkpt><trkpt lat="42.721750459125346" lon="10.378296083110016"><ele>14.666666666666666</ele><time>2026-04-23T15:34:42Z</time></trkpt><trkpt lat="42.721782107000806" lon="10.378160787846266"><ele>11.833333333333332</ele><time>2026-04-23T15:34:44Z</time></trkpt><trkpt lat="42.72180431521291" lon="10.378001484431193"><ele>9.0</ele><time>2026-04-23T15:34:46Z</time></trkpt><trkpt lat="42.72180425337496" lon="10.377852154248364"><ele>9.0</ele><time>2026-04-23T15:34:48Z</time></trkpt><trkpt lat="42.721788540789625" lon="10.37772769108197"><ele>9.0</ele><time>2026-04-23T15:34:50Z</time></trkpt><trkpt lat="42.7217755823316" lon="10.377609746478525"><ele>9.0</ele><time>2026-04-23T15:34:52Z</time></trkpt><trkpt lat="42.72170394714613" lon="10.377524146207291"><ele>9.0</ele><time>2026-04-23T15:34:54Z</time></trkpt><trkpt lat="42.721668722491614" lon="10.377399136077525"><ele>9.0</ele><time>2026-04-23T15:34:57Z</time></trkpt><trkpt lat="42.72167735550153" lon="10.377282334233891"><ele>9.0</ele><time>2026-04-23T15:35:00Z</time></trkpt><trkpt lat="42.721655997295855" lon="10.377385547852587"><ele>9.0</ele><time>2026-04-23T15:35:07Z</time></trkpt><trkpt lat="42.72165940576084" lon="10.37748253260744"><ele>9.0</ele><time>2026-04-23T15:35:09Z</time></trkpt><trkpt lat="42.721666861581895" lon="10.37758585420208"><ele>9.0</ele><time>2026-04-23T15:35:13Z</time></trkpt><trkpt lat="42.72164565741546" lon="10.377666785011597"><ele>9.0</ele><time>2026-04-23T15:35:24Z</time></trkpt><trkpt lat="42.72163526033037" lon="10.377792285927987"><ele>9.0</ele><time>2026-04-23T15:35:50Z</time></trkpt><trkpt lat="42.721641205422834" lon="10.377688003857557"><ele>9.0</ele><time>2026-04-23T15:36:15Z</time></trkpt><trkpt lat="42.72163997701787" lon="10.37757249827588"><ele>9.0</ele><time>2026-04-23T15:36:18Z</time></trkpt><trkpt lat="42.721642576803994" lon="10.377716500881288"><ele>9.0</ele><time>2026-04-23T15:40:42Z</time></trkpt><trkpt lat="42.72161596167396" lon="10.377812119962371"><ele>9.0</ele><time>2026-04-23T15:40:44Z</time></trkpt><trkpt lat="42.72157409408917" lon="10.377879185252178"><ele>9.0</ele><time>2026-04-23T15:41:00Z</time></trkpt><trkpt lat="42.721616961474155" lon="10.37778360795266"><ele>9.0</ele><time>2026-04-23T15:41:19Z</time></trkpt><trkpt lat="42.7216400303029" lon="10.377658033221472"><ele>9.0</ele><time>2026-04-23T15:41:22Z</time></trkpt><trkpt lat="42.72167217357398" lon="10.377553749494513"><ele>9.0</ele><time>2026-04-23T15:41:24Z</time></trkpt><trkpt lat="42.72170381111066" lon="10.377472124218116"><ele>9.0</ele><time>2026-04-23T15:41:26Z</time></trkpt><trkpt lat="42.72172700409681" lon="10.377390212209633"><ele>9.0</ele><time>2026-04-23T15:41:29Z</time></trkpt><trkpt lat="42.7217234572364" lon="10.37726852858353"><ele>9.0</ele><time>2026-04-23T15:44:24Z</time></trkpt><trkpt lat="42.72168295169137" lon="10.377168560076411"><ele>9.0</ele><time>2026-04-23T15:44:27Z</time></trkpt><trkpt lat="42.72167612703445" lon="10.377070552668885"><ele>6.0</ele><time>2026-04-23T15:44:32Z</time></trkpt></trkseg><trkseg><trkpt lat="42.72173134865954" lon="10.377185103231898"><ele>6.5</ele><time>2026-04-23T17:14:05Z</time></trkpt><trkpt lat="42.72173505309307" lon="10.377322500388702"><ele>7.0</ele><time>2026-04-23T17:14:07Z</time></trkpt><trkpt lat="42.72171980022574" lon="10.377453492022454"><ele>7.5</ele><time>2026-04-23T17:14:09Z</time></trkpt><trkpt lat="42.72173790829042" lon="10.37758476609749"><ele>8.0</ele><time>2026-04-23T17:14:11Z</time></trkpt><trkpt lat="42.72176960058818" lon="10.37766880757846"><ele>8.5</ele><time>2026-04-23T17:14:13Z</time></trkpt><trkpt lat="42.72179934016451" lon="10.377757239151887"><ele>9.0</ele><time>2026-04-23T17:14:16Z</time></trkpt><trkpt lat="42.72179914098782" lon="10.377861692485856"><ele>9.0</ele><time>2026-04-23T17:14:18Z</time></trkpt><trkpt lat="42.7218189074043" lon="10.37797636419933"><ele>9.0</ele><time>2026-04-23T17:14:20Z</time></trkpt><trkpt lat="42.7217879103813" lon="10.378054542819452"><ele>9.0</ele><time>2026-04-23T17:14:21Z</time></trkpt><trkpt lat="42.72175074885935" lon="10.378170909112502"><ele>9.0</ele><time>2026-04-23T17:14:23Z</time></trkpt><trkpt lat="42.72173167960647" lon="10.378333554765318"><ele>9.0</ele><time>2026-04-23T17:14:25Z</time></trkpt><trkpt lat="42.721716990545175" lon="10.378471424120018"><ele>9.0</ele><time>2026-04-23T17:14:27Z</time></trkpt><trkpt lat="42.7217201044766" lon="10.37857575719746"><ele>9.0</ele><time>2026-04-23T17:14:29Z</time></trkpt><trkpt lat="42.72177305641888" lon="10.378660993023573"><ele>9.0</ele><time>2026-04-23T17:14:31Z</time></trkpt><trkpt lat="42.72185042694036" lon="10.37872022769401"><ele>9.0</ele><time>2026-04-23T17:14:33Z</time></trkpt><trkpt lat="42.72191630518324" lon="10.378790445305624"><ele>9.0</ele><time>2026-04-23T17:14:35Z</time></trkpt><trkpt lat="42.721963532991204" lon="10.378895138884051"><ele>9.0</ele><time>2026-04-23T17:14:37Z</time></trkpt><trkpt lat="42.72201491247224" lon="10.378993754481757"><ele>12.4</ele><time>2026-04-23T17:14:39Z</time></trkpt><trkpt lat="42.72208910576567" lon="10.379067616649838"><ele>15.8</ele><time>2026-04-23T17:14:41Z</time></trkpt><trkpt lat="42.722188297824545" lon="10.379114330228145"><ele>19.200000000000003</ele><time>2026-04-23T17:14:43Z</time></trkpt><trkpt lat="42.72225480228253" lon="10.37911550031553"><ele>22.6</ele><time>2026-04-23T17:14:44Z</time></trkpt><trkpt lat="42.72237722826878" lon="10.37912300854481"><ele>26.0</ele><time>2026-04-23T17:14:46Z</time></trkpt><trkpt lat="42.72244331517691" lon="10.379115810144592"><ele>26.0</ele><time>2026-04-23T17:14:47Z</time></trkpt><trkpt lat="42.72250578292613" lon="10.379093303838111"><ele>26.0</ele><time>2026-04-23T17:14:48Z</time></trkpt><trkpt lat="42.722573525308874" lon="10.379056293433182"><ele>26.0</ele><time>2026-04-23T17:14:49Z</time></trkpt><trkpt lat="42.7226388639876" lon="10.379009403140348"><ele>26.0</ele><time>2026-04-23T17:14:50Z</time></trkpt><trkpt lat="42.72270396027932" lon="10.37895662931608"><ele>26.0</ele><time>2026-04-23T17:14:51Z</time></trkpt><trkpt lat="42.72277167438478" lon="10.378918430374904"><ele>26.0</ele><time>2026-04-23T17:14:52Z</time></trkpt><trkpt lat="42.722837179491236" lon="10.378861026200262"><ele>26.0</ele><time>2026-04-23T17:14:53Z</time></trkpt><trkpt lat="42.72290654979836" lon="10.378795784196795"><ele>26.666666666666664</ele><time>2026-04-23T17:14:54Z</time></trkpt><trkpt lat="42.722977940621746" lon="10.378740521402516"><ele>27.333333333333332</ele><time>2026-04-23T17:14:55Z</time></trkpt><trkpt lat="42.723051223734636" lon="10.378680063131574"><ele>28.0</ele><time>2026-04-23T17:14:56Z</time></trkpt><trkpt lat="42.72312687677183" lon="10.378615190784775"><ele>28.666666666666664</ele><time>2026-04-23T17:14:57Z</time></trkpt><trkpt lat="42.723204893417915" lon="10.378559115301899"><ele>29.333333333333332</ele><time>2026-04-23T17:14:58Z</time></trkpt><trkpt lat="42.72328179263381" lon="10.37849528306009"><ele>30.0</ele><time>2026-04-23T17:14:59Z</time></trkpt><trkpt lat="42.72335567397301" lon="10.378421345735243"><ele>30.0</ele><time>2026-04-23T17:15:00Z</time></trkpt><trkpt lat="42.72343213968185" lon="10.37833827140841"><ele>30.0</ele><time>2026-04-23T17:15:01Z</time></trkpt><trkpt lat="42.72350565073269" lon="10.378250066226661"><ele>30.0</ele><time>2026-04-23T17:15:02Z</time></trkpt><trkpt lat="42.72357469863727" lon="10.378137532702633"><ele>30.0</ele><time>2026-04-23T17:15:03Z</time></trkpt><trkpt lat="42.72363697199079" lon="10.378017458949"><ele>30.0</ele><time>2026-04-23T17:15:04Z</time></trkpt><trkpt lat="42.723700191157945" lon="10.377896645829226"><ele>33.6</ele><time>2026-04-23T17:15:05Z</time></trkpt><trkpt lat="42.72376287247699" lon="10.377788133864161"><ele>37.2</ele><time>2026-04-23T17:15:06Z</time></trkpt><trkpt lat="42.7238234737126" lon="10.377684392554162"><ele>40.8</ele><time>2026-04-23T17:15:07Z</time></trkpt><trkpt lat="42.72389281169434" lon="10.377584572541604"><ele>44.4</ele><time>2026-04-23T17:15:08Z</time></trkpt><trkpt lat="42.72396854891546" lon="10.377489914421963"><ele>48.0</ele><time>2026-04-23T17:15:09Z</time></trkpt><trkpt lat="42.72404805781044" lon="10.377401868245029"><ele>48.0</ele><time>2026-04-23T17:15:10Z</time></trkpt><trkpt lat="42.72413191532271" lon="10.377315104481827"><ele>48.0</ele><time>2026-04-23T17:15:11Z</time></trkpt><trkpt lat="42.724211825997266" lon="10.377232915441555"><ele>48.0</ele><time>2026-04-23T17:15:12Z</time></trkpt><trkpt lat="42.724284217654315" lon="10.377151460955945"><ele>48.0</ele><time>2026-04-23T17:15:13Z</time></trkpt><trkpt lat="42.72434831616955" lon="10.377072715550607"><ele>48.0</ele><time>2026-04-23T17:15:14Z</time></trkpt><trkpt lat="42.72440439257097" lon="10.376987901640918"><ele>50.833333333333336</ele><time>2026-04-23T17:15:15Z</time></trkpt><trkpt lat="42.7244392391203" lon="10.376890214693125"><ele>53.66666666666667</ele><time>2026-04-23T17:15:16Z</time></trkpt><trkpt lat="42.724465137241" lon="10.376795942523051"><ele>56.5</ele><time>2026-04-23T17:15:17Z</time></trkpt><trkpt lat="42.72448343022892" lon="10.376710352988516"><ele>59.333333333333336</ele><time>2026-04-23T17:15:18Z</time></trkpt><trkpt lat="42.724506570853805" lon="10.37663062024863"><ele>62.16666666666667</ele><time>2026-04-23T17:15:19Z</time></trkpt><trkpt lat="42.72456065467826" lon="10.376461299596096"><ele>65.0</ele><time>2026-04-23T17:15:21Z</time></trkpt><trkpt lat="42.72460111400045" lon="10.376371153813512"><ele>62.0</ele><time>2026-04-23T17:15:22Z</time></trkpt><trkpt lat="42.72464329904272" lon="10.376272199581782"><ele>59.0</ele><time>2026-04-23T17:15:23Z</time></trkpt><trkpt lat="42.72468382747621" lon="10.376163920490733"><ele>56.0</ele><time>2026-04-23T17:15:24Z</time></trkpt><trkpt lat="42.724726962684066" lon="10.376056964679556"><ele>53.0</ele><time>2026-04-23T17:15:25Z</time></trkpt><trkpt lat="42.724780747104006" lon="10.37594080689699"><ele>50.0</ele><time>2026-04-23T17:15:26Z</time></trkpt><trkpt lat="42.72483863310542" lon="10.375831757554478"><ele>50.00000000000001</ele><time>2026-04-23T17:15:27Z</time></trkpt><trkpt lat="42.72488766390015" lon="10.375728249717312"><ele>50.0</ele><time>2026-04-23T17:15:28Z</time></trkpt><trkpt lat="42.724937044907165" lon="10.375624225324673"><ele>50.0</ele><time>2026-04-23T17:15:29Z</time></trkpt><trkpt lat="42.724978820784116" lon="10.375514423327813"><ele>50.0</ele><time>2026-04-23T17:15:30Z</time></trkpt><trkpt lat="42.72501060935188" lon="10.37540258139636"><ele>50.00000000000001</ele><time>2026-04-23T17:15:31Z</time></trkpt><trkpt lat="42.725040810996894" lon="10.37531083633455"><ele>50.0</ele><time>2026-04-23T17:15:32Z</time></trkpt><trkpt lat="42.72510844094961" lon="10.375185014992299"><ele>48.0</ele><time>2026-04-23T17:15:34Z</time></trkpt><trkpt lat="42.72521386337199" lon="10.375117787430613"><ele>46.0</ele><time>2026-04-23T17:15:36Z</time></trkpt><trkpt lat="42.725332899398666" lon="10.375089020365893"><ele>44.0</ele><time>2026-04-23T17:15:38Z</time></trkpt><trkpt lat="42.72544592165238" lon="10.375115164835234"><ele>42.0</ele><time>2026-04-23T17:15:40Z</time></trkpt><trkpt lat="42.72549551298174" lon="10.375170692394683"><ele>40.0</ele><time>2026-04-23T17:15:41Z</time></trkpt><trkpt lat="42.725548610566854" lon="10.375223249660227"><ele>40.0</ele><time>2026-04-23T17:15:42Z</time></trkpt><trkpt lat="42.72565661491972" lon="10.37534474656497"><ele>40.0</ele><time>2026-04-23T17:15:44Z</time></trkpt><trkpt lat="42.7257071506796" lon="10.375403103287727"><ele>40.0</ele><time>2026-04-23T17:15:45Z</time></trkpt><trkpt lat="42.72576099774832" lon="10.375464853886694"><ele>40.0</ele><time>2026-04-23T17:15:46Z</time></trkpt><trkpt lat="42.72581918769175" lon="10.375525129623785"><ele>40.0</ele><time>2026-04-23T17:15:47Z</time></trkpt><trkpt lat="42.725885581039115" lon="10.375579804384955"><ele>40.0</ele><time>2026-04-23T17:15:48Z</time></trkpt><trkpt lat="42.7259693915059" lon="10.375599287300735"><ele>41.8</ele><time>2026-04-23T17:15:49Z</time></trkpt><trkpt lat="42.72604614849574" lon="10.375630405636134"><ele>43.6</ele><time>2026-04-23T17:15:50Z</time></trkpt><trkpt lat="42.72611608443305" lon="10.375648168387176"><ele>45.400000000000006</ele><time>2026-04-23T17:15:51Z</time></trkpt><trkpt lat="42.726226285969005" lon="10.375711455427712"><ele>47.2</ele><time>2026-04-23T17:15:53Z</time></trkpt><trkpt lat="42.72633298616513" lon="10.37578964625724"><ele>49.0</ele><time>2026-04-23T17:15:55Z</time></trkpt><trkpt lat="42.72637626931281" lon="10.37592582872003"><ele>46.166666666666664</ele><time>2026-04-23T17:15:57Z</time></trkpt><trkpt lat="42.72640012059215" lon="10.376088615984361"><ele>43.33333333333333</ele><time>2026-04-23T17:15:59Z</time></trkpt><trkpt lat="42.726415603888974" lon="10.376181248762185"><ele>40.5</ele><time>2026-04-23T17:16:00Z</time></trkpt><trkpt lat="42.72643099576609" lon="10.376278359792801"><ele>37.666666666666664</ele><time>2026-04-23T17:16:01Z</time></trkpt><trkpt lat="42.726446179507334" lon="10.376377606839357"><ele>34.83333333333333</ele><time>2026-04-23T17:16:02Z</time></trkpt><trkpt lat="42.72646153795622" lon="10.376481139973935"><ele>32.0</ele><time>2026-04-23T17:16:03Z</time></trkpt><trkpt lat="42.72647588866699" lon="10.376588240026473"><ele>31.999999999999996</ele><time>2026-04-23T17:16:04Z</time></trkpt><trkpt lat="42.72649129674081" lon="10.376692393543209"><ele>32.0</ele><time>2026-04-23T17:16:05Z</time></trkpt><trkpt lat="42.72650854800062" lon="10.376802520715998"><ele>32.0</ele><time>2026-04-23T17:16:06Z</time></trkpt><trkpt lat="42.72652027620484" lon="10.37691711308593"><ele>32.0</ele><time>2026-04-23T17:16:07Z</time></trkpt><trkpt lat="42.72653155363005" lon="10.377034926043919"><ele>31.999999999999996</ele><time>2026-04-23T17:16:08Z</time></trkpt><trkpt lat="42.726521348819475" lon="10.377153700154086"><ele>32.0</ele><time>2026-04-23T17:16:09Z</time></trkpt><trkpt lat="42.72651781208341" lon="10.377273582627963"><ele>31.999999999999996</ele><time>2026-04-23T17:16:10Z</time></trkpt><trkpt lat="42.726520137969544" lon="10.37739345193608"><ele>32.0</ele><time>2026-04-23T17:16:11Z</time></trkpt><trkpt lat="42.72652250322414" lon="10.377515349971892"><ele>32.0</ele><time>2026-04-23T17:16:12Z</time></trkpt><trkpt lat="42.72653591789101" lon="10.377635324045226"><ele>32.0</ele><time>2026-04-23T17:16:13Z</time></trkpt><trkpt lat="42.72654083575881" lon="10.377757165024352"><ele>31.999999999999996</ele><time>2026-04-23T17:16:14Z</time></trkpt><trkpt lat="42.72652887773214" lon="10.3778825892874"><ele>32.0</ele><time>2026-04-23T17:16:15Z</time></trkpt><trkpt lat="42.72652987340679" lon="10.378006800158923"><ele>32.4</ele><time>2026-04-23T17:16:16Z</time></trkpt><trkpt lat="42.726546888279074" lon="10.37813010172805"><ele>32.800000000000004</ele><time>2026-04-23T17:16:17Z</time></trkpt><trkpt lat="42.72653361889643" lon="10.378253247214593"><ele>33.2</ele><time>2026-04-23T17:16:18Z</time></trkpt><trkpt lat="42.726546328655196" lon="10.378382487207515"><ele>33.6</ele><time>2026-04-23T17:16:19Z</time></trkpt><trkpt lat="42.72653797868998" lon="10.3785114040019"><ele>34.0</ele><time>2026-04-23T17:16:20Z</time></trkpt><trkpt lat="42.7265562057553" lon="10.378635857251169"><ele>34.0</ele><time>2026-04-23T17:16:21Z</time></trkpt><trkpt lat="42.72657803298246" lon="10.378757873049713"><ele>34.0</ele><time>2026-04-23T17:16:22Z</time></trkpt><trkpt lat="42.726597521800635" lon="10.378878627851062"><ele>34.0</ele><time>2026-04-23T17:16:23Z</time></trkpt><trkpt lat="42.72661091304337" lon="10.378994520745529"><ele>34.0</ele><time>2026-04-23T17:16:24Z</time></trkpt><trkpt lat="42.72664174173724" lon="10.379118534068828"><ele>34.0</ele><time>2026-04-23T17:16:25Z</time></trkpt><trkpt lat="42.72666081209787" lon="10.379243963726669"><ele>34.833333333333336</ele><time>2026-04-23T17:16:26Z</time></trkpt><trkpt lat="42.72667939916771" lon="10.379356641069247"><ele>35.66666666666667</ele><time>2026-04-23T17:16:27Z</time></trkpt><trkpt lat="42.72668527003452" lon="10.379464317905263"><ele>36.5</ele><time>2026-04-23T17:16:28Z</time></trkpt><trkpt lat="42.72670009808021" lon="10.37955402685507"><ele>37.333333333333336</ele><time>2026-04-23T17:16:29Z</time></trkpt><trkpt lat="42.72672057465074" lon="10.379636000485258"><ele>38.166666666666664</ele><time>2026-04-23T17:16:30Z</time></trkpt><trkpt lat="42.72680852474223" lon="10.379768256303388"><ele>39.0</ele><time>2026-04-23T17:16:32Z</time></trkpt><trkpt lat="42.726880901013104" lon="10.379790709175143"><ele>39.8</ele><time>2026-04-23T17:16:33Z</time></trkpt><trkpt lat="42.7269492772898" lon="10.37978628652326"><ele>40.599999999999994</ele><time>2026-04-23T17:16:34Z</time></trkpt><trkpt lat="42.72700821988497" lon="10.379734451000482"><ele>41.4</ele><time>2026-04-23T17:16:35Z</time></trkpt><trkpt lat="42.72709242477862" lon="10.379617184002349"><ele>42.199999999999996</ele><time>2026-04-23T17:16:37Z</time></trkpt><trkpt lat="42.72711555204191" lon="10.379453358276162"><ele>43.0</ele><time>2026-04-23T17:16:39Z</time></trkpt><trkpt lat="42.7271185427202" lon="10.379351981045033"><ele>43.0</ele><time>2026-04-23T17:16:40Z</time></trkpt><trkpt lat="42.72715498013481" lon="10.379210805344163"><ele>43.0</ele><time>2026-04-23T17:16:42Z</time></trkpt><trkpt lat="42.727206129652146" lon="10.379141614646652"><ele>43.0</ele><time>2026-04-23T17:16:43Z</time></trkpt><trkpt lat="42.727264648384576" lon="10.379065558183285"><ele>43.0</ele><time>2026-04-23T17:16:44Z</time></trkpt><trkpt lat="42.72732025025851" lon="10.378996168451348"><ele>43.0</ele><time>2026-04-23T17:16:45Z</time></trkpt><trkpt lat="42.72738385987408" lon="10.378921046821416"><ele>43.0</ele><time>2026-04-23T17:16:46Z</time></trkpt><trkpt lat="42.7274517049106" lon="10.378841927379403"><ele>43.0</ele><time>2026-04-23T17:16:47Z</time></trkpt><trkpt lat="42.72751955563566" lon="10.378765158345924"><ele>43.0</ele><time>2026-04-23T17:16:48Z</time></trkpt><trkpt lat="42.72758287725775" lon="10.378701978101104"><ele>43.0</ele><time>2026-04-23T17:16:49Z</time></trkpt><trkpt lat="42.72764498611438" lon="10.378629624755527"><ele>43.0</ele><time>2026-04-23T17:16:50Z</time></trkpt><trkpt lat="42.72770121618956" lon="10.37854608398995"><ele>43.0</ele><time>2026-04-23T17:16:51Z</time></trkpt><trkpt lat="42.727753047917524" lon="10.378436112753299"><ele>43.0</ele><time>2026-04-23T17:16:52Z</time></trkpt><trkpt lat="42.72780052592796" lon="10.378327954742966"><ele>43.0</ele><time>2026-04-23T17:16:53Z</time></trkpt><trkpt lat="42.72784157001433" lon="10.378219675419041"><ele>43.0</ele><time>2026-04-23T17:16:54Z</time></trkpt><trkpt lat="42.72788057940639" lon="10.378112942787395"><ele>43.0</ele><time>2026-04-23T17:16:55Z</time></trkpt><trkpt lat="42.727924337097896" lon="10.378003713801691"><ele>43.0</ele><time>2026-04-23T17:16:56Z</time></trkpt><trkpt lat="42.72797692981496" lon="10.377896286552486"><ele>43.0</ele><time>2026-04-23T17:16:57Z</time></trkpt><trkpt lat="42.728037047172265" lon="10.377792981641472"><ele>39.8</ele><time>2026-04-23T17:16:58Z</time></trkpt><trkpt lat="42.72809570212151" lon="10.377688888200703"><ele>36.599999999999994</ele><time>2026-04-23T17:16:59Z</time></trkpt><trkpt lat="42.728154811528114" lon="10.377584301697041"><ele>33.400000000000006</ele><time>2026-04-23T17:17:00Z</time></trkpt><trkpt lat="42.728211980278" lon="10.377481784737471"><ele>30.200000000000003</ele><time>2026-04-23T17:17:01Z</time></trkpt><trkpt lat="42.72826633150498" lon="10.377379780196058"><ele>27.0</ele><time>2026-04-23T17:17:02Z</time></trkpt><trkpt lat="42.728319810687665" lon="10.37727714880263"><ele>25.200000000000003</ele><time>2026-04-23T17:17:03Z</time></trkpt><trkpt lat="42.72837096018322" lon="10.377176341834014"><ele>23.400000000000002</ele><time>2026-04-23T17:17:04Z</time></trkpt><trkpt lat="42.72841907813753" lon="10.37706324841422"><ele>21.6</ele><time>2026-04-23T17:17:05Z</time></trkpt><trkpt lat="42.72845829244093" lon="10.376941968568742"><ele>19.8</ele><time>2026-04-23T17:17:06Z</time></trkpt><trkpt lat="42.72849485277192" lon="10.376815162390674"><ele>18.0</ele><time>2026-04-23T17:17:07Z</time></trkpt><trkpt lat="42.72853036875964" lon="10.376690070485935"><ele>19.166666666666668</ele><time>2026-04-23T17:17:08Z</time></trkpt><trkpt lat="42.728569356964684" lon="10.376565284224183"><ele>20.333333333333336</ele><time>2026-04-23T17:17:09Z</time></trkpt><trkpt lat="42.72860538892819" lon="10.376453349267404"><ele>21.5</ele><time>2026-04-23T17:17:10Z</time></trkpt><trkpt lat="42.72864640865746" lon="10.37635332411598"><ele>22.666666666666668</ele><time>2026-04-23T17:17:11Z</time></trkpt><trkpt lat="42.72869424792548" lon="10.376284637494589"><ele>23.833333333333336</ele><time>2026-04-23T17:17:12Z</time></trkpt><trkpt lat="42.72875203217003" lon="10.37623406900243"><ele>25.0</ele><time>2026-04-23T17:17:13Z</time></trkpt><trkpt lat="42.728812563143755" lon="10.37619650735333"><ele>25.000000000000004</ele><time>2026-04-23T17:17:14Z</time></trkpt><trkpt lat="42.728875315811806" lon="10.376166705559244"><ele>25.0</ele><time>2026-04-23T17:17:15Z</time></trkpt><trkpt lat="42.72896680951323" lon="10.37610677051365"><ele>25.0</ele><time>2026-04-23T17:17:17Z</time></trkpt><trkpt lat="42.72901929723658" lon="10.376018782763017"><ele>25.0</ele><time>2026-04-23T17:17:20Z</time></trkpt><trkpt lat="42.729020003812536" lon="10.375902417987305"><ele>25.000000000000004</ele><time>2026-04-23T17:17:28Z</time></trkpt><trkpt lat="42.72906482763595" lon="10.375765368451129"><ele>25.0</ele><time>2026-04-23T17:17:30Z</time></trkpt><trkpt lat="42.72909835918806" lon="10.3756204415157"><ele>26.000000000000004</ele><time>2026-04-23T17:17:32Z</time></trkpt><trkpt lat="42.72916165247652" lon="10.37546251186085"><ele>27.0</ele><time>2026-04-23T17:17:34Z</time></trkpt><trkpt lat="42.72922080085893" lon="10.375391785506036"><ele>28.0</ele><time>2026-04-23T17:17:35Z</time></trkpt><trkpt lat="42.72928859950574" lon="10.375341206397458"><ele>29.0</ele><time>2026-04-23T17:17:36Z</time></trkpt><trkpt lat="42.72935860323548" lon="10.375297748926677"><ele>30.000000000000004</ele><time>2026-04-23T17:17:37Z</time></trkpt><trkpt lat="42.72942786821293" lon="10.375254942001808"><ele>31.0</ele><time>2026-04-23T17:17:38Z</time></trkpt><trkpt lat="42.72949709614965" lon="10.375217609867606"><ele>31.000000000000004</ele><time>2026-04-23T17:17:39Z</time></trkpt><trkpt lat="42.729570464512136" lon="10.375165842380186"><ele>31.0</ele><time>2026-04-23T17:17:40Z</time></trkpt><trkpt lat="42.72964033496543" lon="10.37511698988656"><ele>31.0</ele><time>2026-04-23T17:17:41Z</time></trkpt><trkpt lat="42.72971458885833" lon="10.375070550386617"><ele>31.0</ele><time>2026-04-23T17:17:42Z</time></trkpt><trkpt lat="42.729788237624895" lon="10.375023517743506"><ele>31.000000000000004</ele><time>2026-04-23T17:17:43Z</time></trkpt><trkpt lat="42.72986093537631" lon="10.374975581194795"><ele>31.0</ele><time>2026-04-23T17:17:44Z</time></trkpt><trkpt lat="42.72993156051866" lon="10.37492851338889"><ele>31.0</ele><time>2026-04-23T17:17:45Z</time></trkpt><trkpt lat="42.730001437531456" lon="10.374889602956381"><ele>31.000000000000004</ele><time>2026-04-23T17:17:46Z</time></trkpt><trkpt lat="42.73006460763915" lon="10.374849960009131"><ele>31.0</ele><time>2026-04-23T17:17:47Z</time></trkpt><trkpt lat="42.730126718911656" lon="10.374824983375104"><ele>31.0</ele><time>2026-04-23T17:17:48Z</time></trkpt><trkpt lat="42.73018467374869" lon="10.374784465878724"><ele>31.000000000000004</ele><time>2026-04-23T17:17:49Z</time></trkpt><trkpt lat="42.7302539687912" lon="10.37480079900665"><ele>31.0</ele><time>2026-04-23T17:17:50Z</time></trkpt><trkpt lat="42.73029888500722" lon="10.374868333413625"><ele>31.0</ele><time>2026-04-23T17:17:51Z</time></trkpt><trkpt lat="42.730373586743" lon="10.375014359998566"><ele>30.666666666666668</ele><time>2026-04-23T17:17:53Z</time></trkpt><trkpt lat="42.73040606391072" lon="10.375104285413768"><ele>30.333333333333336</ele><time>2026-04-23T17:17:54Z</time></trkpt><trkpt lat="42.73043856534119" lon="10.37519661345767"><ele>30.0</ele><time>2026-04-23T17:17:55Z</time></trkpt><trkpt lat="42.73047094308187" lon="10.375290204948026"><ele>29.666666666666664</ele><time>2026-04-23T17:17:56Z</time></trkpt><trkpt lat="42.730504739241745" lon="10.37538763125107"><ele>29.333333333333332</ele><time>2026-04-23T17:17:57Z</time></trkpt><trkpt lat="42.73053503967613" lon="10.375482172244876"><ele>29.0</ele><time>2026-04-23T17:17:58Z</time></trkpt><trkpt lat="42.73056656742792" lon="10.375575155330777"><ele>32.5</ele><time>2026-04-23T17:17:59Z</time></trkpt><trkpt lat="42.73058203200998" lon="10.37565920121279"><ele>36.0</ele><time>2026-04-23T17:18:00Z</time></trkpt><trkpt lat="42.73064197501251" lon="10.375724342569018"><ele>39.5</ele><time>2026-04-23T17:18:01Z</time></trkpt><trkpt lat="42.73071105246152" lon="10.37576573427489"><ele>43.0</ele><time>2026-04-23T17:18:02Z</time></trkpt><trkpt lat="42.73078747757067" lon="10.375774131655414"><ele>46.50000000000001</ele><time>2026-04-23T17:18:03Z</time></trkpt><trkpt lat="42.73086559430591" lon="10.375748405034905"><ele>50.0</ele><time>2026-04-23T17:18:04Z</time></trkpt><trkpt lat="42.73093898917727" lon="10.375694740781116"><ele>50.00000000000001</ele><time>2026-04-23T17:18:05Z</time></trkpt><trkpt lat="42.731012414190225" lon="10.3756313078002"><ele>50.0</ele><time>2026-04-23T17:18:06Z</time></trkpt><trkpt lat="42.73108153503306" lon="10.37556544179811"><ele>50.0</ele><time>2026-04-23T17:18:07Z</time></trkpt><trkpt lat="42.731147572692734" lon="10.375512983832616"><ele>50.0</ele><time>2026-04-23T17:18:08Z</time></trkpt><trkpt lat="42.73121251896958" lon="10.375459501187061"><ele>50.00000000000001</ele><time>2026-04-23T17:18:09Z</time></trkpt><trkpt lat="42.73128718927206" lon="10.375439112200318"><ele>50.0</ele><time>2026-04-23T17:18:10Z</time></trkpt><trkpt lat="42.731363816592314" lon="10.375426537061971"><ele>50.16666666666667</ele><time>2026-04-23T17:18:11Z</time></trkpt><trkpt lat="42.73144216559649" lon="10.37542335275179"><ele>50.333333333333336</ele><time>2026-04-23T17:18:12Z</time></trkpt><trkpt lat="42.73151923020167" lon="10.375436565107249"><ele>50.5</ele><time>2026-04-23T17:18:13Z</time></trkpt><trkpt lat="42.73159513855008" lon="10.375455694702989"><ele>50.66666666666667</ele><time>2026-04-23T17:18:14Z</time></trkpt><trkpt lat="42.73166720061007" lon="10.375503877952728"><ele>50.833333333333336</ele><time>2026-04-23T17:18:15Z</time></trkpt><trkpt lat="42.73173425000883" lon="10.37555755493935"><ele>51.0</ele><time>2026-04-23T17:18:16Z</time></trkpt><trkpt lat="42.73179866312728" lon="10.37561816179513"><ele>51.0</ele><time>2026-04-23T17:18:17Z</time></trkpt><trkpt lat="42.73185996000124" lon="10.375685557802127"><ele>51.0</ele><time>2026-04-23T17:18:18Z</time></trkpt><trkpt lat="42.73190925588765" lon="10.375763564781703"><ele>51.0</ele><time>2026-04-23T17:18:19Z</time></trkpt><trkpt lat="42.73195394816572" lon="10.37584128152289"><ele>51.0</ele><time>2026-04-23T17:18:20Z</time></trkpt><trkpt lat="42.73198577735975" lon="10.37592940143091"><ele>51.0</ele><time>2026-04-23T17:18:21Z</time></trkpt><trkpt lat="42.73200499899923" lon="10.37602434116187"><ele>51.0</ele><time>2026-04-23T17:18:22Z</time></trkpt><trkpt lat="42.73201762905498" lon="10.376127317684336"><ele>51.0</ele><time>2026-04-23T17:18:23Z</time></trkpt><trkpt lat="42.73203760774227" lon="10.376236211106095"><ele>49.199999999999996</ele><time>2026-04-23T17:18:24Z</time></trkpt><trkpt lat="42.732051726244" lon="10.376352308594674"><ele>47.4</ele><time>2026-04-23T17:18:25Z</time></trkpt><trkpt lat="42.73208057701563" lon="10.376464133256917"><ele>45.6</ele><time>2026-04-23T17:18:26Z</time></trkpt><trkpt lat="42.732100532993904" lon="10.376586961022024"><ele>43.8</ele><time>2026-04-23T17:18:27Z</time></trkpt><trkpt lat="42.732137660564604" lon="10.376703941178635"><ele>42.0</ele><time>2026-04-23T17:18:28Z</time></trkpt><trkpt lat="42.73217953452659" lon="10.376825225947284"><ele>42.0</ele><time>2026-04-23T17:18:29Z</time></trkpt><trkpt lat="42.732222217713975" lon="10.376945182328608"><ele>42.0</ele><time>2026-04-23T17:18:30Z</time></trkpt><trkpt lat="42.73226565472126" lon="10.377067257011184"><ele>42.0</ele><time>2026-04-23T17:18:31Z</time></trkpt><trkpt lat="42.73230903368249" lon="10.377189168641234"><ele>42.0</ele><time>2026-04-23T17:18:32Z</time></trkpt><trkpt lat="42.732354618649204" lon="10.377314869039031"><ele>42.0</ele><time>2026-04-23T17:18:33Z</time></trkpt><trkpt lat="42.73240877922304" lon="10.37741344488024"><ele>43.666666666666664</ele><time>2026-04-23T17:18:34Z</time></trkpt><trkpt lat="42.73243426435934" lon="10.37751247198486"><ele>45.33333333333333</ele><time>2026-04-23T17:18:35Z</time></trkpt><trkpt lat="42.73246462654897" lon="10.377603471368126"><ele>47.0</ele><time>2026-04-23T17:18:36Z</time></trkpt><trkpt lat="42.73248930332399" lon="10.377709419202258"><ele>48.666666666666664</ele><time>2026-04-23T17:18:37Z</time></trkpt><trkpt lat="42.732494006433726" lon="10.377831342610243"><ele>50.33333333333333</ele><time>2026-04-23T17:18:38Z</time></trkpt><trkpt lat="42.732488700835034" lon="10.377963336769403"><ele>52.0</ele><time>2026-04-23T17:18:39Z</time></trkpt><trkpt lat="42.73246636462193" lon="10.37809847450775"><ele>53.8</ele><time>2026-04-23T17:18:40Z</time></trkpt><trkpt lat="42.73244525495083" lon="10.378230521967755"><ele>55.6</ele><time>2026-04-23T17:18:41Z</time></trkpt><trkpt lat="42.732441108245474" lon="10.378356411683555"><ele>57.39999999999999</ele><time>2026-04-23T17:18:42Z</time></trkpt><trkpt lat="42.7324235764705" lon="10.378495162090543"><ele>59.199999999999996</ele><time>2026-04-23T17:18:43Z</time></trkpt><trkpt lat="42.73243687424147" lon="10.378638142130473"><ele>61.0</ele><time>2026-04-23T17:18:44Z</time></trkpt><trkpt lat="42.73245447954246" lon="10.378773371325348"><ele>63.599999999999994</ele><time>2026-04-23T17:18:45Z</time></trkpt><trkpt lat="42.7324893973093" lon="10.378914234862455"><ele>66.19999999999999</ele><time>2026-04-23T17:18:46Z</time></trkpt><trkpt lat="42.73253396074268" lon="10.379050812276994"><ele>68.80000000000001</ele><time>2026-04-23T17:18:47Z</time></trkpt><trkpt lat="42.73261634001551" lon="10.37914758241569"><ele>71.4</ele><time>2026-04-23T17:18:48Z</time></trkpt><trkpt lat="42.73265976405685" lon="10.379253838032554"><ele>74.0</ele><time>2026-04-23T17:18:49Z</time></trkpt><trkpt lat="42.7327061818106" lon="10.379346293836386"><ele>74.42857142857143</ele><time>2026-04-23T17:18:50Z</time></trkpt><trkpt lat="42.73274712667835" lon="10.379419346289785"><ele>74.85714285714286</ele><time>2026-04-23T17:18:51Z</time></trkpt><trkpt lat="42.732768847073324" lon="10.379503535679675"><ele>75.28571428571428</ele><time>2026-04-23T17:18:52Z</time></trkpt><trkpt lat="42.73283432302255" lon="10.379534102291702"><ele>75.71428571428572</ele><time>2026-04-23T17:18:53Z</time></trkpt><trkpt lat="42.73290966588153" lon="10.37952997627242"><ele>76.14285714285714</ele><time>2026-04-23T17:18:54Z</time></trkpt><trkpt lat="42.73297608081467" lon="10.379482525104603"><ele>76.57142857142857</ele><time>2026-04-23T17:18:55Z</time></trkpt><trkpt lat="42.73303507184932" lon="10.379427299687784"><ele>77.0</ele><time>2026-04-23T17:18:56Z</time></trkpt><trkpt lat="42.73308556236034" lon="10.379346405908514"><ele>77.0</ele><time>2026-04-23T17:18:57Z</time></trkpt><trkpt lat="42.73313464068176" lon="10.379253156574007"><ele>77.0</ele><time>2026-04-23T17:18:58Z</time></trkpt><trkpt lat="42.73318838343641" lon="10.379158603506822"><ele>77.0</ele><time>2026-04-23T17:18:59Z</time></trkpt><trkpt lat="42.733241790402175" lon="10.379059682043183"><ele>77.0</ele><time>2026-04-23T17:19:00Z</time></trkpt><trkpt lat="42.733295847621115" lon="10.378958855092103"><ele>77.0</ele><time>2026-04-23T17:19:01Z</time></trkpt><trkpt lat="42.73335134116711" lon="10.378860318299168"><ele>77.0</ele><time>2026-04-23T17:19:02Z</time></trkpt><trkpt lat="42.73341852608506" lon="10.378767574253109"><ele>76.4</ele><time>2026-04-23T17:19:03Z</time></trkpt><trkpt lat="42.733504578779474" lon="10.378699011808328"><ele>75.80000000000001</ele><time>2026-04-23T17:19:04Z</time></trkpt><trkpt lat="42.73359720902239" lon="10.378641403664464"><ele>75.2</ele><time>2026-04-23T17:19:05Z</time></trkpt><trkpt lat="42.73369842276193" lon="10.378594473355191"><ele>74.60000000000001</ele><time>2026-04-23T17:19:06Z</time></trkpt><trkpt lat="42.733801750625354" lon="10.378546439259935"><ele>74.0</ele><time>2026-04-23T17:19:07Z</time></trkpt><trkpt lat="42.73390316344757" lon="10.378497855813231"><ele>74.0</ele><time>2026-04-23T17:19:08Z</time></trkpt><trkpt lat="42.73400489186306" lon="10.378456563158402"><ele>74.0</ele><time>2026-04-23T17:19:09Z</time></trkpt><trkpt lat="42.7341112397694" lon="10.378430486949346"><ele>74.0</ele><time>2026-04-23T17:19:10Z</time></trkpt><trkpt lat="42.734216633437406" lon="10.378410908583854"><ele>74.0</ele><time>2026-04-23T17:19:11Z</time></trkpt><trkpt lat="42.7343147161308" lon="10.3783961686863"><ele>74.0</ele><time>2026-04-23T17:19:12Z</time></trkpt><trkpt lat="42.73439803027634" lon="10.378374275152591"><ele>72.0</ele><time>2026-04-23T17:19:13Z</time></trkpt><trkpt lat="42.734474245762954" lon="10.37831340279034"><ele>70.0</ele><time>2026-04-23T17:19:14Z</time></trkpt><trkpt lat="42.734539816202954" lon="10.378234945798376"><ele>68.0</ele><time>2026-04-23T17:19:15Z</time></trkpt><trkpt lat="42.73459286600204" lon="10.37814710908408"><ele>66.0</ele><time>2026-04-23T17:19:16Z</time></trkpt><trkpt lat="42.73464020937221" lon="10.378063663327055"><ele>64.0</ele><time>2026-04-23T17:19:17Z</time></trkpt><trkpt lat="42.73469577867319" lon="10.377987234335713"><ele>62.0</ele><time>2026-04-23T17:19:18Z</time></trkpt><trkpt lat="42.73475678477854" lon="10.377934066481828"><ele>62.00000000000001</ele><time>2026-04-23T17:19:19Z</time></trkpt><trkpt lat="42.73482794211016" lon="10.377909765430395"><ele>62.0</ele><time>2026-04-23T17:19:20Z</time></trkpt><trkpt lat="42.734910684513125" lon="10.37797742977474"><ele>62.0</ele><time>2026-04-23T17:19:21Z</time></trkpt><trkpt lat="42.73498251578786" lon="10.378012781001997"><ele>62.0</ele><time>2026-04-23T17:19:22Z</time></trkpt><trkpt lat="42.73505717727629" lon="10.378058403851172"><ele>62.00000000000001</ele><time>2026-04-23T17:19:23Z</time></trkpt><trkpt lat="42.735130137489186" lon="10.378108446200343"><ele>62.0</ele><time>2026-04-23T17:19:24Z</time></trkpt><trkpt lat="42.735206918036624" lon="10.3781606620966"><ele>66.8</ele><time>2026-04-23T17:19:25Z</time></trkpt><trkpt lat="42.735288780747844" lon="10.378213091269144"><ele>71.6</ele><time>2026-04-23T17:19:26Z</time></trkpt><trkpt lat="42.735373724904925" lon="10.378266804991853"><ele>76.39999999999999</ele><time>2026-04-23T17:19:27Z</time></trkpt><trkpt lat="42.735458710120376" lon="10.37832032007772"><ele>81.2</ele><time>2026-04-23T17:19:28Z</time></trkpt><trkpt lat="42.735543096673275" lon="10.378374284945277"><ele>86.0</ele><time>2026-04-23T17:19:29Z</time></trkpt><trkpt lat="42.73563077582601" lon="10.378414908259257"><ele>86.0</ele><time>2026-04-23T17:19:30Z</time></trkpt><trkpt lat="42.73572474527487" lon="10.378446980314726"><ele>86.0</ele><time>2026-04-23T17:19:31Z</time></trkpt><trkpt lat="42.73582040142086" lon="10.378481380975986"><ele>86.0</ele><time>2026-04-23T17:19:32Z</time></trkpt><trkpt lat="42.73592042580282" lon="10.378506481452856"><ele>86.0</ele><time>2026-04-23T17:19:33Z</time></trkpt><trkpt lat="42.73602261477793" lon="10.378538122497089"><ele>86.0</ele><time>2026-04-23T17:19:34Z</time></trkpt><trkpt lat="42.73611112113474" lon="10.378561466559185"><ele>87.33333333333334</ele><time>2026-04-23T17:19:35Z</time></trkpt><trkpt lat="42.7361915408593" lon="10.378589765486668"><ele>88.66666666666667</ele><time>2026-04-23T17:19:36Z</time></trkpt><trkpt lat="42.73627365709303" lon="10.378633732453522"><ele>90.0</ele><time>2026-04-23T17:19:37Z</time></trkpt><trkpt lat="42.736348386027764" lon="10.378682926215108"><ele>91.33333333333333</ele><time>2026-04-23T17:19:38Z</time></trkpt><trkpt lat="42.73641061398889" lon="10.378715945812745"><ele>92.66666666666666</ele><time>2026-04-23T17:19:39Z</time></trkpt><trkpt lat="42.73653493920487" lon="10.378699433533388"><ele>94.0</ele><time>2026-04-23T17:19:41Z</time></trkpt><trkpt lat="42.73659514434353" lon="10.37864644690647"><ele>94.0</ele><time>2026-04-23T17:19:42Z</time></trkpt><trkpt lat="42.73664056963683" lon="10.378561668133681"><ele>94.0</ele><time>2026-04-23T17:19:43Z</time></trkpt><trkpt lat="42.73666798874338" lon="10.378451840077453"><ele>94.0</ele><time>2026-04-23T17:19:44Z</time></trkpt><trkpt lat="42.73667557844947" lon="10.378335779923594"><ele>94.0</ele><time>2026-04-23T17:19:45Z</time></trkpt><trkpt lat="42.73670211766404" lon="10.378222199284613"><ele>94.0</ele><time>2026-04-23T17:19:46Z</time></trkpt><trkpt lat="42.73672737470214" lon="10.378130412311501"><ele>94.0</ele><time>2026-04-23T17:19:47Z</time></trkpt><trkpt lat="42.736752441681595" lon="10.378047003296198"><ele>92.83333333333333</ele><time>2026-04-23T17:19:48Z</time></trkpt><trkpt lat="42.736793323541875" lon="10.37797138473663"><ele>91.66666666666666</ele><time>2026-04-23T17:19:49Z</time></trkpt><trkpt lat="42.736857928398194" lon="10.377926545267712"><ele>90.5</ele><time>2026-04-23T17:19:50Z</time></trkpt><trkpt lat="42.73693646641918" lon="10.377905897000172"><ele>89.33333333333333</ele><time>2026-04-23T17:19:51Z</time></trkpt><trkpt lat="42.73702131054059" lon="10.377902025516564"><ele>88.16666666666667</ele><time>2026-04-23T17:19:52Z</time></trkpt><trkpt lat="42.73710415878849" lon="10.377915076467984"><ele>87.0</ele><time>2026-04-23T17:19:53Z</time></trkpt><trkpt lat="42.737194346322454" lon="10.377945316803487"><ele>87.0</ele><time>2026-04-23T17:19:54Z</time></trkpt><trkpt lat="42.737288693778" lon="10.377982989253027"><ele>87.0</ele><time>2026-04-23T17:19:55Z</time></trkpt><trkpt lat="42.73738735194248" lon="10.378024172048532"><ele>87.0</ele><time>2026-04-23T17:19:56Z</time></trkpt><trkpt lat="42.73749012746855" lon="10.378060422100534"><ele>87.0</ele><time>2026-04-23T17:19:57Z</time></trkpt><trkpt lat="42.737586162469704" lon="10.378115765186381"><ele>87.0</ele><time>2026-04-23T17:19:58Z</time></trkpt><trkpt lat="42.73768485574548" lon="10.378173707629319"><ele>91.66666666666667</ele><time>2026-04-23T17:19:59Z</time></trkpt><trkpt lat="42.737777293551616" lon="10.3782291214531"><ele>96.33333333333334</ele><time>2026-04-23T17:20:00Z</time></trkpt><trkpt lat="42.737859069049385" lon="10.378273666094113"><ele>101.0</ele><time>2026-04-23T17:20:01Z</time></trkpt><trkpt lat="42.73793160928625" lon="10.378312658696526"><ele>105.66666666666667</ele><time>2026-04-23T17:20:02Z</time></trkpt><trkpt lat="42.73799787582533" lon="10.37832460338693"><ele>110.33333333333334</ele><time>2026-04-23T17:20:03Z</time></trkpt><trkpt lat="42.738061843691874" lon="10.378307224249438"><ele>115.0</ele><time>2026-04-23T17:20:04Z</time></trkpt><trkpt lat="42.7381243008729" lon="10.378258308432457"><ele>115.00000000000001</ele><time>2026-04-23T17:20:05Z</time></trkpt><trkpt lat="42.73817098128536" lon="10.378176511637625"><ele>115.0</ele><time>2026-04-23T17:20:06Z</time></trkpt><trkpt lat="42.73819332165299" lon="10.378071344370575"><ele>115.0</ele><time>2026-04-23T17:20:07Z</time></trkpt><trkpt lat="42.73819109706755" lon="10.377945983132687"><ele>115.0</ele><time>2026-04-23T17:20:08Z</time></trkpt><trkpt lat="42.738168714870184" lon="10.377814533619055"><ele>115.00000000000001</ele><time>2026-04-23T17:20:09Z</time></trkpt><trkpt lat="42.738148306396106" lon="10.377687213716587"><ele>115.0</ele><time>2026-04-23T17:20:10Z</time></trkpt><trkpt lat="42.73813967825099" lon="10.377550116055705"><ele>115.0</ele><time>2026-04-23T17:20:11Z</time></trkpt><trkpt lat="42.73813039763837" lon="10.37740798723636"><ele>115.0</ele><time>2026-04-23T17:20:12Z</time></trkpt><trkpt lat="42.73811771516981" lon="10.377262987051664"><ele>115.0</ele><time>2026-04-23T17:20:13Z</time></trkpt><trkpt lat="42.73810563416362" lon="10.377114858519485"><ele>115.0</ele><time>2026-04-23T17:20:14Z</time></trkpt><trkpt lat="42.73809485720852" lon="10.376963317424376"><ele>115.0</ele><time>2026-04-23T17:20:15Z</time></trkpt><trkpt lat="42.738094171507186" lon="10.3768067819097"><ele>115.0</ele><time>2026-04-23T17:20:16Z</time></trkpt><trkpt lat="42.73808739647644" lon="10.376648536627316"><ele>115.0</ele><time>2026-04-23T17:20:17Z</time></trkpt><trkpt lat="42.738071534985394" lon="10.376492656393326"><ele>115.0</ele><time>2026-04-23T17:20:18Z</time></trkpt><trkpt lat="42.73805170904285" lon="10.376356245646793"><ele>115.0</ele><time>2026-04-23T17:20:19Z</time></trkpt><trkpt lat="42.738032942166015" lon="10.376235577395585"><ele>115.0</ele><time>2026-04-23T17:20:20Z</time></trkpt><trkpt lat="42.73802160177741" lon="10.376127011499293"><ele>114.14285714285712</ele><time>2026-04-23T17:20:21Z</time></trkpt><trkpt lat="42.738024070883675" lon="10.376031639767398"><ele>113.28571428571428</ele><time>2026-04-23T17:20:22Z</time></trkpt><trkpt lat="42.738047560868985" lon="10.375948957972387"><ele>112.42857142857142</ele><time>2026-04-23T17:20:23Z</time></trkpt><trkpt lat="42.73809597843512" lon="10.375877680397796"><ele>111.57142857142856</ele><time>2026-04-23T17:20:24Z</time></trkpt><trkpt lat="42.73815851665503" lon="10.375829654130134"><ele>110.71428571428572</ele><time>2026-04-23T17:20:25Z</time></trkpt><trkpt lat="42.738236474276775" lon="10.375810497088272"><ele>109.85714285714286</ele><time>2026-04-23T17:20:26Z</time></trkpt><trkpt lat="42.738319596544265" lon="10.375806865290839"><ele>109.0</ele><time>2026-04-23T17:20:27Z</time></trkpt><trkpt lat="42.7384076286004" lon="10.37580244537541"><ele>109.0</ele><time>2026-04-23T17:20:28Z</time></trkpt><trkpt lat="42.73850078937788" lon="10.37578302541127"><ele>109.0</ele><time>2026-04-23T17:20:29Z</time></trkpt><trkpt lat="42.73860039517102" lon="10.37575403670288"><ele>109.0</ele><time>2026-04-23T17:20:30Z</time></trkpt><trkpt lat="42.73870107663038" lon="10.375726164957527"><ele>109.0</ele><time>2026-04-23T17:20:31Z</time></trkpt><trkpt lat="42.73880321479718" lon="10.375688109180057"><ele>109.0</ele><time>2026-04-23T17:20:32Z</time></trkpt><trkpt lat="42.73890725766579" lon="10.375655023188202"><ele>111.0</ele><time>2026-04-23T17:20:33Z</time></trkpt><trkpt lat="42.73901033010883" lon="10.375618695164759"><ele>113.0</ele><time>2026-04-23T17:20:34Z</time></trkpt><trkpt lat="42.73909981941008" lon="10.375588761228272"><ele>115.0</ele><time>2026-04-23T17:20:35Z</time></trkpt><trkpt lat="42.739180732942174" lon="10.375578428731613"><ele>117.0</ele><time>2026-04-23T17:20:36Z</time></trkpt><trkpt lat="42.739264942326336" lon="10.375587396251618"><ele>119.0</ele><time>2026-04-23T17:20:37Z</time></trkpt><trkpt lat="42.73935686947959" lon="10.375620704044996"><ele>117.49999999999999</ele><time>2026-04-23T17:20:38Z</time></trkpt><trkpt lat="42.739451321694744" lon="10.375675650771663"><ele>116.0</ele><time>2026-04-23T17:20:39Z</time></trkpt><trkpt lat="42.73954444148333" lon="10.375729849749899"><ele>114.5</ele><time>2026-04-23T17:20:40Z</time></trkpt><trkpt lat="42.739629595930246" lon="10.375776019458499"><ele>113.0</ele><time>2026-04-23T17:20:41Z</time></trkpt><trkpt lat="42.739703044898846" lon="10.375820097690255"><ele>111.49999999999999</ele><time>2026-04-23T17:20:42Z</time></trkpt><trkpt lat="42.73976484409263" lon="10.375860750405941"><ele>110.0</ele><time>2026-04-23T17:20:43Z</time></trkpt><trkpt lat="42.73981510643614" lon="10.375916642242826"><ele>109.99999999999999</ele><time>2026-04-23T17:20:44Z</time></trkpt><trkpt lat="42.73985827211831" lon="10.375987246799466"><ele>110.0</ele><time>2026-04-23T17:20:45Z</time></trkpt><trkpt lat="42.73990289814928" lon="10.37606956799212"><ele>110.0</ele><time>2026-04-23T17:20:46Z</time></trkpt><trkpt lat="42.73994996085375" lon="10.376161347534268"><ele>110.0</ele><time>2026-04-23T17:20:47Z</time></trkpt><trkpt lat="42.739994282353" lon="10.37625041283861"><ele>109.99999999999999</ele><time>2026-04-23T17:20:48Z</time></trkpt><trkpt lat="42.740040168981984" lon="10.376341913757402"><ele>110.0</ele><time>2026-04-23T17:20:49Z</time></trkpt><trkpt lat="42.74007801293872" lon="10.376449281503518"><ele>112.8</ele><time>2026-04-23T17:20:50Z</time></trkpt><trkpt lat="42.74010390337705" lon="10.376565846964585"><ele>115.6</ele><time>2026-04-23T17:20:51Z</time></trkpt><trkpt lat="42.740110316376736" lon="10.376686644492198"><ele>118.4</ele><time>2026-04-23T17:20:52Z</time></trkpt><trkpt lat="42.740112731454865" lon="10.37681501274071"><ele>121.2</ele><time>2026-04-23T17:20:53Z</time></trkpt><trkpt lat="42.740121250258724" lon="10.376945310332845"><ele>124.0</ele><time>2026-04-23T17:20:54Z</time></trkpt><trkpt lat="42.740112118600145" lon="10.377078220759806"><ele>126.80000000000001</ele><time>2026-04-23T17:20:55Z</time></trkpt><trkpt lat="42.7401328478274" lon="10.37721920933736"><ele>129.60000000000002</ele><time>2026-04-23T17:20:56Z</time></trkpt><trkpt lat="42.74017709593945" lon="10.377353236321824"><ele>132.4</ele><time>2026-04-23T17:20:57Z</time></trkpt><trkpt lat="42.740226099249874" lon="10.377479721218975"><ele>135.20000000000002</ele><time>2026-04-23T17:20:58Z</time></trkpt><trkpt lat="42.7402753873271" lon="10.37760537348261"><ele>138.0</ele><time>2026-04-23T17:20:59Z</time></trkpt><trkpt lat="42.740323049583004" lon="10.377727731409117"><ele>136.4</ele><time>2026-04-23T17:21:00Z</time></trkpt><trkpt lat="42.74037070876992" lon="10.377850081480098"><ele>134.8</ele><time>2026-04-23T17:21:01Z</time></trkpt><trkpt lat="42.74043200455423" lon="10.377963602992583"><ele>133.2</ele><time>2026-04-23T17:21:02Z</time></trkpt><trkpt lat="42.74046768001955" lon="10.378095952152629"><ele>131.6</ele><time>2026-04-23T17:21:03Z</time></trkpt><trkpt lat="42.740507753548" lon="10.378236231228804"><ele>130.0</ele><time>2026-04-23T17:21:04Z</time></trkpt><trkpt lat="42.74053693635205" lon="10.378372818968666"><ele>130.0</ele><time>2026-04-23T17:21:05Z</time></trkpt><trkpt lat="42.74054793317927" lon="10.378502842744165"><ele>130.0</ele><time>2026-04-23T17:21:06Z</time></trkpt><trkpt lat="42.740570569741806" lon="10.378615753537536"><ele>130.0</ele><time>2026-04-23T17:21:07Z</time></trkpt><trkpt lat="42.740596865152156" lon="10.378708207684864"><ele>130.0</ele><time>2026-04-23T17:21:08Z</time></trkpt><trkpt lat="42.74064219493289" lon="10.378791071224018"><ele>130.0</ele><time>2026-04-23T17:21:09Z</time></trkpt><trkpt lat="42.74072255917148" lon="10.378844847739826"><ele>130.0</ele><time>2026-04-23T17:21:10Z</time></trkpt><trkpt lat="42.740805442817155" lon="10.378868313965132"><ele>130.0</ele><time>2026-04-23T17:21:11Z</time></trkpt><trkpt lat="42.740893675559576" lon="10.378835918224093"><ele>130.0</ele><time>2026-04-23T17:21:12Z</time></trkpt><trkpt lat="42.740963179620394" lon="10.378839937578656"><ele>130.0</ele><time>2026-04-23T17:21:13Z</time></trkpt><trkpt lat="42.7410550817351" lon="10.378934420820928"><ele>130.0</ele><time>2026-04-23T17:21:15Z</time></trkpt><trkpt lat="42.74109146575812" lon="10.379006953912768"><ele>130.0</ele><time>2026-04-23T17:21:16Z</time></trkpt><trkpt lat="42.74114054270144" lon="10.379094407061435"><ele>130.0</ele><time>2026-04-23T17:21:17Z</time></trkpt><trkpt lat="42.74119234541432" lon="10.379189594161721"><ele>130.83333333333334</ele><time>2026-04-23T17:21:18Z</time></trkpt><trkpt lat="42.741258094166405" lon="10.379274462888828"><ele>131.66666666666669</ele><time>2026-04-23T17:21:19Z</time></trkpt><trkpt lat="42.74129787908428" lon="10.379366275349776"><ele>132.5</ele><time>2026-04-23T17:21:20Z</time></trkpt><trkpt lat="42.74134506321377" lon="10.379447226185073"><ele>133.33333333333334</ele><time>2026-04-23T17:21:21Z</time></trkpt><trkpt lat="42.74140270971982" lon="10.37951340740457"><ele>134.16666666666666</ele><time>2026-04-23T17:21:22Z</time></trkpt><trkpt lat="42.741474378841026" lon="10.379558659610412"><ele>135.0</ele><time>2026-04-23T17:21:23Z</time></trkpt><trkpt lat="42.74154974979235" lon="10.379600515292625"><ele>135.0</ele><time>2026-04-23T17:21:24Z</time></trkpt><trkpt lat="42.74162097352196" lon="10.379645263794215"><ele>135.0</ele><time>2026-04-23T17:21:25Z</time></trkpt><trkpt lat="42.74169124267738" lon="10.379694831403183"><ele>135.0</ele><time>2026-04-23T17:21:26Z</time></trkpt><trkpt lat="42.74176292056069" lon="10.379746231079462"><ele>135.0</ele><time>2026-04-23T17:21:27Z</time></trkpt><trkpt lat="42.74183295926686" lon="10.379801322477071"><ele>135.0</ele><time>2026-04-23T17:21:28Z</time></trkpt><trkpt lat="42.74190338115923" lon="10.379856682077854"><ele>135.0</ele><time>2026-04-23T17:21:29Z</time></trkpt><trkpt lat="42.74197913097358" lon="10.379903614459051"><ele>138.66666666666666</ele><time>2026-04-23T17:21:30Z</time></trkpt><trkpt lat="42.74205333043807" lon="10.379947607284668"><ele>142.33333333333334</ele><time>2026-04-23T17:21:31Z</time></trkpt><trkpt lat="42.74213158176081" lon="10.37998467628981"><ele>146.0</ele><time>2026-04-23T17:21:32Z</time></trkpt><trkpt lat="42.74220589203038" lon="10.380016724622664"><ele>149.66666666666669</ele><time>2026-04-23T17:21:33Z</time></trkpt><trkpt lat="42.74227554730143" lon="10.380048799316837"><ele>153.33333333333334</ele><time>2026-04-23T17:21:34Z</time></trkpt><trkpt lat="42.742338319517884" lon="10.380097184913716"><ele>157.0</ele><time>2026-04-23T17:21:35Z</time></trkpt><trkpt lat="42.7423915637949" lon="10.380168497718659"><ele>156.99999999999997</ele><time>2026-04-23T17:21:36Z</time></trkpt><trkpt lat="42.74243170108632" lon="10.380255732360533"><ele>157.0</ele><time>2026-04-23T17:21:37Z</time></trkpt><trkpt lat="42.74245044069998" lon="10.380342334280035"><ele>157.0</ele><time>2026-04-23T17:21:38Z</time></trkpt><trkpt lat="42.74248760187332" lon="10.380415166666177"><ele>157.0</ele><time>2026-04-23T17:21:39Z</time></trkpt><trkpt lat="42.74254293220109" lon="10.380461698534143"><ele>157.0</ele><time>2026-04-23T17:21:40Z</time></trkpt><trkpt lat="42.74260358413288" lon="10.380484768373304"><ele>156.99999999999997</ele><time>2026-04-23T17:21:41Z</time></trkpt><trkpt lat="42.7427066098218" lon="10.380526859690315"><ele>157.0</ele><time>2026-04-23T17:21:43Z</time></trkpt><trkpt lat="42.742775371687735" lon="10.380596634201158"><ele>158.0</ele><time>2026-04-23T17:21:50Z</time></trkpt><trkpt lat="42.74285640801313" lon="10.380655354176971"><ele>159.0</ele><time>2026-04-23T17:21:52Z</time></trkpt><trkpt lat="42.74294837999116" lon="10.38072905958735"><ele>160.0</ele><time>2026-04-23T17:21:54Z</time></trkpt><trkpt lat="42.74301406968243" lon="10.380741820136485"><ele>161.0</ele><time>2026-04-23T17:21:55Z</time></trkpt><trkpt lat="42.7430787489143" lon="10.380743110572611"><ele>162.0</ele><time>2026-04-23T17:21:56Z</time></trkpt><trkpt lat="42.74317421874041" lon="10.38074477316768"><ele>163.0</ele><time>2026-04-23T17:21:58Z</time></trkpt><trkpt lat="42.743250173406445" lon="10.380826238824424"><ele>163.0</ele><time>2026-04-23T17:22:01Z</time></trkpt><trkpt lat="42.74322074521297" lon="10.380958094519757"><ele>163.0</ele><time>2026-04-23T17:22:03Z</time></trkpt><trkpt lat="42.743199574770614" lon="10.381040286679026"><ele>163.0</ele><time>2026-04-23T17:22:04Z</time></trkpt><trkpt lat="42.743183002468626" lon="10.381135176530664"><ele>163.0</ele><time>2026-04-23T17:22:05Z</time></trkpt><trkpt lat="42.74313173706138" lon="10.381207898805433"><ele>163.0</ele><time>2026-04-23T17:22:06Z</time></trkpt><trkpt lat="42.74307861068976" lon="10.381272248780357"><ele>163.0</ele><time>2026-04-23T17:22:07Z</time></trkpt><trkpt lat="42.74302086965885" lon="10.381333418178556"><ele>161.2857142857143</ele><time>2026-04-23T17:22:08Z</time></trkpt><trkpt lat="42.742963682009275" lon="10.381395118590026"><ele>159.57142857142856</ele><time>2026-04-23T17:22:09Z</time></trkpt><trkpt lat="42.74290839459057" lon="10.381457585988878"><ele>157.85714285714286</ele><time>2026-04-23T17:22:10Z</time></trkpt><trkpt lat="42.74286167718467" lon="10.381520147949766"><ele>156.14285714285717</ele><time>2026-04-23T17:22:11Z</time></trkpt><trkpt lat="42.74283139229462" lon="10.381595449781262"><ele>154.42857142857144</ele><time>2026-04-23T17:22:12Z</time></trkpt><trkpt lat="42.74278990149093" lon="10.38166745953341"><ele>152.71428571428572</ele><time>2026-04-23T17:22:13Z</time></trkpt><trkpt lat="42.742776748827964" lon="10.381756641663001"><ele>151.0</ele><time>2026-04-23T17:22:14Z</time></trkpt><trkpt lat="42.7427980621438" lon="10.381848471010834"><ele>151.00000000000003</ele><time>2026-04-23T17:22:15Z</time></trkpt><trkpt lat="42.74279571235532" lon="10.381939350623464"><ele>151.0</ele><time>2026-04-23T17:22:16Z</time></trkpt><trkpt lat="42.74281731199718" lon="10.382023597580687"><ele>151.0</ele><time>2026-04-23T17:22:17Z</time></trkpt><trkpt lat="42.74286146528442" lon="10.382100330458732"><ele>151.0</ele><time>2026-04-23T17:22:18Z</time></trkpt><trkpt lat="42.742917306306765" lon="10.382162821521096"><ele>151.0</ele><time>2026-04-23T17:22:19Z</time></trkpt><trkpt lat="42.74297696672117" lon="10.38221466264082"><ele>151.00000000000003</ele><time>2026-04-23T17:22:20Z</time></trkpt><trkpt lat="42.74304234970989" lon="10.382252080785408"><ele>151.0</ele><time>2026-04-23T17:22:21Z</time></trkpt><trkpt lat="42.74312329252314" lon="10.382235006451024"><ele>151.0</ele><time>2026-04-23T17:22:22Z</time></trkpt><trkpt lat="42.74319431617524" lon="10.382227747600385"><ele>151.0</ele><time>2026-04-23T17:22:23Z</time></trkpt><trkpt lat="42.74326933933037" lon="10.382201167671438"><ele>151.0</ele><time>2026-04-23T17:22:24Z</time></trkpt><trkpt lat="42.74334724730672" lon="10.382169994229967"><ele>151.0</ele><time>2026-04-23T17:22:25Z</time></trkpt><trkpt lat="42.743430068494696" lon="10.382139563130561"><ele>151.0</ele><time>2026-04-23T17:22:26Z</time></trkpt><trkpt lat="42.74351467121999" lon="10.382107366409903"><ele>151.0</ele><time>2026-04-23T17:22:27Z</time></trkpt><trkpt lat="42.74360084881716" lon="10.382071142843788"><ele>148.8</ele><time>2026-04-23T17:22:28Z</time></trkpt><trkpt lat="42.74368819662188" lon="10.382033069168987"><ele>146.6</ele><time>2026-04-23T17:22:29Z</time></trkpt><trkpt lat="42.743778427369044" lon="10.381991142729204"><ele>144.4</ele><time>2026-04-23T17:22:30Z</time></trkpt><trkpt lat="42.74387119502939" lon="10.38195372702034"><ele>142.2</ele><time>2026-04-23T17:22:31Z</time></trkpt><trkpt lat="42.743959973176175" lon="10.381915412423588"><ele>140.0</ele><time>2026-04-23T17:22:32Z</time></trkpt><trkpt lat="42.74403803555753" lon="10.381877718763109"><ele>140.0</ele><time>2026-04-23T17:22:33Z</time></trkpt><trkpt lat="42.74411005745311" lon="10.3818340087231"><ele>140.0</ele><time>2026-04-23T17:22:34Z</time></trkpt><trkpt lat="42.74418182876273" lon="10.381783732004417"><ele>140.0</ele><time>2026-04-23T17:22:35Z</time></trkpt><trkpt lat="42.74425197427921" lon="10.381729054984492"><ele>140.0</ele><time>2026-04-23T17:22:36Z</time></trkpt><trkpt lat="42.74432249061368" lon="10.38167855892594"><ele>140.0</ele><time>2026-04-23T17:22:37Z</time></trkpt><trkpt lat="42.74440347015566" lon="10.38165025333022"><ele>140.0</ele><time>2026-04-23T17:22:38Z</time></trkpt><trkpt lat="42.744479397014736" lon="10.38160601995243"><ele>138.66666666666666</ele><time>2026-04-23T17:22:39Z</time></trkpt><trkpt lat="42.744558396035174" lon="10.381564320970808"><ele>137.33333333333331</ele><time>2026-04-23T17:22:40Z</time></trkpt><trkpt lat="42.744631554552846" lon="10.381527632219498"><ele>136.0</ele><time>2026-04-23T17:22:41Z</time></trkpt><trkpt lat="42.74469808981218" lon="10.381495779302062"><ele>134.66666666666666</ele><time>2026-04-23T17:22:42Z</time></trkpt><trkpt lat="42.74477255341791" lon="10.38146660620255"><ele>133.33333333333334</ele><time>2026-04-23T17:22:43Z</time></trkpt><trkpt lat="42.74483537893904" lon="10.381452329620894"><ele>132.0</ele><time>2026-04-23T17:22:44Z</time></trkpt><trkpt lat="42.744913621424224" lon="10.38144008030337"><ele>132.0</ele><time>2026-04-23T17:22:45Z</time></trkpt><trkpt lat="42.74499661665003" lon="10.381433061012446"><ele>132.0</ele><time>2026-04-23T17:22:46Z</time></trkpt><trkpt lat="42.74508329997563" lon="10.38144079211988"><ele>132.0</ele><time>2026-04-23T17:22:47Z</time></trkpt><trkpt lat="42.745170509247835" lon="10.381446935396434"><ele>132.0</ele><time>2026-04-23T17:22:48Z</time></trkpt><trkpt lat="42.74525251296893" lon="10.381452589618181"><ele>132.0</ele><time>2026-04-23T17:22:49Z</time></trkpt><trkpt lat="42.74532529762697" lon="10.381457608166883"><ele>132.0</ele><time>2026-04-23T17:22:50Z</time></trkpt><trkpt lat="42.745446111439534" lon="10.38146371164648"><ele>130.16666666666666</ele><time>2026-04-23T17:22:52Z</time></trkpt><trkpt lat="42.7455142574116" lon="10.381467735721754"><ele>128.33333333333334</ele><time>2026-04-23T17:22:53Z</time></trkpt><trkpt lat="42.74559075673935" lon="10.381472253069996"><ele>126.5</ele><time>2026-04-23T17:22:54Z</time></trkpt><trkpt lat="42.745676142520466" lon="10.381444067594037"><ele>124.66666666666667</ele><time>2026-04-23T17:22:55Z</time></trkpt><trkpt lat="42.74577244413612" lon="10.381452847117806"><ele>122.83333333333334</ele><time>2026-04-23T17:22:56Z</time></trkpt><trkpt lat="42.74587686800208" lon="10.381458566045042"><ele>121.0</ele><time>2026-04-23T17:22:57Z</time></trkpt><trkpt lat="42.74598084638756" lon="10.381463882555968"><ele>119.8</ele><time>2026-04-23T17:22:58Z</time></trkpt><trkpt lat="42.74608514300108" lon="10.381475349823628"><ele>118.6</ele><time>2026-04-23T17:22:59Z</time></trkpt><trkpt lat="42.7461803871067" lon="10.38148096985544"><ele>117.4</ele><time>2026-04-23T17:23:00Z</time></trkpt><trkpt lat="42.746263590143336" lon="10.381484052507151"><ele>116.2</ele><time>2026-04-23T17:23:01Z</time></trkpt><trkpt lat="42.746342862235345" lon="10.381515363930383"><ele>115.0</ele><time>2026-04-23T17:23:02Z</time></trkpt><trkpt lat="42.74642687396255" lon="10.38152232432166"><ele>115.0</ele><time>2026-04-23T17:23:03Z</time></trkpt><trkpt lat="42.746511459011145" lon="10.381573661537217"><ele>115.0</ele><time>2026-04-23T17:23:04Z</time></trkpt><trkpt lat="42.74657977829376" lon="10.381664274053197"><ele>115.0</ele><time>2026-04-23T17:23:05Z</time></trkpt><trkpt lat="42.74666002876654" lon="10.381737497855092"><ele>115.0</ele><time>2026-04-23T17:23:06Z</time></trkpt><trkpt lat="42.74672031846408" lon="10.381849697987871"><ele>115.0</ele><time>2026-04-23T17:23:07Z</time></trkpt><trkpt lat="42.74677058853299" lon="10.381974310240835"><ele>115.0</ele><time>2026-04-23T17:23:08Z</time></trkpt><trkpt lat="42.74682515185532" lon="10.382098006607878"><ele>115.0</ele><time>2026-04-23T17:23:09Z</time></trkpt><trkpt lat="42.74688040270628" lon="10.382207270253918"><ele>115.0</ele><time>2026-04-23T17:23:10Z</time></trkpt><trkpt lat="42.746922851979136" lon="10.382320778395362"><ele>115.0</ele><time>2026-04-23T17:23:11Z</time></trkpt><trkpt lat="42.74697448468578" lon="10.382430057475338"><ele>115.0</ele><time>2026-04-23T17:23:12Z</time></trkpt><trkpt lat="42.74703220145691" lon="10.382536472608164"><ele>114.6</ele><time>2026-04-23T17:23:13Z</time></trkpt><trkpt lat="42.74710805753291" lon="10.382624494763643"><ele>114.2</ele><time>2026-04-23T17:23:14Z</time></trkpt><trkpt lat="42.74718973127505" lon="10.382700181385392"><ele>113.80000000000001</ele><time>2026-04-23T17:23:15Z</time></trkpt><trkpt lat="42.74728137718747" lon="10.382753560544986"><ele>113.4</ele><time>2026-04-23T17:23:16Z</time></trkpt><trkpt lat="42.74737289395263" lon="10.382790307857418"><ele>113.0</ele><time>2026-04-23T17:23:17Z</time></trkpt><trkpt lat="42.747459344149085" lon="10.382813999668274"><ele>113.0</ele><time>2026-04-23T17:23:18Z</time></trkpt><trkpt lat="42.74755019041803" lon="10.382813861043404"><ele>113.00000000000001</ele><time>2026-04-23T17:23:19Z</time></trkpt><trkpt lat="42.74764528872345" lon="10.382797908597016"><ele>113.00000000000001</ele><time>2026-04-23T17:23:20Z</time></trkpt><trkpt lat="42.74774096918327" lon="10.382765488441224"><ele>113.0</ele><time>2026-04-23T17:23:21Z</time></trkpt><trkpt lat="42.74783325015021" lon="10.382723034160673"><ele>113.0</ele><time>2026-04-23T17:23:22Z</time></trkpt><trkpt lat="42.74791454088555" lon="10.382671545556335"><ele>113.16666666666666</ele><time>2026-04-23T17:23:23Z</time></trkpt><trkpt lat="42.74798644840654" lon="10.382612287753169"><ele>113.33333333333333</ele><time>2026-04-23T17:23:24Z</time></trkpt><trkpt lat="42.74805370098208" lon="10.382542182887711"><ele>113.5</ele><time>2026-04-23T17:23:25Z</time></trkpt><trkpt lat="42.748116559142815" lon="10.382452131369046"><ele>113.66666666666666</ele><time>2026-04-23T17:23:26Z</time></trkpt><trkpt lat="42.748176265445956" lon="10.382360789385325"><ele>113.83333333333333</ele><time>2026-04-23T17:23:27Z</time></trkpt><trkpt lat="42.74822143182255" lon="10.382252312473536"><ele>114.0</ele><time>2026-04-23T17:23:28Z</time></trkpt><trkpt lat="42.74825995956122" lon="10.382138790192013"><ele>114.0</ele><time>2026-04-23T17:23:29Z</time></trkpt><trkpt lat="42.74828760851487" lon="10.382013254804727"><ele>114.0</ele><time>2026-04-23T17:23:30Z</time></trkpt><trkpt lat="42.748302454003166" lon="10.381883074686614"><ele>114.0</ele><time>2026-04-23T17:23:31Z</time></trkpt><trkpt lat="42.74830590632688" lon="10.381740991609139"><ele>114.0</ele><time>2026-04-23T17:23:32Z</time></trkpt><trkpt lat="42.74830011247905" lon="10.381595080069529"><ele>114.0</ele><time>2026-04-23T17:23:33Z</time></trkpt><trkpt lat="42.74829440095268" lon="10.381446042407605"><ele>115.0</ele><time>2026-04-23T17:23:34Z</time></trkpt><trkpt lat="42.748289793594274" lon="10.381298999721992"><ele>116.0</ele><time>2026-04-23T17:23:35Z</time></trkpt><trkpt lat="42.748286758027" lon="10.381151467256903"><ele>117.0</ele><time>2026-04-23T17:23:36Z</time></trkpt><trkpt lat="42.748281699031374" lon="10.381015940547853"><ele>118.0</ele><time>2026-04-23T17:23:37Z</time></trkpt><trkpt lat="42.74827698385531" lon="10.380894026397275"><ele>119.0</ele><time>2026-04-23T17:23:38Z</time></trkpt><trkpt lat="42.74827177059598" lon="10.380787451371388"><ele>119.0</ele><time>2026-04-23T17:23:39Z</time></trkpt><trkpt lat="42.74826641333907" lon="10.380676728015088"><ele>119.0</ele><time>2026-04-23T17:23:40Z</time></trkpt><trkpt lat="42.748263198700776" lon="10.380565784302753"><ele>119.0</ele><time>2026-04-23T17:23:41Z</time></trkpt><trkpt lat="42.74825663983908" lon="10.38045855377824"><ele>119.0</ele><time>2026-04-23T17:23:42Z</time></trkpt><trkpt lat="42.748247228801645" lon="10.380370392116266"><ele>119.0</ele><time>2026-04-23T17:23:43Z</time></trkpt><trkpt lat="42.748234038201915" lon="10.380281947588665"><ele>119.0</ele><time>2026-04-23T17:23:44Z</time></trkpt><trkpt lat="42.74820616209333" lon="10.380195167897048"><ele>119.0</ele><time>2026-04-23T17:23:45Z</time></trkpt><trkpt lat="42.74816080229537" lon="10.380110907264742"><ele>118.99999999999999</ele><time>2026-04-23T17:23:46Z</time></trkpt><trkpt lat="42.74811160047834" lon="10.380039268277676"><ele>119.0</ele><time>2026-04-23T17:23:47Z</time></trkpt><trkpt lat="42.748042918454566" lon="10.379982974370954"><ele>119.0</ele><time>2026-04-23T17:23:48Z</time></trkpt><trkpt lat="42.747970399999815" lon="10.379954944180385"><ele>119.0</ele><time>2026-04-23T17:23:49Z</time></trkpt><trkpt lat="42.7478898710179" lon="10.379944762516493"><ele>118.99999999999999</ele><time>2026-04-23T17:23:50Z</time></trkpt><trkpt lat="42.74780968572055" lon="10.379946901707907"><ele>119.0</ele><time>2026-04-23T17:23:51Z</time></trkpt><trkpt lat="42.74773383331184" lon="10.37993789711214"><ele>120.99999999999999</ele><time>2026-04-23T17:23:52Z</time></trkpt><trkpt lat="42.74766101448231" lon="10.379929671258509"><ele>123.0</ele><time>2026-04-23T17:23:53Z</time></trkpt><trkpt lat="42.74758640920485" lon="10.379931671669393"><ele>125.0</ele><time>2026-04-23T17:23:54Z</time></trkpt><trkpt lat="42.747510838452385" lon="10.37991883973836"><ele>127.0</ele><time>2026-04-23T17:23:55Z</time></trkpt><trkpt lat="42.74742663133784" lon="10.379898469805475"><ele>129.0</ele><time>2026-04-23T17:23:56Z</time></trkpt><trkpt lat="42.74736076643317" lon="10.379833922350507"><ele>131.0</ele><time>2026-04-23T17:23:57Z</time></trkpt><trkpt lat="42.747296924752305" lon="10.379767050736872"><ele>131.0</ele><time>2026-04-23T17:23:58Z</time></trkpt><trkpt lat="42.74724155758778" lon="10.379690514491449"><ele>131.0</ele><time>2026-04-23T17:23:59Z</time></trkpt><trkpt lat="42.74719802020561" lon="10.379601013628207"><ele>131.0</ele><time>2026-04-23T17:24:00Z</time></trkpt><trkpt lat="42.747161779941905" lon="10.379511129315249"><ele>131.0</ele><time>2026-04-23T17:24:01Z</time></trkpt><trkpt lat="42.747126388559" lon="10.379412364815625"><ele>131.0</ele><time>2026-04-23T17:24:02Z</time></trkpt><trkpt lat="42.74709194752124" lon="10.379316252384575"><ele>131.0</ele><time>2026-04-23T17:24:03Z</time></trkpt><trkpt lat="42.747061268456065" lon="10.379225552064819"><ele>130.16666666666666</ele><time>2026-04-23T17:24:04Z</time></trkpt><trkpt lat="42.74702899021999" lon="10.379129612266292"><ele>129.33333333333331</ele><time>2026-04-23T17:24:05Z</time></trkpt><trkpt lat="42.74700634884433" lon="10.379035125851809"><ele>128.5</ele><time>2026-04-23T17:24:06Z</time></trkpt><trkpt lat="42.746984908230694" lon="10.378933935057375"><ele>127.66666666666666</ele><time>2026-04-23T17:24:07Z</time></trkpt><trkpt lat="42.74696725978002" lon="10.378827308287761"><ele>126.83333333333333</ele><time>2026-04-23T17:24:08Z</time></trkpt><trkpt lat="42.74695133730838" lon="10.378717922227112"><ele>126.0</ele><time>2026-04-23T17:24:09Z</time></trkpt><trkpt lat="42.74692038967233" lon="10.378618823520918"><ele>124.6</ele><time>2026-04-23T17:24:10Z</time></trkpt><trkpt lat="42.74691096502607" lon="10.378524350820397"><ele>123.19999999999999</ele><time>2026-04-23T17:24:11Z</time></trkpt><trkpt lat="42.74689672983577" lon="10.378369106538868"><ele>121.80000000000001</ele><time>2026-04-23T17:24:13Z</time></trkpt><trkpt lat="42.74687757089781" lon="10.378190977937038"><ele>120.4</ele><time>2026-04-23T17:24:15Z</time></trkpt><trkpt lat="42.74684524624253" lon="10.37809454836177"><ele>119.0</ele><time>2026-04-23T17:24:16Z</time></trkpt><trkpt lat="42.746805741372405" lon="10.378008163566463"><ele>122.66666666666666</ele><time>2026-04-23T17:24:17Z</time></trkpt><trkpt lat="42.74677591536344" lon="10.377921052991882"><ele>126.33333333333333</ele><time>2026-04-23T17:24:18Z</time></trkpt><trkpt lat="42.74676098219834" lon="10.377828050896131"><ele>130.0</ele><time>2026-04-23T17:24:19Z</time></trkpt><trkpt lat="42.74674798491619" lon="10.377736733323857"><ele>133.66666666666666</ele><time>2026-04-23T17:24:20Z</time></trkpt><trkpt lat="42.74673137389358" lon="10.377627390787278"><ele>137.33333333333334</ele><time>2026-04-23T17:24:21Z</time></trkpt><trkpt lat="42.7467269954802" lon="10.377510374726567"><ele>141.0</ele><time>2026-04-23T17:24:22Z</time></trkpt><trkpt lat="42.746686794810536" lon="10.377396989863295"><ele>141.0</ele><time>2026-04-23T17:24:23Z</time></trkpt><trkpt lat="42.746659701680315" lon="10.377284870396455"><ele>141.0</ele><time>2026-04-23T17:24:24Z</time></trkpt><trkpt lat="42.746630759781" lon="10.377169851762782"><ele>141.0</ele><time>2026-04-23T17:24:25Z</time></trkpt><trkpt lat="42.74659494686695" lon="10.377045064233284"><ele>141.0</ele><time>2026-04-23T17:24:26Z</time></trkpt><trkpt lat="42.746563135720805" lon="10.376914567857906"><ele>141.0</ele><time>2026-04-23T17:24:27Z</time></trkpt><trkpt lat="42.74654174167654" lon="10.376783421757223"><ele>139.2</ele><time>2026-04-23T17:24:28Z</time></trkpt><trkpt lat="42.746523938666925" lon="10.376642286141742"><ele>137.39999999999998</ele><time>2026-04-23T17:24:29Z</time></trkpt><trkpt lat="42.746504046002215" lon="10.376497475804646"><ele>135.6</ele><time>2026-04-23T17:24:30Z</time></trkpt><trkpt lat="42.74648573766816" lon="10.376358107816287"><ele>133.79999999999998</ele><time>2026-04-23T17:24:31Z</time></trkpt><trkpt lat="42.74647201442326" lon="10.376223690924053"><ele>132.0</ele><time>2026-04-23T17:24:32Z</time></trkpt><trkpt lat="42.74644818458582" lon="10.37609342068074"><ele>129.79999999999998</ele><time>2026-04-23T17:24:33Z</time></trkpt><trkpt lat="42.74641210269597" lon="10.375971955768675"><ele>127.6</ele><time>2026-04-23T17:24:34Z</time></trkpt><trkpt lat="42.74636747101627" lon="10.375863363680702"><ele>125.39999999999999</ele><time>2026-04-23T17:24:35Z</time></trkpt><trkpt lat="42.746312136217504" lon="10.375762224204676"><ele>123.19999999999999</ele><time>2026-04-23T17:24:36Z</time></trkpt><trkpt lat="42.74625704162843" lon="10.37566655602832"><ele>121.0</ele><time>2026-04-23T17:24:37Z</time></trkpt><trkpt lat="42.74620992639263" lon="10.375577076694539"><ele>120.33333333333334</ele><time>2026-04-23T17:24:38Z</time></trkpt><trkpt lat="42.74617154161173" lon="10.37548273458693"><ele>119.66666666666667</ele><time>2026-04-23T17:24:39Z</time></trkpt><trkpt lat="42.746153594476986" lon="10.375377156882788"><ele>119.0</ele><time>2026-04-23T17:24:40Z</time></trkpt><trkpt lat="42.74614806683374" lon="10.375267060267948"><ele>118.33333333333334</ele><time>2026-04-23T17:24:41Z</time></trkpt><trkpt lat="42.746184170027966" lon="10.37515928218153"><ele>117.66666666666667</ele><time>2026-04-23T17:24:42Z</time></trkpt><trkpt lat="42.74620249618362" lon="10.375032481413195"><ele>117.0</ele><time>2026-04-23T17:24:43Z</time></trkpt><trkpt lat="42.74623693001762" lon="10.374910204461347"><ele>117.0</ele><time>2026-04-23T17:24:44Z</time></trkpt><trkpt lat="42.74625993060448" lon="10.374774037537573"><ele>116.99999999999999</ele><time>2026-04-23T17:24:45Z</time></trkpt><trkpt lat="42.74627133878237" lon="10.374640339142697"><ele>116.99999999999999</ele><time>2026-04-23T17:24:46Z</time></trkpt><trkpt lat="42.74627637825342" lon="10.374501533062746"><ele>117.0</ele><time>2026-04-23T17:24:47Z</time></trkpt><trkpt lat="42.746283335053384" lon="10.374356670922596"><ele>117.0</ele><time>2026-04-23T17:24:48Z</time></trkpt><trkpt lat="42.74628113963074" lon="10.374206995997016"><ele>116.19999999999999</ele><time>2026-04-23T17:24:49Z</time></trkpt><trkpt lat="42.74628180392956" lon="10.374063771357086"><ele>115.39999999999999</ele><time>2026-04-23T17:24:50Z</time></trkpt><trkpt lat="42.746284793652656" lon="10.373924257485427"><ele>114.60000000000001</ele><time>2026-04-23T17:24:51Z</time></trkpt><trkpt lat="42.74629985208939" lon="10.37377686921427"><ele>113.80000000000001</ele><time>2026-04-23T17:24:52Z</time></trkpt><trkpt lat="42.74632418773024" lon="10.373630723391843"><ele>113.0</ele><time>2026-04-23T17:24:53Z</time></trkpt><trkpt lat="42.74635848794008" lon="10.373485668556878"><ele>112.80000000000001</ele><time>2026-04-23T17:24:54Z</time></trkpt><trkpt lat="42.74639183662606" lon="10.373348794943578"><ele>112.60000000000001</ele><time>2026-04-23T17:24:55Z</time></trkpt><trkpt lat="42.74642163266554" lon="10.373207251678734"><ele>112.39999999999999</ele><time>2026-04-23T17:24:56Z</time></trkpt><trkpt lat="42.74645454196473" lon="10.373067386703022"><ele>112.19999999999999</ele><time>2026-04-23T17:24:57Z</time></trkpt><trkpt lat="42.746485861706745" lon="10.372927723044015"><ele>112.0</ele><time>2026-04-23T17:24:58Z</time></trkpt><trkpt lat="42.74651517545094" lon="10.372790913363804"><ele>112.39999999999999</ele><time>2026-04-23T17:24:59Z</time></trkpt><trkpt lat="42.7465535351241" lon="10.372663679690623"><ele>112.79999999999998</ele><time>2026-04-23T17:25:00Z</time></trkpt><trkpt lat="42.74660431992636" lon="10.372544804564505"><ele>113.2</ele><time>2026-04-23T17:25:01Z</time></trkpt><trkpt lat="42.74666073672855" lon="10.37242893058069"><ele>113.6</ele><time>2026-04-23T17:25:02Z</time></trkpt><trkpt lat="42.74671892494002" lon="10.372314792871933"><ele>114.0</ele><time>2026-04-23T17:25:03Z</time></trkpt><trkpt lat="42.74679301547014" lon="10.372205869528257"><ele>114.4</ele><time>2026-04-23T17:25:04Z</time></trkpt><trkpt lat="42.74687333261154" lon="10.372094907860113"><ele>114.80000000000001</ele><time>2026-04-23T17:25:05Z</time></trkpt><trkpt lat="42.74695155973788" lon="10.37199100169109"><ele>115.19999999999999</ele><time>2026-04-23T17:25:06Z</time></trkpt><trkpt lat="42.74703352967306" lon="10.371890796437254"><ele>115.6</ele><time>2026-04-23T17:25:07Z</time></trkpt><trkpt lat="42.74711763660567" lon="10.371798978230267"><ele>116.0</ele><time>2026-04-23T17:25:08Z</time></trkpt><trkpt lat="42.74720290621549" lon="10.37171612266847"><ele>114.8</ele><time>2026-04-23T17:25:09Z</time></trkpt><trkpt lat="42.747292134612344" lon="10.371639676195572"><ele>113.6</ele><time>2026-04-23T17:25:10Z</time></trkpt><trkpt lat="42.74737524548267" lon="10.371575295237836"><ele>112.4</ele><time>2026-04-23T17:25:11Z</time></trkpt><trkpt lat="42.74744689516802" lon="10.371507315238485"><ele>111.2</ele><time>2026-04-23T17:25:12Z</time></trkpt><trkpt lat="42.747512678956454" lon="10.371429877915038"><ele>110.0</ele><time>2026-04-23T17:25:13Z</time></trkpt><trkpt lat="42.74756641120882" lon="10.371338816715241"><ele>110.0</ele><time>2026-04-23T17:25:14Z</time></trkpt><trkpt lat="42.74761225268358" lon="10.371226059073038"><ele>110.0</ele><time>2026-04-23T17:25:15Z</time></trkpt><trkpt lat="42.74764736096905" lon="10.371107837113081"><ele>110.0</ele><time>2026-04-23T17:25:16Z</time></trkpt><trkpt lat="42.74767907816567" lon="10.370985902196077"><ele>110.0</ele><time>2026-04-23T17:25:17Z</time></trkpt><trkpt lat="42.747710203244814" lon="10.370869348705359"><ele>110.0</ele><time>2026-04-23T17:25:18Z</time></trkpt><trkpt lat="42.747739347906595" lon="10.370751258123217"><ele>107.2</ele><time>2026-04-23T17:25:19Z</time></trkpt><trkpt lat="42.74776913045875" lon="10.370621152662473"><ele>104.4</ele><time>2026-04-23T17:25:20Z</time></trkpt><trkpt lat="42.747812356822564" lon="10.370494354042386"><ele>101.6</ele><time>2026-04-23T17:25:21Z</time></trkpt><trkpt lat="42.747861228382106" lon="10.370377576197894"><ele>98.8</ele><time>2026-04-23T17:25:22Z</time></trkpt><trkpt lat="42.74791475124869" lon="10.370265306030632"><ele>96.0</ele><time>2026-04-23T17:25:23Z</time></trkpt><trkpt lat="42.74798227797826" lon="10.37016535026202"><ele>96.0</ele><time>2026-04-23T17:25:24Z</time></trkpt><trkpt lat="42.748055459985444" lon="10.37007006696173"><ele>96.0</ele><time>2026-04-23T17:25:25Z</time></trkpt><trkpt lat="42.74812470739819" lon="10.369970375395994"><ele>96.0</ele><time>2026-04-23T17:25:26Z</time></trkpt><trkpt lat="42.74818266786571" lon="10.369869738497174"><ele>96.0</ele><time>2026-04-23T17:25:27Z</time></trkpt><trkpt lat="42.748240885928325" lon="10.369765007834213"><ele>96.0</ele><time>2026-04-23T17:25:28Z</time></trkpt><trkpt lat="42.748285435628425" lon="10.369643156035513"><ele>95.6</ele><time>2026-04-23T17:25:29Z</time></trkpt><trkpt lat="42.74831822665208" lon="10.369514847233715"><ele>95.19999999999999</ele><time>2026-04-23T17:25:30Z</time></trkpt><trkpt lat="42.74834086465683" lon="10.36937763474277"><ele>94.80000000000001</ele><time>2026-04-23T17:25:31Z</time></trkpt><trkpt lat="42.748356768021246" lon="10.369241220427472"><ele>94.4</ele><time>2026-04-23T17:25:32Z</time></trkpt><trkpt lat="42.74837153582174" lon="10.369128212161527"><ele>94.0</ele><time>2026-04-23T17:25:33Z</time></trkpt><trkpt lat="42.74838717868581" lon="10.369032861172515"><ele>94.0</ele><time>2026-04-23T17:25:34Z</time></trkpt><trkpt lat="42.74843280820228" lon="10.368874243704443"><ele>94.0</ele><time>2026-04-23T17:25:36Z</time></trkpt><trkpt lat="42.74853160746479" lon="10.368780472279521"><ele>94.0</ele><time>2026-04-23T17:25:38Z</time></trkpt><trkpt lat="42.74860414477842" lon="10.368780987009675"><ele>94.0</ele><time>2026-04-23T17:25:39Z</time></trkpt><trkpt lat="42.74867017746616" lon="10.36880653196001"><ele>94.0</ele><time>2026-04-23T17:25:40Z</time></trkpt><trkpt lat="42.74872620788135" lon="10.368861370555827"><ele>92.71428571428571</ele><time>2026-04-23T17:25:41Z</time></trkpt><trkpt lat="42.74876405835754" lon="10.368940029757121"><ele>91.42857142857142</ele><time>2026-04-23T17:25:42Z</time></trkpt><trkpt lat="42.748799398471064" lon="10.369022197563329"><ele>90.14285714285714</ele><time>2026-04-23T17:25:43Z</time></trkpt><trkpt lat="42.748822077876284" lon="10.36910918203727"><ele>88.85714285714286</ele><time>2026-04-23T17:25:44Z</time></trkpt><trkpt lat="42.74882640240694" lon="10.369197694967536"><ele>87.57142857142857</ele><time>2026-04-23T17:25:45Z</time></trkpt><trkpt lat="42.748814538676235" lon="10.369297739133964"><ele>86.28571428571429</ele><time>2026-04-23T17:25:46Z</time></trkpt><trkpt lat="42.748793340654295" lon="10.369401888511673"><ele>85.0</ele><time>2026-04-23T17:25:47Z</time></trkpt><trkpt lat="42.74875193263013" lon="10.36950573446691"><ele>85.0</ele><time>2026-04-23T17:25:48Z</time></trkpt><trkpt lat="42.74870707676744" lon="10.369605795690857"><ele>85.0</ele><time>2026-04-23T17:25:49Z</time></trkpt><trkpt lat="42.7486630233287" lon="10.369716389586092"><ele>85.0</ele><time>2026-04-23T17:25:50Z</time></trkpt><trkpt lat="42.74860711217021" lon="10.369824546544326"><ele>85.0</ele><time>2026-04-23T17:25:51Z</time></trkpt><trkpt lat="42.748541807280894" lon="10.369928177689827"><ele>85.0</ele><time>2026-04-23T17:25:52Z</time></trkpt><trkpt lat="42.748469381274106" lon="10.370021069698696"><ele>87.2</ele><time>2026-04-23T17:25:53Z</time></trkpt><trkpt lat="42.74839006023313" lon="10.370095493619463"><ele>89.4</ele><time>2026-04-23T17:25:54Z</time></trkpt><trkpt lat="42.748325823456454" lon="10.370186406542187"><ele>91.6</ele><time>2026-04-23T17:25:55Z</time></trkpt><trkpt lat="42.74827234744032" lon="10.370283789640697"><ele>93.8</ele><time>2026-04-23T17:25:56Z</time></trkpt><trkpt lat="42.748226299470595" lon="10.370389604470171"><ele>96.0</ele><time>2026-04-23T17:25:57Z</time></trkpt><trkpt lat="42.74817265023306" lon="10.370502211261693"><ele>93.0</ele><time>2026-04-23T17:25:58Z</time></trkpt><trkpt lat="42.74814442877853" lon="10.370637434625383"><ele>90.0</ele><time>2026-04-23T17:25:59Z</time></trkpt><trkpt lat="42.74814553769684" lon="10.370792337357518"><ele>87.0</ele><time>2026-04-23T17:26:00Z</time></trkpt><trkpt lat="42.74811537690918" lon="10.370940962146223"><ele>84.0</ele><time>2026-04-23T17:26:01Z</time></trkpt><trkpt lat="42.748099493120534" lon="10.371093706519096"><ele>81.0</ele><time>2026-04-23T17:26:02Z</time></trkpt><trkpt lat="42.748084534674405" lon="10.37123827950401"><ele>79.8</ele><time>2026-04-23T17:26:03Z</time></trkpt><trkpt lat="42.748071011663455" lon="10.371376082729718"><ele>78.6</ele><time>2026-04-23T17:26:04Z</time></trkpt><trkpt lat="42.74805818246687" lon="10.371510108181438"><ele>77.4</ele><time>2026-04-23T17:26:05Z</time></trkpt><trkpt lat="42.74804666054467" lon="10.371650711354535"><ele>76.2</ele><time>2026-04-23T17:26:06Z</time></trkpt><trkpt lat="42.748034117185966" lon="10.371798013391842"><ele>75.0</ele><time>2026-04-23T17:26:07Z</time></trkpt><trkpt lat="42.748019387937184" lon="10.371950289538194"><ele>75.0</ele><time>2026-04-23T17:26:08Z</time></trkpt><trkpt lat="42.74800376551624" lon="10.372102592836217"><ele>75.0</ele><time>2026-04-23T17:26:09Z</time></trkpt><trkpt lat="42.74798740876426" lon="10.372246103471987"><ele>75.0</ele><time>2026-04-23T17:26:10Z</time></trkpt><trkpt lat="42.747970459304" lon="10.372387463659965"><ele>75.0</ele><time>2026-04-23T17:26:11Z</time></trkpt><trkpt lat="42.747954062532216" lon="10.372524897123018"><ele>75.0</ele><time>2026-04-23T17:26:12Z</time></trkpt><trkpt lat="42.74793894624433" lon="10.372661457749901"><ele>74.4</ele><time>2026-04-23T17:26:13Z</time></trkpt><trkpt lat="42.747940276575825" lon="10.372805584518332"><ele>73.8</ele><time>2026-04-23T17:26:14Z</time></trkpt><trkpt lat="42.74793446846579" lon="10.372950309083278"><ele>73.2</ele><time>2026-04-23T17:26:15Z</time></trkpt><trkpt lat="42.74792451067226" lon="10.37310223864388"><ele>72.6</ele><time>2026-04-23T17:26:16Z</time></trkpt><trkpt lat="42.74795952999867" lon="10.373261716256044"><ele>72.0</ele><time>2026-04-23T17:26:17Z</time></trkpt><trkpt lat="42.74802549208535" lon="10.3734018718151"><ele>72.0</ele><time>2026-04-23T17:26:18Z</time></trkpt><trkpt lat="42.74807773470762" lon="10.373545993272074"><ele>72.0</ele><time>2026-04-23T17:26:19Z</time></trkpt><trkpt lat="42.74811294437625" lon="10.3736890519402"><ele>72.0</ele><time>2026-04-23T17:26:20Z</time></trkpt><trkpt lat="42.74816364106533" lon="10.373820805194647"><ele>72.0</ele><time>2026-04-23T17:26:21Z</time></trkpt><trkpt lat="42.748220930006795" lon="10.373956838664512"><ele>72.5</ele><time>2026-04-23T17:26:22Z</time></trkpt><trkpt lat="42.748285770358805" lon="10.374094885530091"><ele>73.0</ele><time>2026-04-23T17:26:23Z</time></trkpt><trkpt lat="42.74834721387895" lon="10.374233035527338"><ele>73.5</ele><time>2026-04-23T17:26:24Z</time></trkpt><trkpt lat="42.74840992488655" lon="10.374363544534239"><ele>74.0</ele><time>2026-04-23T17:26:25Z</time></trkpt><trkpt lat="42.74847002960448" lon="10.374493934436636"><ele>74.0</ele><time>2026-04-23T17:26:26Z</time></trkpt><trkpt lat="42.74851661478895" lon="10.374624729879688"><ele>74.0</ele><time>2026-04-23T17:26:27Z</time></trkpt><trkpt lat="42.74855597962766" lon="10.374762870707297"><ele>74.0</ele><time>2026-04-23T17:26:28Z</time></trkpt><trkpt lat="42.74858991143145" lon="10.374902890707277"><ele>74.0</ele><time>2026-04-23T17:26:29Z</time></trkpt><trkpt lat="42.74861525087639" lon="10.375048215122526"><ele>74.0</ele><time>2026-04-23T17:26:30Z</time></trkpt><trkpt lat="42.74864350408997" lon="10.375191854372442"><ele>73.0</ele><time>2026-04-23T17:26:31Z</time></trkpt><trkpt lat="42.748673865156576" lon="10.375330019803302"><ele>72.0</ele><time>2026-04-23T17:26:32Z</time></trkpt><trkpt lat="42.74869874487128" lon="10.375451671974666"><ele>71.0</ele><time>2026-04-23T17:26:33Z</time></trkpt><trkpt lat="42.74871417432571" lon="10.375560910798834"><ele>70.0</ele><time>2026-04-23T17:26:34Z</time></trkpt><trkpt lat="42.748747014405964" lon="10.375650366643846"><ele>69.0</ele><time>2026-04-23T17:26:35Z</time></trkpt><trkpt lat="42.74880239247194" lon="10.375734261633323"><ele>68.0</ele><time>2026-04-23T17:26:36Z</time></trkpt><trkpt lat="42.74888301192449" lon="10.375783396201223"><ele>68.0</ele><time>2026-04-23T17:26:37Z</time></trkpt><trkpt lat="42.748986536466994" lon="10.375785508781101"><ele>68.0</ele><time>2026-04-23T17:26:38Z</time></trkpt><trkpt lat="42.74906370195866" lon="10.375741810058127"><ele>68.0</ele><time>2026-04-23T17:26:39Z</time></trkpt><trkpt lat="42.74916206901007" lon="10.375701336457507"><ele>68.0</ele><time>2026-04-23T17:26:40Z</time></trkpt><trkpt lat="42.749261132596224" lon="10.375656181793776"><ele>68.0</ele><time>2026-04-23T17:26:41Z</time></trkpt><trkpt lat="42.749355882580986" lon="10.375615398074572"><ele>66.16666666666667</ele><time>2026-04-23T17:26:42Z</time></trkpt><trkpt lat="42.749443210024786" lon="10.375582930574653"><ele>64.33333333333334</ele><time>2026-04-23T17:26:43Z</time></trkpt><trkpt lat="42.7495207219106" lon="10.375539608798332"><ele>62.5</ele><time>2026-04-23T17:26:44Z</time></trkpt><trkpt lat="42.74958310528682" lon="10.375525223780825"><ele>60.66666666666667</ele><time>2026-04-23T17:26:45Z</time></trkpt><trkpt lat="42.74964966934766" lon="10.375519909760474"><ele>58.833333333333336</ele><time>2026-04-23T17:26:46Z</time></trkpt><trkpt lat="42.74972401787184" lon="10.375531830308152"><ele>57.0</ele><time>2026-04-23T17:26:47Z</time></trkpt><trkpt lat="42.74980044890805" lon="10.375571202384037"><ele>57.0</ele><time>2026-04-23T17:26:48Z</time></trkpt><trkpt lat="42.749866743642926" lon="10.375636192837147"><ele>57.0</ele><time>2026-04-23T17:26:49Z</time></trkpt><trkpt lat="42.74992934429886" lon="10.37572223320449"><ele>57.0</ele><time>2026-04-23T17:26:50Z</time></trkpt><trkpt lat="42.749978342819965" lon="10.375829240843952"><ele>57.0</ele><time>2026-04-23T17:26:51Z</time></trkpt><trkpt lat="42.750022990252674" lon="10.375940655329353"><ele>57.0</ele><time>2026-04-23T17:26:52Z</time></trkpt><trkpt lat="42.750068064828874" lon="10.376065855526612"><ele>57.0</ele><time>2026-04-23T17:26:53Z</time></trkpt><trkpt lat="42.750119782047264" lon="10.376189366967681"><ele>57.0</ele><time>2026-04-23T17:26:54Z</time></trkpt><trkpt lat="42.75017396994246" lon="10.376313852097187"><ele>57.0</ele><time>2026-04-23T17:26:55Z</time></trkpt><trkpt lat="42.75022390823782" lon="10.376436180764195"><ele>57.0</ele><time>2026-04-23T17:26:56Z</time></trkpt><trkpt lat="42.75026743114757" lon="10.376553622842522"><ele>57.0</ele><time>2026-04-23T17:26:57Z</time></trkpt><trkpt lat="42.75031698594634" lon="10.376671192936572"><ele>54.6</ele><time>2026-04-23T17:26:58Z</time></trkpt><trkpt lat="42.75033401589922" lon="10.37681418286767"><ele>52.2</ele><time>2026-04-23T17:26:59Z</time></trkpt><trkpt lat="42.75038354312228" lon="10.376942743049218"><ele>49.8</ele><time>2026-04-23T17:27:00Z</time></trkpt><trkpt lat="42.75042766482492" lon="10.377057966767657"><ele>47.4</ele><time>2026-04-23T17:27:01Z</time></trkpt><trkpt lat="42.75047495832485" lon="10.377181473663526"><ele>45.0</ele><time>2026-04-23T17:27:02Z</time></trkpt><trkpt lat="42.750523325558376" lon="10.377307784571428"><ele>45.0</ele><time>2026-04-23T17:27:03Z</time></trkpt><trkpt lat="42.75057448929397" lon="10.377440272447823"><ele>45.0</ele><time>2026-04-23T17:27:04Z</time></trkpt><trkpt lat="42.75062651305414" lon="10.377574802491006"><ele>45.0</ele><time>2026-04-23T17:27:05Z</time></trkpt><trkpt lat="42.75067650278928" lon="10.377704072656925"><ele>45.0</ele><time>2026-04-23T17:27:06Z</time></trkpt><trkpt lat="42.7507247227528" lon="10.377828766342558"><ele>45.0</ele><time>2026-04-23T17:27:07Z</time></trkpt><trkpt lat="42.75077450853779" lon="10.377957509117351"><ele>46.6</ele><time>2026-04-23T17:27:08Z</time></trkpt><trkpt lat="42.750825845102014" lon="10.378086881777545"><ele>48.2</ele><time>2026-04-23T17:27:09Z</time></trkpt><trkpt lat="42.7508844192148" lon="10.378215447633844"><ele>49.8</ele><time>2026-04-23T17:27:10Z</time></trkpt><trkpt lat="42.75094473491786" lon="10.378335628516304"><ele>51.4</ele><time>2026-04-23T17:27:11Z</time></trkpt><trkpt lat="42.75100467766092" lon="10.37845375975799"><ele>53.0</ele><time>2026-04-23T17:27:12Z</time></trkpt><trkpt lat="42.75106215653368" lon="10.378566438343377"><ele>51.599999999999994</ele><time>2026-04-23T17:27:13Z</time></trkpt><trkpt lat="42.7511295711175" lon="10.378658384312828"><ele>50.199999999999996</ele><time>2026-04-23T17:27:14Z</time></trkpt><trkpt lat="42.751178664941904" lon="10.378784497423672"><ele>48.8</ele><time>2026-04-23T17:27:15Z</time></trkpt><trkpt lat="42.751237531910135" lon="10.378885395205096"><ele>47.4</ele><time>2026-04-23T17:27:16Z</time></trkpt><trkpt lat="42.751296338193434" lon="10.378972878662692"><ele>46.0</ele><time>2026-04-23T17:27:17Z</time></trkpt><trkpt lat="42.751371896078105" lon="10.379036357201075"><ele>46.0</ele><time>2026-04-23T17:27:18Z</time></trkpt><trkpt lat="42.75146524221777" lon="10.379067496290501"><ele>46.0</ele><time>2026-04-23T17:27:19Z</time></trkpt><trkpt lat="42.751560664247435" lon="10.379032004434915"><ele>46.0</ele><time>2026-04-23T17:27:20Z</time></trkpt><trkpt lat="42.75165162952987" lon="10.379008524482723"><ele>46.0</ele><time>2026-04-23T17:27:21Z</time></trkpt><trkpt lat="42.75172686747431" lon="10.378980712295549"><ele>46.0</ele><time>2026-04-23T17:27:22Z</time></trkpt><trkpt lat="42.75180374991353" lon="10.378953707684108"><ele>46.0</ele><time>2026-04-23T17:27:23Z</time></trkpt><trkpt lat="42.7518768605282" lon="10.378933013450977"><ele>44.16666666666667</ele><time>2026-04-23T17:27:24Z</time></trkpt><trkpt lat="42.75194617309289" lon="10.378943846866726"><ele>42.333333333333336</ele><time>2026-04-23T17:27:25Z</time></trkpt><trkpt lat="42.75201993584604" lon="10.37897663492801"><ele>40.5</ele><time>2026-04-23T17:27:26Z</time></trkpt><trkpt lat="42.75208502739785" lon="10.379051843990533"><ele>38.666666666666664</ele><time>2026-04-23T17:27:27Z</time></trkpt><trkpt lat="42.752152762197106" lon="10.379114879620186"><ele>36.83333333333333</ele><time>2026-04-23T17:27:28Z</time></trkpt><trkpt lat="42.752220328705825" lon="10.379177758437471"><ele>35.0</ele><time>2026-04-23T17:27:29Z</time></trkpt><trkpt lat="42.752295760215404" lon="10.37924795653254"><ele>35.0</ele><time>2026-04-23T17:27:30Z</time></trkpt><trkpt lat="42.752376696037636" lon="10.379323277498838"><ele>35.0</ele><time>2026-04-23T17:27:31Z</time></trkpt><trkpt lat="42.752458201733454" lon="10.379399128642277"><ele>35.0</ele><time>2026-04-23T17:27:32Z</time></trkpt><trkpt lat="42.75253654345761" lon="10.379472038952864"><ele>35.0</ele><time>2026-04-23T17:27:33Z</time></trkpt><trkpt lat="42.75261675417434" lon="10.379539154605917"><ele>35.0</ele><time>2026-04-23T17:27:34Z</time></trkpt><trkpt lat="42.75270692922618" lon="10.379598945934854"><ele>35.2</ele><time>2026-04-23T17:27:35Z</time></trkpt><trkpt lat="42.75278389286624" lon="10.379673142684718"><ele>35.4</ele><time>2026-04-23T17:27:36Z</time></trkpt><trkpt lat="42.752862902810584" lon="10.379746168541372"><ele>35.6</ele><time>2026-04-23T17:27:37Z</time></trkpt><trkpt lat="42.75293617864122" lon="10.379809806529618"><ele>35.8</ele><time>2026-04-23T17:27:38Z</time></trkpt><trkpt lat="42.75300855265931" lon="10.379879339520032"><ele>36.0</ele><time>2026-04-23T17:27:39Z</time></trkpt><trkpt lat="42.75309074105483" lon="10.379919419779753"><ele>36.0</ele><time>2026-04-23T17:27:40Z</time></trkpt><trkpt lat="42.753174158704425" lon="10.379934330051373"><ele>36.0</ele><time>2026-04-23T17:27:41Z</time></trkpt><trkpt lat="42.75326982701907" lon="10.379913670974814"><ele>36.0</ele><time>2026-04-23T17:27:42Z</time></trkpt><trkpt lat="42.75336595784986" lon="10.379901471559345"><ele>36.0</ele><time>2026-04-23T17:27:43Z</time></trkpt><trkpt lat="42.75345778070121" lon="10.379883309285205"><ele>36.0</ele><time>2026-04-23T17:27:44Z</time></trkpt><trkpt lat="42.753541400078355" lon="10.379855887018307"><ele>35.6</ele><time>2026-04-23T17:27:45Z</time></trkpt><trkpt lat="42.75362621373607" lon="10.379827133165191"><ele>35.2</ele><time>2026-04-23T17:27:46Z</time></trkpt><trkpt lat="42.75371371072588" lon="10.379798596594648"><ele>34.8</ele><time>2026-04-23T17:27:47Z</time></trkpt><trkpt lat="42.75380050525119" lon="10.379772719381055"><ele>34.4</ele><time>2026-04-23T17:27:48Z</time></trkpt><trkpt lat="42.75389722140757" lon="10.37974434837009"><ele>34.0</ele><time>2026-04-23T17:27:49Z</time></trkpt><trkpt lat="42.753992131171366" lon="10.379723333636234"><ele>34.0</ele><time>2026-04-23T17:27:50Z</time></trkpt><trkpt lat="42.75408445202027" lon="10.379689325529178"><ele>34.0</ele><time>2026-04-23T17:27:51Z</time></trkpt><trkpt lat="42.754162196945146" lon="10.37966083401755"><ele>34.0</ele><time>2026-04-23T17:27:52Z</time></trkpt><trkpt lat="42.75423674086314" lon="10.37960957406876"><ele>34.0</ele><time>2026-04-23T17:27:53Z</time></trkpt><trkpt lat="42.75431068945579" lon="10.379544332229678"><ele>34.0</ele><time>2026-04-23T17:27:54Z</time></trkpt><trkpt lat="42.75438317244777" lon="10.379456419554952"><ele>34.0</ele><time>2026-04-23T17:27:55Z</time></trkpt><trkpt lat="42.754458539761" lon="10.379368367287489"><ele>31.799999999999997</ele><time>2026-04-23T17:27:56Z</time></trkpt><trkpt lat="42.754533813451104" lon="10.37927123405302"><ele>29.599999999999998</ele><time>2026-04-23T17:27:57Z</time></trkpt><trkpt lat="42.75460222315162" lon="10.37918828156517"><ele>27.4</ele><time>2026-04-23T17:27:58Z</time></trkpt><trkpt lat="42.75466762853073" lon="10.379112843395484"><ele>25.2</ele><time>2026-04-23T17:27:59Z</time></trkpt><trkpt lat="42.75474384923908" lon="10.379047264778508"><ele>23.0</ele><time>2026-04-23T17:28:00Z</time></trkpt><trkpt lat="42.75482417437212" lon="10.379001752741754"><ele>23.0</ele><time>2026-04-23T17:28:01Z</time></trkpt><trkpt lat="42.75490830715631" lon="10.378954339860249"><ele>23.0</ele><time>2026-04-23T17:28:02Z</time></trkpt><trkpt lat="42.755002538504314" lon="10.378929711525947"><ele>23.0</ele><time>2026-04-23T17:28:03Z</time></trkpt><trkpt lat="42.75510235266836" lon="10.378924714165745"><ele>23.0</ele><time>2026-04-23T17:28:04Z</time></trkpt><trkpt lat="42.755203918161676" lon="10.378937584240969"><ele>23.0</ele><time>2026-04-23T17:28:05Z</time></trkpt><trkpt lat="42.755307012236486" lon="10.378957052753647"><ele>21.0</ele><time>2026-04-23T17:28:06Z</time></trkpt><trkpt lat="42.75540959463999" lon="10.378982113285728"><ele>19.0</ele><time>2026-04-23T17:28:07Z</time></trkpt><trkpt lat="42.75550917908185" lon="10.378998606539175"><ele>17.0</ele><time>2026-04-23T17:28:08Z</time></trkpt><trkpt lat="42.755607443288554" lon="10.379013942845143"><ele>15.0</ele><time>2026-04-23T17:28:09Z</time></trkpt><trkpt lat="42.755706329475395" lon="10.379039001816762"><ele>13.0</ele><time>2026-04-23T17:28:10Z</time></trkpt><trkpt lat="42.75580523686568" lon="10.379061052299045"><ele>13.0</ele><time>2026-04-23T17:28:11Z</time></trkpt><trkpt lat="42.755902837570076" lon="10.379084002140377"><ele>13.0</ele><time>2026-04-23T17:28:12Z</time></trkpt><trkpt lat="42.75600216985759" lon="10.37910619690847"><ele>13.0</ele><time>2026-04-23T17:28:13Z</time></trkpt><trkpt lat="42.75610305907278" lon="10.379137160318818"><ele>13.0</ele><time>2026-04-23T17:28:14Z</time></trkpt><trkpt lat="42.75620428032902" lon="10.379162513283546"><ele>13.0</ele><time>2026-04-23T17:28:15Z</time></trkpt><trkpt lat="42.75630064422013" lon="10.379201296653585"><ele>11.6</ele><time>2026-04-23T17:28:16Z</time></trkpt><trkpt lat="42.75639898964141" lon="10.379249118416574"><ele>10.200000000000001</ele><time>2026-04-23T17:28:17Z</time></trkpt><trkpt lat="42.75649866125834" lon="10.379302427220795"><ele>8.8</ele><time>2026-04-23T17:28:18Z</time></trkpt><trkpt lat="42.75659296676756" lon="10.37934970967283"><ele>7.4</ele><time>2026-04-23T17:28:19Z</time></trkpt><trkpt lat="42.756681043440864" lon="10.379393904635823"><ele>6.0</ele><time>2026-04-23T17:28:20Z</time></trkpt><trkpt lat="42.756763282652614" lon="10.379436579136945"><ele>6.0</ele><time>2026-04-23T17:28:21Z</time></trkpt><trkpt lat="42.75683348043094" lon="10.379502763365771"><ele>6.0</ele><time>2026-04-23T17:28:22Z</time></trkpt><trkpt lat="42.75690015164881" lon="10.379579584199465"><ele>6.0</ele><time>2026-04-23T17:28:23Z</time></trkpt><trkpt lat="42.756942295845896" lon="10.379685308506515"><ele>6.0</ele><time>2026-04-23T17:28:24Z</time></trkpt><trkpt lat="42.75699364444686" lon="10.379776314365985"><ele>6.0</ele><time>2026-04-23T17:28:25Z</time></trkpt><trkpt lat="42.75704459847687" lon="10.379852604124755"><ele>6.0</ele><time>2026-04-23T17:28:26Z</time></trkpt><trkpt lat="42.75709318948342" lon="10.379921799663576"><ele>5.2</ele><time>2026-04-23T17:28:27Z</time></trkpt><trkpt lat="42.75719614459138" lon="10.379948318073104"><ele>4.3999999999999995</ele><time>2026-04-23T17:28:28Z</time></trkpt><trkpt lat="42.75728483469782" lon="10.379963820607106"><ele>3.6</ele><time>2026-04-23T17:28:29Z</time></trkpt><trkpt lat="42.757380395518595" lon="10.379927011682495"><ele>2.8</ele><time>2026-04-23T17:28:30Z</time></trkpt><trkpt lat="42.75747131390831" lon="10.379899591636052"><ele>2.0</ele><time>2026-04-23T17:28:31Z</time></trkpt><trkpt lat="42.75755255654418" lon="10.37987192629022"><ele>1.9999999999999998</ele><time>2026-04-23T17:28:32Z</time></trkpt><trkpt lat="42.75762943903778" lon="10.379848436659994"><ele>2.0</ele><time>2026-04-23T17:28:33Z</time></trkpt><trkpt lat="42.75771523897078" lon="10.379825798167303"><ele>2.0</ele><time>2026-04-23T17:28:34Z</time></trkpt><trkpt lat="42.75780091525257" lon="10.37980389149932"><ele>2.0</ele><time>2026-04-23T17:28:35Z</time></trkpt><trkpt lat="42.75789059892408" lon="10.379785142981953"><ele>1.9999999999999998</ele><time>2026-04-23T17:28:36Z</time></trkpt><trkpt lat="42.75798484211949" lon="10.379781495686693"><ele>2.0</ele><time>2026-04-23T17:28:37Z</time></trkpt><trkpt lat="42.75808039893566" lon="10.3797777731175"><ele>2.0</ele><time>2026-04-23T17:28:38Z</time></trkpt><trkpt lat="42.75817857992753" lon="10.379775027247776"><ele>2.0</ele><time>2026-04-23T17:28:39Z</time></trkpt><trkpt lat="42.75827137244315" lon="10.379770995630986"><ele>2.0</ele><time>2026-04-23T17:28:40Z</time></trkpt><trkpt lat="42.75836654016153" lon="10.379767971558334"><ele>2.0</ele><time>2026-04-23T17:28:41Z</time></trkpt><trkpt lat="42.75845904558359" lon="10.379762770668979"><ele>2.0</ele><time>2026-04-23T17:28:42Z</time></trkpt><trkpt lat="42.758547630535354" lon="10.379756721139042"><ele>1.9999999999999998</ele><time>2026-04-23T17:28:43Z</time></trkpt><trkpt lat="42.75862941330301" lon="10.379759286802166"><ele>2.0</ele><time>2026-04-23T17:28:44Z</time></trkpt><trkpt lat="42.758706920405096" lon="10.379763587553938"><ele>2.0</ele><time>2026-04-23T17:28:45Z</time></trkpt><trkpt lat="42.758786364016046" lon="10.379768919542252"><ele>2.0</ele><time>2026-04-23T17:28:46Z</time></trkpt><trkpt lat="42.75886178620231" lon="10.379778789988205"><ele>1.9999999999999998</ele><time>2026-04-23T17:28:47Z</time></trkpt><trkpt lat="42.758928568833255" lon="10.37979009222511"><ele>2.0</ele><time>2026-04-23T17:28:48Z</time></trkpt><trkpt lat="42.759020120810966" lon="10.379787543875752"><ele>2.0</ele><time>2026-04-23T17:28:50Z</time></trkpt><trkpt lat="42.759101728204165" lon="10.379917631639533"><ele>2.0</ele><time>2026-04-23T17:28:53Z</time></trkpt><trkpt lat="42.75913415939018" lon="10.379992254862552"><ele>2.0</ele><time>2026-04-23T17:28:56Z</time></trkpt><trkpt lat="42.7591851039986" lon="10.380080613805733"><ele>2.0</ele><time>2026-04-23T17:29:08Z</time></trkpt><trkpt lat="42.75920497372837" lon="10.38022446516793"><ele>2.0</ele><time>2026-04-23T17:29:10Z</time></trkpt><trkpt lat="42.75921134689256" lon="10.380393506332643"><ele>1.9999999999999998</ele><time>2026-04-23T17:29:12Z</time></trkpt><trkpt lat="42.759202782212995" lon="10.380479453272047"><ele>2.0</ele><time>2026-04-23T17:29:13Z</time></trkpt><trkpt lat="42.75919765993269" lon="10.380610814193997"><ele>2.0</ele><time>2026-04-23T17:29:15Z</time></trkpt><trkpt lat="42.75921374264055" lon="10.380705164998819"><ele>2.0</ele><time>2026-04-23T17:29:19Z</time></trkpt><trkpt lat="42.7592098146897" lon="10.380792517817087"><ele>1.9999999999999998</ele><time>2026-04-23T17:29:38Z</time></trkpt><trkpt lat="42.75921959798895" lon="10.38094753555453"><ele>2.0</ele><time>2026-04-23T17:29:40Z</time></trkpt><trkpt lat="42.75922592922056" lon="10.38104785468561"><ele>1.8</ele><time>2026-04-23T17:29:41Z</time></trkpt><trkpt lat="42.759231980227675" lon="10.38115777728233"><ele>1.6</ele><time>2026-04-23T17:29:42Z</time></trkpt><trkpt lat="42.759238475007514" lon="10.381281981747753"><ele>1.4000000000000001</ele><time>2026-04-23T17:29:43Z</time></trkpt><trkpt lat="42.75924512170605" lon="10.381409091636327"><ele>1.2000000000000002</ele><time>2026-04-23T17:29:44Z</time></trkpt><trkpt lat="42.759252452123185" lon="10.38154927685198"><ele>1.0</ele><time>2026-04-23T17:29:45Z</time></trkpt><trkpt lat="42.75927678799168" lon="10.381696513468349"><ele>1.0</ele><time>2026-04-23T17:29:46Z</time></trkpt><trkpt lat="42.759284013891616" lon="10.38185294038776"><ele>1.0</ele><time>2026-04-23T17:29:47Z</time></trkpt><trkpt lat="42.75928363735113" lon="10.382009711910804"><ele>1.0</ele><time>2026-04-23T17:29:48Z</time></trkpt><trkpt lat="42.759293368987684" lon="10.382168623361064"><ele>1.0</ele><time>2026-04-23T17:29:49Z</time></trkpt><trkpt lat="42.75929237996927" lon="10.382335704960196"><ele>1.25</ele><time>2026-04-23T17:29:50Z</time></trkpt><trkpt lat="42.75930299258113" lon="10.382505958325945"><ele>1.5</ele><time>2026-04-23T17:29:51Z</time></trkpt><trkpt lat="42.759315490295265" lon="10.38267750513459"><ele>1.75</ele><time>2026-04-23T17:29:52Z</time></trkpt><trkpt lat="42.759330408946646" lon="10.382845381245597"><ele>2.0</ele><time>2026-04-23T17:29:53Z</time></trkpt><trkpt lat="42.75934634212679" lon="10.38300929065096"><ele>1.5</ele><time>2026-04-23T17:29:54Z</time></trkpt><trkpt lat="42.75935748160173" lon="10.383166861751958"><ele>1.0</ele><time>2026-04-23T17:29:55Z</time></trkpt><trkpt lat="42.75939502430498" lon="10.383327811524401"><ele>0.5</ele><time>2026-04-23T17:29:56Z</time></trkpt><trkpt lat="42.759445149768496" lon="10.38348880869372"><ele>0.0</ele><time>2026-04-23T17:29:57Z</time></trkpt><trkpt lat="42.759509840436955" lon="10.383646345155585"><ele>2.0</ele><time>2026-04-23T17:29:58Z</time></trkpt><trkpt lat="42.75958573767693" lon="10.383798952472437"><ele>4.0</ele><time>2026-04-23T17:29:59Z</time></trkpt><trkpt lat="42.75967522353668" lon="10.383942843889661"><ele>6.0</ele><time>2026-04-23T17:30:00Z</time></trkpt><trkpt lat="42.75975839787605" lon="10.384077903478175"><ele>8.0</ele><time>2026-04-23T17:30:01Z</time></trkpt><trkpt lat="42.759854233372884" lon="10.384211436973494"><ele>8.0</ele><time>2026-04-23T17:30:02Z</time></trkpt><trkpt lat="42.7599444529702" lon="10.384344638253555"><ele>8.0</ele><time>2026-04-23T17:30:03Z</time></trkpt><trkpt lat="42.760041536027096" lon="10.384474388064497"><ele>8.0</ele><time>2026-04-23T17:30:04Z</time></trkpt><trkpt lat="42.76013401557898" lon="10.384603163526643"><ele>8.0</ele><time>2026-04-23T17:30:05Z</time></trkpt><trkpt lat="42.76022474785036" lon="10.384731208482739"><ele>10.25</ele><time>2026-04-23T17:30:06Z</time></trkpt><trkpt lat="42.76032127426163" lon="10.384862188204448"><ele>12.5</ele><time>2026-04-23T17:30:07Z</time></trkpt><trkpt lat="42.76041765925503" lon="10.384993780538743"><ele>14.75</ele><time>2026-04-23T17:30:08Z</time></trkpt><trkpt lat="42.7605091655153" lon="10.38512543062585"><ele>17.0</ele><time>2026-04-23T17:30:09Z</time></trkpt><trkpt lat="42.76060567922344" lon="10.385253361578846"><ele>17.0</ele><time>2026-04-23T17:30:10Z</time></trkpt><trkpt lat="42.76069822265803" lon="10.38538206985926"><ele>17.0</ele><time>2026-04-23T17:30:11Z</time></trkpt><trkpt lat="42.760791985345435" lon="10.385510445328936"><ele>17.0</ele><time>2026-04-23T17:30:12Z</time></trkpt><trkpt lat="42.76088240397298" lon="10.385639225290694"><ele>17.0</ele><time>2026-04-23T17:30:13Z</time></trkpt><trkpt lat="42.76097235229222" lon="10.385767089532719"><ele>17.75</ele><time>2026-04-23T17:30:14Z</time></trkpt><trkpt lat="42.76105282270117" lon="10.385908425698782"><ele>18.5</ele><time>2026-04-23T17:30:15Z</time></trkpt><trkpt lat="42.76114547566929" lon="10.386037620154251"><ele>19.25</ele><time>2026-04-23T17:30:16Z</time></trkpt><trkpt lat="42.76123949511233" lon="10.386165636840419"><ele>20.0</ele><time>2026-04-23T17:30:17Z</time></trkpt><trkpt lat="42.761327054438446" lon="10.386286649259944"><ele>16.75</ele><time>2026-04-23T17:30:18Z</time></trkpt><trkpt lat="42.76140977133499" lon="10.386404578947891"><ele>13.5</ele><time>2026-04-23T17:30:19Z</time></trkpt><trkpt lat="42.76149214138727" lon="10.386518871020062"><ele>10.25</ele><time>2026-04-23T17:30:20Z</time></trkpt><trkpt lat="42.761573894176045" lon="10.386631833589451"><ele>7.0</ele><time>2026-04-23T17:30:21Z</time></trkpt><trkpt lat="42.76164591307954" lon="10.38675580668787"><ele>7.0</ele><time>2026-04-23T17:30:22Z</time></trkpt><trkpt lat="42.76170505406606" lon="10.386897122243528"><ele>7.0</ele><time>2026-04-23T17:30:23Z</time></trkpt><trkpt lat="42.761756366242764" lon="10.387052200852752"><ele>7.0</ele><time>2026-04-23T17:30:24Z</time></trkpt><trkpt lat="42.76179145273172" lon="10.387200940902249"><ele>7.0</ele><time>2026-04-23T17:30:25Z</time></trkpt><trkpt lat="42.76182441631544" lon="10.387339146757"><ele>6.8</ele><time>2026-04-23T17:30:26Z</time></trkpt><trkpt lat="42.76184025568375" lon="10.387461098295919"><ele>6.6</ele><time>2026-04-23T17:30:27Z</time></trkpt><trkpt lat="42.76183147813683" lon="10.38758702087704"><ele>6.3999999999999995</ele><time>2026-04-23T17:30:28Z</time></trkpt><trkpt lat="42.761796658448695" lon="10.387708437442866"><ele>6.199999999999999</ele><time>2026-04-23T17:30:29Z</time></trkpt><trkpt lat="42.76174827932799" lon="10.387831438392139"><ele>6.0</ele><time>2026-04-23T17:30:30Z</time></trkpt><trkpt lat="42.761691794085266" lon="10.38795716196522"><ele>6.8</ele><time>2026-04-23T17:30:31Z</time></trkpt><trkpt lat="42.76163285834724" lon="10.388082869248272"><ele>7.6</ele><time>2026-04-23T17:30:32Z</time></trkpt><trkpt lat="42.7615772374721" lon="10.38820511837958"><ele>8.4</ele><time>2026-04-23T17:30:33Z</time></trkpt><trkpt lat="42.7615277184167" lon="10.388323585816678"><ele>9.2</ele><time>2026-04-23T17:30:34Z</time></trkpt><trkpt lat="42.76149226364691" lon="10.388441091001098"><ele>10.0</ele><time>2026-04-23T17:30:35Z</time></trkpt><trkpt lat="42.76148070649486" lon="10.388574560483281"><ele>10.0</ele><time>2026-04-23T17:30:36Z</time></trkpt><trkpt lat="42.76149396325466" lon="10.388706951131505"><ele>10.0</ele><time>2026-04-23T17:30:37Z</time></trkpt><trkpt lat="42.761525846652965" lon="10.388840687699355"><ele>10.0</ele><time>2026-04-23T17:30:38Z</time></trkpt><trkpt lat="42.76156034028178" lon="10.388974286211928"><ele>10.0</ele><time>2026-04-23T17:30:39Z</time></trkpt><trkpt lat="42.761589896444086" lon="10.389112672553047"><ele>10.0</ele><time>2026-04-23T17:30:40Z</time></trkpt><trkpt lat="42.76166091050192" lon="10.389227416086026"><ele>10.25</ele><time>2026-04-23T17:30:41Z</time></trkpt><trkpt lat="42.761737521332066" lon="10.38933813645273"><ele>10.5</ele><time>2026-04-23T17:30:42Z</time></trkpt><trkpt lat="42.76181393393146" lon="10.389450023335563"><ele>10.75</ele><time>2026-04-23T17:30:43Z</time></trkpt><trkpt lat="42.761873920656946" lon="10.38957829433068"><ele>11.0</ele><time>2026-04-23T17:30:44Z</time></trkpt><trkpt lat="42.76190231930772" lon="10.389730098488455"><ele>16.25</ele><time>2026-04-23T17:30:45Z</time></trkpt><trkpt lat="42.761942233131876" lon="10.389873744432899"><ele>21.5</ele><time>2026-04-23T17:30:46Z</time></trkpt><trkpt lat="42.761991055792315" lon="10.390012913352757"><ele>26.75</ele><time>2026-04-23T17:30:47Z</time></trkpt><trkpt lat="42.76207758637811" lon="10.390132426127261"><ele>32.0</ele><time>2026-04-23T17:30:48Z</time></trkpt><trkpt lat="42.76216232528842" lon="10.39024386214222"><ele>31.999999999999996</ele><time>2026-04-23T17:30:49Z</time></trkpt><trkpt lat="42.762242051770706" lon="10.390344527138268"><ele>32.0</ele><time>2026-04-23T17:30:50Z</time></trkpt><trkpt lat="42.76229924113007" lon="10.390430101924796"><ele>32.0</ele><time>2026-04-23T17:30:51Z</time></trkpt><trkpt lat="42.76233616770566" lon="10.390512321555256"><ele>32.0</ele><time>2026-04-23T17:30:52Z</time></trkpt><trkpt lat="42.76234369400454" lon="10.390605811598503"><ele>31.999999999999996</ele><time>2026-04-23T17:30:53Z</time></trkpt><trkpt lat="42.76236723381199" lon="10.390710828784492"><ele>32.0</ele><time>2026-04-23T17:30:54Z</time></trkpt><trkpt lat="42.76233911980661" lon="10.3908179108718"><ele>30.833333333333332</ele><time>2026-04-23T17:30:55Z</time></trkpt><trkpt lat="42.76231115475901" lon="10.390926337638382"><ele>29.666666666666664</ele><time>2026-04-23T17:30:56Z</time></trkpt><trkpt lat="42.76230077016401" lon="10.391041138386786"><ele>28.5</ele><time>2026-04-23T17:30:57Z</time></trkpt><trkpt lat="42.76229699135226" lon="10.391165326380838"><ele>27.333333333333336</ele><time>2026-04-23T17:30:58Z</time></trkpt><trkpt lat="42.762351495929956" lon="10.391270118938454"><ele>26.166666666666668</ele><time>2026-04-23T17:30:59Z</time></trkpt><trkpt lat="42.762398252473815" lon="10.391373580076534"><ele>25.0</ele><time>2026-04-23T17:31:00Z</time></trkpt><trkpt lat="42.76244445933044" lon="10.391480664946135"><ele>24.166666666666668</ele><time>2026-04-23T17:31:01Z</time></trkpt><trkpt lat="42.76247320375876" lon="10.391577459129223"><ele>23.333333333333336</ele><time>2026-04-23T17:31:02Z</time></trkpt><trkpt lat="42.76250349598378" lon="10.391661372712878"><ele>22.5</ele><time>2026-04-23T17:31:03Z</time></trkpt><trkpt lat="42.762534419543684" lon="10.391738374601399"><ele>21.666666666666668</ele><time>2026-04-23T17:31:04Z</time></trkpt><trkpt lat="42.762566348510994" lon="10.391812755601437"><ele>20.833333333333336</ele><time>2026-04-23T17:31:05Z</time></trkpt><trkpt lat="42.76261961539978" lon="10.391933735624274"><ele>20.0</ele><time>2026-04-23T17:31:07Z</time></trkpt><trkpt lat="42.76266120595384" lon="10.392017304783485"><ele>23.2</ele><time>2026-04-23T17:31:09Z</time></trkpt><trkpt lat="42.76271308284853" lon="10.392118331743355"><ele>26.4</ele><time>2026-04-23T17:31:20Z</time></trkpt><trkpt lat="42.76276488284399" lon="10.392211535869317"><ele>29.6</ele><time>2026-04-23T17:31:22Z</time></trkpt><trkpt lat="42.76283126328699" lon="10.392330235217146"><ele>32.8</ele><time>2026-04-23T17:31:24Z</time></trkpt><trkpt lat="42.762908561551136" lon="10.392468457175163"><ele>36.0</ele><time>2026-04-23T17:31:26Z</time></trkpt><trkpt lat="42.762983889399706" lon="10.392603155854003"><ele>36.00000000000001</ele><time>2026-04-23T17:31:28Z</time></trkpt><trkpt lat="42.76302625981615" lon="10.392678924011067"><ele>36.0</ele><time>2026-04-23T17:31:29Z</time></trkpt><trkpt lat="42.76307295449153" lon="10.392751548337495"><ele>36.0</ele><time>2026-04-23T17:31:30Z</time></trkpt><trkpt lat="42.76308309226979" lon="10.392849245101996"><ele>36.0</ele><time>2026-04-23T17:31:31Z</time></trkpt><trkpt lat="42.76307246609235" lon="10.392946559727076"><ele>36.0</ele><time>2026-04-23T17:31:32Z</time></trkpt><trkpt lat="42.76305012612263" lon="10.393039170427063"><ele>36.00000000000001</ele><time>2026-04-23T17:31:33Z</time></trkpt><trkpt lat="42.763026191141364" lon="10.393141445258895"><ele>36.0</ele><time>2026-04-23T17:31:34Z</time></trkpt><trkpt lat="42.76299562017616" lon="10.393254559388996"><ele>34.8</ele><time>2026-04-23T17:31:35Z</time></trkpt><trkpt lat="42.76294607420915" lon="10.393371722664378"><ele>33.6</ele><time>2026-04-23T17:31:36Z</time></trkpt><trkpt lat="42.76292356947662" lon="10.393507063394361"><ele>32.4</ele><time>2026-04-23T17:31:37Z</time></trkpt><trkpt lat="42.762939434536136" lon="10.393648584481062"><ele>31.2</ele><time>2026-04-23T17:31:38Z</time></trkpt><trkpt lat="42.76293569186762" lon="10.393778067295017"><ele>30.0</ele><time>2026-04-23T17:31:39Z</time></trkpt><trkpt lat="42.762930201463874" lon="10.393904330168768"><ele>29.5</ele><time>2026-04-23T17:31:40Z</time></trkpt><trkpt lat="42.7629238322444" lon="10.394023935362831"><ele>29.0</ele><time>2026-04-23T17:31:41Z</time></trkpt><trkpt lat="42.76289580380894" lon="10.394135494310666"><ele>28.5</ele><time>2026-04-23T17:31:42Z</time></trkpt><trkpt lat="42.76285309354356" lon="10.394239706871032"><ele>28.0</ele><time>2026-04-23T17:31:43Z</time></trkpt><trkpt lat="42.76279584354351" lon="10.394336191848875"><ele>27.5</ele><time>2026-04-23T17:31:44Z</time></trkpt><trkpt lat="42.762745007555104" lon="10.394426563487965"><ele>27.0</ele><time>2026-04-23T17:31:45Z</time></trkpt><trkpt lat="42.762701530096216" lon="10.394515070303468"><ele>25.0</ele><time>2026-04-23T17:31:46Z</time></trkpt><trkpt lat="42.762662882401266" lon="10.394604028018698"><ele>23.0</ele><time>2026-04-23T17:31:47Z</time></trkpt><trkpt lat="42.76261915763957" lon="10.394684724307096"><ele>21.0</ele><time>2026-04-23T17:31:48Z</time></trkpt><trkpt lat="42.76261116933532" lon="10.394781318837925"><ele>19.0</ele><time>2026-04-23T17:31:49Z</time></trkpt><trkpt lat="42.76262948613327" lon="10.394869959597223"><ele>17.0</ele><time>2026-04-23T17:31:50Z</time></trkpt><trkpt lat="42.76267056434474" lon="10.39494619402517"><ele>15.0</ele><time>2026-04-23T17:31:51Z</time></trkpt><trkpt lat="42.76273791565139" lon="10.39499672443001"><ele>13.0</ele><time>2026-04-23T17:31:52Z</time></trkpt><trkpt lat="42.76281725896447" lon="10.394998225748635"><ele>12.999999999999998</ele><time>2026-04-23T17:31:53Z</time></trkpt><trkpt lat="42.762893192227" lon="10.39499548986798"><ele>13.0</ele><time>2026-04-23T17:31:54Z</time></trkpt><trkpt lat="42.76297363597498" lon="10.394965130183886"><ele>13.0</ele><time>2026-04-23T17:31:55Z</time></trkpt><trkpt lat="42.7630614969932" lon="10.394931766987243"><ele>13.0</ele><time>2026-04-23T17:31:56Z</time></trkpt><trkpt lat="42.763151226439206" lon="10.394902662793488"><ele>12.999999999999998</ele><time>2026-04-23T17:31:57Z</time></trkpt><trkpt lat="42.76323891149494" lon="10.39490910052956"><ele>13.0</ele><time>2026-04-23T17:31:58Z</time></trkpt><trkpt lat="42.76333095049578" lon="10.394922581278777"><ele>13.0</ele><time>2026-04-23T17:31:59Z</time></trkpt><trkpt lat="42.76342614095337" lon="10.394959496715305"><ele>13.0</ele><time>2026-04-23T17:32:00Z</time></trkpt><trkpt lat="42.76352291750994" lon="10.395001823531043"><ele>13.0</ele><time>2026-04-23T17:32:01Z</time></trkpt><trkpt lat="42.76362009416222" lon="10.395046855513623"><ele>13.0</ele><time>2026-04-23T17:32:02Z</time></trkpt><trkpt lat="42.76371616983487" lon="10.395073962868288"><ele>13.0</ele><time>2026-04-23T17:32:03Z</time></trkpt><trkpt lat="42.763821266064525" lon="10.395071702155187"><ele>12.999999999999998</ele><time>2026-04-23T17:32:04Z</time></trkpt><trkpt lat="42.76391238675304" lon="10.395051801479012"><ele>13.0</ele><time>2026-04-23T17:32:05Z</time></trkpt><trkpt lat="42.7639937345065" lon="10.395043301293493"><ele>13.0</ele><time>2026-04-23T17:32:06Z</time></trkpt><trkpt lat="42.76407683126815" lon="10.395044352545568"><ele>13.0</ele><time>2026-04-23T17:32:07Z</time></trkpt><trkpt lat="42.76413630494826" lon="10.395075862392975"><ele>12.999999999999998</ele><time>2026-04-23T17:32:08Z</time></trkpt><trkpt lat="42.76420316681714" lon="10.395121464523056"><ele>13.0</ele><time>2026-04-23T17:32:09Z</time></trkpt><trkpt lat="42.764264158543526" lon="10.395180251675157"><ele>13.0</ele><time>2026-04-23T17:32:10Z</time></trkpt><trkpt lat="42.7643325050638" lon="10.395244700299273"><ele>13.0</ele><time>2026-04-23T17:32:11Z</time></trkpt><trkpt lat="42.76439510324775" lon="10.395303662700822"><ele>13.0</ele><time>2026-04-23T17:32:12Z</time></trkpt><trkpt lat="42.76450517061318" lon="10.395407312128178"><ele>13.0</ele><time>2026-04-23T17:32:14Z</time></trkpt><trkpt lat="42.76456736507314" lon="10.395469916739078"><ele>13.0</ele><time>2026-04-23T17:32:15Z</time></trkpt><trkpt lat="42.7646352947111" lon="10.39554015805477"><ele>10.8</ele><time>2026-04-23T17:32:16Z</time></trkpt><trkpt lat="42.76470171512317" lon="10.395614862783633"><ele>8.600000000000001</ele><time>2026-04-23T17:32:17Z</time></trkpt><trkpt lat="42.76475397222882" lon="10.395680431251494"><ele>6.4</ele><time>2026-04-23T17:32:18Z</time></trkpt><trkpt lat="42.7648154551947" lon="10.395790440155972"><ele>4.2</ele><time>2026-04-23T17:32:20Z</time></trkpt><trkpt lat="42.76485186687586" lon="10.395866596893702"><ele>2.0</ele><time>2026-04-23T17:32:22Z</time></trkpt><trkpt lat="42.764983028056704" lon="10.395792453154984"><ele>1.9999999999999998</ele><time>2026-04-23T17:32:23Z</time></trkpt><trkpt lat="42.76505612345005" lon="10.395708505195914"><ele>2.0</ele><time>2026-04-23T17:32:25Z</time></trkpt><trkpt lat="42.765142235144474" lon="10.395615558801625"><ele>2.0</ele><time>2026-04-23T17:32:27Z</time></trkpt><trkpt lat="42.765199860506385" lon="10.395565388027835"><ele>2.0</ele><time>2026-04-23T17:32:29Z</time></trkpt><trkpt lat="42.76526417002201" lon="10.395532513408023"><ele>1.9999999999999998</ele><time>2026-04-23T17:32:33Z</time></trkpt><trkpt lat="42.76536098639038" lon="10.395504906160943"><ele>2.0</ele><time>2026-04-23T17:32:35Z</time></trkpt><trkpt lat="42.76547799510617" lon="10.395457622788099"><ele>2.333333333333333</ele><time>2026-04-23T17:32:37Z</time></trkpt><trkpt lat="42.765541673601305" lon="10.395430936970307"><ele>2.6666666666666665</ele><time>2026-04-23T17:32:38Z</time></trkpt><trkpt lat="42.76561282698406" lon="10.395404783755316"><ele>3.0</ele><time>2026-04-23T17:32:39Z</time></trkpt><trkpt lat="42.76568033444346" lon="10.39536423602049"><ele>3.333333333333333</ele><time>2026-04-23T17:32:40Z</time></trkpt><trkpt lat="42.765757290985846" lon="10.395322528892082"><ele>3.6666666666666665</ele><time>2026-04-23T17:32:41Z</time></trkpt><trkpt lat="42.76584127081327" lon="10.395289352214782"><ele>4.0</ele><time>2026-04-23T17:32:42Z</time></trkpt><trkpt lat="42.76591964081749" lon="10.395266744694602"><ele>3.9999999999999996</ele><time>2026-04-23T17:32:43Z</time></trkpt><trkpt lat="42.76600148895434" lon="10.395237143012757"><ele>4.0</ele><time>2026-04-23T17:32:44Z</time></trkpt><trkpt lat="42.76608500133998" lon="10.395205575449495"><ele>4.0</ele><time>2026-04-23T17:32:45Z</time></trkpt><trkpt lat="42.76617079498433" lon="10.39517249565597"><ele>4.0</ele><time>2026-04-23T17:32:46Z</time></trkpt><trkpt lat="42.76626064868193" lon="10.395139233949747"><ele>3.9999999999999996</ele><time>2026-04-23T17:32:47Z</time></trkpt><trkpt lat="42.76634486743978" lon="10.39509430117098"><ele>4.0</ele><time>2026-04-23T17:32:48Z</time></trkpt><trkpt lat="42.76642995060806" lon="10.395053864496877"><ele>3.9999999999999996</ele><time>2026-04-23T17:32:49Z</time></trkpt><trkpt lat="42.76651625443554" lon="10.395022262103295"><ele>4.0</ele><time>2026-04-23T17:32:50Z</time></trkpt><trkpt lat="42.76660187255956" lon="10.394985960192725"><ele>4.0</ele><time>2026-04-23T17:32:51Z</time></trkpt><trkpt lat="42.766687792547515" lon="10.39495267846279"><ele>4.0</ele><time>2026-04-23T17:32:52Z</time></trkpt><trkpt lat="42.76676710729341" lon="10.39491918436791"><ele>3.9999999999999996</ele><time>2026-04-23T17:32:53Z</time></trkpt><trkpt lat="42.76684722994371" lon="10.394884559388544"><ele>4.0</ele><time>2026-04-23T17:32:54Z</time></trkpt><trkpt lat="42.76692897320629" lon="10.394848495186281"><ele>3.9999999999999996</ele><time>2026-04-23T17:32:55Z</time></trkpt><trkpt lat="42.76701106900055" lon="10.394813715381467"><ele>4.0</ele><time>2026-04-23T17:32:56Z</time></trkpt><trkpt lat="42.76709562260425" lon="10.394777826288928"><ele>4.0</ele><time>2026-04-23T17:32:57Z</time></trkpt><trkpt lat="42.767169257159395" lon="10.394741103951905"><ele>4.0</ele><time>2026-04-23T17:32:58Z</time></trkpt><trkpt lat="42.7672339867886" lon="10.394705405566187"><ele>3.9999999999999996</ele><time>2026-04-23T17:32:59Z</time></trkpt><trkpt lat="42.76733942317613" lon="10.394681742648773"><ele>4.0</ele><time>2026-04-23T17:33:01Z</time></trkpt><trkpt lat="42.767437749104076" lon="10.394648485058738"><ele>4.166666666666666</ele><time>2026-04-23T17:33:03Z</time></trkpt><trkpt lat="42.76755432880368" lon="10.394642909390832"><ele>4.333333333333333</ele><time>2026-04-23T17:33:05Z</time></trkpt><trkpt lat="42.76762440862686" lon="10.394666869409543"><ele>4.5</ele><time>2026-04-23T17:33:06Z</time></trkpt><trkpt lat="42.76770218168808" lon="10.39472280472141"><ele>4.666666666666667</ele><time>2026-04-23T17:33:07Z</time></trkpt><trkpt lat="42.76776455969154" lon="10.39478502137153"><ele>4.833333333333334</ele><time>2026-04-23T17:33:08Z</time></trkpt><trkpt lat="42.76783579259125" lon="10.39485773405475"><ele>5.0</ele><time>2026-04-23T17:33:09Z</time></trkpt><trkpt lat="42.76791854817553" lon="10.394918103108365"><ele>5.4</ele><time>2026-04-23T17:33:10Z</time></trkpt><trkpt lat="42.767989948050754" lon="10.395016770179542"><ele>5.8</ele><time>2026-04-23T17:33:11Z</time></trkpt><trkpt lat="42.768081704150255" lon="10.395084746259508"><ele>6.199999999999999</ele><time>2026-04-23T17:33:12Z</time></trkpt><trkpt lat="42.76815439709229" lon="10.395186032162394"><ele>6.6</ele><time>2026-04-23T17:33:13Z</time></trkpt><trkpt lat="42.768250087373254" lon="10.395256776759007"><ele>7.0</ele><time>2026-04-23T17:33:14Z</time></trkpt><trkpt lat="42.76833482444925" lon="10.395344604132065"><ele>7.0</ele><time>2026-04-23T17:33:15Z</time></trkpt><trkpt lat="42.768420205448145" lon="10.395432234325748"><ele>6.999999999999999</ele><time>2026-04-23T17:33:16Z</time></trkpt><trkpt lat="42.7685066996454" lon="10.395522920111866"><ele>6.999999999999999</ele><time>2026-04-23T17:33:17Z</time></trkpt><trkpt lat="42.768594813499426" lon="10.395612764818686"><ele>7.0</ele><time>2026-04-23T17:33:18Z</time></trkpt><trkpt lat="42.76867275835213" lon="10.395718857855128"><ele>7.0</ele><time>2026-04-23T17:33:19Z</time></trkpt><trkpt lat="42.7687598919397" lon="10.395808969267168"><ele>7.75</ele><time>2026-04-23T17:33:20Z</time></trkpt><trkpt lat="42.768847124405646" lon="10.395899112322835"><ele>8.5</ele><time>2026-04-23T17:33:21Z</time></trkpt><trkpt lat="42.768937877267646" lon="10.395991300510254"><ele>9.25</ele><time>2026-04-23T17:33:22Z</time></trkpt><trkpt lat="42.769030113222186" lon="10.396084607168737"><ele>10.0</ele><time>2026-04-23T17:33:23Z</time></trkpt><trkpt lat="42.76912314415308" lon="10.396178635268884"><ele>10.0</ele><time>2026-04-23T17:33:24Z</time></trkpt><trkpt lat="42.7692166375262" lon="10.396273124105697"><ele>10.0</ele><time>2026-04-23T17:33:25Z</time></trkpt><trkpt lat="42.769305176451255" lon="10.396362604554064"><ele>10.0</ele><time>2026-04-23T17:33:26Z</time></trkpt><trkpt lat="42.76939172047563" lon="10.396451524162362"><ele>10.0</ele><time>2026-04-23T17:33:27Z</time></trkpt><trkpt lat="42.76947995441029" lon="10.396541857707591"><ele>10.0</ele><time>2026-04-23T17:33:28Z</time></trkpt><trkpt lat="42.769570652668506" lon="10.39663471415971"><ele>10.6</ele><time>2026-04-23T17:33:29Z</time></trkpt><trkpt lat="42.76965834757959" lon="10.396725060398891"><ele>11.2</ele><time>2026-04-23T17:33:30Z</time></trkpt><trkpt lat="42.76974059083282" lon="10.39681257319833"><ele>11.8</ele><time>2026-04-23T17:33:31Z</time></trkpt><trkpt lat="42.769812853810755" lon="10.396898220699494"><ele>12.4</ele><time>2026-04-23T17:33:32Z</time></trkpt><trkpt lat="42.76987866463446" lon="10.396997586253708"><ele>13.0</ele><time>2026-04-23T17:33:33Z</time></trkpt><trkpt lat="42.76993308661211" lon="10.397112092051788"><ele>12.499999999999998</ele><time>2026-04-23T17:33:34Z</time></trkpt><trkpt lat="42.769975157172354" lon="10.397226337611334"><ele>12.0</ele><time>2026-04-23T17:33:35Z</time></trkpt><trkpt lat="42.7700099046158" lon="10.39733597854149"><ele>11.5</ele><time>2026-04-23T17:33:36Z</time></trkpt><trkpt lat="42.7700437256173" lon="10.397450391472836"><ele>11.0</ele><time>2026-04-23T17:33:37Z</time></trkpt><trkpt lat="42.770073518224386" lon="10.397558389530223"><ele>10.5</ele><time>2026-04-23T17:33:38Z</time></trkpt><trkpt lat="42.77010396767923" lon="10.397668767168579"><ele>10.0</ele><time>2026-04-23T17:33:39Z</time></trkpt><trkpt lat="42.77013266175506" lon="10.397770370553559"><ele>10.0</ele><time>2026-04-23T17:33:40Z</time></trkpt><trkpt lat="42.77016536547587" lon="10.397886888754696"><ele>10.0</ele><time>2026-04-23T17:33:41Z</time></trkpt><trkpt lat="42.770201473772204" lon="10.398012943972168"><ele>10.0</ele><time>2026-04-23T17:33:42Z</time></trkpt><trkpt lat="42.770238210194165" lon="10.39813645700142"><ele>10.0</ele><time>2026-04-23T17:33:43Z</time></trkpt><trkpt lat="42.770279111889586" lon="10.398264559097425"><ele>10.0</ele><time>2026-04-23T17:33:44Z</time></trkpt><trkpt lat="42.770331343592424" lon="10.398389369260354"><ele>10.8</ele><time>2026-04-23T17:33:45Z</time></trkpt><trkpt lat="42.77038157560739" lon="10.398494067004155"><ele>11.6</ele><time>2026-04-23T17:33:46Z</time></trkpt><trkpt lat="42.770461696106786" lon="10.39856842319183"><ele>12.399999999999999</ele><time>2026-04-23T17:33:47Z</time></trkpt><trkpt lat="42.77052683986637" lon="10.39866054829372"><ele>13.2</ele><time>2026-04-23T17:33:48Z</time></trkpt><trkpt lat="42.77059010763278" lon="10.398752486505591"><ele>14.0</ele><time>2026-04-23T17:33:49Z</time></trkpt><trkpt lat="42.77065991416768" lon="10.398848307794278"><ele>14.0</ele><time>2026-04-23T17:33:50Z</time></trkpt><trkpt lat="42.77072130230815" lon="10.398960074878596"><ele>13.999999999999998</ele><time>2026-04-23T17:33:51Z</time></trkpt><trkpt lat="42.77079834893395" lon="10.399056636409641"><ele>13.999999999999998</ele><time>2026-04-23T17:33:52Z</time></trkpt><trkpt lat="42.770881275130556" lon="10.399161777159861"><ele>14.0</ele><time>2026-04-23T17:33:53Z</time></trkpt><trkpt lat="42.77096516054051" lon="10.399268133903261"><ele>14.0</ele><time>2026-04-23T17:33:54Z</time></trkpt><trkpt lat="42.7710516498962" lon="10.399377792230545"><ele>14.75</ele><time>2026-04-23T17:33:55Z</time></trkpt><trkpt lat="42.77113684572232" lon="10.399485810477108"><ele>15.5</ele><time>2026-04-23T17:33:56Z</time></trkpt><trkpt lat="42.771230485224834" lon="10.399602537479767"><ele>16.25</ele><time>2026-04-23T17:33:57Z</time></trkpt><trkpt lat="42.77133303716475" lon="10.399704274794809"><ele>17.0</ele><time>2026-04-23T17:33:58Z</time></trkpt><trkpt lat="42.771430146307175" lon="10.399826855619358"><ele>17.0</ele><time>2026-04-23T17:33:59Z</time></trkpt><trkpt lat="42.771515653223204" lon="10.39996643547914"><ele>17.0</ele><time>2026-04-23T17:34:00Z</time></trkpt><trkpt lat="42.771611909584706" lon="10.400090707783521"><ele>17.0</ele><time>2026-04-23T17:34:01Z</time></trkpt><trkpt lat="42.771703955739675" lon="10.400206839126053"><ele>17.0</ele><time>2026-04-23T17:34:02Z</time></trkpt><trkpt lat="42.77179815587048" lon="10.400326453948226"><ele>16.75</ele><time>2026-04-23T17:34:03Z</time></trkpt><trkpt lat="42.771891193248635" lon="10.400449126530699"><ele>16.5</ele><time>2026-04-23T17:34:04Z</time></trkpt><trkpt lat="42.77198708162048" lon="10.400577067892682"><ele>16.25</ele><time>2026-04-23T17:34:05Z</time></trkpt><trkpt lat="42.77208064895004" lon="10.40070536377763"><ele>16.0</ele><time>2026-04-23T17:34:06Z</time></trkpt><trkpt lat="42.77218420769209" lon="10.40082742752682"><ele>16.0</ele><time>2026-04-23T17:34:07Z</time></trkpt><trkpt lat="42.77227720353287" lon="10.400968227908773"><ele>16.0</ele><time>2026-04-23T17:34:08Z</time></trkpt><trkpt lat="42.77234877187565" lon="10.401129877125362"><ele>16.0</ele><time>2026-04-23T17:34:09Z</time></trkpt><trkpt lat="42.77242666228757" lon="10.401281771679828"><ele>16.0</ele><time>2026-04-23T17:34:10Z</time></trkpt><trkpt lat="42.77249761724995" lon="10.40143458448632"><ele>16.0</ele><time>2026-04-23T17:34:11Z</time></trkpt><trkpt lat="42.772564545560755" lon="10.40158890848399"><ele>16.0</ele><time>2026-04-23T17:34:12Z</time></trkpt><trkpt lat="42.77262621997813" lon="10.401747389880564"><ele>16.0</ele><time>2026-04-23T17:34:13Z</time></trkpt><trkpt lat="42.772699338984125" lon="10.401896655339794"><ele>16.0</ele><time>2026-04-23T17:34:14Z</time></trkpt><trkpt lat="42.772756870015016" lon="10.402060802926139"><ele>14.5</ele><time>2026-04-23T17:34:15Z</time></trkpt><trkpt lat="42.77281783506053" lon="10.402221566877936"><ele>13.0</ele><time>2026-04-23T17:34:16Z</time></trkpt><trkpt lat="42.772875297206824" lon="10.402378615776572"><ele>11.5</ele><time>2026-04-23T17:34:17Z</time></trkpt><trkpt lat="42.77293166447854" lon="10.402539360516174"><ele>10.0</ele><time>2026-04-23T17:34:18Z</time></trkpt><trkpt lat="42.77297449959262" lon="10.402695658378702"><ele>10.0</ele><time>2026-04-23T17:34:19Z</time></trkpt><trkpt lat="42.77302776929635" lon="10.402844639685071"><ele>10.0</ele><time>2026-04-23T17:34:20Z</time></trkpt><trkpt lat="42.773083658555436" lon="10.402986320082455"><ele>10.0</ele><time>2026-04-23T17:34:21Z</time></trkpt><trkpt lat="42.77313968538306" lon="10.403128392277166"><ele>10.0</ele><time>2026-04-23T17:34:22Z</time></trkpt><trkpt lat="42.77319836433347" lon="10.403267678613078"><ele>9.6</ele><time>2026-04-23T17:34:23Z</time></trkpt><trkpt lat="42.77324342326723" lon="10.403403163503164"><ele>9.2</ele><time>2026-04-23T17:34:24Z</time></trkpt><trkpt lat="42.77329529574413" lon="10.403537255644467"><ele>8.8</ele><time>2026-04-23T17:34:25Z</time></trkpt><trkpt lat="42.77334594491591" lon="10.403669474395992"><ele>8.4</ele><time>2026-04-23T17:34:26Z</time></trkpt><trkpt lat="42.77339581539373" lon="10.403798837237854"><ele>8.0</ele><time>2026-04-23T17:34:27Z</time></trkpt><trkpt lat="42.77344238514684" lon="10.403914782453318"><ele>7.800000000000001</ele><time>2026-04-23T17:34:28Z</time></trkpt><trkpt lat="42.77347969856277" lon="10.404014149218233"><ele>7.6000000000000005</ele><time>2026-04-23T17:34:29Z</time></trkpt><trkpt lat="42.77351229286168" lon="10.404097335900428"><ele>7.3999999999999995</ele><time>2026-04-23T17:34:30Z</time></trkpt><trkpt lat="42.77356566814156" lon="10.40423681567274"><ele>7.199999999999999</ele><time>2026-04-23T17:34:32Z</time></trkpt><trkpt lat="42.773624076740624" lon="10.404391527756848"><ele>7.0</ele><time>2026-04-23T17:34:34Z</time></trkpt><trkpt lat="42.77365396208861" lon="10.404471156151715"><ele>7.666666666666667</ele><time>2026-04-23T17:34:35Z</time></trkpt><trkpt lat="42.77368647228511" lon="10.40456779449806"><ele>8.333333333333334</ele><time>2026-04-23T17:34:36Z</time></trkpt><trkpt lat="42.773724886012175" lon="10.404668478273068"><ele>9.0</ele><time>2026-04-23T17:34:37Z</time></trkpt><trkpt lat="42.77376254038053" lon="10.404759361827502"><ele>9.666666666666666</ele><time>2026-04-23T17:34:38Z</time></trkpt><trkpt lat="42.77379914649683" lon="10.404857294681644"><ele>10.333333333333332</ele><time>2026-04-23T17:34:39Z</time></trkpt><trkpt lat="42.773838129166386" lon="10.404956422687473"><ele>11.0</ele><time>2026-04-23T17:34:40Z</time></trkpt><trkpt lat="42.7738832111988" lon="10.405067440719968"><ele>11.200000000000001</ele><time>2026-04-23T17:34:41Z</time></trkpt><trkpt lat="42.77392386490467" lon="10.405180791368618"><ele>11.4</ele><time>2026-04-23T17:34:42Z</time></trkpt><trkpt lat="42.773969149147824" lon="10.405307003819239"><ele>11.6</ele><time>2026-04-23T17:34:43Z</time></trkpt><trkpt lat="42.774001015813866" lon="10.405438611108858"><ele>11.8</ele><time>2026-04-23T17:34:44Z</time></trkpt><trkpt lat="42.77405283416911" lon="10.405567534148922"><ele>12.0</ele><time>2026-04-23T17:34:45Z</time></trkpt><trkpt lat="42.77410752332797" lon="10.405701616804546"><ele>12.0</ele><time>2026-04-23T17:34:46Z</time></trkpt><trkpt lat="42.77415544356853" lon="10.405835380365328"><ele>12.0</ele><time>2026-04-23T17:34:47Z</time></trkpt><trkpt lat="42.77420458419805" lon="10.405960034870763"><ele>12.0</ele><time>2026-04-23T17:34:48Z</time></trkpt><trkpt lat="42.77424600654237" lon="10.406070625290136"><ele>12.0</ele><time>2026-04-23T17:34:49Z</time></trkpt><trkpt lat="42.77428165278614" lon="10.406166759946977"><ele>12.0</ele><time>2026-04-23T17:34:50Z</time></trkpt><trkpt lat="42.77431801692788" lon="10.40626979233939"><ele>12.833333333333334</ele><time>2026-04-23T17:34:51Z</time></trkpt><trkpt lat="42.77432211529854" lon="10.406380412300916"><ele>13.666666666666668</ele><time>2026-04-23T17:34:52Z</time></trkpt><trkpt lat="42.77430605064056" lon="10.406482080158717"><ele>14.5</ele><time>2026-04-23T17:34:53Z</time></trkpt><trkpt lat="42.774273389800705" lon="10.406589458878607"><ele>15.333333333333334</ele><time>2026-04-23T17:34:54Z</time></trkpt><trkpt lat="42.774229867348836" lon="10.406694470150894"><ele>16.166666666666668</ele><time>2026-04-23T17:34:55Z</time></trkpt><trkpt lat="42.77417767362617" lon="10.406805786935358"><ele>17.0</ele><time>2026-04-23T17:34:56Z</time></trkpt><trkpt lat="42.774131501726174" lon="10.406930426439324"><ele>17.0</ele><time>2026-04-23T17:34:57Z</time></trkpt><trkpt lat="42.77408715700429" lon="10.407056369970793"><ele>17.0</ele><time>2026-04-23T17:34:58Z</time></trkpt><trkpt lat="42.774052312930856" lon="10.4071949125236"><ele>17.0</ele><time>2026-04-23T17:34:59Z</time></trkpt><trkpt lat="42.774021131641135" lon="10.407338466034401"><ele>17.0</ele><time>2026-04-23T17:35:00Z</time></trkpt><trkpt lat="42.77400397757802" lon="10.40748824941956"><ele>17.0</ele><time>2026-04-23T17:35:01Z</time></trkpt><trkpt lat="42.774000022451254" lon="10.40764216106908"><ele>18.0</ele><time>2026-04-23T17:35:02Z</time></trkpt><trkpt lat="42.7740041266706" lon="10.407795995468833"><ele>19.0</ele><time>2026-04-23T17:35:03Z</time></trkpt><trkpt lat="42.77401365403569" lon="10.407955435031122"><ele>20.0</ele><time>2026-04-23T17:35:04Z</time></trkpt><trkpt lat="42.77402560160568" lon="10.408111598555994"><ele>21.0</ele><time>2026-04-23T17:35:05Z</time></trkpt><trkpt lat="42.77404114825039" lon="10.408271584595598"><ele>21.0</ele><time>2026-04-23T17:35:06Z</time></trkpt><trkpt lat="42.77405471911989" lon="10.408427940543474"><ele>21.0</ele><time>2026-04-23T17:35:07Z</time></trkpt><trkpt lat="42.774070162157486" lon="10.408583127806454"><ele>21.0</ele><time>2026-04-23T17:35:08Z</time></trkpt><trkpt lat="42.774082270819314" lon="10.40873287207702"><ele>21.0</ele><time>2026-04-23T17:35:09Z</time></trkpt><trkpt lat="42.774096853579564" lon="10.408881949927853"><ele>21.4</ele><time>2026-04-23T17:35:10Z</time></trkpt><trkpt lat="42.77411287353749" lon="10.409023194259596"><ele>21.8</ele><time>2026-04-23T17:35:11Z</time></trkpt><trkpt lat="42.77414521037802" lon="10.409166810533753"><ele>22.2</ele><time>2026-04-23T17:35:12Z</time></trkpt><trkpt lat="42.774200213381484" lon="10.409301050368148"><ele>22.599999999999998</ele><time>2026-04-23T17:35:13Z</time></trkpt><trkpt lat="42.774271401174" lon="10.409422061318617"><ele>23.0</ele><time>2026-04-23T17:35:14Z</time></trkpt><trkpt lat="42.774353639569824" lon="10.409526075253686"><ele>25.25</ele><time>2026-04-23T17:35:15Z</time></trkpt><trkpt lat="42.774454499334745" lon="10.40960058987097"><ele>27.5</ele><time>2026-04-23T17:35:16Z</time></trkpt><trkpt lat="42.77456255105605" lon="10.409651461046032"><ele>29.75</ele><time>2026-04-23T17:35:17Z</time></trkpt><trkpt lat="42.77467996811248" lon="10.409688015982908"><ele>32.0</ele><time>2026-04-23T17:35:18Z</time></trkpt><trkpt lat="42.774797590183" lon="10.409688187986747"><ele>32.0</ele><time>2026-04-23T17:35:19Z</time></trkpt><trkpt lat="42.774912497358905" lon="10.409666445973102"><ele>32.0</ele><time>2026-04-23T17:35:20Z</time></trkpt><trkpt lat="42.77502540065478" lon="10.409650898325667"><ele>32.0</ele><time>2026-04-23T17:35:21Z</time></trkpt><trkpt lat="42.775143299006565" lon="10.409634614935724"><ele>32.0</ele><time>2026-04-23T17:35:22Z</time></trkpt><trkpt lat="42.77525590315139" lon="10.409616933074092"><ele>33.75</ele><time>2026-04-23T17:35:23Z</time></trkpt><trkpt lat="42.77537663803419" lon="10.40959850823419"><ele>35.5</ele><time>2026-04-23T17:35:24Z</time></trkpt><trkpt lat="42.77549247676991" lon="10.409580229588746"><ele>37.25</ele><time>2026-04-23T17:35:25Z</time></trkpt><trkpt lat="42.77561121730361" lon="10.409560092458086"><ele>39.0</ele><time>2026-04-23T17:35:26Z</time></trkpt><trkpt lat="42.77572979198493" lon="10.409540944772868"><ele>39.0</ele><time>2026-04-23T17:35:27Z</time></trkpt><trkpt lat="42.77584482988159" lon="10.40951946662612"><ele>39.0</ele><time>2026-04-23T17:35:28Z</time></trkpt><trkpt lat="42.77596275309187" lon="10.409500888199466"><ele>39.0</ele><time>2026-04-23T17:35:29Z</time></trkpt><trkpt lat="42.77608046267342" lon="10.409481540564496"><ele>39.0</ele><time>2026-04-23T17:35:30Z</time></trkpt><trkpt lat="42.77619955730009" lon="10.409470106590913"><ele>41.0</ele><time>2026-04-23T17:35:31Z</time></trkpt><trkpt lat="42.7763162326331" lon="10.409459496987072"><ele>43.0</ele><time>2026-04-23T17:35:32Z</time></trkpt><trkpt lat="42.77643356270047" lon="10.409449150654241"><ele>45.0</ele><time>2026-04-23T17:35:33Z</time></trkpt><trkpt lat="42.77654968857004" lon="10.409436853076311"><ele>47.0</ele><time>2026-04-23T17:35:34Z</time></trkpt><trkpt lat="42.77667192315619" lon="10.409431461899095"><ele>47.0</ele><time>2026-04-23T17:35:35Z</time></trkpt><trkpt lat="42.77679152948362" lon="10.409454731538613"><ele>47.0</ele><time>2026-04-23T17:35:36Z</time></trkpt><trkpt lat="42.77690552463077" lon="10.409493097674027"><ele>47.0</ele><time>2026-04-23T17:35:37Z</time></trkpt><trkpt lat="42.77701894438595" lon="10.409537566061488"><ele>47.0</ele><time>2026-04-23T17:35:38Z</time></trkpt><trkpt lat="42.77713204807819" lon="10.409583248147388"><ele>48.0</ele><time>2026-04-23T17:35:39Z</time></trkpt><trkpt lat="42.77724944779447" lon="10.409617459433838"><ele>49.0</ele><time>2026-04-23T17:35:40Z</time></trkpt><trkpt lat="42.77736394336908" lon="10.409651908080088"><ele>50.0</ele><time>2026-04-23T17:35:41Z</time></trkpt><trkpt lat="42.77748511067459" lon="10.409672304900006"><ele>51.0</ele><time>2026-04-23T17:35:42Z</time></trkpt><trkpt lat="42.77760791254142" lon="10.40968798379198"><ele>50.75</ele><time>2026-04-23T17:35:43Z</time></trkpt><trkpt lat="42.777735931975826" lon="10.409691449885432"><ele>50.5</ele><time>2026-04-23T17:35:44Z</time></trkpt><trkpt lat="42.777863842815464" lon="10.409685015905206"><ele>50.25</ele><time>2026-04-23T17:35:45Z</time></trkpt><trkpt lat="42.77798353638848" lon="10.409667802435498"><ele>50.0</ele><time>2026-04-23T17:35:46Z</time></trkpt><trkpt lat="42.778100220578224" lon="10.409635625278646"><ele>50.0</ele><time>2026-04-23T17:35:47Z</time></trkpt><trkpt lat="42.778213701624026" lon="10.40961463780492"><ele>50.0</ele><time>2026-04-23T17:35:48Z</time></trkpt><trkpt lat="42.77832989490867" lon="10.409599052039344"><ele>50.0</ele><time>2026-04-23T17:35:49Z</time></trkpt><trkpt lat="42.77844686190146" lon="10.409579866038897"><ele>50.0</ele><time>2026-04-23T17:35:50Z</time></trkpt><trkpt lat="42.77857055592422" lon="10.409554230089691"><ele>49.75</ele><time>2026-04-23T17:35:51Z</time></trkpt><trkpt lat="42.77870110258774" lon="10.409522112068462"><ele>49.5</ele><time>2026-04-23T17:35:52Z</time></trkpt><trkpt lat="42.77882863116743" lon="10.409499136855322"><ele>49.25</ele><time>2026-04-23T17:35:53Z</time></trkpt><trkpt lat="42.77896292361811" lon="10.409482206231745"><ele>49.0</ele><time>2026-04-23T17:35:54Z</time></trkpt><trkpt lat="42.779100153769996" lon="10.409454850753091"><ele>49.0</ele><time>2026-04-23T17:35:55Z</time></trkpt><trkpt lat="42.77923835879246" lon="10.4094325720118"><ele>49.0</ele><time>2026-04-23T17:35:56Z</time></trkpt><trkpt lat="42.77937778663514" lon="10.409408989941324"><ele>49.0</ele><time>2026-04-23T17:35:57Z</time></trkpt><trkpt lat="42.77952059008849" lon="10.409382968342015"><ele>49.0</ele><time>2026-04-23T17:35:58Z</time></trkpt><trkpt lat="42.779658469271574" lon="10.409360517477271"><ele>49.0</ele><time>2026-04-23T17:35:59Z</time></trkpt><trkpt lat="42.77979840677106" lon="10.409335897454751"><ele>49.0</ele><time>2026-04-23T17:36:00Z</time></trkpt><trkpt lat="42.77993891507955" lon="10.409309126851332"><ele>49.0</ele><time>2026-04-23T17:36:01Z</time></trkpt><trkpt lat="42.78007778865292" lon="10.409280934970909"><ele>49.0</ele><time>2026-04-23T17:36:02Z</time></trkpt><trkpt lat="42.7802157102869" lon="10.409249935373547"><ele>49.0</ele><time>2026-04-23T17:36:03Z</time></trkpt><trkpt lat="42.780352247101746" lon="10.409215429335452"><ele>49.0</ele><time>2026-04-23T17:36:04Z</time></trkpt><trkpt lat="42.780488712090886" lon="10.409175009742567"><ele>49.0</ele><time>2026-04-23T17:36:05Z</time></trkpt><trkpt lat="42.78062302162074" lon="10.409132538698541"><ele>49.0</ele><time>2026-04-23T17:36:06Z</time></trkpt><trkpt lat="42.78075739466502" lon="10.40909024732312"><ele>49.0</ele><time>2026-04-23T17:36:07Z</time></trkpt><trkpt lat="42.7808909232769" lon="10.409038013585203"><ele>49.0</ele><time>2026-04-23T17:36:08Z</time></trkpt><trkpt lat="42.781020959882795" lon="10.408980092871298"><ele>49.0</ele><time>2026-04-23T17:36:09Z</time></trkpt><trkpt lat="42.781152011999026" lon="10.408910660634437"><ele>49.0</ele><time>2026-04-23T17:36:10Z</time></trkpt><trkpt lat="42.78128315566419" lon="10.408836377730063"><ele>51.75</ele><time>2026-04-23T17:36:11Z</time></trkpt><trkpt lat="42.78141224882077" lon="10.408750841279486"><ele>54.5</ele><time>2026-04-23T17:36:12Z</time></trkpt><trkpt lat="42.78153357286957" lon="10.408667014890645"><ele>57.25</ele><time>2026-04-23T17:36:13Z</time></trkpt><trkpt lat="42.78165666800059" lon="10.408581755392785"><ele>60.0</ele><time>2026-04-23T17:36:14Z</time></trkpt><trkpt lat="42.78177812921037" lon="10.408499573417416"><ele>57.0</ele><time>2026-04-23T17:36:15Z</time></trkpt><trkpt lat="42.78190385157643" lon="10.408411669359856"><ele>54.0</ele><time>2026-04-23T17:36:16Z</time></trkpt><trkpt lat="42.78202683717551" lon="10.408322735249238"><ele>51.0</ele><time>2026-04-23T17:36:17Z</time></trkpt><trkpt lat="42.782146514240075" lon="10.408221769644287"><ele>48.0</ele><time>2026-04-23T17:36:18Z</time></trkpt><trkpt lat="42.78226346523093" lon="10.40810495622032"><ele>48.5</ele><time>2026-04-23T17:36:19Z</time></trkpt><trkpt lat="42.78237432602476" lon="10.407980208929825"><ele>49.0</ele><time>2026-04-23T17:36:20Z</time></trkpt><trkpt lat="42.78247946702051" lon="10.407849066727863"><ele>49.5</ele><time>2026-04-23T17:36:21Z</time></trkpt><trkpt lat="42.7825832316413" lon="10.407713785097947"><ele>50.0</ele><time>2026-04-23T17:36:22Z</time></trkpt><trkpt lat="42.78269073659708" lon="10.407576359591541"><ele>50.0</ele><time>2026-04-23T17:36:23Z</time></trkpt><trkpt lat="42.782792311021076" lon="10.407439480525456"><ele>50.0</ele><time>2026-04-23T17:36:24Z</time></trkpt><trkpt lat="42.782883878167546" lon="10.407310371369718"><ele>50.0</ele><time>2026-04-23T17:36:25Z</time></trkpt><trkpt lat="42.78297322381782" lon="10.407188756938922"><ele>50.0</ele><time>2026-04-23T17:36:26Z</time></trkpt><trkpt lat="42.78306779134976" lon="10.407076532880376"><ele>54.25</ele><time>2026-04-23T17:36:27Z</time></trkpt><trkpt lat="42.783165761311956" lon="10.406966957859483"><ele>58.5</ele><time>2026-04-23T17:36:28Z</time></trkpt><trkpt lat="42.78327541680831" lon="10.4068762164982"><ele>62.75</ele><time>2026-04-23T17:36:29Z</time></trkpt><trkpt lat="42.7833923192202" lon="10.40679810542832"><ele>67.0</ele><time>2026-04-23T17:36:30Z</time></trkpt><trkpt lat="42.78351363327511" lon="10.406727273913903"><ele>67.75</ele><time>2026-04-23T17:36:31Z</time></trkpt><trkpt lat="42.78364060247027" lon="10.406650216184456"><ele>68.5</ele><time>2026-04-23T17:36:32Z</time></trkpt><trkpt lat="42.78376080623678" lon="10.406546282680809"><ele>69.25</ele><time>2026-04-23T17:36:33Z</time></trkpt><trkpt lat="42.78387103782752" lon="10.406426627873046"><ele>70.0</ele><time>2026-04-23T17:36:34Z</time></trkpt><trkpt lat="42.78397780872249" lon="10.406307961822675"><ele>70.0</ele><time>2026-04-23T17:36:35Z</time></trkpt><trkpt lat="42.784086354864975" lon="10.40619242117871"><ele>70.0</ele><time>2026-04-23T17:36:36Z</time></trkpt><trkpt lat="42.784198472049844" lon="10.40607721262251"><ele>70.0</ele><time>2026-04-23T17:36:37Z</time></trkpt><trkpt lat="42.78431328061753" lon="10.405964661357592"><ele>70.0</ele><time>2026-04-23T17:36:38Z</time></trkpt><trkpt lat="42.784431907518155" lon="10.40585732416568"><ele>70.5</ele><time>2026-04-23T17:36:39Z</time></trkpt><trkpt lat="42.78454755983062" lon="10.405753248770846"><ele>71.0</ele><time>2026-04-23T17:36:40Z</time></trkpt><trkpt lat="42.784662979036376" lon="10.405648833786694"><ele>71.5</ele><time>2026-04-23T17:36:41Z</time></trkpt><trkpt lat="42.784779064596" lon="10.40553800230689"><ele>72.0</ele><time>2026-04-23T17:36:42Z</time></trkpt><trkpt lat="42.784886637741494" lon="10.405437752148595"><ele>72.0</ele><time>2026-04-23T17:36:43Z</time></trkpt><trkpt lat="42.78499294899532" lon="10.405338300999794"><ele>72.0</ele><time>2026-04-23T17:36:44Z</time></trkpt><trkpt lat="42.78509855991787" lon="10.405235963357539"><ele>72.0</ele><time>2026-04-23T17:36:45Z</time></trkpt><trkpt lat="42.785202246774396" lon="10.405125266190124"><ele>72.0</ele><time>2026-04-23T17:36:46Z</time></trkpt><trkpt lat="42.785297520760665" lon="10.405003737193208"><ele>71.5</ele><time>2026-04-23T17:36:47Z</time></trkpt><trkpt lat="42.785389351354794" lon="10.404872612384072"><ele>71.0</ele><time>2026-04-23T17:36:48Z</time></trkpt><trkpt lat="42.78548291633971" lon="10.404735867586568"><ele>70.5</ele><time>2026-04-23T17:36:49Z</time></trkpt><trkpt lat="42.78557533658893" lon="10.40460131508719"><ele>70.0</ele><time>2026-04-23T17:36:50Z</time></trkpt><trkpt lat="42.78566679917898" lon="10.404467709477135"><ele>70.0</ele><time>2026-04-23T17:36:51Z</time></trkpt><trkpt lat="42.78575553133336" lon="10.404343577066076"><ele>70.0</ele><time>2026-04-23T17:36:52Z</time></trkpt><trkpt lat="42.78584488576617" lon="10.404213515753725"><ele>70.0</ele><time>2026-04-23T17:36:53Z</time></trkpt><trkpt lat="42.78593102098345" lon="10.404081245351383"><ele>70.0</ele><time>2026-04-23T17:36:54Z</time></trkpt><trkpt lat="42.78600941957806" lon="10.403942907375034"><ele>70.75</ele><time>2026-04-23T17:36:55Z</time></trkpt><trkpt lat="42.78607468455961" lon="10.403805550253306"><ele>71.5</ele><time>2026-04-23T17:36:56Z</time></trkpt><trkpt lat="42.78612692234399" lon="10.403654498751383"><ele>72.25</ele><time>2026-04-23T17:36:57Z</time></trkpt><trkpt lat="42.78618171569055" lon="10.403509315937036"><ele>73.0</ele><time>2026-04-23T17:36:58Z</time></trkpt><trkpt lat="42.78621778406213" lon="10.403372931357556"><ele>73.0</ele><time>2026-04-23T17:36:59Z</time></trkpt><trkpt lat="42.78624638471" lon="10.40325178966965"><ele>73.0</ele><time>2026-04-23T17:37:00Z</time></trkpt><trkpt lat="42.78627350342444" lon="10.40314183198672"><ele>73.0</ele><time>2026-04-23T17:37:01Z</time></trkpt><trkpt lat="42.78629806188094" lon="10.403027146455722"><ele>73.0</ele><time>2026-04-23T17:37:02Z</time></trkpt><trkpt lat="42.78632068367768" lon="10.402926498928606"><ele>73.0</ele><time>2026-04-23T17:37:03Z</time></trkpt><trkpt lat="42.78633765376249" lon="10.402831913157407"><ele>73.0</ele><time>2026-04-23T17:37:04Z</time></trkpt><trkpt lat="42.78636005203791" lon="10.40275048705961"><ele>74.5</ele><time>2026-04-23T17:37:05Z</time></trkpt><trkpt lat="42.78645513622895" lon="10.402647702302339"><ele>76.0</ele><time>2026-04-23T17:37:07Z</time></trkpt><trkpt lat="42.78657233135976" lon="10.402640164761952"><ele>77.5</ele><time>2026-04-23T17:37:09Z</time></trkpt><trkpt lat="42.78663899786041" lon="10.402657054700988"><ele>79.0</ele><time>2026-04-23T17:37:10Z</time></trkpt><trkpt lat="42.78669717926593" lon="10.402702960479422"><ele>80.5</ele><time>2026-04-23T17:37:11Z</time></trkpt><trkpt lat="42.786739874842446" lon="10.402780505967261"><ele>82.0</ele><time>2026-04-23T17:37:12Z</time></trkpt><trkpt lat="42.78677316008018" lon="10.402874200984641"><ele>82.0</ele><time>2026-04-23T17:37:13Z</time></trkpt><trkpt lat="42.786811199982914" lon="10.402980943810848"><ele>82.0</ele><time>2026-04-23T17:37:14Z</time></trkpt><trkpt lat="42.786840318297415" lon="10.403101085155052"><ele>82.0</ele><time>2026-04-23T17:37:15Z</time></trkpt><trkpt lat="42.78687076807252" lon="10.403213318545617"><ele>82.0</ele><time>2026-04-23T17:37:16Z</time></trkpt><trkpt lat="42.78689320616577" lon="10.403335103939876"><ele>82.0</ele><time>2026-04-23T17:37:17Z</time></trkpt><trkpt lat="42.7869225079682" lon="10.403452915740502"><ele>81.6</ele><time>2026-04-23T17:37:18Z</time></trkpt><trkpt lat="42.786950806476554" lon="10.403571407855502"><ele>81.19999999999999</ele><time>2026-04-23T17:37:19Z</time></trkpt><trkpt lat="42.7869843595039" lon="10.403682176276709"><ele>80.8</ele><time>2026-04-23T17:37:20Z</time></trkpt><trkpt lat="42.78702262199038" lon="10.403792764842052"><ele>80.4</ele><time>2026-04-23T17:37:21Z</time></trkpt><trkpt lat="42.787075622082874" lon="10.403892341252599"><ele>80.0</ele><time>2026-04-23T17:37:22Z</time></trkpt><trkpt lat="42.78714739182738" lon="10.403976714187273"><ele>80.0</ele><time>2026-04-23T17:37:23Z</time></trkpt><trkpt lat="42.78722919270228" lon="10.404040473982644"><ele>80.0</ele><time>2026-04-23T17:37:24Z</time></trkpt><trkpt lat="42.78733060003115" lon="10.404072633068472"><ele>80.0</ele><time>2026-04-23T17:37:25Z</time></trkpt><trkpt lat="42.78742995155012" lon="10.404078607544996"><ele>80.0</ele><time>2026-04-23T17:37:26Z</time></trkpt><trkpt lat="42.78753148328727" lon="10.404061915281586"><ele>80.0</ele><time>2026-04-23T17:37:27Z</time></trkpt><trkpt lat="42.787631198849404" lon="10.40404459372425"><ele>82.6</ele><time>2026-04-23T17:37:28Z</time></trkpt><trkpt lat="42.78772959119543" lon="10.40402893621075"><ele>85.2</ele><time>2026-04-23T17:37:29Z</time></trkpt><trkpt lat="42.78782674647148" lon="10.404012211165446"><ele>87.80000000000001</ele><time>2026-04-23T17:37:30Z</time></trkpt><trkpt lat="42.78792716849071" lon="10.403994030368619"><ele>90.4</ele><time>2026-04-23T17:37:31Z</time></trkpt><trkpt lat="42.78802850517172" lon="10.403981476473337"><ele>93.0</ele><time>2026-04-23T17:37:32Z</time></trkpt><trkpt lat="42.788129783135" lon="10.403972249624886"><ele>93.0</ele><time>2026-04-23T17:37:33Z</time></trkpt><trkpt lat="42.788229176989724" lon="10.40396553944267"><ele>93.0</ele><time>2026-04-23T17:37:34Z</time></trkpt><trkpt lat="42.78832646806069" lon="10.403998074517492"><ele>93.0</ele><time>2026-04-23T17:37:35Z</time></trkpt><trkpt lat="42.78842638085149" lon="10.404018030596454"><ele>93.0</ele><time>2026-04-23T17:37:36Z</time></trkpt><trkpt lat="42.78852681147053" lon="10.404044848970942"><ele>93.0</ele><time>2026-04-23T17:37:37Z</time></trkpt><trkpt lat="42.78862489778997" lon="10.404071686131047"><ele>95.0</ele><time>2026-04-23T17:37:38Z</time></trkpt><trkpt lat="42.788722100267655" lon="10.404096405494403"><ele>97.0</ele><time>2026-04-23T17:37:39Z</time></trkpt><trkpt lat="42.788817579200945" lon="10.404118485440362"><ele>99.0</ele><time>2026-04-23T17:37:40Z</time></trkpt><trkpt lat="42.78891155270838" lon="10.40413223943822"><ele>101.0</ele><time>2026-04-23T17:37:41Z</time></trkpt><trkpt lat="42.78900565085371" lon="10.404138939739505"><ele>103.0</ele><time>2026-04-23T17:37:42Z</time></trkpt><trkpt lat="42.78910185882345" lon="10.404138351117634"><ele>103.00000000000001</ele><time>2026-04-23T17:37:43Z</time></trkpt><trkpt lat="42.789192722171684" lon="10.40412946260227"><ele>103.0</ele><time>2026-04-23T17:37:44Z</time></trkpt><trkpt lat="42.789269028384474" lon="10.404115592350195"><ele>103.0</ele><time>2026-04-23T17:37:45Z</time></trkpt><trkpt lat="42.7893348418991" lon="10.404103629361444"><ele>103.0</ele><time>2026-04-23T17:37:46Z</time></trkpt><trkpt lat="42.7894336112742" lon="10.40409371928643"><ele>103.00000000000001</ele><time>2026-04-23T17:37:48Z</time></trkpt><trkpt lat="42.78953268074964" lon="10.404112207150979"><ele>103.0</ele><time>2026-04-23T17:37:50Z</time></trkpt><trkpt lat="42.78960958463856" lon="10.404199130510095"><ele>104.66666666666667</ele><time>2026-04-23T17:37:52Z</time></trkpt><trkpt lat="42.78963204691615" lon="10.404354376785083"><ele>106.33333333333334</ele><time>2026-04-23T17:37:54Z</time></trkpt><trkpt lat="42.78961396348994" lon="10.404445030206741"><ele>108.0</ele><time>2026-04-23T17:37:55Z</time></trkpt><trkpt lat="42.78956550009396" lon="10.404534607111943"><ele>109.66666666666666</ele><time>2026-04-23T17:37:56Z</time></trkpt><trkpt lat="42.78951168508158" lon="10.404622785737686"><ele>111.33333333333333</ele><time>2026-04-23T17:37:57Z</time></trkpt><trkpt lat="42.78945434450647" lon="10.404713581914756"><ele>113.0</ele><time>2026-04-23T17:37:58Z</time></trkpt><trkpt lat="42.78939554647538" lon="10.404806685875197"><ele>111.0</ele><time>2026-04-23T17:37:59Z</time></trkpt><trkpt lat="42.78933826957293" lon="10.40489568187671"><ele>109.00000000000001</ele><time>2026-04-23T17:38:00Z</time></trkpt><trkpt lat="42.7892734079876" lon="10.404972233440565"><ele>107.0</ele><time>2026-04-23T17:38:01Z</time></trkpt><trkpt lat="42.78919435922916" lon="10.40503874198077"><ele>105.0</ele><time>2026-04-23T17:38:02Z</time></trkpt><trkpt lat="42.789094537334094" lon="10.405050829133629"><ele>103.0</ele><time>2026-04-23T17:38:03Z</time></trkpt><trkpt lat="42.78899255905648" lon="10.405040345854623"><ele>103.0</ele><time>2026-04-23T17:38:04Z</time></trkpt><trkpt lat="42.788891421389906" lon="10.405029056463851"><ele>103.0</ele><time>2026-04-23T17:38:05Z</time></trkpt><trkpt lat="42.78879131265617" lon="10.405020636591525"><ele>103.0</ele><time>2026-04-23T17:38:06Z</time></trkpt><trkpt lat="42.78868820233639" lon="10.405024579735809"><ele>103.0</ele><time>2026-04-23T17:38:07Z</time></trkpt><trkpt lat="42.78858354215291" lon="10.405044536002084"><ele>103.0</ele><time>2026-04-23T17:38:08Z</time></trkpt><trkpt lat="42.788475741038035" lon="10.40506236673451"><ele>101.4</ele><time>2026-04-23T17:38:09Z</time></trkpt><trkpt lat="42.788371266569385" lon="10.405124038786528"><ele>99.80000000000001</ele><time>2026-04-23T17:38:10Z</time></trkpt><trkpt lat="42.78827786929941" lon="10.40520882158991"><ele>98.2</ele><time>2026-04-23T17:38:11Z</time></trkpt><trkpt lat="42.78819786368426" lon="10.405312142753477"><ele>96.6</ele><time>2026-04-23T17:38:12Z</time></trkpt><trkpt lat="42.78812825239861" lon="10.405422900921169"><ele>95.0</ele><time>2026-04-23T17:38:13Z</time></trkpt><trkpt lat="42.788068608238184" lon="10.405542108482715"><ele>98.8</ele><time>2026-04-23T17:38:14Z</time></trkpt><trkpt lat="42.78801613030253" lon="10.405659804203227"><ele>102.6</ele><time>2026-04-23T17:38:15Z</time></trkpt><trkpt lat="42.78797542687987" lon="10.405779181628507"><ele>106.4</ele><time>2026-04-23T17:38:16Z</time></trkpt><trkpt lat="42.78794744874169" lon="10.405911136707143"><ele>110.2</ele><time>2026-04-23T17:38:17Z</time></trkpt><trkpt lat="42.78794204690591" lon="10.406049493069032"><ele>114.0</ele><time>2026-04-23T17:38:18Z</time></trkpt><trkpt lat="42.78796240288439" lon="10.406190472217254"><ele>114.0</ele><time>2026-04-23T17:38:19Z</time></trkpt><trkpt lat="42.788009802186245" lon="10.406327510812183"><ele>114.0</ele><time>2026-04-23T17:38:20Z</time></trkpt><trkpt lat="42.78805684911471" lon="10.406450850701527"><ele>114.0</ele><time>2026-04-23T17:38:21Z</time></trkpt><trkpt lat="42.7881054975778" lon="10.406576504217776"><ele>114.0</ele><time>2026-04-23T17:38:22Z</time></trkpt><trkpt lat="42.78815542627214" lon="10.406700254277109"><ele>114.0</ele><time>2026-04-23T17:38:23Z</time></trkpt><trkpt lat="42.78820341428836" lon="10.406818777716248"><ele>114.0</ele><time>2026-04-23T17:38:24Z</time></trkpt><trkpt lat="42.78825033008475" lon="10.40693465299807"><ele>114.0</ele><time>2026-04-23T17:38:25Z</time></trkpt><trkpt lat="42.788296358736545" lon="10.407050810703018"><ele>114.0</ele><time>2026-04-23T17:38:26Z</time></trkpt><trkpt lat="42.78833941986253" lon="10.407164024278941"><ele>114.0</ele><time>2026-04-23T17:38:27Z</time></trkpt><trkpt lat="42.78837633840766" lon="10.407280188420401"><ele>114.0</ele><time>2026-04-23T17:38:28Z</time></trkpt><trkpt lat="42.78839525074827" lon="10.407414124704694"><ele>114.0</ele><time>2026-04-23T17:38:29Z</time></trkpt><trkpt lat="42.78838104034418" lon="10.407539934028346"><ele>114.0</ele><time>2026-04-23T17:38:30Z</time></trkpt><trkpt lat="42.788377026971425" lon="10.407672297604574"><ele>114.0</ele><time>2026-04-23T17:38:31Z</time></trkpt><trkpt lat="42.78834123348141" lon="10.407794112973981"><ele>114.0</ele><time>2026-04-23T17:38:32Z</time></trkpt><trkpt lat="42.78831571699358" lon="10.407913201562971"><ele>114.0</ele><time>2026-04-23T17:38:33Z</time></trkpt><trkpt lat="42.78830421175525" lon="10.408034330109476"><ele>114.2</ele><time>2026-04-23T17:38:34Z</time></trkpt><trkpt lat="42.788288591882264" lon="10.408164471407193"><ele>114.4</ele><time>2026-04-23T17:38:35Z</time></trkpt><trkpt lat="42.78833796900325" lon="10.408291448455778"><ele>114.6</ele><time>2026-04-23T17:38:36Z</time></trkpt><trkpt lat="42.78840694351618" lon="10.408396742551313"><ele>114.8</ele><time>2026-04-23T17:38:37Z</time></trkpt><trkpt lat="42.788483507282635" lon="10.408486104990562"><ele>115.0</ele><time>2026-04-23T17:38:38Z</time></trkpt><trkpt lat="42.78856587069262" lon="10.40856325695767"><ele>118.6</ele><time>2026-04-23T17:38:39Z</time></trkpt><trkpt lat="42.788655933355074" lon="10.408630276619732"><ele>122.2</ele><time>2026-04-23T17:38:40Z</time></trkpt><trkpt lat="42.788746362279355" lon="10.408682759918898"><ele>125.80000000000001</ele><time>2026-04-23T17:38:41Z</time></trkpt><trkpt lat="42.78882496179354" lon="10.408720019072373"><ele>129.4</ele><time>2026-04-23T17:38:42Z</time></trkpt><trkpt lat="42.7888922958836" lon="10.408748210575713"><ele>133.0</ele><time>2026-04-23T17:38:43Z</time></trkpt><trkpt lat="42.7890036863513" lon="10.408797056797532"><ele>133.0</ele><time>2026-04-23T17:38:45Z</time></trkpt><trkpt lat="42.789066354683996" lon="10.408806199901969"><ele>133.0</ele><time>2026-04-23T17:38:46Z</time></trkpt><trkpt lat="42.78911136846181" lon="10.408867476265113"><ele>133.0</ele><time>2026-04-23T17:38:47Z</time></trkpt><trkpt lat="42.789165445470886" lon="10.408917706834037"><ele>133.0</ele><time>2026-04-23T17:38:48Z</time></trkpt><trkpt lat="42.789223060675276" lon="10.408970710282118"><ele>133.0</ele><time>2026-04-23T17:38:49Z</time></trkpt><trkpt lat="42.78921535079486" lon="10.409085938039025"><ele>133.0</ele><time>2026-04-23T17:38:50Z</time></trkpt><trkpt lat="42.78921374696126" lon="10.409197096311958"><ele>133.0</ele><time>2026-04-23T17:38:51Z</time></trkpt><trkpt lat="42.78919082020663" lon="10.409307497566372"><ele>132.8</ele><time>2026-04-23T17:38:52Z</time></trkpt><trkpt lat="42.78916649735146" lon="10.409430638958169"><ele>132.60000000000002</ele><time>2026-04-23T17:38:53Z</time></trkpt><trkpt lat="42.78913914686499" lon="10.409564000196248"><ele>132.39999999999998</ele><time>2026-04-23T17:38:54Z</time></trkpt><trkpt lat="42.78911048292715" lon="10.40970131076473"><ele>132.2</ele><time>2026-04-23T17:38:55Z</time></trkpt><trkpt lat="42.789081229941644" lon="10.409836948631966"><ele>132.0</ele><time>2026-04-23T17:38:56Z</time></trkpt><trkpt lat="42.789055608631834" lon="10.409955747427322"><ele>132.0</ele><time>2026-04-23T17:38:57Z</time></trkpt><trkpt lat="42.7890308680996" lon="10.410070462344686"><ele>132.0</ele><time>2026-04-23T17:38:58Z</time></trkpt><trkpt lat="42.789006687885646" lon="10.410186140359103"><ele>132.0</ele><time>2026-04-23T17:38:59Z</time></trkpt><trkpt lat="42.789000264857506" lon="10.410305001883877"><ele>132.0</ele><time>2026-04-23T17:39:00Z</time></trkpt><trkpt lat="42.78898299489838" lon="10.410414356479366"><ele>132.0</ele><time>2026-04-23T17:39:01Z</time></trkpt><trkpt lat="42.78895494217048" lon="10.410517242296082"><ele>132.0</ele><time>2026-04-23T17:39:02Z</time></trkpt><trkpt lat="42.78899261991783" lon="10.410639409601773"><ele>132.6</ele><time>2026-04-23T17:39:03Z</time></trkpt><trkpt lat="42.78904986340827" lon="10.410749231901006"><ele>133.2</ele><time>2026-04-23T17:39:04Z</time></trkpt><trkpt lat="42.78911727220649" lon="10.410842707069769"><ele>133.8</ele><time>2026-04-23T17:39:05Z</time></trkpt><trkpt lat="42.789191785960405" lon="10.410920190007861"><ele>134.4</ele><time>2026-04-23T17:39:06Z</time></trkpt><trkpt lat="42.789266818518755" lon="10.411004826147616"><ele>135.0</ele><time>2026-04-23T17:39:07Z</time></trkpt><trkpt lat="42.789354234754086" lon="10.411078141001585"><ele>135.4</ele><time>2026-04-23T17:39:08Z</time></trkpt><trkpt lat="42.789424912435116" lon="10.411172564337894"><ele>135.8</ele><time>2026-04-23T17:39:09Z</time></trkpt><trkpt lat="42.7894850562978" lon="10.411263807970277"><ele>136.2</ele><time>2026-04-23T17:39:10Z</time></trkpt><trkpt lat="42.789542170608954" lon="10.41136303854688"><ele>136.6</ele><time>2026-04-23T17:39:11Z</time></trkpt><trkpt lat="42.789592192353126" lon="10.411484297801925"><ele>137.0</ele><time>2026-04-23T17:39:12Z</time></trkpt><trkpt lat="42.789629720655675" lon="10.411624623177005"><ele>137.0</ele><time>2026-04-23T17:39:13Z</time></trkpt><trkpt lat="42.7896566032294" lon="10.411776376714913"><ele>137.0</ele><time>2026-04-23T17:39:14Z</time></trkpt><trkpt lat="42.789669982599" lon="10.411924841343335"><ele>137.0</ele><time>2026-04-23T17:39:15Z</time></trkpt><trkpt lat="42.78965117192502" lon="10.412072295468487"><ele>137.0</ele><time>2026-04-23T17:39:16Z</time></trkpt><trkpt lat="42.78965373984807" lon="10.412222824860656"><ele>137.0</ele><time>2026-04-23T17:39:17Z</time></trkpt><trkpt lat="42.78965605818434" lon="10.412363437088114"><ele>136.2</ele><time>2026-04-23T17:39:18Z</time></trkpt><trkpt lat="42.78965833988151" lon="10.412501827039506"><ele>135.39999999999998</ele><time>2026-04-23T17:39:19Z</time></trkpt><trkpt lat="42.7896590819574" lon="10.412640440816755"><ele>134.60000000000002</ele><time>2026-04-23T17:39:20Z</time></trkpt><trkpt lat="42.789659564544" lon="10.412773779608871"><ele>133.8</ele><time>2026-04-23T17:39:21Z</time></trkpt><trkpt lat="42.78967766902409" lon="10.412897392351477"><ele>133.0</ele><time>2026-04-23T17:39:22Z</time></trkpt><trkpt lat="42.78968737019011" lon="10.413015465134524"><ele>132.0</ele><time>2026-04-23T17:39:23Z</time></trkpt><trkpt lat="42.789709973463246" lon="10.413135434989353"><ele>131.0</ele><time>2026-04-23T17:39:24Z</time></trkpt><trkpt lat="42.78973347448118" lon="10.413259776923136"><ele>130.0</ele><time>2026-04-23T17:39:25Z</time></trkpt><trkpt lat="42.789784291491735" lon="10.413353406805713"><ele>129.0</ele><time>2026-04-23T17:39:26Z</time></trkpt><trkpt lat="42.789852335946975" lon="10.413427361185072"><ele>128.0</ele><time>2026-04-23T17:39:27Z</time></trkpt><trkpt lat="42.78994242549814" lon="10.413470384223496"><ele>128.0</ele><time>2026-04-23T17:39:28Z</time></trkpt><trkpt lat="42.790035881470224" lon="10.413459450054164"><ele>128.0</ele><time>2026-04-23T17:39:29Z</time></trkpt><trkpt lat="42.79012902243974" lon="10.413466393607328"><ele>128.0</ele><time>2026-04-23T17:39:30Z</time></trkpt><trkpt lat="42.79021549741801" lon="10.413423466230455"><ele>128.0</ele><time>2026-04-23T17:39:31Z</time></trkpt><trkpt lat="42.79028762701628" lon="10.41333774810531"><ele>128.0</ele><time>2026-04-23T17:39:32Z</time></trkpt><trkpt lat="42.79035293054065" lon="10.413265844616229"><ele>129.0</ele><time>2026-04-23T17:39:33Z</time></trkpt><trkpt lat="42.790416890988055" lon="10.41319824563882"><ele>130.0</ele><time>2026-04-23T17:39:34Z</time></trkpt><trkpt lat="42.79047827786756" lon="10.413134309591886"><ele>131.0</ele><time>2026-04-23T17:39:35Z</time></trkpt><trkpt lat="42.79054059922259" lon="10.41306571011866"><ele>132.0</ele><time>2026-04-23T17:39:36Z</time></trkpt><trkpt lat="42.79060314209786" lon="10.413017571217306"><ele>133.0</ele><time>2026-04-23T17:39:37Z</time></trkpt><trkpt lat="42.790667222642846" lon="10.412942949851661"><ele>134.0</ele><time>2026-04-23T17:39:38Z</time></trkpt><trkpt lat="42.790738549837826" lon="10.4128722936388"><ele>134.0</ele><time>2026-04-23T17:39:39Z</time></trkpt><trkpt lat="42.79081831100172" lon="10.412813332395311"><ele>134.0</ele><time>2026-04-23T17:39:40Z</time></trkpt><trkpt lat="42.7909032704507" lon="10.412760503735985"><ele>134.0</ele><time>2026-04-23T17:39:41Z</time></trkpt><trkpt lat="42.79097919536823" lon="10.412709053158428"><ele>134.0</ele><time>2026-04-23T17:39:42Z</time></trkpt><trkpt lat="42.791056196958785" lon="10.412679541654274"><ele>134.0</ele><time>2026-04-23T17:39:43Z</time></trkpt><trkpt lat="42.79113219957557" lon="10.412636656949994"><ele>134.0</ele><time>2026-04-23T17:39:44Z</time></trkpt><trkpt lat="42.79120918904795" lon="10.412608353755001"><ele>133.0</ele><time>2026-04-23T17:39:45Z</time></trkpt><trkpt lat="42.79128993646937" lon="10.412594595093331"><ele>132.0</ele><time>2026-04-23T17:39:46Z</time></trkpt><trkpt lat="42.79136750186425" lon="10.412616762851636"><ele>131.0</ele><time>2026-04-23T17:39:47Z</time></trkpt><trkpt lat="42.791444312760845" lon="10.412638316726051"><ele>130.0</ele><time>2026-04-23T17:39:48Z</time></trkpt><trkpt lat="42.791511256124906" lon="10.41266338738498"><ele>129.0</ele><time>2026-04-23T17:39:49Z</time></trkpt><trkpt lat="42.79157307282564" lon="10.41268565833255"><ele>128.0</ele><time>2026-04-23T17:39:50Z</time></trkpt><trkpt lat="42.791684237277" lon="10.412723088752857"><ele>127.99999999999999</ele><time>2026-04-23T17:39:52Z</time></trkpt><trkpt lat="42.791800880783654" lon="10.412739301863247"><ele>128.0</ele><time>2026-04-23T17:39:54Z</time></trkpt><trkpt lat="42.79186589469612" lon="10.41272818876679"><ele>128.0</ele><time>2026-04-23T17:39:55Z</time></trkpt><trkpt lat="42.791936218317005" lon="10.412680919686355"><ele>128.0</ele><time>2026-04-23T17:39:56Z</time></trkpt><trkpt lat="42.79198338961265" lon="10.412591992939772"><ele>127.99999999999999</ele><time>2026-04-23T17:39:57Z</time></trkpt><trkpt lat="42.79202389099547" lon="10.41250337097708"><ele>128.0</ele><time>2026-04-23T17:39:58Z</time></trkpt><trkpt lat="42.79204428165298" lon="10.412398726714558"><ele>127.16666666666666</ele><time>2026-04-23T17:39:59Z</time></trkpt><trkpt lat="42.79204428117283" lon="10.412284438964772"><ele>126.33333333333333</ele><time>2026-04-23T17:40:00Z</time></trkpt><trkpt lat="42.79203249080623" lon="10.412170869776597"><ele>125.5</ele><time>2026-04-23T17:40:01Z</time></trkpt><trkpt lat="42.79201834699744" lon="10.412067703427589"><ele>124.66666666666666</ele><time>2026-04-23T17:40:02Z</time></trkpt><trkpt lat="42.79200462252288" lon="10.411977140708517"><ele>123.83333333333333</ele><time>2026-04-23T17:40:03Z</time></trkpt><trkpt lat="42.79199160009614" lon="10.411892438409055"><ele>123.0</ele><time>2026-04-23T17:40:04Z</time></trkpt><trkpt lat="42.79197486858831" lon="10.41172992140901"><ele>123.0</ele><time>2026-04-23T17:40:06Z</time></trkpt><trkpt lat="42.791997319239464" lon="10.411636799845443"><ele>123.0</ele><time>2026-04-23T17:40:07Z</time></trkpt><trkpt lat="42.79204124098023" lon="10.411559798668396"><ele>123.0</ele><time>2026-04-23T17:40:08Z</time></trkpt><trkpt lat="42.792115207798915" lon="10.411532354432772"><ele>123.0</ele><time>2026-04-23T17:40:09Z</time></trkpt><trkpt lat="42.79219120442468" lon="10.411515079996676"><ele>123.0</ele><time>2026-04-23T17:40:10Z</time></trkpt><trkpt lat="42.7922693500581" lon="10.411497870816916"><ele>123.0</ele><time>2026-04-23T17:40:11Z</time></trkpt><trkpt lat="42.79234886496351" lon="10.411458573388112"><ele>123.0</ele><time>2026-04-23T17:40:12Z</time></trkpt><trkpt lat="42.792430614325625" lon="10.41143081816163"><ele>123.00000000000001</ele><time>2026-04-23T17:40:13Z</time></trkpt><trkpt lat="42.79251408653431" lon="10.411403576990285"><ele>123.00000000000001</ele><time>2026-04-23T17:40:14Z</time></trkpt><trkpt lat="42.792583856635474" lon="10.411312601856528"><ele>123.0</ele><time>2026-04-23T17:40:15Z</time></trkpt><trkpt lat="42.79265704944517" lon="10.411236288967515"><ele>123.0</ele><time>2026-04-23T17:40:16Z</time></trkpt><trkpt lat="42.79272835975759" lon="10.411149589499251"><ele>122.2</ele><time>2026-04-23T17:40:17Z</time></trkpt><trkpt lat="42.79279886823737" lon="10.411051035933207"><ele>121.4</ele><time>2026-04-23T17:40:18Z</time></trkpt><trkpt lat="42.7928722060964" lon="10.410955605922249"><ele>120.60000000000001</ele><time>2026-04-23T17:40:19Z</time></trkpt><trkpt lat="42.79294380359754" lon="10.410862309597146"><ele>119.80000000000001</ele><time>2026-04-23T17:40:20Z</time></trkpt><trkpt lat="42.79301325720762" lon="10.410769692277386"><ele>119.0</ele><time>2026-04-23T17:40:21Z</time></trkpt><trkpt lat="42.79307923501059" lon="10.410669325062592"><ele>119.0</ele><time>2026-04-23T17:40:22Z</time></trkpt><trkpt lat="42.79314233493628" lon="10.41056754039283"><ele>119.0</ele><time>2026-04-23T17:40:23Z</time></trkpt><trkpt lat="42.79320406880777" lon="10.410460153745028"><ele>119.0</ele><time>2026-04-23T17:40:24Z</time></trkpt><trkpt lat="42.79325894730929" lon="10.410343651945682"><ele>119.0</ele><time>2026-04-23T17:40:25Z</time></trkpt><trkpt lat="42.79330892534957" lon="10.410219077832906"><ele>119.0</ele><time>2026-04-23T17:40:26Z</time></trkpt><trkpt lat="42.79335672754324" lon="10.410088261573572"><ele>118.4</ele><time>2026-04-23T17:40:27Z</time></trkpt><trkpt lat="42.79340041033232" lon="10.409960096805243"><ele>117.80000000000001</ele><time>2026-04-23T17:40:28Z</time></trkpt><trkpt lat="42.7934414069569" lon="10.409844965213328"><ele>117.19999999999999</ele><time>2026-04-23T17:40:29Z</time></trkpt><trkpt lat="42.79347944501201" lon="10.409735846770767"><ele>116.6</ele><time>2026-04-23T17:40:30Z</time></trkpt><trkpt lat="42.79351958919196" lon="10.409628254278125"><ele>116.0</ele><time>2026-04-23T17:40:31Z</time></trkpt><trkpt lat="42.793554797493066" lon="10.409514687136257"><ele>115.99999999999999</ele><time>2026-04-23T17:40:32Z</time></trkpt><trkpt lat="42.793587229712585" lon="10.409407160556725"><ele>116.0</ele><time>2026-04-23T17:40:33Z</time></trkpt><trkpt lat="42.793627103465155" lon="10.4093045605983"><ele>116.0</ele><time>2026-04-23T17:40:34Z</time></trkpt><trkpt lat="42.79366785351781" lon="10.409197714694825"><ele>116.0</ele><time>2026-04-23T17:40:35Z</time></trkpt><trkpt lat="42.79370829524752" lon="10.409088366632401"><ele>115.99999999999999</ele><time>2026-04-23T17:40:36Z</time></trkpt><trkpt lat="42.79374890201297" lon="10.408978730822971"><ele>116.0</ele><time>2026-04-23T17:40:37Z</time></trkpt><trkpt lat="42.79378393881927" lon="10.408865062875401"><ele>117.16666666666666</ele><time>2026-04-23T17:40:38Z</time></trkpt><trkpt lat="42.793816606462" lon="10.408750756111159"><ele>118.33333333333333</ele><time>2026-04-23T17:40:39Z</time></trkpt><trkpt lat="42.79385043556453" lon="10.408637634894411"><ele>119.5</ele><time>2026-04-23T17:40:40Z</time></trkpt><trkpt lat="42.79387861507061" lon="10.408528448505647"><ele>120.66666666666666</ele><time>2026-04-23T17:40:41Z</time></trkpt><trkpt lat="42.79390056835432" lon="10.40842717816211"><ele>121.83333333333333</ele><time>2026-04-23T17:40:42Z</time></trkpt><trkpt lat="42.79392258328428" lon="10.408324634655246"><ele>123.0</ele><time>2026-04-23T17:40:43Z</time></trkpt><trkpt lat="42.79394514881392" lon="10.40822450604039"><ele>123.0</ele><time>2026-04-23T17:40:44Z</time></trkpt><trkpt lat="42.79396688939729" lon="10.408124446754705"><ele>123.0</ele><time>2026-04-23T17:40:45Z</time></trkpt><trkpt lat="42.79399005789525" lon="10.408020744436898"><ele>123.0</ele><time>2026-04-23T17:40:46Z</time></trkpt><trkpt lat="42.79401999567079" lon="10.40792358232065"><ele>123.0</ele><time>2026-04-23T17:40:47Z</time></trkpt><trkpt lat="42.79406848369021" lon="10.407833391678775"><ele>123.0</ele><time>2026-04-23T17:40:48Z</time></trkpt><trkpt lat="42.79412973671353" lon="10.407762936044241"><ele>123.0</ele><time>2026-04-23T17:40:49Z</time></trkpt><trkpt lat="42.794202362704695" lon="10.407715471304085"><ele>124.16666666666667</ele><time>2026-04-23T17:40:50Z</time></trkpt><trkpt lat="42.79428178932704" lon="10.407687366161328"><ele>125.33333333333334</ele><time>2026-04-23T17:40:51Z</time></trkpt><trkpt lat="42.7943675010435" lon="10.407685282485803"><ele>126.5</ele><time>2026-04-23T17:40:52Z</time></trkpt><trkpt lat="42.79445346069261" lon="10.40767892502131"><ele>127.66666666666667</ele><time>2026-04-23T17:40:53Z</time></trkpt><trkpt lat="42.794541416568194" lon="10.407682127348647"><ele>128.83333333333334</ele><time>2026-04-23T17:40:54Z</time></trkpt><trkpt lat="42.79462926577842" lon="10.40768863516952"><ele>130.0</ele><time>2026-04-23T17:40:55Z</time></trkpt><trkpt lat="42.79470747439613" lon="10.407690169397796"><ele>130.0</ele><time>2026-04-23T17:40:56Z</time></trkpt><trkpt lat="42.79477444156765" lon="10.40770216249578"><ele>130.0</ele><time>2026-04-23T17:40:57Z</time></trkpt><trkpt lat="42.79488617557697" lon="10.407701062021301"><ele>130.0</ele><time>2026-04-23T17:40:59Z</time></trkpt><trkpt lat="42.79499546538714" lon="10.407672988656353"><ele>130.0</ele><time>2026-04-23T17:41:01Z</time></trkpt><trkpt lat="42.79509431706532" lon="10.407565079112812"><ele>130.0</ele><time>2026-04-23T17:41:03Z</time></trkpt><trkpt lat="42.795133255802654" lon="10.407407304882293"><ele>130.00000000000003</ele><time>2026-04-23T17:41:05Z</time></trkpt><trkpt lat="42.79512522774108" lon="10.407316836291102"><ele>130.0</ele><time>2026-04-23T17:41:06Z</time></trkpt><trkpt lat="42.79509657686525" lon="10.407231932042837"><ele>130.0</ele><time>2026-04-23T17:41:07Z</time></trkpt><trkpt lat="42.795053827731095" lon="10.40715376528957"><ele>130.0</ele><time>2026-04-23T17:41:08Z</time></trkpt><trkpt lat="42.79499994576806" lon="10.407081810861133"><ele>130.0</ele><time>2026-04-23T17:41:09Z</time></trkpt><trkpt lat="42.79494255314949" lon="10.407009966902846"><ele>130.00000000000003</ele><time>2026-04-23T17:41:10Z</time></trkpt><trkpt lat="42.7948858953815" lon="10.406941401670185"><ele>130.0</ele><time>2026-04-23T17:41:11Z</time></trkpt><trkpt lat="42.79482663112146" lon="10.406869114258866"><ele>128.66666666666669</ele><time>2026-04-23T17:41:12Z</time></trkpt><trkpt lat="42.7947647329205" lon="10.406795550435831"><ele>127.33333333333334</ele><time>2026-04-23T17:41:13Z</time></trkpt><trkpt lat="42.79470402092004" lon="10.40672206442319"><ele>126.0</ele><time>2026-04-23T17:41:14Z</time></trkpt><trkpt lat="42.794644151344556" lon="10.406634410639317"><ele>124.66666666666666</ele><time>2026-04-23T17:41:15Z</time></trkpt><trkpt lat="42.79459433970875" lon="10.406537831256674"><ele>123.33333333333333</ele><time>2026-04-23T17:41:16Z</time></trkpt><trkpt lat="42.7945565060449" lon="10.406436880312228"><ele>122.0</ele><time>2026-04-23T17:41:17Z</time></trkpt><trkpt lat="42.79452102634439" lon="10.40633218942475"><ele>124.16666666666666</ele><time>2026-04-23T17:41:18Z</time></trkpt><trkpt lat="42.7944874428177" lon="10.406231699015065"><ele>126.33333333333333</ele><time>2026-04-23T17:41:19Z</time></trkpt><trkpt lat="42.79445160521133" lon="10.406127288405761"><ele>128.5</ele><time>2026-04-23T17:41:20Z</time></trkpt><trkpt lat="42.794411290782186" lon="10.406021669447314"><ele>130.66666666666666</ele><time>2026-04-23T17:41:21Z</time></trkpt><trkpt lat="42.79436137931237" lon="10.40591848809476"><ele>132.83333333333334</ele><time>2026-04-23T17:41:22Z</time></trkpt><trkpt lat="42.79430644910054" lon="10.40581725901684"><ele>135.0</ele><time>2026-04-23T17:41:23Z</time></trkpt><trkpt lat="42.79425358318211" lon="10.405722685634633"><ele>135.0</ele><time>2026-04-23T17:41:24Z</time></trkpt><trkpt lat="42.79419974787619" lon="10.405628251759353"><ele>135.0</ele><time>2026-04-23T17:41:25Z</time></trkpt><trkpt lat="42.794148581393685" lon="10.405543100382578"><ele>135.0</ele><time>2026-04-23T17:41:26Z</time></trkpt><trkpt lat="42.79410144958421" lon="10.405461235715434"><ele>135.0</ele><time>2026-04-23T17:41:27Z</time></trkpt><trkpt lat="42.794061344138434" lon="10.40538457201889"><ele>135.0</ele><time>2026-04-23T17:41:28Z</time></trkpt><trkpt lat="42.79402187503757" lon="10.405306607576854"><ele>135.0</ele><time>2026-04-23T17:41:29Z</time></trkpt><trkpt lat="42.79397746206375" lon="10.405225752229633"><ele>134.28571428571428</ele><time>2026-04-23T17:41:30Z</time></trkpt><trkpt lat="42.793938033174456" lon="10.405140054525845"><ele>133.57142857142856</ele><time>2026-04-23T17:41:31Z</time></trkpt><trkpt lat="42.793921978244185" lon="10.405042811795115"><ele>132.85714285714286</ele><time>2026-04-23T17:41:32Z</time></trkpt><trkpt lat="42.79392268847463" lon="10.40495118686819"><ele>132.14285714285714</ele><time>2026-04-23T17:41:33Z</time></trkpt><trkpt lat="42.79394868117198" lon="10.40486820296723"><ele>131.42857142857144</ele><time>2026-04-23T17:41:34Z</time></trkpt><trkpt lat="42.79398062582616" lon="10.404784765000676"><ele>130.71428571428572</ele><time>2026-04-23T17:41:35Z</time></trkpt><trkpt lat="42.794016534991556" lon="10.404689599859948"><ele>130.0</ele><time>2026-04-23T17:41:36Z</time></trkpt><trkpt lat="42.79405178771895" lon="10.404594042361833"><ele>130.0</ele><time>2026-04-23T17:41:37Z</time></trkpt><trkpt lat="42.79408652376261" lon="10.404498608344463"><ele>130.0</ele><time>2026-04-23T17:41:38Z</time></trkpt><trkpt lat="42.79411524888247" lon="10.40439399554453"><ele>130.0</ele><time>2026-04-23T17:41:39Z</time></trkpt><trkpt lat="42.79412168082275" lon="10.404282331514041"><ele>130.0</ele><time>2026-04-23T17:41:40Z</time></trkpt><trkpt lat="42.79412352656251" lon="10.404170591821945"><ele>130.0</ele><time>2026-04-23T17:41:41Z</time></trkpt><trkpt lat="42.79410506979716" lon="10.4040582478969"><ele>130.0</ele><time>2026-04-23T17:41:42Z</time></trkpt><trkpt lat="42.79408074727895" lon="10.40395179597699"><ele>130.00000000000003</ele><time>2026-04-23T17:41:43Z</time></trkpt><trkpt lat="42.79405777933905" lon="10.403855695298363"><ele>130.0</ele><time>2026-04-23T17:41:44Z</time></trkpt><trkpt lat="42.79404271053214" lon="10.403768089044894"><ele>130.0</ele><time>2026-04-23T17:41:45Z</time></trkpt><trkpt lat="42.79403472022165" lon="10.403677308787566"><ele>130.0</ele><time>2026-04-23T17:41:46Z</time></trkpt><trkpt lat="42.79404658011392" lon="10.40357681546431"><ele>130.0</ele><time>2026-04-23T17:41:47Z</time></trkpt><trkpt lat="42.794072963376166" lon="10.403468938622586"><ele>130.00000000000003</ele><time>2026-04-23T17:41:48Z</time></trkpt><trkpt lat="42.79411754467908" lon="10.40337342379477"><ele>130.0</ele><time>2026-04-23T17:41:49Z</time></trkpt><trkpt lat="42.79416329737587" lon="10.4032817696656"><ele>130.66666666666669</ele><time>2026-04-23T17:41:50Z</time></trkpt><trkpt lat="42.794200938858054" lon="10.403186459688175"><ele>131.33333333333334</ele><time>2026-04-23T17:41:51Z</time></trkpt><trkpt lat="42.794230149100734" lon="10.403091272845698"><ele>132.0</ele><time>2026-04-23T17:41:52Z</time></trkpt><trkpt lat="42.79423512555827" lon="10.402979239295595"><ele>132.66666666666666</ele><time>2026-04-23T17:41:53Z</time></trkpt><trkpt lat="42.79423315041096" lon="10.402868770624107"><ele>133.33333333333331</ele><time>2026-04-23T17:41:54Z</time></trkpt><trkpt lat="42.794211234754016" lon="10.402754460574736"><ele>134.0</ele><time>2026-04-23T17:41:55Z</time></trkpt><trkpt lat="42.79418410596702" lon="10.402650734183643"><ele>134.66666666666666</ele><time>2026-04-23T17:41:56Z</time></trkpt><trkpt lat="42.794158029642524" lon="10.40256602504674"><ele>135.33333333333331</ele><time>2026-04-23T17:41:57Z</time></trkpt><trkpt lat="42.79413013274791" lon="10.402479342502872"><ele>136.0</ele><time>2026-04-23T17:41:58Z</time></trkpt><trkpt lat="42.794100105360556" lon="10.402394100825255"><ele>136.66666666666666</ele><time>2026-04-23T17:41:59Z</time></trkpt><trkpt lat="42.79407224760382" lon="10.402315947248873"><ele>137.33333333333334</ele><time>2026-04-23T17:42:00Z</time></trkpt><trkpt lat="42.79402458679805" lon="10.402184758206321"><ele>138.0</ele><time>2026-04-23T17:42:02Z</time></trkpt><trkpt lat="42.79402058792946" lon="10.402035304332989"><ele>137.14285714285714</ele><time>2026-04-23T17:42:04Z</time></trkpt><trkpt lat="42.79404420803228" lon="10.401954180118485"><ele>136.2857142857143</ele><time>2026-04-23T17:42:05Z</time></trkpt><trkpt lat="42.79409665706623" lon="10.40189150554708"><ele>135.42857142857144</ele><time>2026-04-23T17:42:06Z</time></trkpt><trkpt lat="42.79416154891316" lon="10.401858813564543"><ele>134.57142857142858</ele><time>2026-04-23T17:42:07Z</time></trkpt><trkpt lat="42.794234879448894" lon="10.401852726989588"><ele>133.71428571428572</ele><time>2026-04-23T17:42:08Z</time></trkpt><trkpt lat="42.794313408199336" lon="10.401876732112534"><ele>132.85714285714286</ele><time>2026-04-23T17:42:09Z</time></trkpt><trkpt lat="42.79438705827864" lon="10.401893571942367"><ele>132.0</ele><time>2026-04-23T17:42:10Z</time></trkpt><trkpt lat="42.79445874049837" lon="10.401909997836334"><ele>132.0</ele><time>2026-04-23T17:42:11Z</time></trkpt><trkpt lat="42.794534287488005" lon="10.40190808067913"><ele>132.0</ele><time>2026-04-23T17:42:12Z</time></trkpt><trkpt lat="42.794603188752106" lon="10.401870996650704"><ele>132.0</ele><time>2026-04-23T17:42:13Z</time></trkpt><trkpt lat="42.794662153017484" lon="10.401813968074812"><ele>132.0</ele><time>2026-04-23T17:42:14Z</time></trkpt><trkpt lat="42.79470294069616" lon="10.40173490139991"><ele>132.0</ele><time>2026-04-23T17:42:15Z</time></trkpt><trkpt lat="42.794730033698116" lon="10.40163193320618"><ele>132.0</ele><time>2026-04-23T17:42:16Z</time></trkpt><trkpt lat="42.794738463675785" lon="10.401526995492894"><ele>132.0</ele><time>2026-04-23T17:42:17Z</time></trkpt><trkpt lat="42.79473680996095" lon="10.401416729752224"><ele>132.0</ele><time>2026-04-23T17:42:18Z</time></trkpt><trkpt lat="42.79473498468249" lon="10.401316876650966"><ele>132.0</ele><time>2026-04-23T17:42:19Z</time></trkpt><trkpt lat="42.7947328881259" lon="10.40122736952979"><ele>132.0</ele><time>2026-04-23T17:42:20Z</time></trkpt><trkpt lat="42.79473063834971" lon="10.401068395079085"><ele>132.0</ele><time>2026-04-23T17:42:22Z</time></trkpt><trkpt lat="42.79473318215723" lon="10.400913342142964"><ele>133.5</ele><time>2026-04-23T17:42:24Z</time></trkpt><trkpt lat="42.79474837873417" lon="10.400826450839517"><ele>135.0</ele><time>2026-04-23T17:42:25Z</time></trkpt><trkpt lat="42.79479281960059" lon="10.40075393415178"><ele>136.5</ele><time>2026-04-23T17:42:26Z</time></trkpt><trkpt lat="42.79485802142115" lon="10.400709566895687"><ele>138.0</ele><time>2026-04-23T17:42:27Z</time></trkpt><trkpt lat="42.79493541238155" lon="10.400685690211004"><ele>139.5</ele><time>2026-04-23T17:42:28Z</time></trkpt><trkpt lat="42.795019150550104" lon="10.400679319923817"><ele>141.0</ele><time>2026-04-23T17:42:29Z</time></trkpt><trkpt lat="42.7951034037966" lon="10.400666208198707"><ele>140.6</ele><time>2026-04-23T17:42:30Z</time></trkpt><trkpt lat="42.7951912477002" lon="10.400648099345823"><ele>140.2</ele><time>2026-04-23T17:42:31Z</time></trkpt><trkpt lat="42.795280785010824" lon="10.400627727649454"><ele>139.8</ele><time>2026-04-23T17:42:32Z</time></trkpt><trkpt lat="42.79537483440786" lon="10.400612362737983"><ele>139.4</ele><time>2026-04-23T17:42:33Z</time></trkpt><trkpt lat="42.79546875260601" lon="10.400589069107996"><ele>139.0</ele><time>2026-04-23T17:42:34Z</time></trkpt><trkpt lat="42.79555629079577" lon="10.400568383960795"><ele>139.0</ele><time>2026-04-23T17:42:35Z</time></trkpt><trkpt lat="42.795638033757974" lon="10.400552294581964"><ele>139.0</ele><time>2026-04-23T17:42:36Z</time></trkpt><trkpt lat="42.79572293257179" lon="10.40053407792521"><ele>139.0</ele><time>2026-04-23T17:42:37Z</time></trkpt><trkpt lat="42.795810074827806" lon="10.40052675776511"><ele>139.0</ele><time>2026-04-23T17:42:38Z</time></trkpt><trkpt lat="42.79589890955808" lon="10.400529601886687"><ele>139.0</ele><time>2026-04-23T17:42:39Z</time></trkpt><trkpt lat="42.79598944416849" lon="10.400541546521067"><ele>139.0</ele><time>2026-04-23T17:42:40Z</time></trkpt><trkpt lat="42.79607597890804" lon="10.400566611532302"><ele>140.83333333333334</ele><time>2026-04-23T17:42:41Z</time></trkpt><trkpt lat="42.796159927165554" lon="10.400602937024702"><ele>142.66666666666669</ele><time>2026-04-23T17:42:42Z</time></trkpt><trkpt lat="42.796232417966074" lon="10.400644561912939"><ele>144.5</ele><time>2026-04-23T17:42:43Z</time></trkpt><trkpt lat="42.79630643333005" lon="10.400692555190771"><ele>146.33333333333334</ele><time>2026-04-23T17:42:44Z</time></trkpt><trkpt lat="42.79637839469919" lon="10.400768710858951"><ele>148.16666666666666</ele><time>2026-04-23T17:42:45Z</time></trkpt><trkpt lat="42.79643441071133" lon="10.400866043074187"><ele>150.0</ele><time>2026-04-23T17:42:46Z</time></trkpt><trkpt lat="42.796492566673365" lon="10.40096767497579"><ele>150.0</ele><time>2026-04-23T17:42:47Z</time></trkpt><trkpt lat="42.79655317773569" lon="10.401077490300931"><ele>150.0</ele><time>2026-04-23T17:42:48Z</time></trkpt><trkpt lat="42.796606829840655" lon="10.401174697322503"><ele>150.0</ele><time>2026-04-23T17:42:49Z</time></trkpt><trkpt lat="42.796670197828945" lon="10.401248270574264"><ele>150.0</ele><time>2026-04-23T17:42:50Z</time></trkpt><trkpt lat="42.796724243974744" lon="10.401323183022447"><ele>150.0</ele><time>2026-04-23T17:42:51Z</time></trkpt><trkpt lat="42.79679389805268" lon="10.401386059386116"><ele>150.0</ele><time>2026-04-23T17:42:52Z</time></trkpt><trkpt lat="42.796874533333366" lon="10.40142202881802"><ele>150.6</ele><time>2026-04-23T17:42:53Z</time></trkpt><trkpt lat="42.796960232036774" lon="10.401439726669492"><ele>151.2</ele><time>2026-04-23T17:42:54Z</time></trkpt><trkpt lat="42.797055014959874" lon="10.401436401903823"><ele>151.8</ele><time>2026-04-23T17:42:55Z</time></trkpt><trkpt lat="42.79714977306157" lon="10.40140478120901"><ele>152.4</ele><time>2026-04-23T17:42:56Z</time></trkpt><trkpt lat="42.7972420081153" lon="10.401351197168484"><ele>153.0</ele><time>2026-04-23T17:42:57Z</time></trkpt><trkpt lat="42.797335052319816" lon="10.401296577920556"><ele>153.0</ele><time>2026-04-23T17:42:58Z</time></trkpt><trkpt lat="42.79742328066953" lon="10.40124641726494"><ele>153.0</ele><time>2026-04-23T17:42:59Z</time></trkpt><trkpt lat="42.79750591142617" lon="10.401189699172827"><ele>153.0</ele><time>2026-04-23T17:43:00Z</time></trkpt><trkpt lat="42.797584734720616" lon="10.401144585827653"><ele>153.0</ele><time>2026-04-23T17:43:01Z</time></trkpt><trkpt lat="42.79765970517719" lon="10.401099324372115"><ele>153.0</ele><time>2026-04-23T17:43:02Z</time></trkpt><trkpt lat="42.797737209522566" lon="10.401046029846002"><ele>153.0</ele><time>2026-04-23T17:43:03Z</time></trkpt><trkpt lat="42.7978137568798" lon="10.400990664100286"><ele>150.83333333333334</ele><time>2026-04-23T17:43:04Z</time></trkpt><trkpt lat="42.797883800740756" lon="10.400936472763446"><ele>148.66666666666666</ele><time>2026-04-23T17:43:05Z</time></trkpt><trkpt lat="42.79794835424565" lon="10.40087770151588"><ele>146.5</ele><time>2026-04-23T17:43:06Z</time></trkpt><trkpt lat="42.79801012445202" lon="10.400806084537724"><ele>144.33333333333331</ele><time>2026-04-23T17:43:07Z</time></trkpt><trkpt lat="42.79806465660416" lon="10.400718859495168"><ele>142.16666666666666</ele><time>2026-04-23T17:43:08Z</time></trkpt><trkpt lat="42.79811279675715" lon="10.400636001987925"><ele>140.0</ele><time>2026-04-23T17:43:09Z</time></trkpt><trkpt lat="42.79815572231588" lon="10.400560363566013"><ele>142.0</ele><time>2026-04-23T17:43:10Z</time></trkpt><trkpt lat="42.79819475207159" lon="10.400491161342094"><ele>144.0</ele><time>2026-04-23T17:43:11Z</time></trkpt><trkpt lat="42.79823583268872" lon="10.400421344551473"><ele>146.0</ele><time>2026-04-23T17:43:12Z</time></trkpt><trkpt lat="42.7982778319727" lon="10.400346923386286"><ele>148.0</ele><time>2026-04-23T17:43:13Z</time></trkpt><trkpt lat="42.79832036209928" lon="10.400272442357357"><ele>150.0</ele><time>2026-04-23T17:43:14Z</time></trkpt><trkpt lat="42.798367962435265" lon="10.400203804018345"><ele>152.0</ele><time>2026-04-23T17:43:15Z</time></trkpt><trkpt lat="42.798431505988866" lon="10.400159092549917"><ele>154.0</ele><time>2026-04-23T17:43:16Z</time></trkpt><trkpt lat="42.79849889461085" lon="10.400139224132326"><ele>154.0</ele><time>2026-04-23T17:43:17Z</time></trkpt><trkpt lat="42.798567871876166" lon="10.400150465371912"><ele>154.0</ele><time>2026-04-23T17:43:18Z</time></trkpt><trkpt lat="42.79862855442559" lon="10.400204206482819"><ele>154.0</ele><time>2026-04-23T17:43:19Z</time></trkpt><trkpt lat="42.79868276775469" lon="10.400266701518788"><ele>154.0</ele><time>2026-04-23T17:43:20Z</time></trkpt><trkpt lat="42.79873885599445" lon="10.40032909287659"><ele>154.0</ele><time>2026-04-23T17:43:21Z</time></trkpt><trkpt lat="42.79880386398268" lon="10.40037738614317"><ele>154.0</ele><time>2026-04-23T17:43:22Z</time></trkpt><trkpt lat="42.79886033550417" lon="10.40044294943274"><ele>154.0</ele><time>2026-04-23T17:43:23Z</time></trkpt><trkpt lat="42.79893201095888" lon="10.400478821693126"><ele>154.0</ele><time>2026-04-23T17:43:24Z</time></trkpt><trkpt lat="42.79900927692934" lon="10.400490070740705"><ele>154.0</ele><time>2026-04-23T17:43:25Z</time></trkpt><trkpt lat="42.79908894056816" lon="10.400476413872124"><ele>154.0</ele><time>2026-04-23T17:43:26Z</time></trkpt><trkpt lat="42.79916738526456" lon="10.400441963178165"><ele>154.0</ele><time>2026-04-23T17:43:27Z</time></trkpt><trkpt lat="42.79924842026238" lon="10.400399578873122"><ele>154.0</ele><time>2026-04-23T17:43:28Z</time></trkpt><trkpt lat="42.79931657647145" lon="10.4003557649273"><ele>154.0</ele><time>2026-04-23T17:43:29Z</time></trkpt><trkpt lat="42.79937811026947" lon="10.400317322389144"><ele>155.2</ele><time>2026-04-23T17:43:30Z</time></trkpt><trkpt lat="42.79948935929014" lon="10.400239405246051"><ele>156.4</ele><time>2026-04-23T17:43:32Z</time></trkpt><trkpt lat="42.799613835386154" lon="10.400201071046943"><ele>157.6</ele><time>2026-04-23T17:43:34Z</time></trkpt><trkpt lat="42.79968859905054" lon="10.400231207635269"><ele>158.8</ele><time>2026-04-23T17:43:35Z</time></trkpt><trkpt lat="42.799754652927206" lon="10.400294701508452"><ele>160.0</ele><time>2026-04-23T17:43:36Z</time></trkpt><trkpt lat="42.79980946290475" lon="10.40038139477182"><ele>160.0</ele><time>2026-04-23T17:43:37Z</time></trkpt><trkpt lat="42.79983283489569" lon="10.400499116473611"><ele>160.0</ele><time>2026-04-23T17:43:38Z</time></trkpt><trkpt lat="42.79987260253077" lon="10.400594870153984"><ele>160.0</ele><time>2026-04-23T17:43:39Z</time></trkpt><trkpt lat="42.7999261432661" lon="10.400672849767478"><ele>160.0</ele><time>2026-04-23T17:43:40Z</time></trkpt><trkpt lat="42.79997537891567" lon="10.400752533421578"><ele>160.0</ele><time>2026-04-23T17:43:41Z</time></trkpt><trkpt lat="42.80003139527637" lon="10.400821072921634"><ele>160.0</ele><time>2026-04-23T17:43:42Z</time></trkpt><trkpt lat="42.800089373787436" lon="10.400884532900447"><ele>160.42857142857142</ele><time>2026-04-23T17:43:43Z</time></trkpt><trkpt lat="42.80014812828215" lon="10.400941891041198"><ele>160.85714285714286</ele><time>2026-04-23T17:43:44Z</time></trkpt><trkpt lat="42.80020378400055" lon="10.400997176539196"><ele>161.28571428571428</ele><time>2026-04-23T17:43:45Z</time></trkpt><trkpt lat="42.80026392861477" lon="10.401044632045453"><ele>161.71428571428572</ele><time>2026-04-23T17:43:46Z</time></trkpt><trkpt lat="42.80032260895666" lon="10.401092874194033"><ele>162.14285714285714</ele><time>2026-04-23T17:43:47Z</time></trkpt><trkpt lat="42.80036477528937" lon="10.401166928742095"><ele>162.57142857142858</ele><time>2026-04-23T17:43:48Z</time></trkpt><trkpt lat="42.80041242067508" lon="10.401233521108736"><ele>163.0</ele><time>2026-04-23T17:43:49Z</time></trkpt><trkpt lat="42.80044352675501" lon="10.401315637098548"><ele>162.66666666666669</ele><time>2026-04-23T17:43:50Z</time></trkpt><trkpt lat="42.80044915406836" lon="10.401405942893298"><ele>162.33333333333334</ele><time>2026-04-23T17:43:51Z</time></trkpt><trkpt lat="42.80044796574848" lon="10.401497180346816"><ele>162.0</ele><time>2026-04-23T17:43:52Z</time></trkpt><trkpt lat="42.800386586403576" lon="10.40156831568286"><ele>161.66666666666666</ele><time>2026-04-23T17:43:53Z</time></trkpt><trkpt lat="42.80033980809276" lon="10.401657906427745"><ele>161.33333333333331</ele><time>2026-04-23T17:43:54Z</time></trkpt><trkpt lat="42.80027581405658" lon="10.401745419032581"><ele>161.0</ele><time>2026-04-23T17:43:55Z</time></trkpt><trkpt lat="42.80021023272497" lon="10.401829857875859"><ele>157.5</ele><time>2026-04-23T17:43:56Z</time></trkpt><trkpt lat="42.80014532975123" lon="10.401921800973629"><ele>154.0</ele><time>2026-04-23T17:43:57Z</time></trkpt><trkpt lat="42.800080653836645" lon="10.40201090984034"><ele>150.5</ele><time>2026-04-23T17:43:58Z</time></trkpt><trkpt lat="42.80001799291363" lon="10.402092046640607"><ele>147.0</ele><time>2026-04-23T17:43:59Z</time></trkpt><trkpt lat="42.79996338946273" lon="10.402177458754412"><ele>143.5</ele><time>2026-04-23T17:44:00Z</time></trkpt><trkpt lat="42.79991584862428" lon="10.402277673187465"><ele>140.0</ele><time>2026-04-23T17:44:01Z</time></trkpt><trkpt lat="42.79986002055678" lon="10.402377568191877"><ele>140.0</ele><time>2026-04-23T17:44:02Z</time></trkpt><trkpt lat="42.79983084315353" lon="10.402501215082934"><ele>140.0</ele><time>2026-04-23T17:44:03Z</time></trkpt><trkpt lat="42.79982024937252" lon="10.402631392564643"><ele>140.0</ele><time>2026-04-23T17:44:04Z</time></trkpt><trkpt lat="42.79984357782775" lon="10.402761965153989"><ele>140.0</ele><time>2026-04-23T17:44:05Z</time></trkpt><trkpt lat="42.79985070444376" lon="10.402900209409578"><ele>140.0</ele><time>2026-04-23T17:44:06Z</time></trkpt><trkpt lat="42.79989056855678" lon="10.403037495671823"><ele>139.0</ele><time>2026-04-23T17:44:07Z</time></trkpt><trkpt lat="42.79994779133449" lon="10.403165698693089"><ele>138.0</ele><time>2026-04-23T17:44:08Z</time></trkpt><trkpt lat="42.79998729025428" lon="10.403285886859907"><ele>137.0</ele><time>2026-04-23T17:44:09Z</time></trkpt><trkpt lat="42.80002629423552" lon="10.403406316897204"><ele>136.0</ele><time>2026-04-23T17:44:10Z</time></trkpt><trkpt lat="42.80006945894683" lon="10.403525591086268"><ele>135.0</ele><time>2026-04-23T17:44:11Z</time></trkpt><trkpt lat="42.8001269134249" lon="10.4036324814709"><ele>137.6</ele><time>2026-04-23T17:44:12Z</time></trkpt><trkpt lat="42.80019703665178" lon="10.403731989128836"><ele>140.2</ele><time>2026-04-23T17:44:13Z</time></trkpt><trkpt lat="42.80027298466114" lon="10.403828250169598"><ele>142.8</ele><time>2026-04-23T17:44:14Z</time></trkpt><trkpt lat="42.80034156602829" lon="10.403942381601293"><ele>145.4</ele><time>2026-04-23T17:44:15Z</time></trkpt><trkpt lat="42.80042225514189" lon="10.404045038613926"><ele>148.0</ele><time>2026-04-23T17:44:16Z</time></trkpt><trkpt lat="42.80049061322671" lon="10.404146040882535"><ele>148.0</ele><time>2026-04-23T17:44:17Z</time></trkpt><trkpt lat="42.80055596836704" lon="10.40424280079971"><ele>148.0</ele><time>2026-04-23T17:44:18Z</time></trkpt><trkpt lat="42.80061813390648" lon="10.404358957705961"><ele>148.0</ele><time>2026-04-23T17:44:19Z</time></trkpt><trkpt lat="42.800679819958205" lon="10.404474266017136"><ele>148.0</ele><time>2026-04-23T17:44:20Z</time></trkpt><trkpt lat="42.800748137358426" lon="10.404586207986089"><ele>148.0</ele><time>2026-04-23T17:44:21Z</time></trkpt><trkpt lat="42.80080105736322" lon="10.404688727997707"><ele>145.6</ele><time>2026-04-23T17:44:22Z</time></trkpt><trkpt lat="42.80086344713008" lon="10.40479067871265"><ele>143.20000000000002</ele><time>2026-04-23T17:44:23Z</time></trkpt><trkpt lat="42.80092604887075" lon="10.404889123183182"><ele>140.8</ele><time>2026-04-23T17:44:24Z</time></trkpt><trkpt lat="42.80099033555554" lon="10.404983139104374"><ele>138.4</ele><time>2026-04-23T17:44:25Z</time></trkpt><trkpt lat="42.80105132631612" lon="10.405075876970928"><ele>136.0</ele><time>2026-04-23T17:44:26Z</time></trkpt><trkpt lat="42.801116166454925" lon="10.405164830263443"><ele>136.0</ele><time>2026-04-23T17:44:27Z</time></trkpt><trkpt lat="42.801167049656215" lon="10.405263884845349"><ele>136.0</ele><time>2026-04-23T17:44:28Z</time></trkpt><trkpt lat="42.801241989562584" lon="10.405335488405258"><ele>136.0</ele><time>2026-04-23T17:44:29Z</time></trkpt><trkpt lat="42.80133184226095" lon="10.405388490287441"><ele>136.0</ele><time>2026-04-23T17:44:30Z</time></trkpt><trkpt lat="42.80143277839126" lon="10.405418927073045"><ele>136.0</ele><time>2026-04-23T17:44:31Z</time></trkpt><trkpt lat="42.80153411897617" lon="10.405428405743791"><ele>136.0</ele><time>2026-04-23T17:44:32Z</time></trkpt><trkpt lat="42.801640772251744" lon="10.405409027195475"><ele>136.0</ele><time>2026-04-23T17:44:33Z</time></trkpt><trkpt lat="42.8017410468007" lon="10.405361220191221"><ele>136.0</ele><time>2026-04-23T17:44:34Z</time></trkpt><trkpt lat="42.80183447678363" lon="10.40529227426094"><ele>136.0</ele><time>2026-04-23T17:44:35Z</time></trkpt><trkpt lat="42.80191991815316" lon="10.405211229041424"><ele>136.0</ele><time>2026-04-23T17:44:36Z</time></trkpt><trkpt lat="42.80200546445554" lon="10.405119561665387"><ele>134.8</ele><time>2026-04-23T17:44:37Z</time></trkpt><trkpt lat="42.80208507575802" lon="10.405025441811526"><ele>133.6</ele><time>2026-04-23T17:44:38Z</time></trkpt><trkpt lat="42.802162041461436" lon="10.404925435593022"><ele>132.4</ele><time>2026-04-23T17:44:39Z</time></trkpt><trkpt lat="42.802230194752724" lon="10.404806545584286"><ele>131.2</ele><time>2026-04-23T17:44:40Z</time></trkpt><trkpt lat="42.80229450702524" lon="10.40468101767623"><ele>130.0</ele><time>2026-04-23T17:44:41Z</time></trkpt><trkpt lat="42.802352867159605" lon="10.404549639963392"><ele>130.0</ele><time>2026-04-23T17:44:42Z</time></trkpt><trkpt lat="42.802404278105456" lon="10.404417197858363"><ele>130.0</ele><time>2026-04-23T17:44:43Z</time></trkpt><trkpt lat="42.80245096546316" lon="10.404285903317946"><ele>130.0</ele><time>2026-04-23T17:44:44Z</time></trkpt><trkpt lat="42.802493464744366" lon="10.40415672937587"><ele>130.0</ele><time>2026-04-23T17:44:45Z</time></trkpt><trkpt lat="42.802530998104615" lon="10.404029657466989"><ele>130.0</ele><time>2026-04-23T17:44:46Z</time></trkpt><trkpt lat="42.80256768444115" lon="10.40390735470239"><ele>128.0</ele><time>2026-04-23T17:44:47Z</time></trkpt><trkpt lat="42.80260174156114" lon="10.403785774397997"><ele>126.0</ele><time>2026-04-23T17:44:48Z</time></trkpt><trkpt lat="42.8026309616936" lon="10.403673454033001"><ele>124.0</ele><time>2026-04-23T17:44:49Z</time></trkpt><trkpt lat="42.80265795142643" lon="10.403566455837195"><ele>122.0</ele><time>2026-04-23T17:44:50Z</time></trkpt><trkpt lat="42.80268758496217" lon="10.403459257995348"><ele>120.00000000000001</ele><time>2026-04-23T17:44:51Z</time></trkpt><trkpt lat="42.80271669631882" lon="10.403341956210948"><ele>118.0</ele><time>2026-04-23T17:44:52Z</time></trkpt><trkpt lat="42.802751432925206" lon="10.403227547658755"><ele>118.00000000000001</ele><time>2026-04-23T17:44:53Z</time></trkpt><trkpt lat="42.80278182948541" lon="10.403111406229527"><ele>118.0</ele><time>2026-04-23T17:44:54Z</time></trkpt><trkpt lat="42.802806752598585" lon="10.40299509775981"><ele>118.0</ele><time>2026-04-23T17:44:55Z</time></trkpt><trkpt lat="42.80282662294001" lon="10.40288315616023"><ele>118.0</ele><time>2026-04-23T17:44:56Z</time></trkpt><trkpt lat="42.802838570529275" lon="10.402771308338693"><ele>118.00000000000001</ele><time>2026-04-23T17:44:57Z</time></trkpt><trkpt lat="42.80285000169091" lon="10.402672212453849"><ele>118.0</ele><time>2026-04-23T17:44:58Z</time></trkpt><trkpt lat="42.80285953627562" lon="10.402581162216539"><ele>120.14285714285714</ele><time>2026-04-23T17:44:59Z</time></trkpt><trkpt lat="42.80287018891656" lon="10.402494638589102"><ele>122.28571428571429</ele><time>2026-04-23T17:45:00Z</time></trkpt><trkpt lat="42.80287999248782" lon="10.402404544972287"><ele>124.42857142857143</ele><time>2026-04-23T17:45:01Z</time></trkpt><trkpt lat="42.802897119295295" lon="10.402312692498628"><ele>126.57142857142857</ele><time>2026-04-23T17:45:02Z</time></trkpt><trkpt lat="42.80291975190385" lon="10.402229169599387"><ele>128.71428571428572</ele><time>2026-04-23T17:45:03Z</time></trkpt><trkpt lat="42.802959465322594" lon="10.40215443102279"><ele>130.85714285714286</ele><time>2026-04-23T17:45:04Z</time></trkpt><trkpt lat="42.803012645070744" lon="10.402086398894628"><ele>133.0</ele><time>2026-04-23T17:45:05Z</time></trkpt><trkpt lat="42.803082721315235" lon="10.402041696606917"><ele>133.0</ele><time>2026-04-23T17:45:06Z</time></trkpt><trkpt lat="42.80315854838775" lon="10.402014535186765"><ele>133.0</ele><time>2026-04-23T17:45:07Z</time></trkpt><trkpt lat="42.80324264253811" lon="10.402022677108016"><ele>133.0</ele><time>2026-04-23T17:45:08Z</time></trkpt><trkpt lat="42.8033204371238" lon="10.402061334719518"><ele>133.0</ele><time>2026-04-23T17:45:09Z</time></trkpt><trkpt lat="42.803388057252484" lon="10.402128392476174"><ele>133.0</ele><time>2026-04-23T17:45:10Z</time></trkpt><trkpt lat="42.803447333135175" lon="10.402209350162575"><ele>133.0</ele><time>2026-04-23T17:45:11Z</time></trkpt><trkpt lat="42.803488104520234" lon="10.402322147963652"><ele>139.2</ele><time>2026-04-23T17:45:12Z</time></trkpt><trkpt lat="42.80354315417466" lon="10.402424513210025"><ele>145.4</ele><time>2026-04-23T17:45:13Z</time></trkpt><trkpt lat="42.80361208534514" lon="10.402517064769597"><ele>151.6</ele><time>2026-04-23T17:45:14Z</time></trkpt><trkpt lat="42.803665950220264" lon="10.402617244579433"><ele>157.79999999999998</ele><time>2026-04-23T17:45:15Z</time></trkpt><trkpt lat="42.803717382256615" lon="10.402713260527598"><ele>164.0</ele><time>2026-04-23T17:45:16Z</time></trkpt><trkpt lat="42.8037579159949" lon="10.402812480459911"><ele>164.0</ele><time>2026-04-23T17:45:17Z</time></trkpt><trkpt lat="42.80380734255518" lon="10.402906335145662"><ele>164.0</ele><time>2026-04-23T17:45:18Z</time></trkpt><trkpt lat="42.80385726641401" lon="10.402997986468455"><ele>164.0</ele><time>2026-04-23T17:45:19Z</time></trkpt><trkpt lat="42.803906362001065" lon="10.403091319113928"><ele>164.0</ele><time>2026-04-23T17:45:20Z</time></trkpt><trkpt lat="42.80395754827929" lon="10.403186064375248"><ele>164.0</ele><time>2026-04-23T17:45:21Z</time></trkpt><trkpt lat="42.80401192900366" lon="10.40328857578183"><ele>164.0</ele><time>2026-04-23T17:45:22Z</time></trkpt><trkpt lat="42.80406251203048" lon="10.403390218702846"><ele>160.16666666666666</ele><time>2026-04-23T17:45:23Z</time></trkpt><trkpt lat="42.804113380179096" lon="10.403491485527816"><ele>156.33333333333331</ele><time>2026-04-23T17:45:24Z</time></trkpt><trkpt lat="42.80416703467051" lon="10.403593735131176"><ele>152.5</ele><time>2026-04-23T17:45:25Z</time></trkpt><trkpt lat="42.80421589681321" lon="10.403690330371713"><ele>148.66666666666666</ele><time>2026-04-23T17:45:26Z</time></trkpt><trkpt lat="42.804265217388284" lon="10.403786034248542"><ele>144.83333333333334</ele><time>2026-04-23T17:45:27Z</time></trkpt><trkpt lat="42.804311508218866" lon="10.403870159158393"><ele>141.0</ele><time>2026-04-23T17:45:28Z</time></trkpt><trkpt lat="42.8043652477382" lon="10.40394783374016"><ele>139.2</ele><time>2026-04-23T17:45:29Z</time></trkpt><trkpt lat="42.804431365745785" lon="10.404014819525191"><ele>137.39999999999998</ele><time>2026-04-23T17:45:30Z</time></trkpt><trkpt lat="42.80451156605321" lon="10.40407225511203"><ele>135.6</ele><time>2026-04-23T17:45:31Z</time></trkpt><trkpt lat="42.80460053690698" lon="10.404114309619441"><ele>133.79999999999998</ele><time>2026-04-23T17:45:32Z</time></trkpt><trkpt lat="42.80469456252117" lon="10.404144938828647"><ele>132.0</ele><time>2026-04-23T17:45:33Z</time></trkpt><trkpt lat="42.80478516697568" lon="10.40416143946847"><ele>132.0</ele><time>2026-04-23T17:45:34Z</time></trkpt><trkpt lat="42.804872882537424" lon="10.404176629787152"><ele>132.0</ele><time>2026-04-23T17:45:35Z</time></trkpt><trkpt lat="42.804951102128435" lon="10.404184324442346"><ele>132.0</ele><time>2026-04-23T17:45:36Z</time></trkpt><trkpt lat="42.80503213928192" lon="10.404192248421062"><ele>132.0</ele><time>2026-04-23T17:45:37Z</time></trkpt><trkpt lat="42.805117910250175" lon="10.40419364802676"><ele>132.0</ele><time>2026-04-23T17:45:38Z</time></trkpt><trkpt lat="42.805200222808324" lon="10.404187257871943"><ele>132.0</ele><time>2026-04-23T17:45:39Z</time></trkpt><trkpt lat="42.80528274499382" lon="10.40418101357804"><ele>130.5</ele><time>2026-04-23T17:45:40Z</time></trkpt><trkpt lat="42.80536549828003" lon="10.404164954460462"><ele>129.0</ele><time>2026-04-23T17:45:41Z</time></trkpt><trkpt lat="42.80544777901745" lon="10.404128919931875"><ele>127.5</ele><time>2026-04-23T17:45:42Z</time></trkpt><trkpt lat="42.80552719820708" lon="10.404074154248855"><ele>126.0</ele><time>2026-04-23T17:45:43Z</time></trkpt><trkpt lat="42.80560189405336" lon="10.404009197198476"><ele>124.5</ele><time>2026-04-23T17:45:44Z</time></trkpt><trkpt lat="42.805668929119115" lon="10.40393797524513"><ele>123.0</ele><time>2026-04-23T17:45:45Z</time></trkpt><trkpt lat="42.80573919847769" lon="10.403872987552347"><ele>122.16666666666667</ele><time>2026-04-23T17:45:46Z</time></trkpt><trkpt lat="42.80580688293706" lon="10.40380253397799"><ele>121.33333333333334</ele><time>2026-04-23T17:45:47Z</time></trkpt><trkpt lat="42.805873089403086" lon="10.403731166590324"><ele>120.5</ele><time>2026-04-23T17:45:48Z</time></trkpt><trkpt lat="42.805939768705535" lon="10.403665705636842"><ele>119.66666666666667</ele><time>2026-04-23T17:45:49Z</time></trkpt><trkpt lat="42.80600689783117" lon="10.403600616609184"><ele>118.83333333333334</ele><time>2026-04-23T17:45:50Z</time></trkpt><trkpt lat="42.806075618003874" lon="10.403531998054873"><ele>118.0</ele><time>2026-04-23T17:45:51Z</time></trkpt><trkpt lat="42.80614600136761" lon="10.403461339863647"><ele>118.00000000000001</ele><time>2026-04-23T17:45:52Z</time></trkpt><trkpt lat="42.80621395031953" lon="10.403385278978408"><ele>118.0</ele><time>2026-04-23T17:45:53Z</time></trkpt><trkpt lat="42.806281643930205" lon="10.403309282689174"><ele>118.0</ele><time>2026-04-23T17:45:54Z</time></trkpt><trkpt lat="42.80634540851192" lon="10.403227064806451"><ele>118.0</ele><time>2026-04-23T17:45:55Z</time></trkpt><trkpt lat="42.80640007299068" lon="10.403137173264323"><ele>118.00000000000001</ele><time>2026-04-23T17:45:56Z</time></trkpt><trkpt lat="42.80645153772606" lon="10.403038051870693"><ele>118.0</ele><time>2026-04-23T17:45:57Z</time></trkpt><trkpt lat="42.80650176502439" lon="10.40293243063725"><ele>121.2</ele><time>2026-04-23T17:45:58Z</time></trkpt><trkpt lat="42.80655094373792" lon="10.402821103442362"><ele>124.4</ele><time>2026-04-23T17:45:59Z</time></trkpt><trkpt lat="42.8065944896599" lon="10.402703397371969"><ele>127.60000000000001</ele><time>2026-04-23T17:46:00Z</time></trkpt><trkpt lat="42.80663724476368" lon="10.402583816387752"><ele>130.8</ele><time>2026-04-23T17:46:01Z</time></trkpt><trkpt lat="42.80667798627935" lon="10.402461269591747"><ele>134.0</ele><time>2026-04-23T17:46:02Z</time></trkpt><trkpt lat="42.806717039295414" lon="10.402352065657961"><ele>134.0</ele><time>2026-04-23T17:46:03Z</time></trkpt><trkpt lat="42.80675152103083" lon="10.402238499005726"><ele>134.0</ele><time>2026-04-23T17:46:04Z</time></trkpt><trkpt lat="42.806791276593636" lon="10.402126062841871"><ele>134.0</ele><time>2026-04-23T17:46:05Z</time></trkpt><trkpt lat="42.80683735806583" lon="10.402023235899353"><ele>134.0</ele><time>2026-04-23T17:46:06Z</time></trkpt><trkpt lat="42.80688256440911" lon="10.40193028767652"><ele>134.0</ele><time>2026-04-23T17:46:07Z</time></trkpt><trkpt lat="42.806926033844945" lon="10.401844860653027"><ele>134.0</ele><time>2026-04-23T17:46:08Z</time></trkpt><trkpt lat="42.80696469233092" lon="10.401763844776815"><ele>134.33333333333331</ele><time>2026-04-23T17:46:09Z</time></trkpt><trkpt lat="42.80700572798967" lon="10.40167526201274"><ele>134.66666666666666</ele><time>2026-04-23T17:46:10Z</time></trkpt><trkpt lat="42.80705207163447" lon="10.401589032167266"><ele>135.0</ele><time>2026-04-23T17:46:11Z</time></trkpt><trkpt lat="42.80709430000482" lon="10.401504778679431"><ele>135.33333333333334</ele><time>2026-04-23T17:46:12Z</time></trkpt><trkpt lat="42.80713466405056" lon="10.40141803865702"><ele>135.66666666666669</ele><time>2026-04-23T17:46:13Z</time></trkpt><trkpt lat="42.807171155187554" lon="10.401325770278355"><ele>136.0</ele><time>2026-04-23T17:46:14Z</time></trkpt><trkpt lat="42.80721714432006" lon="10.401237865261585"><ele>136.0</ele><time>2026-04-23T17:46:15Z</time></trkpt><trkpt lat="42.80726260618172" lon="10.40114576203378"><ele>136.0</ele><time>2026-04-23T17:46:16Z</time></trkpt><trkpt lat="42.80731136497821" lon="10.401051786382455"><ele>136.0</ele><time>2026-04-23T17:46:17Z</time></trkpt><trkpt lat="42.80735771644439" lon="10.400951462358854"><ele>136.0</ele><time>2026-04-23T17:46:18Z</time></trkpt><trkpt lat="42.80740587937762" lon="10.400861610607848"><ele>136.0</ele><time>2026-04-23T17:46:19Z</time></trkpt><trkpt lat="42.8074526126891" lon="10.400778571555445"><ele>136.0</ele><time>2026-04-23T17:46:20Z</time></trkpt><trkpt lat="42.80750254732314" lon="10.400711220498035"><ele>135.99999999999997</ele><time>2026-04-23T17:46:21Z</time></trkpt><trkpt lat="42.80756093520006" lon="10.400666806510436"><ele>136.0</ele><time>2026-04-23T17:46:22Z</time></trkpt><trkpt lat="42.80762270750451" lon="10.40064673548299"><ele>136.0</ele><time>2026-04-23T17:46:23Z</time></trkpt><trkpt lat="42.807695044733634" lon="10.40065893737341"><ele>136.0</ele><time>2026-04-23T17:46:24Z</time></trkpt><trkpt lat="42.807767291189506" lon="10.400693328357558"><ele>136.0</ele><time>2026-04-23T17:46:25Z</time></trkpt><trkpt lat="42.80784180575711" lon="10.400737063275631"><ele>135.99999999999997</ele><time>2026-04-23T17:46:26Z</time></trkpt><trkpt lat="42.80791660308729" lon="10.40077630514636"><ele>136.0</ele><time>2026-04-23T17:46:27Z</time></trkpt><trkpt lat="42.8079923388989" lon="10.400816885684392"><ele>136.16666666666669</ele><time>2026-04-23T17:46:28Z</time></trkpt><trkpt lat="42.80806718516208" lon="10.400864134271666"><ele>136.33333333333334</ele><time>2026-04-23T17:46:29Z</time></trkpt><trkpt lat="42.808148087157896" lon="10.400909705463746"><ele>136.5</ele><time>2026-04-23T17:46:30Z</time></trkpt><trkpt lat="42.80822810585761" lon="10.400955211129"><ele>136.66666666666666</ele><time>2026-04-23T17:46:31Z</time></trkpt><trkpt lat="42.808310833670454" lon="10.400996173416816"><ele>136.83333333333331</ele><time>2026-04-23T17:46:32Z</time></trkpt><trkpt lat="42.80838460578544" lon="10.401037304074475"><ele>137.0</ele><time>2026-04-23T17:46:33Z</time></trkpt><trkpt lat="42.80846356787832" lon="10.401080949554038"><ele>137.85714285714286</ele><time>2026-04-23T17:46:34Z</time></trkpt><trkpt lat="42.808539229595965" lon="10.401121535526466"><ele>138.71428571428572</ele><time>2026-04-23T17:46:35Z</time></trkpt><trkpt lat="42.80861158678358" lon="10.401160449432854"><ele>139.57142857142856</ele><time>2026-04-23T17:46:36Z</time></trkpt><trkpt lat="42.80867907432238" lon="10.401199316027064"><ele>140.42857142857144</ele><time>2026-04-23T17:46:37Z</time></trkpt><trkpt lat="42.80873440223067" lon="10.401256944465938"><ele>141.28571428571428</ele><time>2026-04-23T17:46:38Z</time></trkpt><trkpt lat="42.80880213380675" lon="10.40129477783748"><ele>142.14285714285714</ele><time>2026-04-23T17:46:39Z</time></trkpt><trkpt lat="42.80886842440171" lon="10.40133180629956"><ele>143.0</ele><time>2026-04-23T17:46:40Z</time></trkpt><trkpt lat="42.808943365199234" lon="10.401353349391947"><ele>142.99999999999997</ele><time>2026-04-23T17:46:41Z</time></trkpt><trkpt lat="42.809007682258354" lon="10.401409837290654"><ele>143.0</ele><time>2026-04-23T17:46:42Z</time></trkpt><trkpt lat="42.809073448216665" lon="10.401448631236356"><ele>143.0</ele><time>2026-04-23T17:46:43Z</time></trkpt><trkpt lat="42.809140190779154" lon="10.401482313209302"><ele>143.0</ele><time>2026-04-23T17:46:44Z</time></trkpt><trkpt lat="42.809206444893704" lon="10.401518432141149"><ele>143.0</ele><time>2026-04-23T17:46:45Z</time></trkpt><trkpt lat="42.80927401101425" lon="10.401557970133211"><ele>142.99999999999997</ele><time>2026-04-23T17:46:46Z</time></trkpt><trkpt lat="42.80934453147071" lon="10.401596961296066"><ele>143.0</ele><time>2026-04-23T17:46:47Z</time></trkpt><trkpt lat="42.80941752455527" lon="10.401636850346769"><ele>142.99999999999997</ele><time>2026-04-23T17:46:48Z</time></trkpt><trkpt lat="42.80948227302844" lon="10.401677867717657"><ele>143.0</ele><time>2026-04-23T17:46:49Z</time></trkpt><trkpt lat="42.8095418086101" lon="10.401723986556199"><ele>143.0</ele><time>2026-04-23T17:46:50Z</time></trkpt><trkpt lat="42.809590527625005" lon="10.401798088739515"><ele>143.0</ele><time>2026-04-23T17:46:51Z</time></trkpt><trkpt lat="42.809634552909934" lon="10.401870863356388"><ele>143.0</ele><time>2026-04-23T17:46:52Z</time></trkpt><trkpt lat="42.809661476233835" lon="10.401962085684064"><ele>142.99999999999997</ele><time>2026-04-23T17:46:53Z</time></trkpt><trkpt lat="42.80968258986068" lon="10.402058969963733"><ele>143.0</ele><time>2026-04-23T17:46:54Z</time></trkpt><trkpt lat="42.809702321703455" lon="10.402152510966173"><ele>140.8</ele><time>2026-04-23T17:46:55Z</time></trkpt><trkpt lat="42.80972080085545" lon="10.402240113216912"><ele>138.60000000000002</ele><time>2026-04-23T17:46:56Z</time></trkpt><trkpt lat="42.80975223789465" lon="10.402382144256343"><ele>136.39999999999998</ele><time>2026-04-23T17:46:58Z</time></trkpt><trkpt lat="42.809788457822826" lon="10.402522521384714"><ele>134.2</ele><time>2026-04-23T17:47:00Z</time></trkpt><trkpt lat="42.80983894260256" lon="10.402649413032723"><ele>132.0</ele><time>2026-04-23T17:47:02Z</time></trkpt><trkpt lat="42.80988940902196" lon="10.40275458938161"><ele>132.0</ele><time>2026-04-23T17:47:04Z</time></trkpt><trkpt lat="42.809943918685754" lon="10.402841302959297"><ele>132.0</ele><time>2026-04-23T17:47:06Z</time></trkpt><trkpt lat="42.80999400204055" lon="10.402985468166225"><ele>132.0</ele><time>2026-04-23T17:47:08Z</time></trkpt><trkpt lat="42.81003195705767" lon="10.403074545596517"><ele>132.0</ele><time>2026-04-23T17:47:09Z</time></trkpt><trkpt lat="42.81007055701328" lon="10.403170094052935"><ele>132.0</ele><time>2026-04-23T17:47:10Z</time></trkpt><trkpt lat="42.8101131062328" lon="10.40327461937298"><ele>132.0</ele><time>2026-04-23T17:47:11Z</time></trkpt><trkpt lat="42.81015296513496" lon="10.403389315494428"><ele>130.2</ele><time>2026-04-23T17:47:12Z</time></trkpt><trkpt lat="42.81020364664587" lon="10.403511735785312"><ele>128.39999999999998</ele><time>2026-04-23T17:47:13Z</time></trkpt><trkpt lat="42.81023871662944" lon="10.403641661507722"><ele>126.60000000000001</ele><time>2026-04-23T17:47:14Z</time></trkpt><trkpt lat="42.810293944348" lon="10.403758155380482"><ele>124.80000000000001</ele><time>2026-04-23T17:47:15Z</time></trkpt><trkpt lat="42.81035845016458" lon="10.403869972486136"><ele>123.0</ele><time>2026-04-23T17:47:16Z</time></trkpt><trkpt lat="42.810431725547815" lon="10.403982316660887"><ele>121.80000000000001</ele><time>2026-04-23T17:47:17Z</time></trkpt><trkpt lat="42.81051603590654" lon="10.404070605656653"><ele>120.60000000000001</ele><time>2026-04-23T17:47:18Z</time></trkpt><trkpt lat="42.810583954881515" lon="10.4041810974461"><ele>119.39999999999999</ele><time>2026-04-23T17:47:19Z</time></trkpt><trkpt lat="42.81066960921124" lon="10.404266413218084"><ele>118.19999999999999</ele><time>2026-04-23T17:47:20Z</time></trkpt><trkpt lat="42.81075415436152" lon="10.404346796539297"><ele>117.0</ele><time>2026-04-23T17:47:21Z</time></trkpt><trkpt lat="42.810838739680854" lon="10.404426117780996"><ele>117.0</ele><time>2026-04-23T17:47:22Z</time></trkpt><trkpt lat="42.81092960670345" lon="10.40448632739483"><ele>117.0</ele><time>2026-04-23T17:47:23Z</time></trkpt><trkpt lat="42.81099418726842" lon="10.404565579911358"><ele>117.0</ele><time>2026-04-23T17:47:24Z</time></trkpt><trkpt lat="42.81105882216032" lon="10.40463924756006"><ele>117.0</ele><time>2026-04-23T17:47:25Z</time></trkpt><trkpt lat="42.81111087157736" lon="10.404724264663882"><ele>117.0</ele><time>2026-04-23T17:47:26Z</time></trkpt><trkpt lat="42.81114328475878" lon="10.404827128868536"><ele>117.0</ele><time>2026-04-23T17:47:27Z</time></trkpt><trkpt lat="42.81115665217992" lon="10.404946040254725"><ele>112.39999999999999</ele><time>2026-04-23T17:47:28Z</time></trkpt><trkpt lat="42.81115871044587" lon="10.40506723593832"><ele>107.79999999999998</ele><time>2026-04-23T17:47:29Z</time></trkpt><trkpt lat="42.81116307807008" lon="10.405198026206623"><ele>103.2</ele><time>2026-04-23T17:47:30Z</time></trkpt><trkpt lat="42.81115962697105" lon="10.405330689918575"><ele>98.6</ele><time>2026-04-23T17:47:31Z</time></trkpt><trkpt lat="42.811139847969564" lon="10.405458121572465"><ele>94.0</ele><time>2026-04-23T17:47:32Z</time></trkpt><trkpt lat="42.81109983175311" lon="10.405572324321547"><ele>93.2</ele><time>2026-04-23T17:47:33Z</time></trkpt><trkpt lat="42.81105755767944" lon="10.40568489706888"><ele>92.4</ele><time>2026-04-23T17:47:34Z</time></trkpt><trkpt lat="42.81102446148472" lon="10.40579127147511"><ele>91.6</ele><time>2026-04-23T17:47:35Z</time></trkpt><trkpt lat="42.81101321438555" lon="10.405906046204137"><ele>90.8</ele><time>2026-04-23T17:47:36Z</time></trkpt><trkpt lat="42.811005664625945" lon="10.406035184294762"><ele>90.0</ele><time>2026-04-23T17:47:37Z</time></trkpt><trkpt lat="42.811056592237975" lon="10.40615996319204"><ele>90.0</ele><time>2026-04-23T17:47:38Z</time></trkpt><trkpt lat="42.81110074797501" lon="10.406275914192232"><ele>90.0</ele><time>2026-04-23T17:47:39Z</time></trkpt><trkpt lat="42.811147681551724" lon="10.406389317508316"><ele>90.0</ele><time>2026-04-23T17:47:40Z</time></trkpt><trkpt lat="42.81118523009959" lon="10.40650633429337"><ele>90.0</ele><time>2026-04-23T17:47:41Z</time></trkpt><trkpt lat="42.81120887339868" lon="10.406625766571134"><ele>90.0</ele><time>2026-04-23T17:47:42Z</time></trkpt><trkpt lat="42.81121475296877" lon="10.406748692043317"><ele>89.4</ele><time>2026-04-23T17:47:43Z</time></trkpt><trkpt lat="42.8111959109964" lon="10.406876675599344"><ele>88.8</ele><time>2026-04-23T17:47:44Z</time></trkpt><trkpt lat="42.81115990810348" lon="10.407004346819702"><ele>88.19999999999999</ele><time>2026-04-23T17:47:45Z</time></trkpt><trkpt lat="42.81111465614386" lon="10.407133950679505"><ele>87.6</ele><time>2026-04-23T17:47:46Z</time></trkpt><trkpt lat="42.81106862705772" lon="10.407268587106689"><ele>87.0</ele><time>2026-04-23T17:47:47Z</time></trkpt><trkpt lat="42.81102488656511" lon="10.407402967952931"><ele>89.19999999999999</ele><time>2026-04-23T17:47:48Z</time></trkpt><trkpt lat="42.8109816521083" lon="10.40753770416971"><ele>91.4</ele><time>2026-04-23T17:47:49Z</time></trkpt><trkpt lat="42.81093423823961" lon="10.407664721804803"><ele>93.6</ele><time>2026-04-23T17:47:50Z</time></trkpt><trkpt lat="42.81088589363677" lon="10.40777891269773"><ele>95.80000000000001</ele><time>2026-04-23T17:47:51Z</time></trkpt><trkpt lat="42.8108273262953" lon="10.407878661048638"><ele>98.0</ele><time>2026-04-23T17:47:52Z</time></trkpt><trkpt lat="42.81075965170021" lon="10.407972928915992"><ele>95.4</ele><time>2026-04-23T17:47:53Z</time></trkpt><trkpt lat="42.81067814297454" lon="10.408044019815005"><ele>92.80000000000001</ele><time>2026-04-23T17:47:54Z</time></trkpt><trkpt lat="42.81059104584231" lon="10.408102380073233"><ele>90.2</ele><time>2026-04-23T17:47:55Z</time></trkpt><trkpt lat="42.81049737162985" lon="10.408147937513931"><ele>87.6</ele><time>2026-04-23T17:47:56Z</time></trkpt><trkpt lat="42.81040005996304" lon="10.408192249574578"><ele>85.0</ele><time>2026-04-23T17:47:57Z</time></trkpt><trkpt lat="42.81029854390572" lon="10.408239710929566"><ele>85.0</ele><time>2026-04-23T17:47:58Z</time></trkpt><trkpt lat="42.810199847709235" lon="10.408290361921054"><ele>85.0</ele><time>2026-04-23T17:47:59Z</time></trkpt><trkpt lat="42.81010515034445" lon="10.408345248733408"><ele>85.0</ele><time>2026-04-23T17:48:00Z</time></trkpt><trkpt lat="42.81001732868309" lon="10.40839896983327"><ele>85.0</ele><time>2026-04-23T17:48:01Z</time></trkpt><trkpt lat="42.809942399431215" lon="10.40844791496493"><ele>85.0</ele><time>2026-04-23T17:48:02Z</time></trkpt><trkpt lat="42.8098754489657" lon="10.408501963797729"><ele>85.83333333333333</ele><time>2026-04-23T17:48:03Z</time></trkpt><trkpt lat="42.80982094869568" lon="10.408570515947792"><ele>86.66666666666666</ele><time>2026-04-23T17:48:04Z</time></trkpt><trkpt lat="42.809768164578756" lon="10.408636755384318"><ele>87.5</ele><time>2026-04-23T17:48:05Z</time></trkpt><trkpt lat="42.80975269591022" lon="10.408736344088249"><ele>88.33333333333333</ele><time>2026-04-23T17:48:06Z</time></trkpt><trkpt lat="42.809769036243885" lon="10.408829819188501"><ele>89.16666666666667</ele><time>2026-04-23T17:48:07Z</time></trkpt><trkpt lat="42.809830701274464" lon="10.40890771101475"><ele>90.0</ele><time>2026-04-23T17:48:08Z</time></trkpt><trkpt lat="42.80989849481368" lon="10.408966026154854"><ele>87.0</ele><time>2026-04-23T17:48:09Z</time></trkpt><trkpt lat="42.80998298545319" lon="10.409001812139625"><ele>84.0</ele><time>2026-04-23T17:48:10Z</time></trkpt><trkpt lat="42.81007648614538" lon="10.409019215998763"><ele>81.0</ele><time>2026-04-23T17:48:11Z</time></trkpt><trkpt lat="42.8101756354812" lon="10.409030124576066"><ele>78.0</ele><time>2026-04-23T17:48:12Z</time></trkpt><trkpt lat="42.81028079670006" lon="10.40904468657223"><ele>75.0</ele><time>2026-04-23T17:48:13Z</time></trkpt><trkpt lat="42.810388061519326" lon="10.409064818976297"><ele>74.4</ele><time>2026-04-23T17:48:14Z</time></trkpt><trkpt lat="42.81049399363049" lon="10.40909209374281"><ele>73.8</ele><time>2026-04-23T17:48:15Z</time></trkpt><trkpt lat="42.81059292955401" lon="10.409139986466538"><ele>73.2</ele><time>2026-04-23T17:48:16Z</time></trkpt><trkpt lat="42.810685729419696" lon="10.409203081611686"><ele>72.6</ele><time>2026-04-23T17:48:17Z</time></trkpt><trkpt lat="42.81077389340808" lon="10.40927348328097"><ele>72.0</ele><time>2026-04-23T17:48:18Z</time></trkpt><trkpt lat="42.81086739329419" lon="10.409334479185615"><ele>72.0</ele><time>2026-04-23T17:48:19Z</time></trkpt><trkpt lat="42.81097400932415" lon="10.40937498552647"><ele>72.0</ele><time>2026-04-23T17:48:20Z</time></trkpt><trkpt lat="42.81108768868695" lon="10.409396807039334"><ele>72.0</ele><time>2026-04-23T17:48:21Z</time></trkpt><trkpt lat="42.81120118365825" lon="10.40940405508346"><ele>72.0</ele><time>2026-04-23T17:48:22Z</time></trkpt><trkpt lat="42.811311949237115" lon="10.409398980420187"><ele>70.4</ele><time>2026-04-23T17:48:23Z</time></trkpt><trkpt lat="42.811417224475015" lon="10.409389056065192"><ele>68.80000000000001</ele><time>2026-04-23T17:48:24Z</time></trkpt><trkpt lat="42.811518682774754" lon="10.409360513580609"><ele>67.2</ele><time>2026-04-23T17:48:25Z</time></trkpt><trkpt lat="42.811620929173" lon="10.409300128685196"><ele>65.60000000000001</ele><time>2026-04-23T17:48:26Z</time></trkpt><trkpt lat="42.81171616976374" lon="10.409220822264118"><ele>64.0</ele><time>2026-04-23T17:48:27Z</time></trkpt><trkpt lat="42.81181144017199" lon="10.409125313047003"><ele>63.800000000000004</ele><time>2026-04-23T17:48:28Z</time></trkpt><trkpt lat="42.811901445745264" lon="10.409030913118132"><ele>63.60000000000001</ele><time>2026-04-23T17:48:29Z</time></trkpt><trkpt lat="42.81198519742819" lon="10.408939873452812"><ele>63.4</ele><time>2026-04-23T17:48:30Z</time></trkpt><trkpt lat="42.81206365873681" lon="10.408853779664959"><ele>63.2</ele><time>2026-04-23T17:48:31Z</time></trkpt><trkpt lat="42.81213752467734" lon="10.408777386220871"><ele>63.0</ele><time>2026-04-23T17:48:32Z</time></trkpt><trkpt lat="42.81220974787354" lon="10.408713015077323"><ele>63.0</ele><time>2026-04-23T17:48:33Z</time></trkpt><trkpt lat="42.81228848107708" lon="10.408670329175735"><ele>63.0</ele><time>2026-04-23T17:48:34Z</time></trkpt><trkpt lat="42.81237471685733" lon="10.408659599658868"><ele>63.0</ele><time>2026-04-23T17:48:35Z</time></trkpt><trkpt lat="42.81246234741316" lon="10.408662921494946"><ele>63.0</ele><time>2026-04-23T17:48:36Z</time></trkpt><trkpt lat="42.81254428061516" lon="10.408683643928603"><ele>63.0</ele><time>2026-04-23T17:48:37Z</time></trkpt><trkpt lat="42.8126151636991" lon="10.408719562391548"><ele>63.0</ele><time>2026-04-23T17:48:38Z</time></trkpt><trkpt lat="42.81267177151192" lon="10.408782391638132"><ele>61.599999999999994</ele><time>2026-04-23T17:48:39Z</time></trkpt><trkpt lat="42.81271294987417" lon="10.408869222833475"><ele>60.199999999999996</ele><time>2026-04-23T17:48:40Z</time></trkpt><trkpt lat="42.81273775954026" lon="10.40897944646156"><ele>58.8</ele><time>2026-04-23T17:48:41Z</time></trkpt><trkpt lat="42.81274345894559" lon="10.409107466374774"><ele>57.4</ele><time>2026-04-23T17:48:42Z</time></trkpt><trkpt lat="42.81272942326257" lon="10.409242218708938"><ele>56.0</ele><time>2026-04-23T17:48:43Z</time></trkpt><trkpt lat="42.812701335606725" lon="10.409378779098471"><ele>56.0</ele><time>2026-04-23T17:48:44Z</time></trkpt><trkpt lat="42.812673252680646" lon="10.40951216642435"><ele>55.99999999999999</ele><time>2026-04-23T17:48:45Z</time></trkpt><trkpt lat="42.81264730327647" lon="10.409637971987102"><ele>55.99999999999999</ele><time>2026-04-23T17:48:46Z</time></trkpt><trkpt lat="42.81262289016876" lon="10.409760773342658"><ele>56.0</ele><time>2026-04-23T17:48:47Z</time></trkpt><trkpt lat="42.81259928494267" lon="10.409881621431186"><ele>56.0</ele><time>2026-04-23T17:48:48Z</time></trkpt><trkpt lat="42.8125860558214" lon="10.410005723600316"><ele>55.8</ele><time>2026-04-23T17:48:49Z</time></trkpt><trkpt lat="42.81257447589175" lon="10.410128014442234"><ele>55.599999999999994</ele><time>2026-04-23T17:48:50Z</time></trkpt><trkpt lat="42.812561130241264" lon="10.410246926400674"><ele>55.4</ele><time>2026-04-23T17:48:51Z</time></trkpt><trkpt lat="42.812557413618855" lon="10.410370775213305"><ele>55.2</ele><time>2026-04-23T17:48:52Z</time></trkpt><trkpt lat="42.8125520008828" lon="10.410499143783834"><ele>55.0</ele><time>2026-04-23T17:48:53Z</time></trkpt><trkpt lat="42.81254892194193" lon="10.410626630557536"><ele>54.4</ele><time>2026-04-23T17:48:54Z</time></trkpt><trkpt lat="42.81255009333713" lon="10.410756751066765"><ele>53.8</ele><time>2026-04-23T17:48:55Z</time></trkpt><trkpt lat="42.81254966930998" lon="10.410881091309916"><ele>53.2</ele><time>2026-04-23T17:48:56Z</time></trkpt><trkpt lat="42.81254652771486" lon="10.411004920128065"><ele>52.6</ele><time>2026-04-23T17:48:57Z</time></trkpt><trkpt lat="42.812538060798644" lon="10.411126068998492"><ele>52.0</ele><time>2026-04-23T17:48:58Z</time></trkpt><trkpt lat="42.812532339709946" lon="10.411245312493563"><ele>51.2</ele><time>2026-04-23T17:48:59Z</time></trkpt><trkpt lat="42.81252750744869" lon="10.411365135564418"><ele>50.400000000000006</ele><time>2026-04-23T17:49:00Z</time></trkpt><trkpt lat="42.81252072727049" lon="10.411489256215633"><ele>49.599999999999994</ele><time>2026-04-23T17:49:01Z</time></trkpt><trkpt lat="42.812514100685746" lon="10.411613124254693"><ele>48.8</ele><time>2026-04-23T17:49:02Z</time></trkpt><trkpt lat="42.81250444404616" lon="10.411741498169462"><ele>48.0</ele><time>2026-04-23T17:49:03Z</time></trkpt><trkpt lat="42.812485387642376" lon="10.411857862209185"><ele>48.0</ele><time>2026-04-23T17:49:04Z</time></trkpt><trkpt lat="42.81244860593354" lon="10.411969955849518"><ele>48.0</ele><time>2026-04-23T17:49:05Z</time></trkpt><trkpt lat="42.812441071493026" lon="10.41209323571096"><ele>48.0</ele><time>2026-04-23T17:49:06Z</time></trkpt><trkpt lat="42.81241118114441" lon="10.412207926507348"><ele>48.0</ele><time>2026-04-23T17:49:07Z</time></trkpt><trkpt lat="42.81237902756617" lon="10.41232629817551"><ele>48.0</ele><time>2026-04-23T17:49:08Z</time></trkpt><trkpt lat="42.81234591748353" lon="10.412444757529867"><ele>46.833333333333336</ele><time>2026-04-23T17:49:09Z</time></trkpt><trkpt lat="42.81231369852755" lon="10.412561993150216"><ele>45.666666666666664</ele><time>2026-04-23T17:49:10Z</time></trkpt><trkpt lat="42.812280038760555" lon="10.412672946726843"><ele>44.5</ele><time>2026-04-23T17:49:11Z</time></trkpt><trkpt lat="42.81224894693485" lon="10.412774039074753"><ele>43.33333333333333</ele><time>2026-04-23T17:49:12Z</time></trkpt><trkpt lat="42.81222525434295" lon="10.41287752929265"><ele>42.166666666666664</ele><time>2026-04-23T17:49:13Z</time></trkpt><trkpt lat="42.81221735560586" lon="10.412991057840259"><ele>41.0</ele><time>2026-04-23T17:49:14Z</time></trkpt><trkpt lat="42.81222328799645" lon="10.413112509601804"><ele>40.199999999999996</ele><time>2026-04-23T17:49:15Z</time></trkpt><trkpt lat="42.81224468799402" lon="10.41323848260165"><ele>39.4</ele><time>2026-04-23T17:49:16Z</time></trkpt><trkpt lat="42.81226978729061" lon="10.41336474007587"><ele>38.6</ele><time>2026-04-23T17:49:17Z</time></trkpt><trkpt lat="42.812298154144536" lon="10.41349619947829"><ele>37.8</ele><time>2026-04-23T17:49:18Z</time></trkpt><trkpt lat="42.81232941299304" lon="10.413625596343993"><ele>37.0</ele><time>2026-04-23T17:49:19Z</time></trkpt><trkpt lat="42.81235650141924" lon="10.413746832637672"><ele>36.6</ele><time>2026-04-23T17:49:20Z</time></trkpt><trkpt lat="42.812389160774856" lon="10.413865724899104"><ele>36.2</ele><time>2026-04-23T17:49:21Z</time></trkpt><trkpt lat="42.81243184203021" lon="10.413990737034295"><ele>35.8</ele><time>2026-04-23T17:49:22Z</time></trkpt><trkpt lat="42.81246426901401" lon="10.414122845645693"><ele>35.4</ele><time>2026-04-23T17:49:23Z</time></trkpt><trkpt lat="42.81255274574557" lon="10.414219896770376"><ele>35.0</ele><time>2026-04-23T17:49:24Z</time></trkpt><trkpt lat="42.81262163798562" lon="10.414322020804644"><ele>35.0</ele><time>2026-04-23T17:49:25Z</time></trkpt><trkpt lat="42.812684820849334" lon="10.414414005524065"><ele>35.0</ele><time>2026-04-23T17:49:26Z</time></trkpt><trkpt lat="42.812743622342474" lon="10.414502347681037"><ele>35.0</ele><time>2026-04-23T17:49:27Z</time></trkpt><trkpt lat="42.812793321588465" lon="10.4145986306648"><ele>35.0</ele><time>2026-04-23T17:49:28Z</time></trkpt><trkpt lat="42.812811687875765" lon="10.41471123195042"><ele>35.0</ele><time>2026-04-23T17:49:29Z</time></trkpt><trkpt lat="42.812814594346776" lon="10.414837052143438"><ele>35.0</ele><time>2026-04-23T17:49:30Z</time></trkpt><trkpt lat="42.81280970855577" lon="10.414975593286798"><ele>35.0</ele><time>2026-04-23T17:49:31Z</time></trkpt><trkpt lat="42.81281529617753" lon="10.415116355021818"><ele>35.0</ele><time>2026-04-23T17:49:32Z</time></trkpt><trkpt lat="42.812822268817435" lon="10.415245724380659"><ele>35.0</ele><time>2026-04-23T17:49:33Z</time></trkpt><trkpt lat="42.81283703372894" lon="10.415364869507297"><ele>35.0</ele><time>2026-04-23T17:49:34Z</time></trkpt><trkpt lat="42.81285759559964" lon="10.415475612389887"><ele>35.0</ele><time>2026-04-23T17:49:35Z</time></trkpt><trkpt lat="42.81286449973003" lon="10.415567689024352"><ele>35.0</ele><time>2026-04-23T17:49:36Z</time></trkpt><trkpt lat="42.812962892003185" lon="10.41569577866408"><ele>34.5</ele><time>2026-04-23T17:49:38Z</time></trkpt><trkpt lat="42.81301307576912" lon="10.415776159784107"><ele>34.0</ele><time>2026-04-23T17:49:41Z</time></trkpt><trkpt lat="42.81308874970843" lon="10.41587903896097"><ele>33.5</ele><time>2026-04-23T17:50:39Z</time></trkpt><trkpt lat="42.813172023046114" lon="10.415991422893073"><ele>33.0</ele><time>2026-04-23T17:50:41Z</time></trkpt><trkpt lat="42.81321829514052" lon="10.416059648623657"><ele>32.5</ele><time>2026-04-23T17:50:42Z</time></trkpt><trkpt lat="42.8132725864092" lon="10.416137315009985"><ele>32.0</ele><time>2026-04-23T17:50:43Z</time></trkpt><trkpt lat="42.81332763032176" lon="10.416213938514582"><ele>31.999999999999996</ele><time>2026-04-23T17:50:44Z</time></trkpt><trkpt lat="42.81338485836751" lon="10.416293602445478"><ele>32.0</ele><time>2026-04-23T17:50:45Z</time></trkpt><trkpt lat="42.81344119709791" lon="10.416372028432654"><ele>32.0</ele><time>2026-04-23T17:50:46Z</time></trkpt><trkpt lat="42.8134938482671" lon="10.416445321099662"><ele>32.0</ele><time>2026-04-23T17:50:47Z</time></trkpt><trkpt lat="42.81355594392089" lon="10.416507249189968"><ele>31.999999999999996</ele><time>2026-04-23T17:50:48Z</time></trkpt><trkpt lat="42.81360628443653" lon="10.416594274656811"><ele>32.0</ele><time>2026-04-23T17:50:49Z</time></trkpt><trkpt lat="42.813657189148415" lon="10.416680401110835"><ele>32.800000000000004</ele><time>2026-04-23T17:50:50Z</time></trkpt><trkpt lat="42.813710540491236" lon="10.416774739614034"><ele>33.6</ele><time>2026-04-23T17:50:51Z</time></trkpt><trkpt lat="42.81375201529038" lon="10.41688378159123"><ele>34.400000000000006</ele><time>2026-04-23T17:50:52Z</time></trkpt><trkpt lat="42.8137866051518" lon="10.417002266130753"><ele>35.2</ele><time>2026-04-23T17:50:53Z</time></trkpt><trkpt lat="42.81382207878618" lon="10.417121987471035"><ele>36.0</ele><time>2026-04-23T17:50:54Z</time></trkpt><trkpt lat="42.813851014179974" lon="10.41724450614745"><ele>36.0</ele><time>2026-04-23T17:50:55Z</time></trkpt><trkpt lat="42.81387239719045" lon="10.417373648327443"><ele>36.0</ele><time>2026-04-23T17:50:56Z</time></trkpt><trkpt lat="42.81386335103357" lon="10.417494475412095"><ele>36.0</ele><time>2026-04-23T17:50:57Z</time></trkpt><trkpt lat="42.8138492073478" lon="10.417612050914114"><ele>36.0</ele><time>2026-04-23T17:50:58Z</time></trkpt><trkpt lat="42.81382869311593" lon="10.417731800136886"><ele>36.0</ele><time>2026-04-23T17:50:59Z</time></trkpt><trkpt lat="42.81380774357543" lon="10.41785922368471"><ele>39.0</ele><time>2026-04-23T17:51:00Z</time></trkpt><trkpt lat="42.81378232370115" lon="10.417985860347653"><ele>42.0</ele><time>2026-04-23T17:51:01Z</time></trkpt><trkpt lat="42.81374693184462" lon="10.418115425448411"><ele>45.0</ele><time>2026-04-23T17:51:02Z</time></trkpt><trkpt lat="42.813700662187" lon="10.418244229655373"><ele>48.0</ele><time>2026-04-23T17:51:03Z</time></trkpt><trkpt lat="42.81365961900639" lon="10.418384463235634"><ele>51.0</ele><time>2026-04-23T17:51:04Z</time></trkpt><trkpt lat="42.81363998506113" lon="10.41854884791029"><ele>51.0</ele><time>2026-04-23T17:51:05Z</time></trkpt><trkpt lat="42.813630925587425" lon="10.418707821073165"><ele>51.0</ele><time>2026-04-23T17:51:06Z</time></trkpt><trkpt lat="42.813619334843" lon="10.418861770939357"><ele>51.0</ele><time>2026-04-23T17:51:07Z</time></trkpt><trkpt lat="42.81359106716053" lon="10.419003397377825"><ele>51.0</ele><time>2026-04-23T17:51:08Z</time></trkpt><trkpt lat="42.813556937918385" lon="10.4191556860715"><ele>53.25</ele><time>2026-04-23T17:51:09Z</time></trkpt><trkpt lat="42.81353434398878" lon="10.419314639542847"><ele>55.5</ele><time>2026-04-23T17:51:10Z</time></trkpt><trkpt lat="42.81352336292239" lon="10.419466024628983"><ele>57.75</ele><time>2026-04-23T17:51:11Z</time></trkpt><trkpt lat="42.81353912280874" lon="10.419625660931581"><ele>60.0</ele><time>2026-04-23T17:51:12Z</time></trkpt><trkpt lat="42.813547666790164" lon="10.419786367291582"><ele>60.0</ele><time>2026-04-23T17:51:13Z</time></trkpt><trkpt lat="42.8135599554954" lon="10.419936135529024"><ele>60.0</ele><time>2026-04-23T17:51:14Z</time></trkpt><trkpt lat="42.813571160646084" lon="10.420075427804818"><ele>60.0</ele><time>2026-04-23T17:51:15Z</time></trkpt><trkpt lat="42.81359685683138" lon="10.42020876558624"><ele>60.0</ele><time>2026-04-23T17:51:16Z</time></trkpt><trkpt lat="42.81364422350083" lon="10.420338281019095"><ele>60.0</ele><time>2026-04-23T17:51:17Z</time></trkpt><trkpt lat="42.81370873179631" lon="10.420468894155087"><ele>56.0</ele><time>2026-04-23T17:51:18Z</time></trkpt><trkpt lat="42.813774809685846" lon="10.420593214856874"><ele>52.0</ele><time>2026-04-23T17:51:19Z</time></trkpt><trkpt lat="42.81382632880858" lon="10.420735463721284"><ele>48.0</ele><time>2026-04-23T17:51:20Z</time></trkpt><trkpt lat="42.81389862488305" lon="10.420849197772366"><ele>44.0</ele><time>2026-04-23T17:51:21Z</time></trkpt><trkpt lat="42.813968678448454" lon="10.420962281273187"><ele>40.0</ele><time>2026-04-23T17:51:22Z</time></trkpt><trkpt lat="42.814029565068665" lon="10.421072956353708"><ele>40.0</ele><time>2026-04-23T17:51:23Z</time></trkpt><trkpt lat="42.81408232199335" lon="10.421185957276192"><ele>40.0</ele><time>2026-04-23T17:51:24Z</time></trkpt><trkpt lat="42.81412796431871" lon="10.42129489406432"><ele>40.0</ele><time>2026-04-23T17:51:25Z</time></trkpt><trkpt lat="42.81416193738652" lon="10.421399429611775"><ele>40.0</ele><time>2026-04-23T17:51:26Z</time></trkpt><trkpt lat="42.81418647948613" lon="10.421489801737334"><ele>40.0</ele><time>2026-04-23T17:51:27Z</time></trkpt><trkpt lat="42.81422261001453" lon="10.421610706069558"><ele>40.0</ele><time>2026-04-23T17:51:29Z</time></trkpt><trkpt lat="42.81417122283226" lon="10.421719851854848"><ele>37.0</ele><time>2026-04-23T17:51:31Z</time></trkpt><trkpt lat="42.814020918335096" lon="10.421791259586735"><ele>34.0</ele><time>2026-04-23T17:51:33Z</time></trkpt><trkpt lat="42.813953404051055" lon="10.421808656664158"><ele>31.0</ele><time>2026-04-23T17:51:34Z</time></trkpt><trkpt lat="42.81387716241422" lon="10.421818240277258"><ele>28.0</ele><time>2026-04-23T17:51:35Z</time></trkpt><trkpt lat="42.813801472615786" lon="10.421831431451679"><ele>25.0</ele><time>2026-04-23T17:51:36Z</time></trkpt><trkpt lat="42.81373306126239" lon="10.421863724107165"><ele>25.000000000000004</ele><time>2026-04-23T17:51:37Z</time></trkpt><trkpt lat="42.813672109299986" lon="10.421917290101362"><ele>25.0</ele><time>2026-04-23T17:51:38Z</time></trkpt><trkpt lat="42.81361044554681" lon="10.421975617235672"><ele>25.0</ele><time>2026-04-23T17:51:39Z</time></trkpt><trkpt lat="42.81357046567295" lon="10.422061070290773"><ele>25.0</ele><time>2026-04-23T17:51:40Z</time></trkpt><trkpt lat="42.813564320284236" lon="10.42216998051978"><ele>25.0</ele><time>2026-04-23T17:51:41Z</time></trkpt><trkpt lat="42.81356035123405" lon="10.422263175587661"><ele>25.000000000000004</ele><time>2026-04-23T17:51:42Z</time></trkpt><trkpt lat="42.81355448222837" lon="10.422368823961575"><ele>25.0</ele><time>2026-04-23T17:51:43Z</time></trkpt><trkpt lat="42.813532872800195" lon="10.422465457512867"><ele>24.166666666666668</ele><time>2026-04-23T17:51:44Z</time></trkpt><trkpt lat="42.81353194054756" lon="10.42257095897325"><ele>23.333333333333336</ele><time>2026-04-23T17:51:45Z</time></trkpt><trkpt lat="42.81353291266513" lon="10.422685814011926"><ele>22.5</ele><time>2026-04-23T17:51:46Z</time></trkpt><trkpt lat="42.813535250307595" lon="10.422790322061351"><ele>21.666666666666668</ele><time>2026-04-23T17:51:47Z</time></trkpt><trkpt lat="42.81353034098967" lon="10.422902790893302"><ele>20.833333333333336</ele><time>2026-04-23T17:51:48Z</time></trkpt><trkpt lat="42.813530520972414" lon="10.423015078897802"><ele>20.0</ele><time>2026-04-23T17:51:49Z</time></trkpt><trkpt lat="42.8135290842104" lon="10.423129547817684"><ele>19.666666666666668</ele><time>2026-04-23T17:51:50Z</time></trkpt><trkpt lat="42.81352585743116" lon="10.42324976784613"><ele>19.333333333333336</ele><time>2026-04-23T17:51:51Z</time></trkpt><trkpt lat="42.8135141315582" lon="10.423363555274861"><ele>19.0</ele><time>2026-04-23T17:51:52Z</time></trkpt><trkpt lat="42.813494993943465" lon="10.423475914772133"><ele>18.666666666666668</ele><time>2026-04-23T17:51:53Z</time></trkpt><trkpt lat="42.81346442090991" lon="10.423587884765078"><ele>18.333333333333332</ele><time>2026-04-23T17:51:54Z</time></trkpt><trkpt lat="42.81341326151515" lon="10.423700098047496"><ele>18.0</ele><time>2026-04-23T17:51:55Z</time></trkpt><trkpt lat="42.81335583237912" lon="10.423809800163637"><ele>20.6</ele><time>2026-04-23T17:51:56Z</time></trkpt><trkpt lat="42.81330280644255" lon="10.423926809372785"><ele>23.200000000000003</ele><time>2026-04-23T17:51:57Z</time></trkpt><trkpt lat="42.813235641023844" lon="10.424038568147152"><ele>25.8</ele><time>2026-04-23T17:51:58Z</time></trkpt><trkpt lat="42.81318447419129" lon="10.424170903229351"><ele>28.400000000000002</ele><time>2026-04-23T17:51:59Z</time></trkpt><trkpt lat="42.81315713550693" lon="10.424304287065397"><ele>31.0</ele><time>2026-04-23T17:52:00Z</time></trkpt><trkpt lat="42.81310599359348" lon="10.424412848371215"><ele>31.000000000000004</ele><time>2026-04-23T17:52:01Z</time></trkpt><trkpt lat="42.813084120193885" lon="10.424525966092595"><ele>31.0</ele><time>2026-04-23T17:52:02Z</time></trkpt><trkpt lat="42.81304280659538" lon="10.42462584223013"><ele>31.0</ele><time>2026-04-23T17:52:03Z</time></trkpt><trkpt lat="42.81301032352071" lon="10.424732256985928"><ele>31.0</ele><time>2026-04-23T17:52:04Z</time></trkpt><trkpt lat="42.81298591984421" lon="10.424845644292816"><ele>31.000000000000004</ele><time>2026-04-23T17:52:05Z</time></trkpt><trkpt lat="42.81294454747952" lon="10.42493761215974"><ele>31.0</ele><time>2026-04-23T17:52:06Z</time></trkpt><trkpt lat="42.812916039547844" lon="10.425025438213495"><ele>29.0</ele><time>2026-04-23T17:52:07Z</time></trkpt><trkpt lat="42.81283911044709" lon="10.425149435172695"><ele>27.0</ele><time>2026-04-23T17:52:09Z</time></trkpt><trkpt lat="42.81276082459834" lon="10.425222768818848"><ele>25.0</ele><time>2026-04-23T17:52:11Z</time></trkpt><trkpt lat="42.812691848741004" lon="10.425294016002224"><ele>23.0</ele><time>2026-04-23T17:52:13Z</time></trkpt><trkpt lat="42.81262561279349" lon="10.425309905297263"><ele>21.0</ele><time>2026-04-23T17:52:15Z</time></trkpt><trkpt lat="42.812544794660894" lon="10.425380330609112"><ele>23.666666666666668</ele><time>2026-04-23T17:52:18Z</time></trkpt><trkpt lat="42.81246849420733" lon="10.425442751490872"><ele>26.333333333333336</ele><time>2026-04-23T17:52:20Z</time></trkpt><trkpt lat="42.8123860930787" lon="10.425545540362082"><ele>29.0</ele><time>2026-04-23T17:52:22Z</time></trkpt><trkpt lat="42.81236128502457" lon="10.425645143937738"><ele>31.666666666666668</ele><time>2026-04-23T17:52:23Z</time></trkpt><trkpt lat="42.81235332790948" lon="10.425757957693378"><ele>34.333333333333336</ele><time>2026-04-23T17:52:24Z</time></trkpt><trkpt lat="42.81234963191401" lon="10.425877347160514"><ele>37.0</ele><time>2026-04-23T17:52:25Z</time></trkpt><trkpt lat="42.81234524866305" lon="10.425999679861938"><ele>37.0</ele><time>2026-04-23T17:52:26Z</time></trkpt><trkpt lat="42.81234037189699" lon="10.42612869918785"><ele>37.0</ele><time>2026-04-23T17:52:27Z</time></trkpt><trkpt lat="42.81233947378583" lon="10.426256930611153"><ele>37.0</ele><time>2026-04-23T17:52:28Z</time></trkpt><trkpt lat="42.81235655967279" lon="10.426393126140896"><ele>37.0</ele><time>2026-04-23T17:52:29Z</time></trkpt><trkpt lat="42.8123893556853" lon="10.426517203129194"><ele>37.0</ele><time>2026-04-23T17:52:30Z</time></trkpt><trkpt lat="42.81244042631049" lon="10.426653491399513"><ele>37.2</ele><time>2026-04-23T17:52:31Z</time></trkpt><trkpt lat="42.81249431161256" lon="10.426780922956238"><ele>37.400000000000006</ele><time>2026-04-23T17:52:32Z</time></trkpt><trkpt lat="42.81254527479079" lon="10.42690393851038"><ele>37.599999999999994</ele><time>2026-04-23T17:52:33Z</time></trkpt><trkpt lat="42.81258886304419" lon="10.427017673053303"><ele>37.8</ele><time>2026-04-23T17:52:34Z</time></trkpt><trkpt lat="42.812632181763924" lon="10.427135844492934"><ele>38.0</ele><time>2026-04-23T17:52:35Z</time></trkpt><trkpt lat="42.81267012394968" lon="10.427245785857327"><ele>22.0</ele><time>2026-04-23T17:52:36Z</time></trkpt><trkpt lat="42.81270027880417" lon="10.427349230594375"><ele>22.0</ele><time>2026-04-23T17:52:37Z</time></trkpt><trkpt lat="42.81271694541035" lon="10.427439915397592"><ele>22.0</ele><time>2026-04-23T17:52:38Z</time></trkpt><trkpt lat="42.81273292856062" lon="10.427573621286694"><ele>22.0</ele><time>2026-04-23T17:52:40Z</time></trkpt><trkpt lat="42.81274273477461" lon="10.427666838349637"><ele>22.0</ele><time>2026-04-23T17:52:43Z</time></trkpt><trkpt lat="42.812777444547876" lon="10.427745761233021"><ele>22.0</ele><time>2026-04-23T17:54:10Z</time></trkpt></trkseg></trk></gpx>